<?xml version="1.0" encoding="UTF-8"?>
<gpx creator="Garmin Connect" version="1.1"
  xsi:schemaLocation="http://www.topografix.com/GPX/1/1 http://www.topografix.com/GPX/11.xsd"
  xmlns:ns3="http://www.garmin.com/xmlschemas/TrackPointExtension/v1"
  xmlns="http://www.topografix.com/GPX/1/1"
  xmlns:xsi="http://www.w3.org/2001/XMLSchema-instance" xmlns:ns2="http://www.garmin.com/xmlschemas/GpxExtensions/v3">
  <metadata>
    <name>RUTA CORTA - A (36,31 KM)</name>
    <link href="connect.garmin.com">
      <text>Garmin Connect</text>
    </link>
    <time>2025-02-10T16:37:16.000Z</time>
  </metadata>
  <wpt lat="41.71949359954802" lon="-4.53501380333486">
    <ele>0.0</ele>
    <name>DIVISION RUTAS</name>
    <type>GENERIC</type>
  </wpt>
  <trk>
    <name>RUTA CORTA - A (36,31 KM)</name>
    <trkseg>
      <trkpt lat="41.74156665802002" lon="-4.643890857696533">
        <ele>701.22</ele>
        <time>2025-02-10T16:37:16.000Z</time>
      </trkpt>
      <trkpt lat="41.74156674183905" lon="-4.643890857696533">
        <ele>700.9</ele>
        <time>2025-02-10T16:37:16.000Z</time>
      </trkpt>
      <trkpt lat="41.74153447151184" lon="-4.64358969591558">
        <ele>700.58</ele>
        <time>2025-02-10T16:37:16.005Z</time>
      </trkpt>
      <trkpt lat="41.741502368822694" lon="-4.643290042877197">
        <ele>700.23</ele>
        <time>2025-02-10T16:37:16.014Z</time>
      </trkpt>
      <trkpt lat="41.74145928584039" lon="-4.642945881932974">
        <ele>699.74</ele>
        <time>2025-02-10T16:37:16.028Z</time>
      </trkpt>
      <trkpt lat="41.74141628667712" lon="-4.642601804807782">
        <ele>699.22</ele>
        <time>2025-02-10T16:37:16.048Z</time>
      </trkpt>
      <trkpt lat="41.74137362278998" lon="-4.6422600746154785">
        <ele>698.76</ele>
        <time>2025-02-10T16:37:16.073Z</time>
      </trkpt>
      <trkpt lat="41.741120740771294" lon="-4.642307180911303">
        <ele>698.35</ele>
        <time>2025-02-10T16:37:16.103Z</time>
      </trkpt>
      <trkpt lat="41.74086785875261" lon="-4.642354287207127">
        <ele>697.98</ele>
        <time>2025-02-10T16:37:16.138Z</time>
      </trkpt>
      <trkpt lat="41.74061497673392" lon="-4.642401477321982">
        <ele>697.56</ele>
        <time>2025-02-10T16:37:16.178Z</time>
      </trkpt>
      <trkpt lat="41.74036209471524" lon="-4.642448583617806">
        <ele>697.22</ele>
        <time>2025-02-10T16:37:16.223Z</time>
      </trkpt>
      <trkpt lat="41.74010753631592" lon="-4.642496109008789">
        <ele>696.96</ele>
        <time>2025-02-10T16:37:16.273Z</time>
      </trkpt>
      <trkpt lat="41.74004324711859" lon="-4.642496109008789">
        <ele>696.79</ele>
        <time>2025-02-10T16:37:16.325Z</time>
      </trkpt>
      <trkpt lat="41.73987158574164" lon="-4.64247465133667">
        <ele>696.75</ele>
        <time>2025-02-10T16:37:16.380Z</time>
      </trkpt>
      <trkpt lat="41.73965013585985" lon="-4.642446069046855">
        <ele>696.84</ele>
        <time>2025-02-10T16:37:16.439Z</time>
      </trkpt>
      <trkpt lat="41.739428685978055" lon="-4.64241748675704">
        <ele>696.97</ele>
        <time>2025-02-10T16:37:16.503Z</time>
      </trkpt>
      <trkpt lat="41.739206397905946" lon="-4.642388820648193">
        <ele>697.07</ele>
        <time>2025-02-10T16:37:16.571Z</time>
      </trkpt>
      <trkpt lat="41.73897061496973" lon="-4.642356634140015">
        <ele>697.08</ele>
        <time>2025-02-10T16:37:16.644Z</time>
      </trkpt>
      <trkpt lat="41.738734329119325" lon="-4.642324447631836">
        <ele>697.1</ele>
        <time>2025-02-10T16:37:16.722Z</time>
      </trkpt>
      <trkpt lat="41.73860549926758" lon="-4.642302989959717">
        <ele>697.19</ele>
        <time>2025-02-10T16:37:16.802Z</time>
      </trkpt>
      <trkpt lat="41.73847675323486" lon="-4.642281532287598">
        <ele>697.32</ele>
        <time>2025-02-10T16:37:16.885Z</time>
      </trkpt>
      <trkpt lat="41.73824097029865" lon="-4.642249345779419">
        <ele>697.38</ele>
        <time>2025-02-10T16:37:16.973Z</time>
      </trkpt>
      <trkpt lat="41.73800468444824" lon="-4.64221715927124">
        <ele>697.48</ele>
        <time>2025-02-10T16:37:17.066Z</time>
      </trkpt>
      <trkpt lat="41.73772606998682" lon="-4.642165694385767">
        <ele>697.65</ele>
        <time>2025-02-10T16:37:17.164Z</time>
      </trkpt>
      <trkpt lat="41.7374474555254" lon="-4.642114229500294">
        <ele>697.94</ele>
        <time>2025-02-10T16:37:17.268Z</time>
      </trkpt>
      <trkpt lat="41.73716892488301" lon="-4.642062848433852">
        <ele>698.43</ele>
        <time>2025-02-10T16:37:17.377Z</time>
      </trkpt>
      <trkpt lat="41.736890310421586" lon="-4.642011383548379">
        <ele>699.22</ele>
        <time>2025-02-10T16:37:17.492Z</time>
      </trkpt>
      <trkpt lat="41.7366099357605" lon="-4.6419596672058105">
        <ele>700.68</ele>
        <time>2025-02-10T16:37:17.613Z</time>
      </trkpt>
      <trkpt lat="41.7365026473999" lon="-4.642024040222168">
        <ele>702.08</ele>
        <time>2025-02-10T16:37:17.736Z</time>
      </trkpt>
      <trkpt lat="41.73637390136719" lon="-4.6422600746154785">
        <ele>703.49</ele>
        <time>2025-02-10T16:37:17.863Z</time>
      </trkpt>
      <trkpt lat="41.73620919696987" lon="-4.642575066536665">
        <ele>704.85</ele>
        <time>2025-02-10T16:37:17.996Z</time>
      </trkpt>
      <trkpt lat="41.736044492572546" lon="-4.642890142276883">
        <ele>705.84</ele>
        <time>2025-02-10T16:37:18.135Z</time>
      </trkpt>
      <trkpt lat="41.73588037490845" lon="-4.643204212188721">
        <ele>706.79</ele>
        <time>2025-02-10T16:37:18.280Z</time>
      </trkpt>
      <trkpt lat="41.73574081622064" lon="-4.643375873565674">
        <ele>707.69</ele>
        <time>2025-02-10T16:37:18.428Z</time>
      </trkpt>
      <trkpt lat="41.7356014251709" lon="-4.643547534942627">
        <ele>708.64</ele>
        <time>2025-02-10T16:37:18.580Z</time>
      </trkpt>
      <trkpt lat="41.73551559448242" lon="-4.643526077270508">
        <ele>709.55</ele>
        <time>2025-02-10T16:37:18.734Z</time>
      </trkpt>
      <trkpt lat="41.73523664474487" lon="-4.643547534942627">
        <ele>710.52</ele>
        <time>2025-02-10T16:37:18.894Z</time>
      </trkpt>
      <trkpt lat="41.73501159064472" lon="-4.6436224691569805">
        <ele>711.43</ele>
        <time>2025-02-10T16:37:19.058Z</time>
      </trkpt>
      <trkpt lat="41.7347861174494" lon="-4.643697738647461">
        <ele>712.28</ele>
        <time>2025-02-10T16:37:19.227Z</time>
      </trkpt>
      <trkpt lat="41.73463591374457" lon="-4.6437835693359375">
        <ele>713.03</ele>
        <time>2025-02-10T16:37:19.399Z</time>
      </trkpt>
      <trkpt lat="41.73459299840033" lon="-4.643805027008057">
        <ele>713.68</ele>
        <time>2025-02-10T16:37:19.572Z</time>
      </trkpt>
      <trkpt lat="41.73438931815326" lon="-4.643869316205382">
        <ele>714.27</ele>
        <time>2025-02-10T16:37:19.749Z</time>
      </trkpt>
      <trkpt lat="41.734185218811035" lon="-4.6439337730407715">
        <ele>714.75</ele>
        <time>2025-02-10T16:37:19.930Z</time>
      </trkpt>
      <trkpt lat="41.73418530263007" lon="-4.6439337730407715">
        <ele>715.17</ele>
        <time>2025-02-10T16:37:20.111Z</time>
      </trkpt>
      <trkpt lat="41.73401355743408" lon="-4.6439337730407715">
        <ele>715.62</ele>
        <time>2025-02-10T16:37:20.296Z</time>
      </trkpt>
      <trkpt lat="41.73390635289252" lon="-4.64397668838501">
        <ele>715.96</ele>
        <time>2025-02-10T16:37:20.483Z</time>
      </trkpt>
      <trkpt lat="41.733713150024414" lon="-4.6440839767456055">
        <ele>716.22</ele>
        <time>2025-02-10T16:37:20.674Z</time>
      </trkpt>
      <trkpt lat="41.73367031849921" lon="-4.644169807434082">
        <ele>716.37</ele>
        <time>2025-02-10T16:37:20.867Z</time>
      </trkpt>
      <trkpt lat="41.733498740941286" lon="-4.644277011975646">
        <ele>716.37</ele>
        <time>2025-02-10T16:37:21.064Z</time>
      </trkpt>
      <trkpt lat="41.73332691192627" lon="-4.644384384155273">
        <ele>716.29</ele>
        <time>2025-02-10T16:37:21.264Z</time>
      </trkpt>
      <trkpt lat="41.73324108123779" lon="-4.644405841827393">
        <ele>716.22</ele>
        <time>2025-02-10T16:37:21.466Z</time>
      </trkpt>
      <trkpt lat="41.73302658833563" lon="-4.644362926483154">
        <ele>716.16</ele>
        <time>2025-02-10T16:37:21.672Z</time>
      </trkpt>
      <trkpt lat="41.7328763846308" lon="-4.6442341804504395">
        <ele>716.12</ele>
        <time>2025-02-10T16:37:21.882Z</time>
      </trkpt>
      <trkpt lat="41.73281192779541" lon="-4.644169807434082">
        <ele>716.05</ele>
        <time>2025-02-10T16:37:22.094Z</time>
      </trkpt>
      <trkpt lat="41.73266180790961" lon="-4.644105434417725">
        <ele>715.94</ele>
        <time>2025-02-10T16:37:22.309Z</time>
      </trkpt>
      <trkpt lat="41.732468605041504" lon="-4.644169807434082">
        <ele>715.73</ele>
        <time>2025-02-10T16:37:22.528Z</time>
      </trkpt>
      <trkpt lat="41.7324551101774" lon="-4.644156312569976">
        <ele>715.58</ele>
        <time>2025-02-10T16:37:22.747Z</time>
      </trkpt>
      <trkpt lat="41.73246156424284" lon="-4.644143488258123">
        <ele>715.27</ele>
        <time>2025-02-10T16:37:22.966Z</time>
      </trkpt>
      <trkpt lat="41.7324601393193" lon="-4.644142985343933">
        <ele>715.11</ele>
        <time>2025-02-10T16:37:23.185Z</time>
      </trkpt>
      <trkpt lat="41.73245075158775" lon="-4.644139716401696">
        <ele>714.95</ele>
        <time>2025-02-10T16:37:23.405Z</time>
      </trkpt>
      <trkpt lat="41.73244119621813" lon="-4.644136447459459">
        <ele>714.8</ele>
        <time>2025-02-10T16:37:23.625Z</time>
      </trkpt>
      <trkpt lat="41.7324326466769" lon="-4.644133513793349">
        <ele>714.51</ele>
        <time>2025-02-10T16:37:23.845Z</time>
      </trkpt>
      <trkpt lat="41.73243113793433" lon="-4.644131502136588">
        <ele>714.37</ele>
        <time>2025-02-10T16:37:24.065Z</time>
      </trkpt>
      <trkpt lat="41.73243071883917" lon="-4.644130999222398">
        <ele>714.25</ele>
        <time>2025-02-10T16:37:24.285Z</time>
      </trkpt>
      <trkpt lat="41.732429629191756" lon="-4.644129574298859">
        <ele>714.13</ele>
        <time>2025-02-10T16:37:24.505Z</time>
      </trkpt>
      <trkpt lat="41.732422756031156" lon="-4.64412035420537">
        <ele>714.02</ele>
        <time>2025-02-10T16:37:24.725Z</time>
      </trkpt>
      <trkpt lat="41.73241579905152" lon="-4.644110966473818">
        <ele>713.91</ele>
        <time>2025-02-10T16:37:24.945Z</time>
      </trkpt>
      <trkpt lat="41.732413955032825" lon="-4.644108535721898">
        <ele>713.82</ele>
        <time>2025-02-10T16:37:25.165Z</time>
      </trkpt>
      <trkpt lat="41.732409596443176" lon="-4.644102668389678">
        <ele>713.72</ele>
        <time>2025-02-10T16:37:25.386Z</time>
      </trkpt>
      <trkpt lat="41.73240548931062" lon="-4.644099147990346">
        <ele>713.63</ele>
        <time>2025-02-10T16:37:25.607Z</time>
      </trkpt>
      <trkpt lat="41.73240498639643" lon="-4.644098728895187">
        <ele>713.55</ele>
        <time>2025-02-10T16:37:25.828Z</time>
      </trkpt>
      <trkpt lat="41.732403729110956" lon="-4.644097639247775">
        <ele>713.46</ele>
        <time>2025-02-10T16:37:26.049Z</time>
      </trkpt>
      <trkpt lat="41.732395431026816" lon="-4.644090598449111">
        <ele>713.38</ele>
        <time>2025-02-10T16:37:26.270Z</time>
      </trkpt>
      <trkpt lat="41.732387049123645" lon="-4.644083473831415">
        <ele>713.3</ele>
        <time>2025-02-10T16:37:26.491Z</time>
      </trkpt>
      <trkpt lat="41.73237958922982" lon="-4.644077103585005">
        <ele>713.22</ele>
        <time>2025-02-10T16:37:26.712Z</time>
      </trkpt>
      <trkpt lat="41.73237464390695" lon="-4.644077103585005">
        <ele>713.14</ele>
        <time>2025-02-10T16:37:26.933Z</time>
      </trkpt>
      <trkpt lat="41.73236349597573" lon="-4.644077103585005">
        <ele>713.05</ele>
        <time>2025-02-10T16:37:27.155Z</time>
      </trkpt>
      <trkpt lat="41.73236290924251" lon="-4.644077103585005">
        <ele>712.96</ele>
        <time>2025-02-10T16:37:27.377Z</time>
      </trkpt>
      <trkpt lat="41.73236140049994" lon="-4.644077103585005">
        <ele>712.87</ele>
        <time>2025-02-10T16:37:27.599Z</time>
      </trkpt>
      <trkpt lat="41.7323515098542" lon="-4.644077103585005">
        <ele>712.78</ele>
        <time>2025-02-10T16:37:27.821Z</time>
      </trkpt>
      <trkpt lat="41.73234145157039" lon="-4.644077103585005">
        <ele>712.68</ele>
        <time>2025-02-10T16:37:28.043Z</time>
      </trkpt>
      <trkpt lat="41.732332482934" lon="-4.644077103585005">
        <ele>712.57</ele>
        <time>2025-02-10T16:37:28.265Z</time>
      </trkpt>
      <trkpt lat="41.73220993950963" lon="-4.644115911796689">
        <ele>712.39</ele>
        <time>2025-02-10T16:37:28.490Z</time>
      </trkpt>
      <trkpt lat="41.732198875397444" lon="-4.644119432196021">
        <ele>712.26</ele>
        <time>2025-02-10T16:37:28.715Z</time>
      </trkpt>
      <trkpt lat="41.73219837248325" lon="-4.644119683653116">
        <ele>712.13</ele>
        <time>2025-02-10T16:37:28.940Z</time>
      </trkpt>
      <trkpt lat="41.732196947559714" lon="-4.6441201865673065">
        <ele>712.0</ele>
        <time>2025-02-10T16:37:29.165Z</time>
      </trkpt>
      <trkpt lat="41.732187140733004" lon="-4.644123371690512">
        <ele>711.87</ele>
        <time>2025-02-10T16:37:29.390Z</time>
      </trkpt>
      <trkpt lat="41.73217716626823" lon="-4.644126556813717">
        <ele>711.73</ele>
        <time>2025-02-10T16:37:29.615Z</time>
      </trkpt>
      <trkpt lat="41.73216828145087" lon="-4.644129490479827">
        <ele>711.59</ele>
        <time>2025-02-10T16:37:29.841Z</time>
      </trkpt>
      <trkpt lat="41.732145650312304" lon="-4.644127478823066">
        <ele>711.45</ele>
        <time>2025-02-10T16:37:30.067Z</time>
      </trkpt>
      <trkpt lat="41.732134418562055" lon="-4.644126556813717">
        <ele>711.31</ele>
        <time>2025-02-10T16:37:30.293Z</time>
      </trkpt>
      <trkpt lat="41.73213383182883" lon="-4.644126556813717">
        <ele>711.17</ele>
        <time>2025-02-10T16:37:30.519Z</time>
      </trkpt>
      <trkpt lat="41.73213232308626" lon="-4.644126472994685">
        <ele>711.04</ele>
        <time>2025-02-10T16:37:30.745Z</time>
      </trkpt>
      <trkpt lat="41.73212234862149" lon="-4.644125634804368">
        <ele>710.9</ele>
        <time>2025-02-10T16:37:30.972Z</time>
      </trkpt>
      <trkpt lat="41.73211220651865" lon="-4.644124796614051">
        <ele>710.77</ele>
        <time>2025-02-10T16:37:31.199Z</time>
      </trkpt>
      <trkpt lat="41.73210323788226" lon="-4.644124126061797">
        <ele>710.63</ele>
        <time>2025-02-10T16:37:31.426Z</time>
      </trkpt>
      <trkpt lat="41.7320732306689" lon="-4.6441166661679745">
        <ele>710.5</ele>
        <time>2025-02-10T16:37:31.654Z</time>
      </trkpt>
      <trkpt lat="41.732062166556716" lon="-4.64411398395896">
        <ele>710.37</ele>
        <time>2025-02-10T16:37:31.882Z</time>
      </trkpt>
      <trkpt lat="41.732061579823494" lon="-4.644113900139928">
        <ele>710.24</ele>
        <time>2025-02-10T16:37:32.110Z</time>
      </trkpt>
      <trkpt lat="41.73206007108092" lon="-4.644113564863801">
        <ele>710.12</ele>
        <time>2025-02-10T16:37:32.338Z</time>
      </trkpt>
      <trkpt lat="41.73205018043518" lon="-4.644111217930913">
        <ele>710.0</ele>
        <time>2025-02-10T16:37:32.566Z</time>
      </trkpt>
      <trkpt lat="41.732040122151375" lon="-4.644108787178993">
        <ele>709.89</ele>
        <time>2025-02-10T16:37:32.794Z</time>
      </trkpt>
      <trkpt lat="41.73203115351498" lon="-4.6441066917032">
        <ele>709.77</ele>
        <time>2025-02-10T16:37:33.022Z</time>
      </trkpt>
      <trkpt lat="41.731970803812146" lon="-4.644097136333585">
        <ele>709.66</ele>
        <time>2025-02-10T16:37:33.252Z</time>
      </trkpt>
      <trkpt lat="41.731959488242865" lon="-4.644095376133919">
        <ele>709.55</ele>
        <time>2025-02-10T16:37:33.482Z</time>
      </trkpt>
      <trkpt lat="41.73195890150964" lon="-4.644095292314887">
        <ele>709.46</ele>
        <time>2025-02-10T16:37:33.712Z</time>
      </trkpt>
      <trkpt lat="41.7319574765861" lon="-4.644095124676824">
        <ele>709.36</ele>
        <time>2025-02-10T16:37:33.942Z</time>
      </trkpt>
      <trkpt lat="41.731947334483266" lon="-4.644093615934253">
        <ele>709.28</ele>
        <time>2025-02-10T16:37:34.172Z</time>
      </trkpt>
      <trkpt lat="41.7319371085614" lon="-4.64409202337265">
        <ele>709.19</ele>
        <time>2025-02-10T16:37:34.402Z</time>
      </trkpt>
      <trkpt lat="41.73192797228694" lon="-4.644090598449111">
        <ele>709.12</ele>
        <time>2025-02-10T16:37:34.632Z</time>
      </trkpt>
      <trkpt lat="41.73185924068093" lon="-4.644092861562967">
        <ele>709.04</ele>
        <time>2025-02-10T16:37:34.864Z</time>
      </trkpt>
      <trkpt lat="41.73184775747359" lon="-4.644093280658126">
        <ele>708.97</ele>
        <time>2025-02-10T16:37:35.096Z</time>
      </trkpt>
      <trkpt lat="41.731847170740366" lon="-4.644093364477158">
        <ele>708.91</ele>
        <time>2025-02-10T16:37:35.328Z</time>
      </trkpt>
      <trkpt lat="41.73184574581683" lon="-4.644093448296189">
        <ele>708.86</ele>
        <time>2025-02-10T16:37:35.560Z</time>
      </trkpt>
      <trkpt lat="41.731835436075926" lon="-4.644093867391348">
        <ele>708.82</ele>
        <time>2025-02-10T16:37:35.792Z</time>
      </trkpt>
      <trkpt lat="41.73182504251599" lon="-4.6440942864865065">
        <ele>708.78</ele>
        <time>2025-02-10T16:37:36.025Z</time>
      </trkpt>
      <trkpt lat="41.731815906241536" lon="-4.644094621762633">
        <ele>708.75</ele>
        <time>2025-02-10T16:37:36.258Z</time>
      </trkpt>
      <trkpt lat="41.73180375248194" lon="-4.6440892573446035">
        <ele>708.73</ele>
        <time>2025-02-10T16:37:36.491Z</time>
      </trkpt>
      <trkpt lat="41.731792939826846" lon="-4.6440845634788275">
        <ele>708.72</ele>
        <time>2025-02-10T16:37:36.724Z</time>
      </trkpt>
      <trkpt lat="41.731792436912656" lon="-4.644084395840764">
        <ele>708.72</ele>
        <time>2025-02-10T16:37:36.957Z</time>
      </trkpt>
      <trkpt lat="41.73179101198912" lon="-4.644083809107542">
        <ele>708.73</ele>
        <time>2025-02-10T16:37:37.190Z</time>
      </trkpt>
      <trkpt lat="41.73178128898144" lon="-4.644079618155956">
        <ele>708.75</ele>
        <time>2025-02-10T16:37:37.423Z</time>
      </trkpt>
      <trkpt lat="41.73177148215473" lon="-4.6440754272043705">
        <ele>708.78</ele>
        <time>2025-02-10T16:37:37.657Z</time>
      </trkpt>
      <trkpt lat="41.73176276497543" lon="-4.644071739166975">
        <ele>708.81</ele>
        <time>2025-02-10T16:37:37.891Z</time>
      </trkpt>
      <trkpt lat="41.73175496980548" lon="-4.6440341882407665">
        <ele>708.87</ele>
        <time>2025-02-10T16:37:38.125Z</time>
      </trkpt>
      <trkpt lat="41.73175195232034" lon="-4.644019603729248">
        <ele>708.94</ele>
        <time>2025-02-10T16:37:38.360Z</time>
      </trkpt>
      <trkpt lat="41.731751784682274" lon="-4.644018849357963">
        <ele>709.01</ele>
        <time>2025-02-10T16:37:38.595Z</time>
      </trkpt>
      <trkpt lat="41.73175144940615" lon="-4.644016921520233">
        <ele>709.09</ele>
        <time>2025-02-10T16:37:38.830Z</time>
      </trkpt>
      <trkpt lat="41.73174876719713" lon="-4.644003929570317">
        <ele>709.19</ele>
        <time>2025-02-10T16:37:39.065Z</time>
      </trkpt>
      <trkpt lat="41.73174608498812" lon="-4.643990769982338">
        <ele>709.29</ele>
        <time>2025-02-10T16:37:39.300Z</time>
      </trkpt>
      <trkpt lat="41.73174373805523" lon="-4.643979202955961">
        <ele>709.41</ele>
        <time>2025-02-10T16:37:39.535Z</time>
      </trkpt>
      <trkpt lat="41.731742564588785" lon="-4.643963947892189">
        <ele>709.53</ele>
        <time>2025-02-10T16:37:39.771Z</time>
      </trkpt>
      <trkpt lat="41.73174147494137" lon="-4.6439487766474485">
        <ele>709.67</ele>
        <time>2025-02-10T16:37:40.007Z</time>
      </trkpt>
      <trkpt lat="41.73174147494137" lon="-4.643948022276163">
        <ele>709.81</ele>
        <time>2025-02-10T16:37:40.243Z</time>
      </trkpt>
      <trkpt lat="41.73174139112234" lon="-4.643946010619402">
        <ele>709.97</ele>
        <time>2025-02-10T16:37:40.479Z</time>
      </trkpt>
      <trkpt lat="41.73174046911299" lon="-4.643932515755296">
        <ele>710.13</ele>
        <time>2025-02-10T16:37:40.715Z</time>
      </trkpt>
      <trkpt lat="41.73173954710364" lon="-4.643918769434094">
        <ele>710.31</ele>
        <time>2025-02-10T16:37:40.951Z</time>
      </trkpt>
      <trkpt lat="41.73173879273236" lon="-4.643906699493527">
        <ele>710.49</ele>
        <time>2025-02-10T16:37:41.187Z</time>
      </trkpt>
      <trkpt lat="41.73174390569329" lon="-4.643879206851125">
        <ele>710.69</ele>
        <time>2025-02-10T16:37:41.424Z</time>
      </trkpt>
      <trkpt lat="41.73174667172134" lon="-4.643864454701543">
        <ele>710.89</ele>
        <time>2025-02-10T16:37:41.661Z</time>
      </trkpt>
      <trkpt lat="41.7317468393594" lon="-4.643863700330257">
        <ele>711.09</ele>
        <time>2025-02-10T16:37:41.898Z</time>
      </trkpt>
      <trkpt lat="41.73174725845456" lon="-4.643861772492528">
        <ele>711.29</ele>
        <time>2025-02-10T16:37:42.135Z</time>
      </trkpt>
      <trkpt lat="41.731749856844544" lon="-4.643848612904549">
        <ele>711.51</ele>
        <time>2025-02-10T16:37:42.372Z</time>
      </trkpt>
      <trkpt lat="41.73175245523453" lon="-4.643835285678506">
        <ele>711.73</ele>
        <time>2025-02-10T16:37:42.609Z</time>
      </trkpt>
      <trkpt lat="41.731754802167416" lon="-4.643823467195034">
        <ele>711.95</ele>
        <time>2025-02-10T16:37:42.847Z</time>
      </trkpt>
      <trkpt lat="41.73179034143686" lon="-4.6436654683202505">
        <ele>712.27</ele>
        <time>2025-02-10T16:37:43.087Z</time>
      </trkpt>
      <trkpt lat="41.7317936103791" lon="-4.643651219084859">
        <ele>712.5</ele>
        <time>2025-02-10T16:37:43.327Z</time>
      </trkpt>
      <trkpt lat="41.731793861836195" lon="-4.6436504647135735">
        <ele>712.73</ele>
        <time>2025-02-10T16:37:43.567Z</time>
      </trkpt>
      <trkpt lat="41.731794364750385" lon="-4.643648620694876">
        <ele>712.95</ele>
        <time>2025-02-10T16:37:43.807Z</time>
      </trkpt>
      <trkpt lat="41.731797298416495" lon="-4.643635796383023">
        <ele>713.17</ele>
        <time>2025-02-10T16:37:44.048Z</time>
      </trkpt>
      <trkpt lat="41.731800232082605" lon="-4.643622888252139">
        <ele>713.4</ele>
        <time>2025-02-10T16:37:44.289Z</time>
      </trkpt>
      <trkpt lat="41.73180148936808" lon="-4.643617020919919">
        <ele>713.61</ele>
        <time>2025-02-10T16:37:44.530Z</time>
      </trkpt>
      <trkpt lat="41.73180283047259" lon="-4.643611488863826">
        <ele>713.82</ele>
        <time>2025-02-10T16:37:44.771Z</time>
      </trkpt>
      <trkpt lat="41.73180836252868" lon="-4.643605537712574">
        <ele>714.03</ele>
        <time>2025-02-10T16:37:45.012Z</time>
      </trkpt>
      <trkpt lat="41.73180886544287" lon="-4.643605034798384">
        <ele>714.23</ele>
        <time>2025-02-10T16:37:45.253Z</time>
      </trkpt>
      <trkpt lat="41.731810038909316" lon="-4.64360386133194">
        <ele>714.42</ele>
        <time>2025-02-10T16:37:45.494Z</time>
      </trkpt>
      <trkpt lat="41.73181816935539" lon="-4.643595395609736">
        <ele>714.62</ele>
        <time>2025-02-10T16:37:45.735Z</time>
      </trkpt>
      <trkpt lat="41.73182646743953" lon="-4.6435868460685015">
        <ele>714.81</ele>
        <time>2025-02-10T16:37:45.977Z</time>
      </trkpt>
      <trkpt lat="41.73182914964855" lon="-4.643583996221423">
        <ele>714.99</ele>
        <time>2025-02-10T16:37:46.219Z</time>
      </trkpt>
      <trkpt lat="41.731833927333355" lon="-4.643579218536615">
        <ele>715.17</ele>
        <time>2025-02-10T16:37:46.461Z</time>
      </trkpt>
      <trkpt lat="41.731839291751385" lon="-4.643577290698886">
        <ele>715.35</ele>
        <time>2025-02-10T16:37:46.703Z</time>
      </trkpt>
      <trkpt lat="41.73183987848461" lon="-4.6435771230608225">
        <ele>715.51</ele>
        <time>2025-02-10T16:37:46.945Z</time>
      </trkpt>
      <trkpt lat="41.73184138722718" lon="-4.643576703965664">
        <ele>715.68</ele>
        <time>2025-02-10T16:37:47.187Z</time>
      </trkpt>
      <trkpt lat="41.73185144551098" lon="-4.643573435023427">
        <ele>715.84</ele>
        <time>2025-02-10T16:37:47.429Z</time>
      </trkpt>
      <trkpt lat="41.731861755251884" lon="-4.643570082262158">
        <ele>716.0</ele>
        <time>2025-02-10T16:37:47.671Z</time>
      </trkpt>
      <trkpt lat="41.73187097534537" lon="-4.643567148596048">
        <ele>716.16</ele>
        <time>2025-02-10T16:37:47.914Z</time>
      </trkpt>
      <trkpt lat="41.731883715838194" lon="-4.643565807491541">
        <ele>716.32</ele>
        <time>2025-02-10T16:37:48.157Z</time>
      </trkpt>
      <trkpt lat="41.73189528286457" lon="-4.643564634025097">
        <ele>716.47</ele>
        <time>2025-02-10T16:37:48.400Z</time>
      </trkpt>
      <trkpt lat="41.73189586959779" lon="-4.643564634025097">
        <ele>716.61</ele>
        <time>2025-02-10T16:37:48.643Z</time>
      </trkpt>
      <trkpt lat="41.73189737834036" lon="-4.643564550206065">
        <ele>716.74</ele>
        <time>2025-02-10T16:37:48.886Z</time>
      </trkpt>
      <trkpt lat="41.73190785571933" lon="-4.643563628196716">
        <ele>716.88</ele>
        <time>2025-02-10T16:37:49.129Z</time>
      </trkpt>
      <trkpt lat="41.731918500736356" lon="-4.643562622368336">
        <ele>717.02</ele>
        <time>2025-02-10T16:37:49.372Z</time>
      </trkpt>
      <trkpt lat="41.73192797228694" lon="-4.643561784178019">
        <ele>717.15</ele>
        <time>2025-02-10T16:37:49.616Z</time>
      </trkpt>
      <trkpt lat="41.73199754208326" lon="-4.643551642075181">
        <ele>717.31</ele>
        <time>2025-02-10T16:37:49.861Z</time>
      </trkpt>
      <trkpt lat="41.73200919292867" lon="-4.643550049513578">
        <ele>717.44</ele>
        <time>2025-02-10T16:37:50.106Z</time>
      </trkpt>
      <trkpt lat="41.732009779661894" lon="-4.643550049513578">
        <ele>717.55</ele>
        <time>2025-02-10T16:37:50.351Z</time>
      </trkpt>
      <trkpt lat="41.732011288404465" lon="-4.643549881875515">
        <ele>717.66</ele>
        <time>2025-02-10T16:37:50.596Z</time>
      </trkpt>
      <trkpt lat="41.73202184960246" lon="-4.643548456951976">
        <ele>717.77</ele>
        <time>2025-02-10T16:37:50.842Z</time>
      </trkpt>
      <trkpt lat="41.73203249461949" lon="-4.643547032028437">
        <ele>717.87</ele>
        <time>2025-02-10T16:37:51.088Z</time>
      </trkpt>
      <trkpt lat="41.732042133808136" lon="-4.643545690923929">
        <ele>717.97</ele>
        <time>2025-02-10T16:37:51.334Z</time>
      </trkpt>
      <trkpt lat="41.732048923149705" lon="-4.643543343991041">
        <ele>718.06</ele>
        <time>2025-02-10T16:37:51.580Z</time>
      </trkpt>
      <trkpt lat="41.73206023871899" lon="-4.643539655953646">
        <ele>718.16</ele>
        <time>2025-02-10T16:37:51.826Z</time>
      </trkpt>
      <trkpt lat="41.73206082545221" lon="-4.643539488315582">
        <ele>718.24</ele>
        <time>2025-02-10T16:37:52.072Z</time>
      </trkpt>
      <trkpt lat="41.73206233419478" lon="-4.643539069220424">
        <ele>718.32</ele>
        <time>2025-02-10T16:37:52.318Z</time>
      </trkpt>
      <trkpt lat="41.73207256011665" lon="-4.643535800278187">
        <ele>718.4</ele>
        <time>2025-02-10T16:37:52.565Z</time>
      </trkpt>
      <trkpt lat="41.73208286985755" lon="-4.64353253133595">
        <ele>718.48</ele>
        <time>2025-02-10T16:37:52.812Z</time>
      </trkpt>
      <trkpt lat="41.7320922575891" lon="-4.64352959766984">
        <ele>718.56</ele>
        <time>2025-02-10T16:37:53.059Z</time>
      </trkpt>
      <trkpt lat="41.732104159891605" lon="-4.643520629033446">
        <ele>718.63</ele>
        <time>2025-02-10T16:37:53.306Z</time>
      </trkpt>
      <trkpt lat="41.732114385813475" lon="-4.64351300150156">
        <ele>718.7</ele>
        <time>2025-02-10T16:37:53.553Z</time>
      </trkpt>
      <trkpt lat="41.7321149725467" lon="-4.643512666225433">
        <ele>718.77</ele>
        <time>2025-02-10T16:37:53.801Z</time>
      </trkpt>
      <trkpt lat="41.73211622983217" lon="-4.6435117442160845">
        <ele>718.83</ele>
        <time>2025-02-10T16:37:54.049Z</time>
      </trkpt>
      <trkpt lat="41.73212553374469" lon="-4.6435049548745155">
        <ele>718.9</ele>
        <time>2025-02-10T16:37:54.297Z</time>
      </trkpt>
      <trkpt lat="41.73213483765721" lon="-4.643498165532947">
        <ele>718.96</ele>
        <time>2025-02-10T16:37:54.545Z</time>
      </trkpt>
      <trkpt lat="41.73214330337942" lon="-4.643492046743631">
        <ele>719.03</ele>
        <time>2025-02-10T16:37:54.793Z</time>
      </trkpt>
      <trkpt lat="41.73214732669294" lon="-4.643487520515919">
        <ele>719.09</ele>
        <time>2025-02-10T16:37:55.041Z</time>
      </trkpt>
      <trkpt lat="41.732156462967396" lon="-4.643477629870176">
        <ele>719.15</ele>
        <time>2025-02-10T16:37:55.289Z</time>
      </trkpt>
      <trkpt lat="41.732156965881586" lon="-4.643477210775018">
        <ele>719.2</ele>
        <time>2025-02-10T16:37:55.538Z</time>
      </trkpt>
      <trkpt lat="41.73215813934803" lon="-4.643476037308574">
        <ele>719.26</ele>
        <time>2025-02-10T16:37:55.787Z</time>
      </trkpt>
      <trkpt lat="41.73216643743217" lon="-4.643467236310244">
        <ele>719.31</ele>
        <time>2025-02-10T16:37:56.036Z</time>
      </trkpt>
      <trkpt lat="41.73217473551631" lon="-4.6434584353119135">
        <ele>719.37</ele>
        <time>2025-02-10T16:37:56.285Z</time>
      </trkpt>
      <trkpt lat="41.732182363048196" lon="-4.643450388684869">
        <ele>719.42</ele>
        <time>2025-02-10T16:37:56.534Z</time>
      </trkpt>
      <trkpt lat="41.73218294978142" lon="-4.643449215218425">
        <ele>719.47</ele>
        <time>2025-02-10T16:37:56.783Z</time>
      </trkpt>
      <trkpt lat="41.732190074399114" lon="-4.643436726182699">
        <ele>719.52</ele>
        <time>2025-02-10T16:37:57.032Z</time>
      </trkpt>
      <trkpt lat="41.73219049349427" lon="-4.643436139449477">
        <ele>719.57</ele>
        <time>2025-02-10T16:37:57.281Z</time>
      </trkpt>
      <trkpt lat="41.73219141550362" lon="-4.643434630706906">
        <ele>719.61</ele>
        <time>2025-02-10T16:37:57.530Z</time>
      </trkpt>
      <trkpt lat="41.73219786956906" lon="-4.643423482775688">
        <ele>719.66</ele>
        <time>2025-02-10T16:37:57.780Z</time>
      </trkpt>
      <trkpt lat="41.73220440745354" lon="-4.643412251025438">
        <ele>719.7</ele>
        <time>2025-02-10T16:37:58.030Z</time>
      </trkpt>
      <trkpt lat="41.73221035860479" lon="-4.643402108922601">
        <ele>719.75</ele>
        <time>2025-02-10T16:37:58.280Z</time>
      </trkpt>
      <trkpt lat="41.732211699709296" lon="-4.643396409228444">
        <ele>719.78</ele>
        <time>2025-02-10T16:37:58.530Z</time>
      </trkpt>
      <trkpt lat="41.73221547156572" lon="-4.643381489440799">
        <ele>719.82</ele>
        <time>2025-02-10T16:37:58.780Z</time>
      </trkpt>
      <trkpt lat="41.73221572302282" lon="-4.643380735069513">
        <ele>719.85</ele>
        <time>2025-02-10T16:37:59.030Z</time>
      </trkpt>
      <trkpt lat="41.73221622593701" lon="-4.643378891050816">
        <ele>719.88</ele>
        <time>2025-02-10T16:37:59.280Z</time>
      </trkpt>
      <trkpt lat="41.73221966251731" lon="-4.643365563824773">
        <ele>719.91</ele>
        <time>2025-02-10T16:37:59.531Z</time>
      </trkpt>
      <trkpt lat="41.73222309909761" lon="-4.643352152779698">
        <ele>719.94</ele>
        <time>2025-02-10T16:37:59.782Z</time>
      </trkpt>
      <trkpt lat="41.732226284220815" lon="-4.643339915201068">
        <ele>719.96</ele>
        <time>2025-02-10T16:38:00.033Z</time>
      </trkpt>
      <trkpt lat="41.73222368583083" lon="-4.643308063969016">
        <ele>719.98</ele>
        <time>2025-02-10T16:38:00.285Z</time>
      </trkpt>
      <trkpt lat="41.732222428545356" lon="-4.643292389810085">
        <ele>720.0</ele>
        <time>2025-02-10T16:38:00.537Z</time>
      </trkpt>
      <trkpt lat="41.732222428545356" lon="-4.6432916354388">
        <ele>720.01</ele>
        <time>2025-02-10T16:38:00.789Z</time>
      </trkpt>
      <trkpt lat="41.732222344726324" lon="-4.643289623782039">
        <ele>720.02</ele>
        <time>2025-02-10T16:38:01.041Z</time>
      </trkpt>
      <trkpt lat="41.73222133889794" lon="-4.643275626003742">
        <ele>720.02</ele>
        <time>2025-02-10T16:38:01.293Z</time>
      </trkpt>
      <trkpt lat="41.73222024925053" lon="-4.643262382596731">
        <ele>720.03</ele>
        <time>2025-02-10T16:38:01.545Z</time>
      </trkpt>
      <trkpt lat="41.73222024925053" lon="-4.643261460587382">
        <ele>720.02</ele>
        <time>2025-02-10T16:38:01.797Z</time>
      </trkpt>
      <trkpt lat="41.73221932724118" lon="-4.64324863627553">
        <ele>720.02</ele>
        <time>2025-02-10T16:38:02.049Z</time>
      </trkpt>
      <trkpt lat="41.73221874050796" lon="-4.643246876075864">
        <ele>720.01</ele>
        <time>2025-02-10T16:38:02.301Z</time>
      </trkpt>
      <trkpt lat="41.732218489050865" lon="-4.643246121704578">
        <ele>720.0</ele>
        <time>2025-02-10T16:38:02.553Z</time>
      </trkpt>
      <trkpt lat="41.732217986136675" lon="-4.643244277685881">
        <ele>719.99</ele>
        <time>2025-02-10T16:38:02.805Z</time>
      </trkpt>
      <trkpt lat="41.73221396282315" lon="-4.643231118097901">
        <ele>719.97</ele>
        <time>2025-02-10T16:38:03.058Z</time>
      </trkpt>
      <trkpt lat="41.73220993950963" lon="-4.643217790871859">
        <ele>719.96</ele>
        <time>2025-02-10T16:38:03.311Z</time>
      </trkpt>
      <trkpt lat="41.732206251472235" lon="-4.643205720931292">
        <ele>719.94</ele>
        <time>2025-02-10T16:38:03.564Z</time>
      </trkpt>
      <trkpt lat="41.73220549710095" lon="-4.643204463645816">
        <ele>719.92</ele>
        <time>2025-02-10T16:38:03.817Z</time>
      </trkpt>
      <trkpt lat="41.73219803720713" lon="-4.643192142248154">
        <ele>719.89</ele>
        <time>2025-02-10T16:38:04.070Z</time>
      </trkpt>
      <trkpt lat="41.732197701931" lon="-4.6431914716959">
        <ele>719.87</ele>
        <time>2025-02-10T16:38:04.323Z</time>
      </trkpt>
      <trkpt lat="41.73219677992165" lon="-4.643189962953329">
        <ele>719.85</ele>
        <time>2025-02-10T16:38:04.576Z</time>
      </trkpt>
      <trkpt lat="41.732190158218145" lon="-4.643178898841143">
        <ele>719.82</ele>
        <time>2025-02-10T16:38:04.830Z</time>
      </trkpt>
      <trkpt lat="41.732183368876576" lon="-4.643167583271861">
        <ele>719.8</ele>
        <time>2025-02-10T16:38:05.084Z</time>
      </trkpt>
      <trkpt lat="41.73217959702015" lon="-4.643161380663514">
        <ele>719.78</ele>
        <time>2025-02-10T16:38:05.338Z</time>
      </trkpt>
      <trkpt lat="41.73217725008726" lon="-4.6431574411690235">
        <ele>719.76</ele>
        <time>2025-02-10T16:38:05.592Z</time>
      </trkpt>
      <trkpt lat="41.732170544564724" lon="-4.643151154741645">
        <ele>719.74</ele>
        <time>2025-02-10T16:38:05.846Z</time>
      </trkpt>
      <trkpt lat="41.732170041650534" lon="-4.643150651827455">
        <ele>719.73</ele>
        <time>2025-02-10T16:38:06.100Z</time>
      </trkpt>
      <trkpt lat="41.73216886818409" lon="-4.6431494783610106">
        <ele>719.72</ele>
        <time>2025-02-10T16:38:06.354Z</time>
      </trkpt>
      <trkpt lat="41.73216015100479" lon="-4.643141180276871">
        <ele>719.71</ele>
        <time>2025-02-10T16:38:06.608Z</time>
      </trkpt>
      <trkpt lat="41.73215126618743" lon="-4.643132798373699">
        <ele>719.71</ele>
        <time>2025-02-10T16:38:06.863Z</time>
      </trkpt>
      <trkpt lat="41.732143219560385" lon="-4.643125170841813">
        <ele>719.71</ele>
        <time>2025-02-10T16:38:07.118Z</time>
      </trkpt>
      <trkpt lat="41.732053784653544" lon="-4.643036741763353">
        <ele>719.73</ele>
        <time>2025-02-10T16:38:07.375Z</time>
      </trkpt>
      <trkpt lat="41.7320441454649" lon="-4.643027186393738">
        <ele>719.75</ele>
        <time>2025-02-10T16:38:07.632Z</time>
      </trkpt>
      <trkpt lat="41.73204364255071" lon="-4.6430266834795475">
        <ele>719.77</ele>
        <time>2025-02-10T16:38:07.889Z</time>
      </trkpt>
      <trkpt lat="41.73204246908426" lon="-4.6430255100131035">
        <ele>719.81</ele>
        <time>2025-02-10T16:38:08.146Z</time>
      </trkpt>
      <trkpt lat="41.732033835723996" lon="-4.6430169604718685">
        <ele>719.85</ele>
        <time>2025-02-10T16:38:08.404Z</time>
      </trkpt>
      <trkpt lat="41.732024950906634" lon="-4.643008159473538">
        <ele>719.9</ele>
        <time>2025-02-10T16:38:08.662Z</time>
      </trkpt>
      <trkpt lat="41.73201707191765" lon="-4.643000364303589">
        <ele>719.96</ele>
        <time>2025-02-10T16:38:08.920Z</time>
      </trkpt>
      <trkpt lat="41.73198044300079" lon="-4.6429393440485">
        <ele>720.04</ele>
        <time>2025-02-10T16:38:09.179Z</time>
      </trkpt>
      <trkpt lat="41.73197289928794" lon="-4.642926771193743">
        <ele>720.13</ele>
        <time>2025-02-10T16:38:09.438Z</time>
      </trkpt>
      <trkpt lat="41.73197256401181" lon="-4.642926184460521">
        <ele>720.22</ele>
        <time>2025-02-10T16:38:09.697Z</time>
      </trkpt>
      <trkpt lat="41.73197164200246" lon="-4.64292467571795">
        <ele>720.33</ele>
        <time>2025-02-10T16:38:09.956Z</time>
      </trkpt>
      <trkpt lat="41.731964852660894" lon="-4.642913360148668">
        <ele>720.45</ele>
        <time>2025-02-10T16:38:10.216Z</time>
      </trkpt>
      <trkpt lat="41.731958063319325" lon="-4.642901960760355">
        <ele>720.59</ele>
        <time>2025-02-10T16:38:10.476Z</time>
      </trkpt>
      <trkpt lat="41.73195194453001" lon="-4.642891734838486">
        <ele>720.74</ele>
        <time>2025-02-10T16:38:10.736Z</time>
      </trkpt>
      <trkpt lat="41.731937946751714" lon="-4.642853932455182">
        <ele>720.92</ele>
        <time>2025-02-10T16:38:10.997Z</time>
      </trkpt>
      <trkpt lat="41.731932582333684" lon="-4.642839515581727">
        <ele>721.1</ele>
        <time>2025-02-10T16:38:11.258Z</time>
      </trkpt>
      <trkpt lat="41.73193233087659" lon="-4.642838761210442">
        <ele>721.29</ele>
        <time>2025-02-10T16:38:11.519Z</time>
      </trkpt>
      <trkpt lat="41.73193174414337" lon="-4.642837001010776">
        <ele>721.5</ele>
        <time>2025-02-10T16:38:11.780Z</time>
      </trkpt>
      <trkpt lat="41.73192696645856" lon="-4.64282400906086">
        <ele>721.73</ele>
        <time>2025-02-10T16:38:12.041Z</time>
      </trkpt>
      <trkpt lat="41.73192218877375" lon="-4.642810933291912">
        <ele>721.97</ele>
        <time>2025-02-10T16:38:12.302Z</time>
      </trkpt>
      <trkpt lat="41.731917914003134" lon="-4.64279911480844">
        <ele>722.23</ele>
        <time>2025-02-10T16:38:12.564Z</time>
      </trkpt>
      <trkpt lat="41.73189176246524" lon="-4.642713535577059">
        <ele>722.56</ele>
        <time>2025-02-10T16:38:12.827Z</time>
      </trkpt>
      <trkpt lat="41.731887236237526" lon="-4.642698531970382">
        <ele>722.85</ele>
        <time>2025-02-10T16:38:13.090Z</time>
      </trkpt>
      <trkpt lat="41.73188706859946" lon="-4.642697777599096">
        <ele>723.14</ele>
        <time>2025-02-10T16:38:13.353Z</time>
      </trkpt>
      <trkpt lat="41.73188656568527" lon="-4.642695933580399">
        <ele>723.44</ele>
        <time>2025-02-10T16:38:13.616Z</time>
      </trkpt>
      <trkpt lat="41.73188254237175" lon="-4.642682522535324">
        <ele>723.77</ele>
        <time>2025-02-10T16:38:13.880Z</time>
      </trkpt>
      <trkpt lat="41.731878435239196" lon="-4.642669027671218">
        <ele>724.1</ele>
        <time>2025-02-10T16:38:14.144Z</time>
      </trkpt>
      <trkpt lat="41.73187483102083" lon="-4.642656873911619">
        <ele>724.45</ele>
        <time>2025-02-10T16:38:14.408Z</time>
      </trkpt>
      <trkpt lat="41.73186343163252" lon="-4.6425575483590364">
        <ele>724.85</ele>
        <time>2025-02-10T16:38:14.673Z</time>
      </trkpt>
      <trkpt lat="41.73186167143285" lon="-4.6425416227430105">
        <ele>725.21</ele>
        <time>2025-02-10T16:38:14.939Z</time>
      </trkpt>
      <trkpt lat="41.73186158761382" lon="-4.642540784552693">
        <ele>725.57</ele>
        <time>2025-02-10T16:38:15.205Z</time>
      </trkpt>
      <trkpt lat="41.73186141997576" lon="-4.642538856714964">
        <ele>725.94</ele>
        <time>2025-02-10T16:38:15.471Z</time>
      </trkpt>
      <trkpt lat="41.731859827414155" lon="-4.642524523660541">
        <ele>726.32</ele>
        <time>2025-02-10T16:38:15.737Z</time>
      </trkpt>
      <trkpt lat="41.73185823485255" lon="-4.6425101067870855">
        <ele>726.71</ele>
        <time>2025-02-10T16:38:16.003Z</time>
      </trkpt>
      <trkpt lat="41.73185680992901" lon="-4.64249711483717">
        <ele>727.1</ele>
        <time>2025-02-10T16:38:16.269Z</time>
      </trkpt>
      <trkpt lat="41.73184331506491" lon="-4.64233199134469">
        <ele>727.59</ele>
        <time>2025-02-10T16:38:16.538Z</time>
      </trkpt>
      <trkpt lat="41.73184205777943" lon="-4.642316065728664">
        <ele>727.98</ele>
        <time>2025-02-10T16:38:16.807Z</time>
      </trkpt>
      <trkpt lat="41.73184205777943" lon="-4.642315227538347">
        <ele>728.37</ele>
        <time>2025-02-10T16:38:17.076Z</time>
      </trkpt>
      <trkpt lat="41.7318419739604" lon="-4.642313299700618">
        <ele>728.75</ele>
        <time>2025-02-10T16:38:17.345Z</time>
      </trkpt>
      <trkpt lat="41.73184088431299" lon="-4.6422989666461945">
        <ele>729.14</ele>
        <time>2025-02-10T16:38:17.614Z</time>
      </trkpt>
      <trkpt lat="41.731839794665575" lon="-4.642284633591771">
        <ele>729.53</ele>
        <time>2025-02-10T16:38:17.884Z</time>
      </trkpt>
      <trkpt lat="41.731838788837194" lon="-4.642271725460887">
        <ele>729.91</ele>
        <time>2025-02-10T16:38:18.154Z</time>
      </trkpt>
      <trkpt lat="41.73184574581683" lon="-4.642216069623828">
        <ele>730.33</ele>
        <time>2025-02-10T16:38:18.425Z</time>
      </trkpt>
      <trkpt lat="41.73184775747359" lon="-4.642200144007802">
        <ele>730.71</ele>
        <time>2025-02-10T16:38:18.696Z</time>
      </trkpt>
      <trkpt lat="41.73184792511165" lon="-4.642199221998453">
        <ele>731.07</ele>
        <time>2025-02-10T16:38:18.967Z</time>
      </trkpt>
      <trkpt lat="41.73184826038778" lon="-4.64219712652266">
        <ele>731.43</ele>
        <time>2025-02-10T16:38:19.238Z</time>
      </trkpt>
      <trkpt lat="41.73185018822551" lon="-4.6421826258301735">
        <ele>731.79</ele>
        <time>2025-02-10T16:38:19.509Z</time>
      </trkpt>
      <trkpt lat="41.73185211606324" lon="-4.642168041318655">
        <ele>732.15</ele>
        <time>2025-02-10T16:38:19.780Z</time>
      </trkpt>
      <trkpt lat="41.7318538762629" lon="-4.642154965549707">
        <ele>732.49</ele>
        <time>2025-02-10T16:38:20.052Z</time>
      </trkpt>
      <trkpt lat="41.73187851905823" lon="-4.642099728807807">
        <ele>732.88</ele>
        <time>2025-02-10T16:38:20.324Z</time>
      </trkpt>
      <trkpt lat="41.731884805485606" lon="-4.6420857310295105">
        <ele>733.21</ele>
        <time>2025-02-10T16:38:20.597Z</time>
      </trkpt>
      <trkpt lat="41.731885224580765" lon="-4.642084976658225">
        <ele>733.53</ele>
        <time>2025-02-10T16:38:20.870Z</time>
      </trkpt>
      <trkpt lat="41.73188606277108" lon="-4.642083216458559">
        <ele>733.84</ele>
        <time>2025-02-10T16:38:21.143Z</time>
      </trkpt>
      <trkpt lat="41.73189184628427" lon="-4.64207055978477">
        <ele>734.15</ele>
        <time>2025-02-10T16:38:21.416Z</time>
      </trkpt>
      <trkpt lat="41.73189762979746" lon="-4.642057819291949">
        <ele>734.46</ele>
        <time>2025-02-10T16:38:21.689Z</time>
      </trkpt>
      <trkpt lat="41.73190291039646" lon="-4.6420462522655725">
        <ele>734.76</ele>
        <time>2025-02-10T16:38:21.962Z</time>
      </trkpt>
      <trkpt lat="41.73190693370998" lon="-4.642041642218828">
        <ele>735.04</ele>
        <time>2025-02-10T16:38:22.236Z</time>
      </trkpt>
      <trkpt lat="41.731916489079595" lon="-4.6420312486588955">
        <ele>735.33</ele>
        <time>2025-02-10T16:38:22.510Z</time>
      </trkpt>
      <trkpt lat="41.73191707581282" lon="-4.642030745744705">
        <ele>735.6</ele>
        <time>2025-02-10T16:38:22.784Z</time>
      </trkpt>
      <trkpt lat="41.73191833309829" lon="-4.6420294884592295">
        <ele>735.86</ele>
        <time>2025-02-10T16:38:23.058Z</time>
      </trkpt>
      <trkpt lat="41.73192713409662" lon="-4.642020016908646">
        <ele>736.13</ele>
        <time>2025-02-10T16:38:23.332Z</time>
      </trkpt>
      <trkpt lat="41.73193593509495" lon="-4.642010545358062">
        <ele>736.39</ele>
        <time>2025-02-10T16:38:23.606Z</time>
      </trkpt>
      <trkpt lat="41.731943981722" lon="-4.642001911997795">
        <ele>736.64</ele>
        <time>2025-02-10T16:38:23.880Z</time>
      </trkpt>
      <trkpt lat="41.731962002813816" lon="-4.641976431012154">
        <ele>736.91</ele>
        <time>2025-02-10T16:38:24.155Z</time>
      </trkpt>
      <trkpt lat="41.73197046853602" lon="-4.64196452870965">
        <ele>737.15</ele>
        <time>2025-02-10T16:38:24.430Z</time>
      </trkpt>
      <trkpt lat="41.73197105526924" lon="-4.641963858157396">
        <ele>737.38</ele>
        <time>2025-02-10T16:38:24.705Z</time>
      </trkpt>
      <trkpt lat="41.731972144916654" lon="-4.641962433233857">
        <ele>737.61</ele>
        <time>2025-02-10T16:38:24.980Z</time>
      </trkpt>
      <trkpt lat="41.731980023905635" lon="-4.641951620578766">
        <ele>737.84</ele>
        <time>2025-02-10T16:38:25.256Z</time>
      </trkpt>
      <trkpt lat="41.731987902894616" lon="-4.641940724104643">
        <ele>738.07</ele>
        <time>2025-02-10T16:38:25.532Z</time>
      </trkpt>
      <trkpt lat="41.73199502751231" lon="-4.6419308334589005">
        <ele>738.29</ele>
        <time>2025-02-10T16:38:25.808Z</time>
      </trkpt>
      <trkpt lat="41.7320251185447" lon="-4.641860509291291">
        <ele>738.54</ele>
        <time>2025-02-10T16:38:26.085Z</time>
      </trkpt>
      <trkpt lat="41.732031321153045" lon="-4.6418462600559">
        <ele>738.76</ele>
        <time>2025-02-10T16:38:26.362Z</time>
      </trkpt>
      <trkpt lat="41.7320317402482" lon="-4.6418454218655825">
        <ele>738.96</ele>
        <time>2025-02-10T16:38:26.639Z</time>
      </trkpt>
      <trkpt lat="41.73203257843852" lon="-4.641843661665916">
        <ele>739.16</ele>
        <time>2025-02-10T16:38:26.916Z</time>
      </trkpt>
      <trkpt lat="41.732038194313645" lon="-4.641830837354064">
        <ele>739.36</ele>
        <time>2025-02-10T16:38:27.194Z</time>
      </trkpt>
      <trkpt lat="41.7320438940078" lon="-4.641817845404148">
        <ele>739.55</ele>
        <time>2025-02-10T16:38:27.472Z</time>
      </trkpt>
      <trkpt lat="41.73204909078777" lon="-4.641806026920676">
        <ele>739.75</ele>
        <time>2025-02-10T16:38:27.750Z</time>
      </trkpt>
      <trkpt lat="41.73205411992967" lon="-4.641738636419177">
        <ele>739.96</ele>
        <time>2025-02-10T16:38:28.029Z</time>
      </trkpt>
      <trkpt lat="41.73205537721515" lon="-4.6417222917079926">
        <ele>740.15</ele>
        <time>2025-02-10T16:38:28.308Z</time>
      </trkpt>
      <trkpt lat="41.73205546103418" lon="-4.641721285879612">
        <ele>740.32</ele>
        <time>2025-02-10T16:38:28.587Z</time>
      </trkpt>
      <trkpt lat="41.73205562867224" lon="-4.641719274222851">
        <ele>740.49</ele>
        <time>2025-02-10T16:38:28.866Z</time>
      </trkpt>
      <trkpt lat="41.732056802138686" lon="-4.6417043544352055">
        <ele>740.67</ele>
        <time>2025-02-10T16:38:29.146Z</time>
      </trkpt>
      <trkpt lat="41.73205797560513" lon="-4.641689350828528">
        <ele>740.84</ele>
        <time>2025-02-10T16:38:29.426Z</time>
      </trkpt>
      <trkpt lat="41.73205906525254" lon="-4.641675855964422">
        <ele>741.02</ele>
        <time>2025-02-10T16:38:29.706Z</time>
      </trkpt>
      <trkpt lat="41.732069877907634" lon="-4.641590444371104">
        <ele>741.22</ele>
        <time>2025-02-10T16:38:29.987Z</time>
      </trkpt>
      <trkpt lat="41.73207197338343" lon="-4.6415741834789515">
        <ele>741.38</ele>
        <time>2025-02-10T16:38:30.269Z</time>
      </trkpt>
      <trkpt lat="41.73207214102149" lon="-4.641573261469603">
        <ele>741.54</ele>
        <time>2025-02-10T16:38:30.551Z</time>
      </trkpt>
      <trkpt lat="41.73207247629762" lon="-4.64157116599381">
        <ele>741.69</ele>
        <time>2025-02-10T16:38:30.833Z</time>
      </trkpt>
      <trkpt lat="41.732074404135346" lon="-4.6415564976632595">
        <ele>741.86</ele>
        <time>2025-02-10T16:38:31.115Z</time>
      </trkpt>
      <trkpt lat="41.732076331973076" lon="-4.641541661694646">
        <ele>742.01</ele>
        <time>2025-02-10T16:38:31.397Z</time>
      </trkpt>
      <trkpt lat="41.73207809217274" lon="-4.641528250649571">
        <ele>742.18</ele>
        <time>2025-02-10T16:38:31.679Z</time>
      </trkpt>
      <trkpt lat="41.732101142406464" lon="-4.641467984765768">
        <ele>742.37</ele>
        <time>2025-02-10T16:38:31.962Z</time>
      </trkpt>
      <trkpt lat="41.73210684210062" lon="-4.641453232616186">
        <ele>742.53</ele>
        <time>2025-02-10T16:38:32.246Z</time>
      </trkpt>
      <trkpt lat="41.73210717737675" lon="-4.641452394425869">
        <ele>742.69</ele>
        <time>2025-02-10T16:38:32.530Z</time>
      </trkpt>
      <trkpt lat="41.73210793174803" lon="-4.641450550407171">
        <ele>742.85</ele>
        <time>2025-02-10T16:38:32.814Z</time>
      </trkpt>
      <trkpt lat="41.732113128528" lon="-4.6414372231811285">
        <ele>743.02</ele>
        <time>2025-02-10T16:38:33.098Z</time>
      </trkpt>
      <trkpt lat="41.732118409127" lon="-4.641423728317022">
        <ele>743.19</ele>
        <time>2025-02-10T16:38:33.382Z</time>
      </trkpt>
      <trkpt lat="41.732123186811805" lon="-4.641411490738392">
        <ele>743.37</ele>
        <time>2025-02-10T16:38:33.666Z</time>
      </trkpt>
      <trkpt lat="41.73215126618743" lon="-4.6413753647357225">
        <ele>743.57</ele>
        <time>2025-02-10T16:38:33.951Z</time>
      </trkpt>
      <trkpt lat="41.732160318642855" lon="-4.641363797709346">
        <ele>743.76</ele>
        <time>2025-02-10T16:38:34.236Z</time>
      </trkpt>
      <trkpt lat="41.732160821557045" lon="-4.641363210976124">
        <ele>743.95</ele>
        <time>2025-02-10T16:38:34.521Z</time>
      </trkpt>
      <trkpt lat="41.73216199502349" lon="-4.641361786052585">
        <ele>744.15</ele>
        <time>2025-02-10T16:38:34.806Z</time>
      </trkpt>
      <trkpt lat="41.73217029310763" lon="-4.6413512248545885">
        <ele>744.36</ele>
        <time>2025-02-10T16:38:35.092Z</time>
      </trkpt>
      <trkpt lat="41.73217859119177" lon="-4.641340663656592">
        <ele>744.59</ele>
        <time>2025-02-10T16:38:35.378Z</time>
      </trkpt>
      <trkpt lat="41.73218630254269" lon="-4.641330940648913">
        <ele>744.82</ele>
        <time>2025-02-10T16:38:35.664Z</time>
      </trkpt>
      <trkpt lat="41.732191583141685" lon="-4.641324067488313">
        <ele>745.06</ele>
        <time>2025-02-10T16:38:35.950Z</time>
      </trkpt>
      <trkpt lat="41.73220071941614" lon="-4.641312500461936">
        <ele>745.32</ele>
        <time>2025-02-10T16:38:36.236Z</time>
      </trkpt>
      <trkpt lat="41.73220130614936" lon="-4.641311913728714">
        <ele>745.58</ele>
        <time>2025-02-10T16:38:36.522Z</time>
      </trkpt>
      <trkpt lat="41.73220247961581" lon="-4.6413105726242065">
        <ele>745.85</ele>
        <time>2025-02-10T16:38:36.808Z</time>
      </trkpt>
      <trkpt lat="41.73221094533801" lon="-4.641300095245242">
        <ele>746.15</ele>
        <time>2025-02-10T16:38:37.095Z</time>
      </trkpt>
      <trkpt lat="41.732219494879246" lon="-4.641289534047246">
        <ele>746.46</ele>
        <time>2025-02-10T16:38:37.382Z</time>
      </trkpt>
      <trkpt lat="41.732227290049195" lon="-4.641279894858599">
        <ele>746.79</ele>
        <time>2025-02-10T16:38:37.669Z</time>
      </trkpt>
      <trkpt lat="41.73225386068225" lon="-4.641191717237234">
        <ele>747.16</ele>
        <time>2025-02-10T16:38:37.958Z</time>
      </trkpt>
      <trkpt lat="41.73225863836706" lon="-4.641176210716367">
        <ele>747.51</ele>
        <time>2025-02-10T16:38:38.247Z</time>
      </trkpt>
      <trkpt lat="41.732258973643184" lon="-4.64117537252605">
        <ele>747.88</ele>
        <time>2025-02-10T16:38:38.536Z</time>
      </trkpt>
      <trkpt lat="41.73225964419544" lon="-4.64117344468832">
        <ele>748.26</ele>
        <time>2025-02-10T16:38:38.825Z</time>
      </trkpt>
      <trkpt lat="41.73226400278509" lon="-4.64115927927196">
        <ele>748.67</ele>
        <time>2025-02-10T16:38:39.114Z</time>
      </trkpt>
      <trkpt lat="41.732268361374736" lon="-4.641145197674632">
        <ele>749.09</ele>
        <time>2025-02-10T16:38:39.403Z</time>
      </trkpt>
      <trkpt lat="41.73227238468826" lon="-4.641132289543748">
        <ele>749.53</ele>
        <time>2025-02-10T16:38:39.693Z</time>
      </trkpt>
      <trkpt lat="41.732293674722314" lon="-4.6410328801721334">
        <ele>750.04</ele>
        <time>2025-02-10T16:38:39.984Z</time>
      </trkpt>
      <trkpt lat="41.732297195121646" lon="-4.641016870737076">
        <ele>750.5</ele>
        <time>2025-02-10T16:38:40.275Z</time>
      </trkpt>
      <trkpt lat="41.73229744657874" lon="-4.641015948727727">
        <ele>750.97</ele>
        <time>2025-02-10T16:38:40.566Z</time>
      </trkpt>
      <trkpt lat="41.73229794949293" lon="-4.641013937070966">
        <ele>751.45</ele>
        <time>2025-02-10T16:38:40.857Z</time>
      </trkpt>
      <trkpt lat="41.73230121843517" lon="-4.640999268740416">
        <ele>751.94</ele>
        <time>2025-02-10T16:38:41.149Z</time>
      </trkpt>
      <trkpt lat="41.732304487377405" lon="-4.640984600409865">
        <ele>752.44</ele>
        <time>2025-02-10T16:38:41.441Z</time>
      </trkpt>
      <trkpt lat="41.732307421043515" lon="-4.640971273183823">
        <ele>752.95</ele>
        <time>2025-02-10T16:38:41.733Z</time>
      </trkpt>
      <trkpt lat="41.73239861615002" lon="-4.640704058110714">
        <ele>753.65</ele>
        <time>2025-02-10T16:38:42.029Z</time>
      </trkpt>
      <trkpt lat="41.73240381292999" lon="-4.640689054504037">
        <ele>754.16</ele>
        <time>2025-02-10T16:38:42.326Z</time>
      </trkpt>
      <trkpt lat="41.732404148206115" lon="-4.64068821631372">
        <ele>754.66</ele>
        <time>2025-02-10T16:38:42.623Z</time>
      </trkpt>
      <trkpt lat="41.73240481875837" lon="-4.64068628847599">
        <ele>755.16</ele>
        <time>2025-02-10T16:38:42.920Z</time>
      </trkpt>
      <trkpt lat="41.732409512624145" lon="-4.640672625973821">
        <ele>755.66</ele>
        <time>2025-02-10T16:38:43.217Z</time>
      </trkpt>
      <trkpt lat="41.73241420648992" lon="-4.640658963471651">
        <ele>756.16</ele>
        <time>2025-02-10T16:38:43.514Z</time>
      </trkpt>
      <trkpt lat="41.73241856507957" lon="-4.6406464744359255">
        <ele>756.65</ele>
        <time>2025-02-10T16:38:43.811Z</time>
      </trkpt>
      <trkpt lat="41.73245242796838" lon="-4.6405696123838425">
        <ele>757.18</ele>
        <time>2025-02-10T16:38:44.110Z</time>
      </trkpt>
      <trkpt lat="41.73245896585286" lon="-4.640555027872324">
        <ele>757.65</ele>
        <time>2025-02-10T16:38:44.409Z</time>
      </trkpt>
      <trkpt lat="41.732459384948015" lon="-4.640554189682007">
        <ele>758.1</ele>
        <time>2025-02-10T16:38:44.708Z</time>
      </trkpt>
      <trkpt lat="41.73246022313833" lon="-4.640552429482341">
        <ele>758.55</ele>
        <time>2025-02-10T16:38:45.007Z</time>
      </trkpt>
      <trkpt lat="41.732466174289584" lon="-4.640539102256298">
        <ele>758.99</ele>
        <time>2025-02-10T16:38:45.306Z</time>
      </trkpt>
      <trkpt lat="41.73247220925987" lon="-4.640525775030255">
        <ele>759.41</ele>
        <time>2025-02-10T16:38:45.606Z</time>
      </trkpt>
      <trkpt lat="41.73247765749693" lon="-4.640513621270657">
        <ele>759.82</ele>
        <time>2025-02-10T16:38:45.906Z</time>
      </trkpt>
      <trkpt lat="41.73258519731462" lon="-4.640291333198547">
        <ele>760.32</ele>
        <time>2025-02-10T16:38:46.210Z</time>
      </trkpt>
      <trkpt lat="41.73259207047522" lon="-4.640277251601219">
        <ele>760.7</ele>
        <time>2025-02-10T16:38:46.514Z</time>
      </trkpt>
      <trkpt lat="41.73259248957038" lon="-4.640276497229934">
        <ele>761.05</ele>
        <time>2025-02-10T16:38:46.818Z</time>
      </trkpt>
      <trkpt lat="41.73259341157973" lon="-4.640274737030268">
        <ele>761.38</ele>
        <time>2025-02-10T16:38:47.122Z</time>
      </trkpt>
      <trkpt lat="41.73259969800711" lon="-4.6402618288993835">
        <ele>761.71</ele>
        <time>2025-02-10T16:38:47.426Z</time>
      </trkpt>
      <trkpt lat="41.732605984434485" lon="-4.640248920768499">
        <ele>762.0</ele>
        <time>2025-02-10T16:38:47.730Z</time>
      </trkpt>
      <trkpt lat="41.732611767947674" lon="-4.640237186104059">
        <ele>762.29</ele>
        <time>2025-02-10T16:38:48.035Z</time>
      </trkpt>
      <trkpt lat="41.73264286480844" lon="-4.640142470598221">
        <ele>762.58</ele>
        <time>2025-02-10T16:38:48.341Z</time>
      </trkpt>
      <trkpt lat="41.732647977769375" lon="-4.6401269640773535">
        <ele>762.82</ele>
        <time>2025-02-10T16:38:48.647Z</time>
      </trkpt>
      <trkpt lat="41.7326483130455" lon="-4.640126125887036">
        <ele>763.03</ele>
        <time>2025-02-10T16:38:48.953Z</time>
      </trkpt>
      <trkpt lat="41.732648983597755" lon="-4.640124198049307">
        <ele>763.23</ele>
        <time>2025-02-10T16:38:49.259Z</time>
      </trkpt>
      <trkpt lat="41.73265376128256" lon="-4.640110032632947">
        <ele>763.41</ele>
        <time>2025-02-10T16:38:49.566Z</time>
      </trkpt>
      <trkpt lat="41.73265853896737" lon="-4.640095867216587">
        <ele>763.56</ele>
        <time>2025-02-10T16:38:49.873Z</time>
      </trkpt>
      <trkpt lat="41.73266289755702" lon="-4.640082875266671">
        <ele>763.7</ele>
        <time>2025-02-10T16:38:50.180Z</time>
      </trkpt>
      <trkpt lat="41.732660634443164" lon="-4.640047838911414">
        <ele>763.81</ele>
        <time>2025-02-10T16:38:50.488Z</time>
      </trkpt>
      <trkpt lat="41.73265962861478" lon="-4.640030739828944">
        <ele>763.9</ele>
        <time>2025-02-10T16:38:50.796Z</time>
      </trkpt>
      <trkpt lat="41.73265962861478" lon="-4.640029817819595">
        <ele>763.98</ele>
        <time>2025-02-10T16:38:51.104Z</time>
      </trkpt>
      <trkpt lat="41.73265954479575" lon="-4.6400277223438025">
        <ele>764.05</ele>
        <time>2025-02-10T16:38:51.412Z</time>
      </trkpt>
      <trkpt lat="41.7326586227864" lon="-4.640012048184872">
        <ele>764.09</ele>
        <time>2025-02-10T16:38:51.720Z</time>
      </trkpt>
      <trkpt lat="41.732657700777054" lon="-4.639996457844973">
        <ele>764.13</ele>
        <time>2025-02-10T16:38:52.028Z</time>
      </trkpt>
      <trkpt lat="41.73265686258674" lon="-4.639982208609581">
        <ele>764.15</ele>
        <time>2025-02-10T16:38:52.337Z</time>
      </trkpt>
      <trkpt lat="41.73265510238707" lon="-4.639967205002904">
        <ele>764.15</ele>
        <time>2025-02-10T16:38:52.646Z</time>
      </trkpt>
      <trkpt lat="41.73265317454934" lon="-4.639950189739466">
        <ele>764.15</ele>
        <time>2025-02-10T16:38:52.955Z</time>
      </trkpt>
      <trkpt lat="41.73265309073031" lon="-4.639949183911085">
        <ele>764.13</ele>
        <time>2025-02-10T16:38:53.264Z</time>
      </trkpt>
      <trkpt lat="41.732652923092246" lon="-4.639947172254324">
        <ele>764.11</ele>
        <time>2025-02-10T16:38:53.573Z</time>
      </trkpt>
      <trkpt lat="41.73265116289258" lon="-4.639931498095393">
        <ele>764.07</ele>
        <time>2025-02-10T16:38:53.882Z</time>
      </trkpt>
      <trkpt lat="41.732649402692914" lon="-4.639915907755494">
        <ele>764.03</ele>
        <time>2025-02-10T16:38:54.192Z</time>
      </trkpt>
      <trkpt lat="41.73264781013131" lon="-4.6399016585201025">
        <ele>763.98</ele>
        <time>2025-02-10T16:38:54.502Z</time>
      </trkpt>
      <trkpt lat="41.732644038274884" lon="-4.639849606901407">
        <ele>763.92</ele>
        <time>2025-02-10T16:38:54.813Z</time>
      </trkpt>
      <trkpt lat="41.73264286480844" lon="-4.639832423999906">
        <ele>763.86</ele>
        <time>2025-02-10T16:38:55.124Z</time>
      </trkpt>
      <trkpt lat="41.73264286480844" lon="-4.639831418171525">
        <ele>763.79</ele>
        <time>2025-02-10T16:38:55.435Z</time>
      </trkpt>
      <trkpt lat="41.73264278098941" lon="-4.639829322695732">
        <ele>763.71</ele>
        <time>2025-02-10T16:38:55.746Z</time>
      </trkpt>
      <trkpt lat="41.73264177516103" lon="-4.639813648536801">
        <ele>763.63</ele>
        <time>2025-02-10T16:38:56.057Z</time>
      </trkpt>
      <trkpt lat="41.73264076933265" lon="-4.639797890558839">
        <ele>763.54</ele>
        <time>2025-02-10T16:38:56.368Z</time>
      </trkpt>
      <trkpt lat="41.7326398473233" lon="-4.6397835575044155">
        <ele>763.45</ele>
        <time>2025-02-10T16:38:56.680Z</time>
      </trkpt>
      <trkpt lat="41.732640685513616" lon="-4.639695463702083">
        <ele>763.37</ele>
        <time>2025-02-10T16:38:56.993Z</time>
      </trkpt>
      <trkpt lat="41.73264093697071" lon="-4.639678196981549">
        <ele>763.27</ele>
        <time>2025-02-10T16:38:57.306Z</time>
      </trkpt>
      <trkpt lat="41.73264102078974" lon="-4.639677191153169">
        <ele>763.17</ele>
        <time>2025-02-10T16:38:57.619Z</time>
      </trkpt>
      <trkpt lat="41.732641104608774" lon="-4.639675095677376">
        <ele>763.07</ele>
        <time>2025-02-10T16:38:57.932Z</time>
      </trkpt>
      <trkpt lat="41.73264135606587" lon="-4.639659337699413">
        <ele>762.96</ele>
        <time>2025-02-10T16:38:58.246Z</time>
      </trkpt>
      <trkpt lat="41.732641607522964" lon="-4.639643579721451">
        <ele>762.85</ele>
        <time>2025-02-10T16:38:58.560Z</time>
      </trkpt>
      <trkpt lat="41.73264185898006" lon="-4.6396292466670275">
        <ele>762.74</ele>
        <time>2025-02-10T16:38:58.874Z</time>
      </trkpt>
      <trkpt lat="41.73263842239976" lon="-4.639608962461352">
        <ele>762.62</ele>
        <time>2025-02-10T16:38:59.188Z</time>
      </trkpt>
      <trkpt lat="41.73263557255268" lon="-4.639591863378882">
        <ele>762.49</ele>
        <time>2025-02-10T16:38:59.503Z</time>
      </trkpt>
      <trkpt lat="41.73263548873365" lon="-4.6395909413695335">
        <ele>762.37</ele>
        <time>2025-02-10T16:38:59.818Z</time>
      </trkpt>
      <trkpt lat="41.73263515345752" lon="-4.639588845893741">
        <ele>762.26</ele>
        <time>2025-02-10T16:39:00.133Z</time>
      </trkpt>
      <trkpt lat="41.73263263888657" lon="-4.63957317173481">
        <ele>762.13</ele>
        <time>2025-02-10T16:39:00.448Z</time>
      </trkpt>
      <trkpt lat="41.73263012431562" lon="-4.639557497575879">
        <ele>762.01</ele>
        <time>2025-02-10T16:39:00.763Z</time>
      </trkpt>
      <trkpt lat="41.73262786120176" lon="-4.639543332159519">
        <ele>761.89</ele>
        <time>2025-02-10T16:39:01.078Z</time>
      </trkpt>
      <trkpt lat="41.73258226364851" lon="-4.639383824542165">
        <ele>761.71</ele>
        <time>2025-02-10T16:39:01.396Z</time>
      </trkpt>
      <trkpt lat="41.732577653601766" lon="-4.639367647469044">
        <ele>761.6</ele>
        <time>2025-02-10T16:39:01.714Z</time>
      </trkpt>
      <trkpt lat="41.73257740214467" lon="-4.639366725459695">
        <ele>761.49</ele>
        <time>2025-02-10T16:39:02.032Z</time>
      </trkpt>
      <trkpt lat="41.73257689923048" lon="-4.639364797621965">
        <ele>761.39</ele>
        <time>2025-02-10T16:39:02.350Z</time>
      </trkpt>
      <trkpt lat="41.732572708278894" lon="-4.6393500454723835">
        <ele>761.29</ele>
        <time>2025-02-10T16:39:02.668Z</time>
      </trkpt>
      <trkpt lat="41.73256851732731" lon="-4.639335293322802">
        <ele>761.19</ele>
        <time>2025-02-10T16:39:02.987Z</time>
      </trkpt>
      <trkpt lat="41.73256474547088" lon="-4.639321966096759">
        <ele>761.1</ele>
        <time>2025-02-10T16:39:03.306Z</time>
      </trkpt>
      <trkpt lat="41.73253482207656" lon="-4.639179138466716">
        <ele>761.0</ele>
        <time>2025-02-10T16:39:03.627Z</time>
      </trkpt>
      <trkpt lat="41.73253138549626" lon="-4.6391624584794044">
        <ele>760.93</ele>
        <time>2025-02-10T16:39:03.948Z</time>
      </trkpt>
      <trkpt lat="41.732531217858195" lon="-4.639161536470056">
        <ele>760.86</ele>
        <time>2025-02-10T16:39:04.269Z</time>
      </trkpt>
      <trkpt lat="41.73253079876304" lon="-4.639159524813294">
        <ele>760.79</ele>
        <time>2025-02-10T16:39:04.590Z</time>
      </trkpt>
      <trkpt lat="41.73252761363983" lon="-4.639144269749522">
        <ele>760.73</ele>
        <time>2025-02-10T16:39:04.912Z</time>
      </trkpt>
      <trkpt lat="41.73252451233566" lon="-4.639129098504782">
        <ele>760.68</ele>
        <time>2025-02-10T16:39:05.234Z</time>
      </trkpt>
      <trkpt lat="41.73252166248858" lon="-4.639115268364549">
        <ele>760.63</ele>
        <time>2025-02-10T16:39:05.556Z</time>
      </trkpt>
      <trkpt lat="41.73252032138407" lon="-4.639072520658374">
        <ele>760.6</ele>
        <time>2025-02-10T16:39:05.879Z</time>
      </trkpt>
      <trkpt lat="41.73251981846988" lon="-4.639055002480745">
        <ele>760.57</ele>
        <time>2025-02-10T16:39:06.202Z</time>
      </trkpt>
      <trkpt lat="41.73251981846988" lon="-4.639053996652365">
        <ele>760.53</ele>
        <time>2025-02-10T16:39:06.525Z</time>
      </trkpt>
      <trkpt lat="41.73251981846988" lon="-4.63905181735754">
        <ele>760.51</ele>
        <time>2025-02-10T16:39:06.848Z</time>
      </trkpt>
      <trkpt lat="41.73251939937472" lon="-4.6390358079224825">
        <ele>760.48</ele>
        <time>2025-02-10T16:39:07.171Z</time>
      </trkpt>
      <trkpt lat="41.7325190640986" lon="-4.639023570343852">
        <ele>760.46</ele>
        <time>2025-02-10T16:39:07.494Z</time>
      </trkpt>
      <trkpt lat="41.732518980279565" lon="-4.639019798487425">
        <ele>760.44</ele>
        <time>2025-02-10T16:39:07.818Z</time>
      </trkpt>
      <trkpt lat="41.73251864500344" lon="-4.639005968347192">
        <ele>760.42</ele>
        <time>2025-02-10T16:39:08.142Z</time>
      </trkpt>
      <trkpt lat="41.73251864500344" lon="-4.639005213975906">
        <ele>760.4</ele>
        <time>2025-02-10T16:39:08.466Z</time>
      </trkpt>
      <trkpt lat="41.732518561184406" lon="-4.639005046337843">
        <ele>760.38</ele>
        <time>2025-02-10T16:39:08.790Z</time>
      </trkpt>
      <trkpt lat="41.73251864500344" lon="-4.639002783223987">
        <ele>760.36</ele>
        <time>2025-02-10T16:39:09.114Z</time>
      </trkpt>
      <trkpt lat="41.73251864500344" lon="-4.638986522331834">
        <ele>760.34</ele>
        <time>2025-02-10T16:39:09.438Z</time>
      </trkpt>
      <trkpt lat="41.73251864500344" lon="-4.638970261439681">
        <ele>760.32</ele>
        <time>2025-02-10T16:39:09.762Z</time>
      </trkpt>
      <trkpt lat="41.73251864500344" lon="-4.638969171792269">
        <ele>760.29</ele>
        <time>2025-02-10T16:39:10.086Z</time>
      </trkpt>
      <trkpt lat="41.73251864500344" lon="-4.638955593109131">
        <ele>760.26</ele>
        <time>2025-02-10T16:39:10.410Z</time>
      </trkpt>
      <trkpt lat="41.732517471536994" lon="-4.638951737433672">
        <ele>760.23</ele>
        <time>2025-02-10T16:39:10.735Z</time>
      </trkpt>
      <trkpt lat="41.7325172200799" lon="-4.638950815424323">
        <ele>760.19</ele>
        <time>2025-02-10T16:39:11.060Z</time>
      </trkpt>
      <trkpt lat="41.73251663334668" lon="-4.63894871994853">
        <ele>760.14</ele>
        <time>2025-02-10T16:39:11.385Z</time>
      </trkpt>
      <trkpt lat="41.732512107118964" lon="-4.638933464884758">
        <ele>760.09</ele>
        <time>2025-02-10T16:39:11.710Z</time>
      </trkpt>
      <trkpt lat="41.73251059837639" lon="-4.638928268104792">
        <ele>760.03</ele>
        <time>2025-02-10T16:39:12.035Z</time>
      </trkpt>
      <trkpt lat="41.73250766471028" lon="-4.638918377459049">
        <ele>759.96</ele>
        <time>2025-02-10T16:39:12.360Z</time>
      </trkpt>
      <trkpt lat="41.73250565305352" lon="-4.638911839574575">
        <ele>759.89</ele>
        <time>2025-02-10T16:39:12.685Z</time>
      </trkpt>
      <trkpt lat="41.73250540159643" lon="-4.6389109175652266">
        <ele>759.81</ele>
        <time>2025-02-10T16:39:13.010Z</time>
      </trkpt>
      <trkpt lat="41.732504814863205" lon="-4.638908822089434">
        <ele>759.73</ele>
        <time>2025-02-10T16:39:13.335Z</time>
      </trkpt>
      <trkpt lat="41.73250364139676" lon="-4.638904547318816">
        <ele>759.63</ele>
        <time>2025-02-10T16:39:13.660Z</time>
      </trkpt>
      <trkpt lat="41.73249836079776" lon="-4.638894908130169">
        <ele>759.53</ele>
        <time>2025-02-10T16:39:13.985Z</time>
      </trkpt>
      <trkpt lat="41.732491152361035" lon="-4.638881664723158">
        <ele>759.42</ele>
        <time>2025-02-10T16:39:14.311Z</time>
      </trkpt>
      <trkpt lat="41.73248461447656" lon="-4.638869678601623">
        <ele>759.3</ele>
        <time>2025-02-10T16:39:14.637Z</time>
      </trkpt>
      <trkpt lat="41.732482854276896" lon="-4.638867415487766">
        <ele>759.18</ele>
        <time>2025-02-10T16:39:14.963Z</time>
      </trkpt>
      <trkpt lat="41.73247346654534" lon="-4.638854842633009">
        <ele>759.06</ele>
        <time>2025-02-10T16:39:15.289Z</time>
      </trkpt>
      <trkpt lat="41.73247296363115" lon="-4.638854172080755">
        <ele>758.93</ele>
        <time>2025-02-10T16:39:15.615Z</time>
      </trkpt>
      <trkpt lat="41.73247179016471" lon="-4.638852579519153">
        <ele>758.8</ele>
        <time>2025-02-10T16:39:15.941Z</time>
      </trkpt>
      <trkpt lat="41.73246307298541" lon="-4.6388408448547125">
        <ele>758.66</ele>
        <time>2025-02-10T16:39:16.268Z</time>
      </trkpt>
      <trkpt lat="41.732454439625144" lon="-4.638829277828336">
        <ele>758.51</ele>
        <time>2025-02-10T16:39:16.595Z</time>
      </trkpt>
      <trkpt lat="41.73244656063616" lon="-4.63881871663034">
        <ele>758.36</ele>
        <time>2025-02-10T16:39:16.922Z</time>
      </trkpt>
      <trkpt lat="41.73244119621813" lon="-4.6388104185462">
        <ele>758.22</ele>
        <time>2025-02-10T16:39:17.249Z</time>
      </trkpt>
      <trkpt lat="41.732432562857866" lon="-4.638796923682094">
        <ele>758.07</ele>
        <time>2025-02-10T16:39:17.576Z</time>
      </trkpt>
      <trkpt lat="41.732432059943676" lon="-4.638796169310808">
        <ele>757.94</ele>
        <time>2025-02-10T16:39:17.903Z</time>
      </trkpt>
      <trkpt lat="41.732430970296264" lon="-4.638794492930174">
        <ele>757.8</ele>
        <time>2025-02-10T16:39:18.230Z</time>
      </trkpt>
      <trkpt lat="41.73242292366922" lon="-4.638782003894448">
        <ele>757.65</ele>
        <time>2025-02-10T16:39:18.558Z</time>
      </trkpt>
      <trkpt lat="41.732417810708284" lon="-4.638774124905467">
        <ele>757.51</ele>
        <time>2025-02-10T16:39:18.886Z</time>
      </trkpt>
      <trkpt lat="41.732414877042174" lon="-4.638769598677754">
        <ele>757.38</ele>
        <time>2025-02-10T16:39:19.214Z</time>
      </trkpt>
      <trkpt lat="41.73240917734802" lon="-4.638760713860393">
        <ele>757.25</ele>
        <time>2025-02-10T16:39:19.542Z</time>
      </trkpt>
      <trkpt lat="41.73240867443383" lon="-4.638759959489107">
        <ele>757.13</ele>
        <time>2025-02-10T16:39:19.870Z</time>
      </trkpt>
      <trkpt lat="41.732407584786415" lon="-4.638758283108473">
        <ele>757.02</ele>
        <time>2025-02-10T16:39:20.198Z</time>
      </trkpt>
      <trkpt lat="41.73240196891129" lon="-4.638743447139859">
        <ele>756.91</ele>
        <time>2025-02-10T16:39:20.526Z</time>
      </trkpt>
      <trkpt lat="41.73239652067423" lon="-4.638728778809309">
        <ele>756.8</ele>
        <time>2025-02-10T16:39:20.855Z</time>
      </trkpt>
      <trkpt lat="41.73239476047456" lon="-4.638724252581596">
        <ele>756.71</ele>
        <time>2025-02-10T16:39:21.184Z</time>
      </trkpt>
      <trkpt lat="41.732391491532326" lon="-4.6387153677642345">
        <ele>756.62</ele>
        <time>2025-02-10T16:39:21.513Z</time>
      </trkpt>
      <trkpt lat="41.732391491532326" lon="-4.638707572594285">
        <ele>756.55</ele>
        <time>2025-02-10T16:39:21.842Z</time>
      </trkpt>
      <trkpt lat="41.732391491532326" lon="-4.638706566765904">
        <ele>756.49</ele>
        <time>2025-02-10T16:39:22.171Z</time>
      </trkpt>
      <trkpt lat="41.73239157535136" lon="-4.63870438747108">
        <ele>756.44</ele>
        <time>2025-02-10T16:39:22.500Z</time>
      </trkpt>
      <trkpt lat="41.732391910627484" lon="-4.6386877074837685">
        <ele>756.4</ele>
        <time>2025-02-10T16:39:22.829Z</time>
      </trkpt>
      <trkpt lat="41.73239216208458" lon="-4.638671362772584">
        <ele>756.37</ele>
        <time>2025-02-10T16:39:23.159Z</time>
      </trkpt>
      <trkpt lat="41.732392497360706" lon="-4.638656275346875">
        <ele>756.35</ele>
        <time>2025-02-10T16:39:23.489Z</time>
      </trkpt>
      <trkpt lat="41.73239358700812" lon="-4.638649737462401">
        <ele>756.35</ele>
        <time>2025-02-10T16:39:23.819Z</time>
      </trkpt>
      <trkpt lat="41.73239652067423" lon="-4.638632470741868">
        <ele>756.35</ele>
        <time>2025-02-10T16:39:24.149Z</time>
      </trkpt>
      <trkpt lat="41.732396772131324" lon="-4.638631464913487">
        <ele>756.37</ele>
        <time>2025-02-10T16:39:24.479Z</time>
      </trkpt>
      <trkpt lat="41.73239719122648" lon="-4.6386293694376945">
        <ele>756.4</ele>
        <time>2025-02-10T16:39:24.809Z</time>
      </trkpt>
      <trkpt lat="41.73240004107356" lon="-4.638613108545542">
        <ele>756.44</ele>
        <time>2025-02-10T16:39:25.139Z</time>
      </trkpt>
      <trkpt lat="41.73240289092064" lon="-4.638597182929516">
        <ele>756.48</ele>
        <time>2025-02-10T16:39:25.470Z</time>
      </trkpt>
      <trkpt lat="41.732405573129654" lon="-4.638582514598966">
        <ele>756.54</ele>
        <time>2025-02-10T16:39:25.801Z</time>
      </trkpt>
      <trkpt lat="41.73240867443383" lon="-4.638576311990619">
        <ele>756.62</ele>
        <time>2025-02-10T16:39:26.132Z</time>
      </trkpt>
      <trkpt lat="41.73241621814668" lon="-4.6385616436600685">
        <ele>756.7</ele>
        <time>2025-02-10T16:39:26.463Z</time>
      </trkpt>
      <trkpt lat="41.73241672106087" lon="-4.638560889288783">
        <ele>756.79</ele>
        <time>2025-02-10T16:39:26.794Z</time>
      </trkpt>
      <trkpt lat="41.73241772688925" lon="-4.638559045270085">
        <ele>756.88</ele>
        <time>2025-02-10T16:39:27.125Z</time>
      </trkpt>
      <trkpt lat="41.73242485150695" lon="-4.638545382767916">
        <ele>756.99</ele>
        <time>2025-02-10T16:39:27.457Z</time>
      </trkpt>
      <trkpt lat="41.732431976124644" lon="-4.6385318879038095">
        <ele>757.1</ele>
        <time>2025-02-10T16:39:27.789Z</time>
      </trkpt>
      <trkpt lat="41.73243859782815" lon="-4.638519398868084">
        <ele>757.21</ele>
        <time>2025-02-10T16:39:28.121Z</time>
      </trkpt>
      <trkpt lat="41.73248469829559" lon="-4.6384665090590715">
        <ele>757.38</ele>
        <time>2025-02-10T16:39:28.454Z</time>
      </trkpt>
      <trkpt lat="41.73249484039843" lon="-4.638454942032695">
        <ele>757.51</ele>
        <time>2025-02-10T16:39:28.788Z</time>
      </trkpt>
      <trkpt lat="41.73249542713165" lon="-4.638454355299473">
        <ele>757.63</ele>
        <time>2025-02-10T16:39:29.122Z</time>
      </trkpt>
      <trkpt lat="41.73249676823616" lon="-4.638452930375934">
        <ele>757.76</ele>
        <time>2025-02-10T16:39:29.456Z</time>
      </trkpt>
      <trkpt lat="41.73250640742481" lon="-4.638442033901811">
        <ele>757.89</ele>
        <time>2025-02-10T16:39:29.790Z</time>
      </trkpt>
      <trkpt lat="41.73251587897539" lon="-4.638431305065751">
        <ele>758.03</ele>
        <time>2025-02-10T16:39:30.124Z</time>
      </trkpt>
      <trkpt lat="41.73252467997372" lon="-4.638421414420009">
        <ele>758.16</ele>
        <time>2025-02-10T16:39:30.458Z</time>
      </trkpt>
      <trkpt lat="41.73253155313432" lon="-4.638406494632363">
        <ele>758.28</ele>
        <time>2025-02-10T16:39:30.793Z</time>
      </trkpt>
      <trkpt lat="41.73253867775202" lon="-4.638391323387623">
        <ele>758.41</ele>
        <time>2025-02-10T16:39:31.128Z</time>
      </trkpt>
      <trkpt lat="41.73253909684718" lon="-4.638390569016337">
        <ele>758.52</ele>
        <time>2025-02-10T16:39:31.463Z</time>
      </trkpt>
      <trkpt lat="41.732540018856525" lon="-4.63838872499764">
        <ele>758.63</ele>
        <time>2025-02-10T16:39:31.798Z</time>
      </trkpt>
      <trkpt lat="41.732546808198094" lon="-4.638374475762248">
        <ele>758.74</ele>
        <time>2025-02-10T16:39:32.133Z</time>
      </trkpt>
      <trkpt lat="41.73255351372063" lon="-4.638360477983952">
        <ele>758.85</ele>
        <time>2025-02-10T16:39:32.468Z</time>
      </trkpt>
      <trkpt lat="41.73255971632898" lon="-4.638347653672099">
        <ele>758.94</ele>
        <time>2025-02-10T16:39:32.804Z</time>
      </trkpt>
      <trkpt lat="41.732563991099596" lon="-4.638327453285456">
        <ele>759.03</ele>
        <time>2025-02-10T16:39:33.140Z</time>
      </trkpt>
      <trkpt lat="41.73256767913699" lon="-4.638310270383954">
        <ele>759.12</ele>
        <time>2025-02-10T16:39:33.476Z</time>
      </trkpt>
      <trkpt lat="41.73256793059409" lon="-4.638309348374605">
        <ele>759.2</ele>
        <time>2025-02-10T16:39:33.812Z</time>
      </trkpt>
      <trkpt lat="41.73256843350828" lon="-4.638307252898812">
        <ele>759.27</ele>
        <time>2025-02-10T16:39:34.148Z</time>
      </trkpt>
      <trkpt lat="41.73257195390761" lon="-4.6382909920066595">
        <ele>759.34</ele>
        <time>2025-02-10T16:39:34.485Z</time>
      </trkpt>
      <trkpt lat="41.73257547430694" lon="-4.638275066390634">
        <ele>759.41</ele>
        <time>2025-02-10T16:39:34.822Z</time>
      </trkpt>
      <trkpt lat="41.73257874324918" lon="-4.638260398060083">
        <ele>759.47</ele>
        <time>2025-02-10T16:39:35.159Z</time>
      </trkpt>
      <trkpt lat="41.73258318565786" lon="-4.638247489929199">
        <ele>759.53</ele>
        <time>2025-02-10T16:39:35.496Z</time>
      </trkpt>
      <trkpt lat="41.732588885352015" lon="-4.638231229037046">
        <ele>759.58</ele>
        <time>2025-02-10T16:39:35.834Z</time>
      </trkpt>
      <trkpt lat="41.73258922062814" lon="-4.638230307027698">
        <ele>759.64</ele>
        <time>2025-02-10T16:39:36.172Z</time>
      </trkpt>
      <trkpt lat="41.73258997499943" lon="-4.638228295370936">
        <ele>759.69</ele>
        <time>2025-02-10T16:39:36.510Z</time>
      </trkpt>
      <trkpt lat="41.73259542323649" lon="-4.6382129564881325">
        <ele>759.73</ele>
        <time>2025-02-10T16:39:36.848Z</time>
      </trkpt>
      <trkpt lat="41.73260078765452" lon="-4.638197869062424">
        <ele>759.78</ele>
        <time>2025-02-10T16:39:37.186Z</time>
      </trkpt>
      <trkpt lat="41.73260581679642" lon="-4.638183871284127">
        <ele>759.82</ele>
        <time>2025-02-10T16:39:37.524Z</time>
      </trkpt>
      <trkpt lat="41.73266180790961" lon="-4.638121426105499">
        <ele>759.88</ele>
        <time>2025-02-10T16:39:37.864Z</time>
      </trkpt>
      <trkpt lat="41.73267228528857" lon="-4.638109942898154">
        <ele>759.93</ele>
        <time>2025-02-10T16:39:38.204Z</time>
      </trkpt>
      <trkpt lat="41.732672955840826" lon="-4.638109356164932">
        <ele>759.97</ele>
        <time>2025-02-10T16:39:38.544Z</time>
      </trkpt>
      <trkpt lat="41.7326742131263" lon="-4.638108015060425">
        <ele>760.01</ele>
        <time>2025-02-10T16:39:38.884Z</time>
      </trkpt>
      <trkpt lat="41.732684103772044" lon="-4.638097118586302">
        <ele>760.05</ele>
        <time>2025-02-10T16:39:39.224Z</time>
      </trkpt>
      <trkpt lat="41.73269382677972" lon="-4.638086473569274">
        <ele>760.09</ele>
        <time>2025-02-10T16:39:39.565Z</time>
      </trkpt>
      <trkpt lat="41.73270287923515" lon="-4.6380765829235315">
        <ele>760.13</ele>
        <time>2025-02-10T16:39:39.906Z</time>
      </trkpt>
      <trkpt lat="41.73272986896336" lon="-4.638048000633717">
        <ele>760.18</ele>
        <time>2025-02-10T16:39:40.248Z</time>
      </trkpt>
      <trkpt lat="41.73274059779942" lon="-4.638036685064435">
        <ele>760.22</ele>
        <time>2025-02-10T16:39:40.590Z</time>
      </trkpt>
      <trkpt lat="41.73274118453264" lon="-4.638036098331213">
        <ele>760.26</ele>
        <time>2025-02-10T16:39:40.932Z</time>
      </trkpt>
      <trkpt lat="41.73274252563715" lon="-4.6380347572267056">
        <ele>760.3</ele>
        <time>2025-02-10T16:39:41.274Z</time>
      </trkpt>
      <trkpt lat="41.73275266773999" lon="-4.638024196028709">
        <ele>760.34</ele>
        <time>2025-02-10T16:39:41.616Z</time>
      </trkpt>
      <trkpt lat="41.73276272602379" lon="-4.638013802468777">
        <ele>760.39</ele>
        <time>2025-02-10T16:39:41.958Z</time>
      </trkpt>
      <trkpt lat="41.732772029936314" lon="-4.638004079461098">
        <ele>760.43</ele>
        <time>2025-02-10T16:39:42.301Z</time>
      </trkpt>
      <trkpt lat="41.73278887756169" lon="-4.637995110824704">
        <ele>760.48</ele>
        <time>2025-02-10T16:39:42.644Z</time>
      </trkpt>
      <trkpt lat="41.73280170187354" lon="-4.637988405302167">
        <ele>760.53</ele>
        <time>2025-02-10T16:39:42.987Z</time>
      </trkpt>
      <trkpt lat="41.732802372425795" lon="-4.63798807002604">
        <ele>760.57</ele>
        <time>2025-02-10T16:39:43.330Z</time>
      </trkpt>
      <trkpt lat="41.7328039649874" lon="-4.637987315654755">
        <ele>760.62</ele>
        <time>2025-02-10T16:39:43.673Z</time>
      </trkpt>
      <trkpt lat="41.732816034927964" lon="-4.637981029227376">
        <ele>760.67</ele>
        <time>2025-02-10T16:39:44.017Z</time>
      </trkpt>
      <trkpt lat="41.73282793723047" lon="-4.637974910438061">
        <ele>760.72</ele>
        <time>2025-02-10T16:39:44.361Z</time>
      </trkpt>
      <trkpt lat="41.732839085161686" lon="-4.637969210743904">
        <ele>760.77</ele>
        <time>2025-02-10T16:39:44.705Z</time>
      </trkpt>
      <trkpt lat="41.73285442404449" lon="-4.637966360896826">
        <ele>760.83</ele>
        <time>2025-02-10T16:39:45.049Z</time>
      </trkpt>
      <trkpt lat="41.73286817036569" lon="-4.637963930144906">
        <ele>760.88</ele>
        <time>2025-02-10T16:39:45.394Z</time>
      </trkpt>
      <trkpt lat="41.73286892473698" lon="-4.637963846325874">
        <ele>760.93</ele>
        <time>2025-02-10T16:39:45.739Z</time>
      </trkpt>
      <trkpt lat="41.73287051729858" lon="-4.637963594868779">
        <ele>760.98</ele>
        <time>2025-02-10T16:39:46.084Z</time>
      </trkpt>
      <trkpt lat="41.732883509248495" lon="-4.637961331754923">
        <ele>761.04</ele>
        <time>2025-02-10T16:39:46.429Z</time>
      </trkpt>
      <trkpt lat="41.732896249741316" lon="-4.637959152460098">
        <ele>761.1</ele>
        <time>2025-02-10T16:39:46.774Z</time>
      </trkpt>
      <trkpt lat="41.73290815204382" lon="-4.637957140803337">
        <ele>761.16</ele>
        <time>2025-02-10T16:39:47.119Z</time>
      </trkpt>
      <trkpt lat="41.732967998832464" lon="-4.6379308216273785">
        <ele>761.24</ele>
        <time>2025-02-10T16:39:47.466Z</time>
      </trkpt>
      <trkpt lat="41.732981242239475" lon="-4.63792503811419">
        <ele>761.3</ele>
        <time>2025-02-10T16:39:47.813Z</time>
      </trkpt>
      <trkpt lat="41.73298199661076" lon="-4.637924786657095">
        <ele>761.36</ele>
        <time>2025-02-10T16:39:48.160Z</time>
      </trkpt>
      <trkpt lat="41.73298358917236" lon="-4.637924116104841">
        <ele>761.43</ele>
        <time>2025-02-10T16:39:48.507Z</time>
      </trkpt>
      <trkpt lat="41.73299607820809" lon="-4.6379187516868114">
        <ele>761.5</ele>
        <time>2025-02-10T16:39:48.854Z</time>
      </trkpt>
      <trkpt lat="41.73300839960575" lon="-4.637913387268782">
        <ele>761.57</ele>
        <time>2025-02-10T16:39:49.202Z</time>
      </trkpt>
      <trkpt lat="41.73301384784281" lon="-4.637911040335894">
        <ele>761.65</ele>
        <time>2025-02-10T16:39:49.550Z</time>
      </trkpt>
      <trkpt lat="41.73301996663213" lon="-4.6379084419459105">
        <ele>761.73</ele>
        <time>2025-02-10T16:39:49.898Z</time>
      </trkpt>
      <trkpt lat="41.73302742652595" lon="-4.63790793903172">
        <ele>761.82</ele>
        <time>2025-02-10T16:39:50.246Z</time>
      </trkpt>
      <trkpt lat="41.733028180897236" lon="-4.63790793903172">
        <ele>761.91</ele>
        <time>2025-02-10T16:39:50.594Z</time>
      </trkpt>
      <trkpt lat="41.73302985727787" lon="-4.6379078552126884">
        <ele>762.0</ele>
        <time>2025-02-10T16:39:50.942Z</time>
      </trkpt>
      <trkpt lat="41.73304293304682" lon="-4.637907100841403">
        <ele>762.11</ele>
        <time>2025-02-10T16:39:51.290Z</time>
      </trkpt>
      <trkpt lat="41.733055924996734" lon="-4.637906430289149">
        <ele>762.22</ele>
        <time>2025-02-10T16:39:51.638Z</time>
      </trkpt>
      <trkpt lat="41.7330679949373" lon="-4.637905759736896">
        <ele>762.34</ele>
        <time>2025-02-10T16:39:51.987Z</time>
      </trkpt>
      <trkpt lat="41.73313136212528" lon="-4.637929815798998">
        <ele>762.51</ele>
        <time>2025-02-10T16:39:52.337Z</time>
      </trkpt>
      <trkpt lat="41.73314477317035" lon="-4.6379349287599325">
        <ele>762.65</ele>
        <time>2025-02-10T16:39:52.687Z</time>
      </trkpt>
      <trkpt lat="41.73314552754164" lon="-4.637935264036059">
        <ele>762.79</ele>
        <time>2025-02-10T16:39:53.037Z</time>
      </trkpt>
      <trkpt lat="41.73314712010324" lon="-4.637935934588313">
        <ele>762.94</ele>
        <time>2025-02-10T16:39:53.387Z</time>
      </trkpt>
      <trkpt lat="41.73315986059606" lon="-4.637940796092153">
        <ele>763.1</ele>
        <time>2025-02-10T16:39:53.738Z</time>
      </trkpt>
      <trkpt lat="41.733172349631786" lon="-4.63794557377696">
        <ele>763.28</ele>
        <time>2025-02-10T16:39:54.089Z</time>
      </trkpt>
      <trkpt lat="41.73318416811526" lon="-4.637950100004673">
        <ele>763.47</ele>
        <time>2025-02-10T16:39:54.440Z</time>
      </trkpt>
      <trkpt lat="41.73326941207051" lon="-4.637983879074454">
        <ele>763.7</ele>
        <time>2025-02-10T16:39:54.793Z</time>
      </trkpt>
      <trkpt lat="41.73328290693462" lon="-4.637989243492484">
        <ele>763.92</ele>
        <time>2025-02-10T16:39:55.146Z</time>
      </trkpt>
      <trkpt lat="41.73328357748687" lon="-4.637989578768611">
        <ele>764.14</ele>
        <time>2025-02-10T16:39:55.499Z</time>
      </trkpt>
      <trkpt lat="41.733285170048475" lon="-4.637990249320865">
        <ele>764.37</ele>
        <time>2025-02-10T16:39:55.852Z</time>
      </trkpt>
      <trkpt lat="41.733297910541296" lon="-4.637995362281799">
        <ele>764.63</ele>
        <time>2025-02-10T16:39:56.206Z</time>
      </trkpt>
      <trkpt lat="41.733310567215085" lon="-4.638000391423702">
        <ele>764.9</ele>
        <time>2025-02-10T16:39:56.560Z</time>
      </trkpt>
      <trkpt lat="41.733322301879525" lon="-4.638005085289478">
        <ele>765.19</ele>
        <time>2025-02-10T16:39:56.914Z</time>
      </trkpt>
      <trkpt lat="41.73335717059672" lon="-4.6380053367465734">
        <ele>765.51</ele>
        <time>2025-02-10T16:39:57.269Z</time>
      </trkpt>
      <trkpt lat="41.73337125219405" lon="-4.638005504384637">
        <ele>765.84</ele>
        <time>2025-02-10T16:39:57.624Z</time>
      </trkpt>
      <trkpt lat="41.73337200656533" lon="-4.638005588203669">
        <ele>766.18</ele>
        <time>2025-02-10T16:39:57.979Z</time>
      </trkpt>
      <trkpt lat="41.733373599126935" lon="-4.6380056720227">
        <ele>766.54</ele>
        <time>2025-02-10T16:39:58.334Z</time>
      </trkpt>
      <trkpt lat="41.73338692635298" lon="-4.6380059234797955">
        <ele>766.93</ele>
        <time>2025-02-10T16:39:58.689Z</time>
      </trkpt>
      <trkpt lat="41.73340008594096" lon="-4.638006174936891">
        <ele>767.34</ele>
        <time>2025-02-10T16:39:59.045Z</time>
      </trkpt>
      <trkpt lat="41.73341240733862" lon="-4.638006426393986">
        <ele>767.78</ele>
        <time>2025-02-10T16:39:59.401Z</time>
      </trkpt>
      <trkpt lat="41.73358532600105" lon="-4.637969629839063">
        <ele>768.3</ele>
        <time>2025-02-10T16:39:59.760Z</time>
      </trkpt>
      <trkpt lat="41.733599407598376" lon="-4.637966696172953">
        <ele>768.79</ele>
        <time>2025-02-10T16:40:00.120Z</time>
      </trkpt>
      <trkpt lat="41.73360016196966" lon="-4.637966612353921">
        <ele>769.28</ele>
        <time>2025-02-10T16:40:00.480Z</time>
      </trkpt>
      <trkpt lat="41.733601838350296" lon="-4.637966277077794">
        <ele>769.8</ele>
        <time>2025-02-10T16:40:00.840Z</time>
      </trkpt>
      <trkpt lat="41.73361516557634" lon="-4.6379635110497475">
        <ele>770.34</ele>
        <time>2025-02-10T16:40:01.200Z</time>
      </trkpt>
      <trkpt lat="41.73362832516432" lon="-4.637960745021701">
        <ele>770.91</ele>
        <time>2025-02-10T16:40:01.560Z</time>
      </trkpt>
      <trkpt lat="41.73364073038101" lon="-4.637958146631718">
        <ele>771.49</ele>
        <time>2025-02-10T16:40:01.920Z</time>
      </trkpt>
      <trkpt lat="41.73395287245512" lon="-4.637900982052088">
        <ele>772.24</ele>
        <time>2025-02-10T16:40:02.287Z</time>
      </trkpt>
      <trkpt lat="41.734038116410375" lon="-4.637885140255094">
        <ele>772.94</ele>
        <time>2025-02-10T16:40:02.655Z</time>
      </trkpt>
      <trkpt lat="41.7340521980077" lon="-4.63788254186511">
        <ele>773.58</ele>
        <time>2025-02-10T16:40:03.024Z</time>
      </trkpt>
      <trkpt lat="41.73405295237899" lon="-4.637882458046079">
        <ele>774.22</ele>
        <time>2025-02-10T16:40:03.393Z</time>
      </trkpt>
      <trkpt lat="41.73405462875962" lon="-4.6378822065889835">
        <ele>774.87</ele>
        <time>2025-02-10T16:40:03.762Z</time>
      </trkpt>
      <trkpt lat="41.734067872166634" lon="-4.637879775837064">
        <ele>775.54</ele>
        <time>2025-02-10T16:40:04.131Z</time>
      </trkpt>
      <trkpt lat="41.73408103175461" lon="-4.637877428904176">
        <ele>776.22</ele>
        <time>2025-02-10T16:40:04.500Z</time>
      </trkpt>
      <trkpt lat="41.734093353152275" lon="-4.637875249609351">
        <ele>776.9</ele>
        <time>2025-02-10T16:40:04.870Z</time>
      </trkpt>
      <trkpt lat="41.73424791544676" lon="-4.637845326215029">
        <ele>777.72</ele>
        <time>2025-02-10T16:40:05.243Z</time>
      </trkpt>
      <trkpt lat="41.73426208086312" lon="-4.637842644006014">
        <ele>778.41</ele>
        <time>2025-02-10T16:40:05.616Z</time>
      </trkpt>
      <trkpt lat="41.734262835234404" lon="-4.637842560186982">
        <ele>779.1</ele>
        <time>2025-02-10T16:40:05.989Z</time>
      </trkpt>
      <trkpt lat="41.73426451161504" lon="-4.637842308729887">
        <ele>779.78</ele>
        <time>2025-02-10T16:40:06.362Z</time>
      </trkpt>
      <trkpt lat="41.734278006479144" lon="-4.6378397941589355">
        <ele>780.48</ele>
        <time>2025-02-10T16:40:06.735Z</time>
      </trkpt>
      <trkpt lat="41.73429116606712" lon="-4.637837279587984">
        <ele>781.16</ele>
        <time>2025-02-10T16:40:07.109Z</time>
      </trkpt>
      <trkpt lat="41.73430357128382" lon="-4.637834932655096">
        <ele>781.85</ele>
        <time>2025-02-10T16:40:07.483Z</time>
      </trkpt>
      <trkpt lat="41.734348414465785" lon="-4.637843230739236">
        <ele>782.56</ele>
        <time>2025-02-10T16:40:07.858Z</time>
      </trkpt>
      <trkpt lat="41.734362579882145" lon="-4.637845912948251">
        <ele>783.24</ele>
        <time>2025-02-10T16:40:08.233Z</time>
      </trkpt>
      <trkpt lat="41.73436333425343" lon="-4.637846080586314">
        <ele>783.9</ele>
        <time>2025-02-10T16:40:08.608Z</time>
      </trkpt>
      <trkpt lat="41.73436492681503" lon="-4.637846415862441">
        <ele>784.54</ele>
        <time>2025-02-10T16:40:08.983Z</time>
      </trkpt>
      <trkpt lat="41.73437833786011" lon="-4.6378489304333925">
        <ele>785.19</ele>
        <time>2025-02-10T16:40:09.358Z</time>
      </trkpt>
      <trkpt lat="41.734391413629055" lon="-4.637851445004344">
        <ele>785.82</ele>
        <time>2025-02-10T16:40:09.734Z</time>
      </trkpt>
      <trkpt lat="41.73440373502672" lon="-4.637853791937232">
        <ele>786.45</ele>
        <time>2025-02-10T16:40:10.110Z</time>
      </trkpt>
      <trkpt lat="41.73466298729181" lon="-4.637980693951249">
        <ele>787.31</ele>
        <time>2025-02-10T16:40:10.491Z</time>
      </trkpt>
      <trkpt lat="41.73467664979398" lon="-4.637987399473786">
        <ele>787.9</ele>
        <time>2025-02-10T16:40:10.873Z</time>
      </trkpt>
      <trkpt lat="41.73467740416527" lon="-4.637987734749913">
        <ele>788.45</ele>
        <time>2025-02-10T16:40:11.255Z</time>
      </trkpt>
      <trkpt lat="41.73467891290784" lon="-4.637988489121199">
        <ele>788.98</ele>
        <time>2025-02-10T16:40:11.637Z</time>
      </trkpt>
      <trkpt lat="41.734691904857755" lon="-4.637994859367609">
        <ele>789.5</ele>
        <time>2025-02-10T16:40:12.019Z</time>
      </trkpt>
      <trkpt lat="41.73469953238964" lon="-4.637998631224036">
        <ele>789.99</ele>
        <time>2025-02-10T16:40:12.401Z</time>
      </trkpt>
      <trkpt lat="41.73470447771251" lon="-4.638001061975956">
        <ele>790.45</ele>
        <time>2025-02-10T16:40:12.783Z</time>
      </trkpt>
      <trkpt lat="41.73471612855792" lon="-4.638006761670113">
        <ele>790.89</ele>
        <time>2025-02-10T16:40:13.165Z</time>
      </trkpt>
      <trkpt lat="41.73472677357495" lon="-4.638004414737225">
        <ele>791.31</ele>
        <time>2025-02-10T16:40:13.548Z</time>
      </trkpt>
      <trkpt lat="41.73474093899131" lon="-4.6380014810711145">
        <ele>791.7</ele>
        <time>2025-02-10T16:40:13.931Z</time>
      </trkpt>
      <trkpt lat="41.734741693362594" lon="-4.638001397252083">
        <ele>792.06</ele>
        <time>2025-02-10T16:40:14.314Z</time>
      </trkpt>
      <trkpt lat="41.73474336974323" lon="-4.638001061975956">
        <ele>792.4</ele>
        <time>2025-02-10T16:40:14.697Z</time>
      </trkpt>
      <trkpt lat="41.7347567807883" lon="-4.637998379766941">
        <ele>792.71</ele>
        <time>2025-02-10T16:40:15.080Z</time>
      </trkpt>
      <trkpt lat="41.73476985655725" lon="-4.637995781376958">
        <ele>793.01</ele>
        <time>2025-02-10T16:40:15.464Z</time>
      </trkpt>
      <trkpt lat="41.73478217795491" lon="-4.637993350625038">
        <ele>793.28</ele>
        <time>2025-02-10T16:40:15.848Z</time>
      </trkpt>
      <trkpt lat="41.73483205027878" lon="-4.63798807002604">
        <ele>793.57</ele>
        <time>2025-02-10T16:40:16.233Z</time>
      </trkpt>
      <trkpt lat="41.73484646715224" lon="-4.637986561283469">
        <ele>793.8</ele>
        <time>2025-02-10T16:40:16.618Z</time>
      </trkpt>
      <trkpt lat="41.73484722152352" lon="-4.637986561283469">
        <ele>794.0</ele>
        <time>2025-02-10T16:40:17.003Z</time>
      </trkpt>
      <trkpt lat="41.73484889790416" lon="-4.6379864774644375">
        <ele>794.18</ele>
        <time>2025-02-10T16:40:17.388Z</time>
      </trkpt>
      <trkpt lat="41.73486256040633" lon="-4.63798513635993">
        <ele>794.36</ele>
        <time>2025-02-10T16:40:17.773Z</time>
      </trkpt>
      <trkpt lat="41.73487580381334" lon="-4.637983795255423">
        <ele>794.51</ele>
        <time>2025-02-10T16:40:18.159Z</time>
      </trkpt>
      <trkpt lat="41.734888292849064" lon="-4.637982621788979">
        <ele>794.65</ele>
        <time>2025-02-10T16:40:18.545Z</time>
      </trkpt>
      <trkpt lat="41.734922993928194" lon="-4.637988740578294">
        <ele>794.78</ele>
        <time>2025-02-10T16:40:18.932Z</time>
      </trkpt>
      <trkpt lat="41.73493732698262" lon="-4.637991255149245">
        <ele>794.88</ele>
        <time>2025-02-10T16:40:19.319Z</time>
      </trkpt>
      <trkpt lat="41.7349380813539" lon="-4.637991422787309">
        <ele>794.96</ele>
        <time>2025-02-10T16:40:19.706Z</time>
      </trkpt>
      <trkpt lat="41.73493975773454" lon="-4.6379917580634356">
        <ele>795.02</ele>
        <time>2025-02-10T16:40:20.093Z</time>
      </trkpt>
      <trkpt lat="41.734946547076106" lon="-4.63799293152988">
        <ele>795.08</ele>
        <time>2025-02-10T16:40:20.480Z</time>
      </trkpt>
      <trkpt lat="41.734953336417675" lon="-4.637994188815355">
        <ele>795.12</ele>
        <time>2025-02-10T16:40:20.867Z</time>
      </trkpt>
      <trkpt lat="41.73496088013053" lon="-4.637995446100831">
        <ele>795.16</ele>
        <time>2025-02-10T16:40:21.254Z</time>
      </trkpt>
      <trkpt lat="41.734961634501815" lon="-4.6379956137388945">
        <ele>795.18</ele>
        <time>2025-02-10T16:40:21.641Z</time>
      </trkpt>
      <trkpt lat="41.73496322706342" lon="-4.637995949015021">
        <ele>795.2</ele>
        <time>2025-02-10T16:40:22.028Z</time>
      </trkpt>
      <trkpt lat="41.734966496005654" lon="-4.637996619567275">
        <ele>795.21</ele>
        <time>2025-02-10T16:40:22.416Z</time>
      </trkpt>
      <trkpt lat="41.734976805746555" lon="-4.637998463585973">
        <ele>795.23</ele>
        <time>2025-02-10T16:40:22.804Z</time>
      </trkpt>
      <trkpt lat="41.73497890122235" lon="-4.637998882681131">
        <ele>795.23</ele>
        <time>2025-02-10T16:40:23.192Z</time>
      </trkpt>
      <trkpt lat="41.73498929478228" lon="-4.63799343444407">
        <ele>795.24</ele>
        <time>2025-02-10T16:40:23.580Z</time>
      </trkpt>
      <trkpt lat="41.73499222844839" lon="-4.637991841882467">
        <ele>795.24</ele>
        <time>2025-02-10T16:40:23.968Z</time>
      </trkpt>
      <trkpt lat="41.73500094562769" lon="-4.637987399473786">
        <ele>795.25</ele>
        <time>2025-02-10T16:40:24.356Z</time>
      </trkpt>
      <trkpt lat="41.735005555674434" lon="-4.637984465807676">
        <ele>795.25</ele>
        <time>2025-02-10T16:40:24.744Z</time>
      </trkpt>
      <trkpt lat="41.73500631004572" lon="-4.637984046712518">
        <ele>795.26</ele>
        <time>2025-02-10T16:40:25.132Z</time>
      </trkpt>
      <trkpt lat="41.73500781878829" lon="-4.637983208522201">
        <ele>795.28</ele>
        <time>2025-02-10T16:40:25.520Z</time>
      </trkpt>
      <trkpt lat="41.7350194696337" lon="-4.6379763353616">
        <ele>795.3</ele>
        <time>2025-02-10T16:40:25.909Z</time>
      </trkpt>
      <trkpt lat="41.73502039164305" lon="-4.63797583244741">
        <ele>795.33</ele>
        <time>2025-02-10T16:40:26.298Z</time>
      </trkpt>
      <trkpt lat="41.735032545402646" lon="-4.637968624010682">
        <ele>795.36</ele>
        <time>2025-02-10T16:40:26.687Z</time>
      </trkpt>
      <trkpt lat="41.73503271304071" lon="-4.637968456372619">
        <ele>795.4</ele>
        <time>2025-02-10T16:40:27.076Z</time>
      </trkpt>
      <trkpt lat="41.73503338359296" lon="-4.63796803727746">
        <ele>795.46</ele>
        <time>2025-02-10T16:40:27.465Z</time>
      </trkpt>
      <trkpt lat="41.735034892335534" lon="-4.637967199087143">
        <ele>795.52</ele>
        <time>2025-02-10T16:40:27.854Z</time>
      </trkpt>
      <trkpt lat="41.73504402860999" lon="-4.637961918488145">
        <ele>795.59</ele>
        <time>2025-02-10T16:40:28.243Z</time>
      </trkpt>
      <trkpt lat="41.73504754900932" lon="-4.637959990650415">
        <ele>795.67</ele>
        <time>2025-02-10T16:40:28.632Z</time>
      </trkpt>
      <trkpt lat="41.735059870406985" lon="-4.63795336894691">
        <ele>795.77</ele>
        <time>2025-02-10T16:40:29.022Z</time>
      </trkpt>
      <trkpt lat="41.73507026396692" lon="-4.637947753071785">
        <ele>795.88</ele>
        <time>2025-02-10T16:40:29.412Z</time>
      </trkpt>
      <trkpt lat="41.735071521252394" lon="-4.637947166338563">
        <ele>796.01</ele>
        <time>2025-02-10T16:40:29.802Z</time>
      </trkpt>
      <trkpt lat="41.735083842650056" lon="-4.637941047549248">
        <ele>796.15</ele>
        <time>2025-02-10T16:40:30.192Z</time>
      </trkpt>
      <trkpt lat="41.73508451320231" lon="-4.637940796092153">
        <ele>796.29</ele>
        <time>2025-02-10T16:40:30.582Z</time>
      </trkpt>
      <trkpt lat="41.73508610576391" lon="-4.637940125539899">
        <ele>796.44</ele>
        <time>2025-02-10T16:40:30.972Z</time>
      </trkpt>
      <trkpt lat="41.73509909771383" lon="-4.637933922931552">
        <ele>796.62</ele>
        <time>2025-02-10T16:40:31.362Z</time>
      </trkpt>
      <trkpt lat="41.73511175438762" lon="-4.6379279717803">
        <ele>796.81</ele>
        <time>2025-02-10T16:40:31.753Z</time>
      </trkpt>
      <trkpt lat="41.73512357287109" lon="-4.637922355905175">
        <ele>797.01</ele>
        <time>2025-02-10T16:40:32.144Z</time>
      </trkpt>
      <trkpt lat="41.73520286567509" lon="-4.637893186882138">
        <ele>797.27</ele>
        <time>2025-02-10T16:40:32.537Z</time>
      </trkpt>
      <trkpt lat="41.73521703109145" lon="-4.637888073921204">
        <ele>797.49</ele>
        <time>2025-02-10T16:40:32.930Z</time>
      </trkpt>
      <trkpt lat="41.73521778546274" lon="-4.6378878224641085">
        <ele>797.71</ele>
        <time>2025-02-10T16:40:33.323Z</time>
      </trkpt>
      <trkpt lat="41.73521937802434" lon="-4.637887319549918">
        <ele>797.94</ele>
        <time>2025-02-10T16:40:33.716Z</time>
      </trkpt>
      <trkpt lat="41.735232872888446" lon="-4.637882458046079">
        <ele>798.18</ele>
        <time>2025-02-10T16:40:34.109Z</time>
      </trkpt>
      <trkpt lat="41.735246032476425" lon="-4.637877764180303">
        <ele>798.43</ele>
        <time>2025-02-10T16:40:34.502Z</time>
      </trkpt>
      <trkpt lat="41.735258270055056" lon="-4.637873405590653">
        <ele>798.69</ele>
        <time>2025-02-10T16:40:34.896Z</time>
      </trkpt>
      <trkpt lat="41.7353527341038" lon="-4.637841135263443">
        <ele>799.0</ele>
        <time>2025-02-10T16:40:35.292Z</time>
      </trkpt>
      <trkpt lat="41.73536706715822" lon="-4.637836357578635">
        <ele>799.27</ele>
        <time>2025-02-10T16:40:35.688Z</time>
      </trkpt>
      <trkpt lat="41.73536782152951" lon="-4.63783610612154">
        <ele>799.52</ele>
        <time>2025-02-10T16:40:36.084Z</time>
      </trkpt>
      <trkpt lat="41.73536941409111" lon="-4.63783560320735">
        <ele>799.78</ele>
        <time>2025-02-10T16:40:36.480Z</time>
      </trkpt>
      <trkpt lat="41.73538299277425" lon="-4.637831076979637">
        <ele>800.05</ele>
        <time>2025-02-10T16:40:36.876Z</time>
      </trkpt>
      <trkpt lat="41.73539632000029" lon="-4.637826634570956">
        <ele>800.32</ele>
        <time>2025-02-10T16:40:37.273Z</time>
      </trkpt>
      <trkpt lat="41.73539673909545" lon="-4.637826466932893">
        <ele>800.57</ele>
        <time>2025-02-10T16:40:37.670Z</time>
      </trkpt>
      <trkpt lat="41.735408725216985" lon="-4.6378224436193705">
        <ele>800.83</ele>
        <time>2025-02-10T16:40:38.067Z</time>
      </trkpt>
      <trkpt lat="41.73541040159762" lon="-4.637820431962609">
        <ele>801.08</ele>
        <time>2025-02-10T16:40:38.464Z</time>
      </trkpt>
      <trkpt lat="41.73541107214987" lon="-4.637819761410356">
        <ele>801.33</ele>
        <time>2025-02-10T16:40:38.861Z</time>
      </trkpt>
      <trkpt lat="41.73541232943535" lon="-4.637818420305848">
        <ele>801.58</ele>
        <time>2025-02-10T16:40:39.258Z</time>
      </trkpt>
      <trkpt lat="41.73542322590947" lon="-4.637806685641408">
        <ele>801.83</ele>
        <time>2025-02-10T16:40:39.655Z</time>
      </trkpt>
      <trkpt lat="41.73542448319495" lon="-4.637805260717869">
        <ele>802.07</ele>
        <time>2025-02-10T16:40:40.052Z</time>
      </trkpt>
      <trkpt lat="41.7354338709265" lon="-4.637795370072126">
        <ele>802.31</ele>
        <time>2025-02-10T16:40:40.449Z</time>
      </trkpt>
      <trkpt lat="41.73543588258326" lon="-4.637793023139238">
        <ele>802.54</ele>
        <time>2025-02-10T16:40:40.846Z</time>
      </trkpt>
      <trkpt lat="41.73543646931648" lon="-4.637792436406016">
        <ele>802.76</ele>
        <time>2025-02-10T16:40:41.244Z</time>
      </trkpt>
      <trkpt lat="41.73543781042099" lon="-4.637791095301509">
        <ele>802.98</ele>
        <time>2025-02-10T16:40:41.642Z</time>
      </trkpt>
      <trkpt lat="41.73544376157224" lon="-4.63778480887413">
        <ele>803.19</ele>
        <time>2025-02-10T16:40:42.040Z</time>
      </trkpt>
      <trkpt lat="41.73544703051448" lon="-4.637777348980308">
        <ele>803.41</ele>
        <time>2025-02-10T16:40:42.438Z</time>
      </trkpt>
      <trkpt lat="41.7354476172477" lon="-4.637775924056768">
        <ele>803.6</ele>
        <time>2025-02-10T16:40:42.836Z</time>
      </trkpt>
      <trkpt lat="41.73545398749411" lon="-4.6377617586404085">
        <ele>803.81</ele>
        <time>2025-02-10T16:40:43.234Z</time>
      </trkpt>
      <trkpt lat="41.73545507714152" lon="-4.637759076431394">
        <ele>803.99</ele>
        <time>2025-02-10T16:40:43.632Z</time>
      </trkpt>
      <trkpt lat="41.73545549623668" lon="-4.637758154422045">
        <ele>804.17</ele>
        <time>2025-02-10T16:40:44.030Z</time>
      </trkpt>
      <trkpt lat="41.735456334427" lon="-4.637756310403347">
        <ele>804.34</ele>
        <time>2025-02-10T16:40:44.428Z</time>
      </trkpt>
      <trkpt lat="41.73546044155955" lon="-4.637747257947922">
        <ele>804.51</ele>
        <time>2025-02-10T16:40:44.826Z</time>
      </trkpt>
      <trkpt lat="41.73546379432082" lon="-4.637740384787321">
        <ele>804.66</ele>
        <time>2025-02-10T16:40:45.224Z</time>
      </trkpt>
      <trkpt lat="41.73546530306339" lon="-4.637737115845084">
        <ele>804.81</ele>
        <time>2025-02-10T16:40:45.623Z</time>
      </trkpt>
      <trkpt lat="41.735471338033676" lon="-4.637725129723549">
        <ele>804.95</ele>
        <time>2025-02-10T16:40:46.022Z</time>
      </trkpt>
      <trkpt lat="41.73547343350947" lon="-4.637720687314868">
        <ele>805.08</ele>
        <time>2025-02-10T16:40:46.421Z</time>
      </trkpt>
      <trkpt lat="41.73547385260463" lon="-4.637719849124551">
        <ele>805.19</ele>
        <time>2025-02-10T16:40:46.820Z</time>
      </trkpt>
      <trkpt lat="41.73547485843301" lon="-4.637718005105853">
        <ele>805.3</ele>
        <time>2025-02-10T16:40:47.219Z</time>
      </trkpt>
      <trkpt lat="41.73547846265137" lon="-4.637710964307189">
        <ele>805.39</ele>
        <time>2025-02-10T16:40:47.618Z</time>
      </trkpt>
      <trkpt lat="41.73547980375588" lon="-4.637703252956271">
        <ele>805.48</ele>
        <time>2025-02-10T16:40:48.017Z</time>
      </trkpt>
      <trkpt lat="41.73548022285104" lon="-4.637700989842415">
        <ele>805.55</ele>
        <time>2025-02-10T16:40:48.416Z</time>
      </trkpt>
      <trkpt lat="41.73548324033618" lon="-4.637684058398008">
        <ele>805.61</ele>
        <time>2025-02-10T16:40:48.815Z</time>
      </trkpt>
      <trkpt lat="41.735483491793275" lon="-4.6376831363886595">
        <ele>805.65</ele>
        <time>2025-02-10T16:40:49.214Z</time>
      </trkpt>
      <trkpt lat="41.7354838270694" lon="-4.637680957093835">
        <ele>805.68</ele>
        <time>2025-02-10T16:40:49.613Z</time>
      </trkpt>
      <trkpt lat="41.73548650927842" lon="-4.637666707858443">
        <ele>805.7</ele>
        <time>2025-02-10T16:40:50.013Z</time>
      </trkpt>
      <trkpt lat="41.73548650927842" lon="-4.637663438916206">
        <ele>805.7</ele>
        <time>2025-02-10T16:40:50.413Z</time>
      </trkpt>
      <trkpt lat="41.73548659309745" lon="-4.637662433087826">
        <ele>805.68</ele>
        <time>2025-02-10T16:40:50.813Z</time>
      </trkpt>
      <trkpt lat="41.735487347468734" lon="-4.637644160538912">
        <ele>805.66</ele>
        <time>2025-02-10T16:40:51.213Z</time>
      </trkpt>
      <trkpt lat="41.735487347468734" lon="-4.6376436576247215">
        <ele>805.61</ele>
        <time>2025-02-10T16:40:51.613Z</time>
      </trkpt>
      <trkpt lat="41.735487347468734" lon="-4.637642651796341">
        <ele>805.55</ele>
        <time>2025-02-10T16:40:52.013Z</time>
      </trkpt>
      <trkpt lat="41.735487347468734" lon="-4.637641394510865">
        <ele>805.46</ele>
        <time>2025-02-10T16:40:52.413Z</time>
      </trkpt>
      <trkpt lat="41.735487431287766" lon="-4.637640388682485">
        <ele>805.37</ele>
        <time>2025-02-10T16:40:52.813Z</time>
      </trkpt>
      <trkpt lat="41.73548801802099" lon="-4.637627145275474">
        <ele>805.26</ele>
        <time>2025-02-10T16:40:53.213Z</time>
      </trkpt>
      <trkpt lat="41.735486425459385" lon="-4.637621948495507">
        <ele>805.12</ele>
        <time>2025-02-10T16:40:53.613Z</time>
      </trkpt>
      <trkpt lat="41.73548609018326" lon="-4.637621026486158">
        <ele>804.98</ele>
        <time>2025-02-10T16:40:54.013Z</time>
      </trkpt>
      <trkpt lat="41.735485503450036" lon="-4.6376189310103655">
        <ele>804.81</ele>
        <time>2025-02-10T16:40:54.413Z</time>
      </trkpt>
      <trkpt lat="41.73548122867942" lon="-4.637604849413037">
        <ele>804.64</ele>
        <time>2025-02-10T16:40:54.814Z</time>
      </trkpt>
      <trkpt lat="41.735480139032006" lon="-4.637601412832737">
        <ele>804.44</ele>
        <time>2025-02-10T16:40:55.215Z</time>
      </trkpt>
      <trkpt lat="41.73547645099461" lon="-4.637588923797011">
        <ele>804.23</ele>
        <time>2025-02-10T16:40:55.616Z</time>
      </trkpt>
      <trkpt lat="41.73547360114753" lon="-4.637585571035743">
        <ele>804.01</ele>
        <time>2025-02-10T16:40:56.017Z</time>
      </trkpt>
      <trkpt lat="41.735463961958885" lon="-4.637574087828398">
        <ele>803.77</ele>
        <time>2025-02-10T16:40:56.418Z</time>
      </trkpt>
      <trkpt lat="41.735300263389945" lon="-4.6375082060694695">
        <ele>803.39</ele>
        <time>2025-02-10T16:40:56.823Z</time>
      </trkpt>
      <trkpt lat="41.73528576269746" lon="-4.637502422556281">
        <ele>803.13</ele>
        <time>2025-02-10T16:40:57.228Z</time>
      </trkpt>
      <trkpt lat="41.73528500832617" lon="-4.637502171099186">
        <ele>802.86</ele>
        <time>2025-02-10T16:40:57.633Z</time>
      </trkpt>
      <trkpt lat="41.73528341576457" lon="-4.637501584365964">
        <ele>802.59</ele>
        <time>2025-02-10T16:40:58.038Z</time>
      </trkpt>
      <trkpt lat="41.73526966944337" lon="-4.637496052309871">
        <ele>802.31</ele>
        <time>2025-02-10T16:40:58.443Z</time>
      </trkpt>
      <trkpt lat="41.73525609076023" lon="-4.637490604072809">
        <ele>802.02</ele>
        <time>2025-02-10T16:40:58.849Z</time>
      </trkpt>
      <trkpt lat="41.735243517905474" lon="-4.637485574930906">
        <ele>801.73</ele>
        <time>2025-02-10T16:40:59.255Z</time>
      </trkpt>
      <trkpt lat="41.7352232336998" lon="-4.637478031218052">
        <ele>801.43</ele>
        <time>2025-02-10T16:40:59.661Z</time>
      </trkpt>
      <trkpt lat="41.73520873300731" lon="-4.637472750619054">
        <ele>801.13</ele>
        <time>2025-02-10T16:41:00.068Z</time>
      </trkpt>
      <trkpt lat="41.735207978636026" lon="-4.637472499161959">
        <ele>800.84</ele>
        <time>2025-02-10T16:41:00.475Z</time>
      </trkpt>
      <trkpt lat="41.735206386074424" lon="-4.637471912428737">
        <ele>800.55</ele>
        <time>2025-02-10T16:41:00.882Z</time>
      </trkpt>
      <trkpt lat="41.73519255593419" lon="-4.637466883286834">
        <ele>800.25</ele>
        <time>2025-02-10T16:41:01.289Z</time>
      </trkpt>
      <trkpt lat="41.735179061070085" lon="-4.6374619379639626">
        <ele>799.96</ele>
        <time>2025-02-10T16:41:01.696Z</time>
      </trkpt>
      <trkpt lat="41.735166404396296" lon="-4.637457327917218">
        <ele>799.67</ele>
        <time>2025-02-10T16:41:02.103Z</time>
      </trkpt>
      <trkpt lat="41.7351040430367" lon="-4.637446096166968">
        <ele>799.34</ele>
        <time>2025-02-10T16:41:02.512Z</time>
      </trkpt>
      <trkpt lat="41.73508903943002" lon="-4.6374434139579535">
        <ele>799.05</ele>
        <time>2025-02-10T16:41:02.921Z</time>
      </trkpt>
      <trkpt lat="41.73508828505874" lon="-4.637443330138922">
        <ele>798.79</ele>
        <time>2025-02-10T16:41:03.330Z</time>
      </trkpt>
      <trkpt lat="41.7350866086781" lon="-4.637443078681827">
        <ele>798.53</ele>
        <time>2025-02-10T16:41:03.739Z</time>
      </trkpt>
      <trkpt lat="41.73507235944271" lon="-4.637440564110875">
        <ele>798.26</ele>
        <time>2025-02-10T16:41:04.148Z</time>
      </trkpt>
      <trkpt lat="41.735058361664414" lon="-4.637438133358955">
        <ele>798.0</ele>
        <time>2025-02-10T16:41:04.558Z</time>
      </trkpt>
      <trkpt lat="41.73504528589547" lon="-4.637435870245099">
        <ele>797.76</ele>
        <time>2025-02-10T16:41:04.968Z</time>
      </trkpt>
      <trkpt lat="41.73496641218662" lon="-4.637424973770976">
        <ele>797.49</ele>
        <time>2025-02-10T16:41:05.379Z</time>
      </trkpt>
      <trkpt lat="41.734951324760914" lon="-4.637422962114215">
        <ele>797.27</ele>
        <time>2025-02-10T16:41:05.791Z</time>
      </trkpt>
      <trkpt lat="41.7349504865706" lon="-4.637422878295183">
        <ele>797.06</ele>
        <time>2025-02-10T16:41:06.203Z</time>
      </trkpt>
      <trkpt lat="41.73494881018996" lon="-4.63742271065712">
        <ele>796.86</ele>
        <time>2025-02-10T16:41:06.615Z</time>
      </trkpt>
      <trkpt lat="41.73493439331651" lon="-4.63742078281939">
        <ele>796.66</ele>
        <time>2025-02-10T16:41:07.027Z</time>
      </trkpt>
      <trkpt lat="41.73492031171918" lon="-4.637418854981661">
        <ele>796.48</ele>
        <time>2025-02-10T16:41:07.439Z</time>
      </trkpt>
      <trkpt lat="41.73490706831217" lon="-4.637417094781995">
        <ele>796.3</ele>
        <time>2025-02-10T16:41:07.852Z</time>
      </trkpt>
      <trkpt lat="41.73479592427611" lon="-4.637333862483501">
        <ele>796.12</ele>
        <time>2025-02-10T16:41:08.267Z</time>
      </trkpt>
      <trkpt lat="41.7347826808691" lon="-4.637323971837759">
        <ele>795.97</ele>
        <time>2025-02-10T16:41:08.682Z</time>
      </trkpt>
      <trkpt lat="41.73478201031685" lon="-4.637323468923569">
        <ele>795.83</ele>
        <time>2025-02-10T16:41:09.098Z</time>
      </trkpt>
      <trkpt lat="41.73478050157428" lon="-4.637322379276156">
        <ele>795.7</ele>
        <time>2025-02-10T16:41:09.514Z</time>
      </trkpt>
      <trkpt lat="41.73476784490049" lon="-4.637312907725573">
        <ele>795.58</ele>
        <time>2025-02-10T16:41:09.930Z</time>
      </trkpt>
      <trkpt lat="41.734755439683795" lon="-4.637303603813052">
        <ele>795.46</ele>
        <time>2025-02-10T16:41:10.346Z</time>
      </trkpt>
      <trkpt lat="41.73474387265742" lon="-4.6372949704527855">
        <ele>795.36</ele>
        <time>2025-02-10T16:41:10.762Z</time>
      </trkpt>
      <trkpt lat="41.73467698507011" lon="-4.637218862771988">
        <ele>795.27</ele>
        <time>2025-02-10T16:41:11.180Z</time>
      </trkpt>
      <trkpt lat="41.73466541804373" lon="-4.63720578700304">
        <ele>795.18</ele>
        <time>2025-02-10T16:41:11.598Z</time>
      </trkpt>
      <trkpt lat="41.73466483131051" lon="-4.637205116450787">
        <ele>795.1</ele>
        <time>2025-02-10T16:41:12.016Z</time>
      </trkpt>
      <trkpt lat="41.734663574025035" lon="-4.637203691527247">
        <ele>795.02</ele>
        <time>2025-02-10T16:41:12.434Z</time>
      </trkpt>
      <trkpt lat="41.73465259373188" lon="-4.637191202491522">
        <ele>794.95</ele>
        <time>2025-02-10T16:41:12.853Z</time>
      </trkpt>
      <trkpt lat="41.73464178107679" lon="-4.637178964912891">
        <ele>794.89</ele>
        <time>2025-02-10T16:41:13.272Z</time>
      </trkpt>
      <trkpt lat="41.73463172279298" lon="-4.637167481705546">
        <ele>794.82</ele>
        <time>2025-02-10T16:41:13.691Z</time>
      </trkpt>
      <trkpt lat="41.73461294732988" lon="-4.637153735384345">
        <ele>794.75</ele>
        <time>2025-02-10T16:41:14.111Z</time>
      </trkpt>
      <trkpt lat="41.734599620103836" lon="-4.637144012376666">
        <ele>794.69</ele>
        <time>2025-02-10T16:41:14.531Z</time>
      </trkpt>
      <trkpt lat="41.73459886573255" lon="-4.637143509462476">
        <ele>794.63</ele>
        <time>2025-02-10T16:41:14.951Z</time>
      </trkpt>
      <trkpt lat="41.73459744080901" lon="-4.637142503634095">
        <ele>794.57</ele>
        <time>2025-02-10T16:41:15.371Z</time>
      </trkpt>
      <trkpt lat="41.73458470031619" lon="-4.637133199721575">
        <ele>794.51</ele>
        <time>2025-02-10T16:41:15.791Z</time>
      </trkpt>
      <trkpt lat="41.734572211280465" lon="-4.6371241472661495">
        <ele>794.45</ele>
        <time>2025-02-10T16:41:16.212Z</time>
      </trkpt>
      <trkpt lat="41.73456056043506" lon="-4.637115681543946">
        <ele>794.38</ele>
        <time>2025-02-10T16:41:16.633Z</time>
      </trkpt>
      <trkpt lat="41.73448118381202" lon="-4.637052733451128">
        <ele>794.3</ele>
        <time>2025-02-10T16:41:17.056Z</time>
      </trkpt>
      <trkpt lat="41.73446802422404" lon="-4.637042256072164">
        <ele>794.22</ele>
        <time>2025-02-10T16:41:17.479Z</time>
      </trkpt>
      <trkpt lat="41.73446735367179" lon="-4.637041753157973">
        <ele>794.16</ele>
        <time>2025-02-10T16:41:17.902Z</time>
      </trkpt>
      <trkpt lat="41.73446592874825" lon="-4.637040663510561">
        <ele>794.09</ele>
        <time>2025-02-10T16:41:18.325Z</time>
      </trkpt>
      <trkpt lat="41.73445335589349" lon="-4.637030689045787">
        <ele>794.02</ele>
        <time>2025-02-10T16:41:18.748Z</time>
      </trkpt>
      <trkpt lat="41.734449500218034" lon="-4.637027587741613">
        <ele>793.95</ele>
        <time>2025-02-10T16:41:19.172Z</time>
      </trkpt>
      <trkpt lat="41.73444103449583" lon="-4.637020966038108">
        <ele>793.86</ele>
        <time>2025-02-10T16:41:19.596Z</time>
      </trkpt>
      <trkpt lat="41.734436340630054" lon="-4.637017110362649">
        <ele>793.79</ele>
        <time>2025-02-10T16:41:20.020Z</time>
      </trkpt>
      <trkpt lat="41.7344356700778" lon="-4.637016607448459">
        <ele>793.71</ele>
        <time>2025-02-10T16:41:20.444Z</time>
      </trkpt>
      <trkpt lat="41.73443424515426" lon="-4.637015517801046">
        <ele>793.63</ele>
        <time>2025-02-10T16:41:20.868Z</time>
      </trkpt>
      <trkpt lat="41.734429551288486" lon="-4.637011829763651">
        <ele>793.54</ele>
        <time>2025-02-10T16:41:21.292Z</time>
      </trkpt>
      <trkpt lat="41.73442108556628" lon="-4.637007135897875">
        <ele>793.45</ele>
        <time>2025-02-10T16:41:21.716Z</time>
      </trkpt>
      <trkpt lat="41.73440784215927" lon="-4.636999843642116">
        <ele>793.36</ele>
        <time>2025-02-10T16:41:22.140Z</time>
      </trkpt>
      <trkpt lat="41.734403651207685" lon="-4.636997496709228">
        <ele>793.27</ele>
        <time>2025-02-10T16:41:22.565Z</time>
      </trkpt>
      <trkpt lat="41.73439552076161" lon="-4.636993054300547">
        <ele>793.17</ele>
        <time>2025-02-10T16:41:22.990Z</time>
      </trkpt>
      <trkpt lat="41.734390491619706" lon="-4.636987438425422">
        <ele>793.08</ele>
        <time>2025-02-10T16:41:23.415Z</time>
      </trkpt>
      <trkpt lat="41.734389904886484" lon="-4.636986767873168">
        <ele>792.99</ele>
        <time>2025-02-10T16:41:23.840Z</time>
      </trkpt>
      <trkpt lat="41.73438864760101" lon="-4.636985342949629">
        <ele>792.9</ele>
        <time>2025-02-10T16:41:24.265Z</time>
      </trkpt>
      <trkpt lat="41.73437749966979" lon="-4.63697268627584">
        <ele>792.8</ele>
        <time>2025-02-10T16:41:24.690Z</time>
      </trkpt>
      <trkpt lat="41.73436660319567" lon="-4.636960281059146">
        <ele>792.71</ele>
        <time>2025-02-10T16:41:25.115Z</time>
      </trkpt>
      <trkpt lat="41.73435646109283" lon="-4.636948797851801">
        <ele>792.61</ele>
        <time>2025-02-10T16:41:25.541Z</time>
      </trkpt>
      <trkpt lat="41.73429544083774" lon="-4.63687302544713">
        <ele>792.5</ele>
        <time>2025-02-10T16:41:25.968Z</time>
      </trkpt>
      <trkpt lat="41.73428420908749" lon="-4.6368591114878654">
        <ele>792.4</ele>
        <time>2025-02-10T16:41:26.396Z</time>
      </trkpt>
      <trkpt lat="41.73428362235427" lon="-4.636858440935612">
        <ele>792.31</ele>
        <time>2025-02-10T16:41:26.824Z</time>
      </trkpt>
      <trkpt lat="41.73428236506879" lon="-4.636856932193041">
        <ele>792.22</ele>
        <time>2025-02-10T16:41:27.252Z</time>
      </trkpt>
      <trkpt lat="41.734271636232734" lon="-4.63684368878603">
        <ele>792.12</ele>
        <time>2025-02-10T16:41:27.680Z</time>
      </trkpt>
      <trkpt lat="41.73426115885377" lon="-4.636830696836114">
        <ele>792.02</ele>
        <time>2025-02-10T16:41:28.108Z</time>
      </trkpt>
      <trkpt lat="41.73425135202706" lon="-4.636818543076515">
        <ele>791.94</ele>
        <time>2025-02-10T16:41:28.537Z</time>
      </trkpt>
      <trkpt lat="41.73420407809317" lon="-4.636767329648137">
        <ele>791.83</ele>
        <time>2025-02-10T16:41:28.967Z</time>
      </trkpt>
      <trkpt lat="41.73419217579067" lon="-4.636754421517253">
        <ele>791.74</ele>
        <time>2025-02-10T16:41:29.397Z</time>
      </trkpt>
      <trkpt lat="41.734191589057446" lon="-4.636753750964999">
        <ele>791.66</ele>
        <time>2025-02-10T16:41:29.827Z</time>
      </trkpt>
      <trkpt lat="41.73419024795294" lon="-4.63675232604146">
        <ele>791.58</ele>
        <time>2025-02-10T16:41:30.257Z</time>
      </trkpt>
      <trkpt lat="41.734178848564625" lon="-4.636740004643798">
        <ele>791.5</ele>
        <time>2025-02-10T16:41:30.687Z</time>
      </trkpt>
      <trkpt lat="41.734167616814375" lon="-4.636727850884199">
        <ele>791.42</ele>
        <time>2025-02-10T16:41:31.118Z</time>
      </trkpt>
      <trkpt lat="41.73415722325444" lon="-4.636716619133949">
        <ele>791.34</ele>
        <time>2025-02-10T16:41:31.549Z</time>
      </trkpt>
      <trkpt lat="41.73414406366646" lon="-4.6367021184414625">
        <ele>791.26</ele>
        <time>2025-02-10T16:41:31.980Z</time>
      </trkpt>
      <trkpt lat="41.73413207754493" lon="-4.636689042672515">
        <ele>791.19</ele>
        <time>2025-02-10T16:41:32.412Z</time>
      </trkpt>
      <trkpt lat="41.734131490811706" lon="-4.636688372120261">
        <ele>791.12</ele>
        <time>2025-02-10T16:41:32.844Z</time>
      </trkpt>
      <trkpt lat="41.7341301497072" lon="-4.636686947196722">
        <ele>791.05</ele>
        <time>2025-02-10T16:41:33.276Z</time>
      </trkpt>
      <trkpt lat="41.73411883413792" lon="-4.636674541980028">
        <ele>790.98</ele>
        <time>2025-02-10T16:41:33.708Z</time>
      </trkpt>
      <trkpt lat="41.73410760238767" lon="-4.636662220582366">
        <ele>790.9</ele>
        <time>2025-02-10T16:41:34.140Z</time>
      </trkpt>
      <trkpt lat="41.734097208827734" lon="-4.636650821194053">
        <ele>790.83</ele>
        <time>2025-02-10T16:41:34.573Z</time>
      </trkpt>
      <trkpt lat="41.73402872867882" lon="-4.636578820645809">
        <ele>790.75</ele>
        <time>2025-02-10T16:41:35.007Z</time>
      </trkpt>
      <trkpt lat="41.734016574919224" lon="-4.636566080152988">
        <ele>790.67</ele>
        <time>2025-02-10T16:41:35.442Z</time>
      </trkpt>
      <trkpt lat="41.73401590436697" lon="-4.636565409600735">
        <ele>790.6</ele>
        <time>2025-02-10T16:41:35.877Z</time>
      </trkpt>
      <trkpt lat="41.734014647081494" lon="-4.636564068496227">
        <ele>790.52</ele>
        <time>2025-02-10T16:41:36.312Z</time>
      </trkpt>
      <trkpt lat="41.73400308005512" lon="-4.6365519147366285">
        <ele>790.44</ele>
        <time>2025-02-10T16:41:36.747Z</time>
      </trkpt>
      <trkpt lat="41.73399159684777" lon="-4.6365398447960615">
        <ele>790.35</ele>
        <time>2025-02-10T16:41:37.182Z</time>
      </trkpt>
      <trkpt lat="41.73398103564978" lon="-4.636528696864843">
        <ele>790.26</ele>
        <time>2025-02-10T16:41:37.618Z</time>
      </trkpt>
      <trkpt lat="41.73394348472357" lon="-4.636516626924276">
        <ele>790.14</ele>
        <time>2025-02-10T16:41:38.054Z</time>
      </trkpt>
      <trkpt lat="41.73392831347883" lon="-4.636511849239469">
        <ele>790.03</ele>
        <time>2025-02-10T16:41:38.491Z</time>
      </trkpt>
      <trkpt lat="41.73392755910754" lon="-4.636511597782373">
        <ele>789.94</ele>
        <time>2025-02-10T16:41:38.928Z</time>
      </trkpt>
      <trkpt lat="41.73392596654594" lon="-4.636511094868183">
        <ele>789.83</ele>
        <time>2025-02-10T16:41:39.365Z</time>
      </trkpt>
      <trkpt lat="41.733911549672484" lon="-4.6365065686404705">
        <ele>789.72</ele>
        <time>2025-02-10T16:41:39.802Z</time>
      </trkpt>
      <trkpt lat="41.73389721661806" lon="-4.636502042412758">
        <ele>789.6</ele>
        <time>2025-02-10T16:41:40.239Z</time>
      </trkpt>
      <trkpt lat="41.73388388939202" lon="-4.636497851461172">
        <ele>789.47</ele>
        <time>2025-02-10T16:41:40.677Z</time>
      </trkpt>
      <trkpt lat="41.73381884582341" lon="-4.6364441234618425">
        <ele>789.33</ele>
        <time>2025-02-10T16:41:41.116Z</time>
      </trkpt>
      <trkpt lat="41.733805602416396" lon="-4.6364332269877195">
        <ele>789.21</ele>
        <time>2025-02-10T16:41:41.555Z</time>
      </trkpt>
      <trkpt lat="41.73380493186414" lon="-4.636432724073529">
        <ele>789.08</ele>
        <time>2025-02-10T16:41:41.994Z</time>
      </trkpt>
      <trkpt lat="41.7338035069406" lon="-4.636431550607085">
        <ele>788.94</ele>
        <time>2025-02-10T16:41:42.433Z</time>
      </trkpt>
      <trkpt lat="41.733790934085846" lon="-4.6364211570471525">
        <ele>788.8</ele>
        <time>2025-02-10T16:41:42.873Z</time>
      </trkpt>
      <trkpt lat="41.73377836123109" lon="-4.63641076348722">
        <ele>788.66</ele>
        <time>2025-02-10T16:41:43.313Z</time>
      </trkpt>
      <trkpt lat="41.73376679420471" lon="-4.636401208117604">
        <ele>788.5</ele>
        <time>2025-02-10T16:41:43.753Z</time>
      </trkpt>
      <trkpt lat="41.7337413970381" lon="-4.636382684111595">
        <ele>788.33</ele>
        <time>2025-02-10T16:41:44.194Z</time>
      </trkpt>
      <trkpt lat="41.73372773453593" lon="-4.636372709646821">
        <ele>788.16</ele>
        <time>2025-02-10T16:41:44.635Z</time>
      </trkpt>
      <trkpt lat="41.73372706398368" lon="-4.636372206732631">
        <ele>787.99</ele>
        <time>2025-02-10T16:41:45.076Z</time>
      </trkpt>
      <trkpt lat="41.73372555524111" lon="-4.636371117085218">
        <ele>787.81</ele>
        <time>2025-02-10T16:41:45.517Z</time>
      </trkpt>
      <trkpt lat="41.733712647110224" lon="-4.636361729353666">
        <ele>787.62</ele>
        <time>2025-02-10T16:41:45.959Z</time>
      </trkpt>
      <trkpt lat="41.73369965516031" lon="-4.6363522578030825">
        <ele>787.42</ele>
        <time>2025-02-10T16:41:46.401Z</time>
      </trkpt>
      <trkpt lat="41.73368766903877" lon="-4.636343540623784">
        <ele>787.22</ele>
        <time>2025-02-10T16:41:46.843Z</time>
      </trkpt>
      <trkpt lat="41.73367476090789" lon="-4.636339684948325">
        <ele>786.99</ele>
        <time>2025-02-10T16:41:47.285Z</time>
      </trkpt>
      <trkpt lat="41.73365958966315" lon="-4.636335242539644">
        <ele>786.76</ele>
        <time>2025-02-10T16:41:47.728Z</time>
      </trkpt>
      <trkpt lat="41.7336586676538" lon="-4.636334991082549">
        <ele>786.52</ele>
        <time>2025-02-10T16:41:48.171Z</time>
      </trkpt>
      <trkpt lat="41.733656991273165" lon="-4.636334488168359">
        <ele>786.28</ele>
        <time>2025-02-10T16:41:48.614Z</time>
      </trkpt>
      <trkpt lat="41.73364249058068" lon="-4.636330213397741">
        <ele>786.02</ele>
        <time>2025-02-10T16:41:49.057Z</time>
      </trkpt>
      <trkpt lat="41.73362798988819" lon="-4.636325938627124">
        <ele>785.75</ele>
        <time>2025-02-10T16:41:49.500Z</time>
      </trkpt>
      <trkpt lat="41.73361457884312" lon="-4.636321999132633">
        <ele>785.47</ele>
        <time>2025-02-10T16:41:49.944Z</time>
      </trkpt>
      <trkpt lat="41.73355716280639" lon="-4.636296099051833">
        <ele>785.15</ele>
        <time>2025-02-10T16:41:50.389Z</time>
      </trkpt>
      <trkpt lat="41.73354232683778" lon="-4.636289393529296">
        <ele>784.85</ele>
        <time>2025-02-10T16:41:50.834Z</time>
      </trkpt>
      <trkpt lat="41.73354148864746" lon="-4.636289058253169">
        <ele>784.56</ele>
        <time>2025-02-10T16:41:51.279Z</time>
      </trkpt>
      <trkpt lat="41.73353981226683" lon="-4.636288303881884">
        <ele>784.26</ele>
        <time>2025-02-10T16:41:51.724Z</time>
      </trkpt>
      <trkpt lat="41.73352564685047" lon="-4.636281933635473">
        <ele>783.94</ele>
        <time>2025-02-10T16:41:52.169Z</time>
      </trkpt>
      <trkpt lat="41.73351148143411" lon="-4.636275563389063">
        <ele>783.62</ele>
        <time>2025-02-10T16:41:52.615Z</time>
      </trkpt>
      <trkpt lat="41.73349840566516" lon="-4.636269696056843">
        <ele>783.29</ele>
        <time>2025-02-10T16:41:53.061Z</time>
      </trkpt>
      <trkpt lat="41.73345968127251" lon="-4.636254608631134">
        <ele>782.93</ele>
        <time>2025-02-10T16:41:53.508Z</time>
      </trkpt>
      <trkpt lat="41.73344467766583" lon="-4.636248741298914">
        <ele>782.6</ele>
        <time>2025-02-10T16:41:53.955Z</time>
      </trkpt>
      <trkpt lat="41.73344383947551" lon="-4.636248406022787">
        <ele>782.28</ele>
        <time>2025-02-10T16:41:54.402Z</time>
      </trkpt>
      <trkpt lat="41.73344216309488" lon="-4.636247735470533">
        <ele>781.95</ele>
        <time>2025-02-10T16:41:54.849Z</time>
      </trkpt>
      <trkpt lat="41.733427830040455" lon="-4.636242119595408">
        <ele>781.62</ele>
        <time>2025-02-10T16:41:55.297Z</time>
      </trkpt>
      <trkpt lat="41.73341349698603" lon="-4.6362365037202835">
        <ele>781.28</ele>
        <time>2025-02-10T16:41:55.745Z</time>
      </trkpt>
      <trkpt lat="41.73340025357902" lon="-4.636231306940317">
        <ele>780.95</ele>
        <time>2025-02-10T16:41:56.193Z</time>
      </trkpt>
      <trkpt lat="41.73315508291125" lon="-4.6359670255333185">
        <ele>780.59</ele>
        <time>2025-02-10T16:41:56.647Z</time>
      </trkpt>
      <trkpt lat="41.73308987170458" lon="-4.635896785184741">
        <ele>780.25</ele>
        <time>2025-02-10T16:41:57.103Z</time>
      </trkpt>
      <trkpt lat="41.73307771794498" lon="-4.635883625596762">
        <ele>779.93</ele>
        <time>2025-02-10T16:41:57.559Z</time>
      </trkpt>
      <trkpt lat="41.733077047392726" lon="-4.635882871225476">
        <ele>779.63</ele>
        <time>2025-02-10T16:41:58.015Z</time>
      </trkpt>
      <trkpt lat="41.73307570628822" lon="-4.635881446301937">
        <ele>779.32</ele>
        <time>2025-02-10T16:41:58.471Z</time>
      </trkpt>
      <trkpt lat="41.73306405544281" lon="-4.63586887344718">
        <ele>779.02</ele>
        <time>2025-02-10T16:41:58.928Z</time>
      </trkpt>
      <trkpt lat="41.73305248841643" lon="-4.635856384411454">
        <ele>778.73</ele>
        <time>2025-02-10T16:41:59.385Z</time>
      </trkpt>
      <trkpt lat="41.733041759580374" lon="-4.6358448173850775">
        <ele>778.44</ele>
        <time>2025-02-10T16:41:59.842Z</time>
      </trkpt>
      <trkpt lat="41.73301309347153" lon="-4.635837944224477">
        <ele>778.13</ele>
        <time>2025-02-10T16:42:00.300Z</time>
      </trkpt>
      <trkpt lat="41.73299758695066" lon="-4.635834256187081">
        <ele>777.84</ele>
        <time>2025-02-10T16:42:00.758Z</time>
      </trkpt>
      <trkpt lat="41.73299666494131" lon="-4.635834088549018">
        <ele>777.57</ele>
        <time>2025-02-10T16:42:01.216Z</time>
      </trkpt>
      <trkpt lat="41.73299498856068" lon="-4.635833669453859">
        <ele>777.29</ele>
        <time>2025-02-10T16:42:01.674Z</time>
      </trkpt>
      <trkpt lat="41.73298015259206" lon="-4.635830149054527">
        <ele>777.01</ele>
        <time>2025-02-10T16:42:02.133Z</time>
      </trkpt>
      <trkpt lat="41.73296540044248" lon="-4.635826628655195">
        <ele>776.74</ele>
        <time>2025-02-10T16:42:02.592Z</time>
      </trkpt>
      <trkpt lat="41.73295165412128" lon="-4.635823359712958">
        <ele>776.47</ele>
        <time>2025-02-10T16:42:03.051Z</time>
      </trkpt>
      <trkpt lat="41.73295131884515" lon="-4.635823108255863">
        <ele>776.21</ele>
        <time>2025-02-10T16:42:03.510Z</time>
      </trkpt>
      <trkpt lat="41.732937321066856" lon="-4.635813636705279">
        <ele>775.95</ele>
        <time>2025-02-10T16:42:03.969Z</time>
      </trkpt>
      <trkpt lat="41.73293648287654" lon="-4.635813133791089">
        <ele>775.71</ele>
        <time>2025-02-10T16:42:04.428Z</time>
      </trkpt>
      <trkpt lat="41.73293497413397" lon="-4.6358121279627085">
        <ele>775.46</ele>
        <time>2025-02-10T16:42:04.888Z</time>
      </trkpt>
      <trkpt lat="41.73292147926986" lon="-4.635803075507283">
        <ele>775.21</ele>
        <time>2025-02-10T16:42:05.348Z</time>
      </trkpt>
      <trkpt lat="41.73290806822479" lon="-4.63579410687089">
        <ele>774.96</ele>
        <time>2025-02-10T16:42:05.808Z</time>
      </trkpt>
      <trkpt lat="41.73289557918906" lon="-4.63578580878675">
        <ele>774.72</ele>
        <time>2025-02-10T16:42:06.268Z</time>
      </trkpt>
      <trkpt lat="41.73288417980075" lon="-4.635778600350022">
        <ele>774.48</ele>
        <time>2025-02-10T16:42:06.729Z</time>
      </trkpt>
      <trkpt lat="41.73286993056536" lon="-4.635769547894597">
        <ele>774.24</ele>
        <time>2025-02-10T16:42:07.190Z</time>
      </trkpt>
      <trkpt lat="41.73286909237504" lon="-4.635769044980407">
        <ele>774.01</ele>
        <time>2025-02-10T16:42:07.651Z</time>
      </trkpt>
      <trkpt lat="41.73286749981344" lon="-4.635768039152026">
        <ele>773.79</ele>
        <time>2025-02-10T16:42:08.112Z</time>
      </trkpt>
      <trkpt lat="41.73285383731127" lon="-4.6357594057917595">
        <ele>773.56</ele>
        <time>2025-02-10T16:42:08.573Z</time>
      </trkpt>
      <trkpt lat="41.7328401748091" lon="-4.635750772431493">
        <ele>773.33</ele>
        <time>2025-02-10T16:42:09.035Z</time>
      </trkpt>
      <trkpt lat="41.73282751813531" lon="-4.63574280962348">
        <ele>773.11</ele>
        <time>2025-02-10T16:42:09.497Z</time>
      </trkpt>
      <trkpt lat="41.73251629807055" lon="-4.635676508769393">
        <ele>772.76</ele>
        <time>2025-02-10T16:42:09.965Z</time>
      </trkpt>
      <trkpt lat="41.73249919898808" lon="-4.6356728207319975">
        <ele>772.55</ele>
        <time>2025-02-10T16:42:10.434Z</time>
      </trkpt>
      <trkpt lat="41.73248352482915" lon="-4.635669467970729">
        <ele>772.35</ele>
        <time>2025-02-10T16:42:10.903Z</time>
      </trkpt>
      <trkpt lat="41.73248268663883" lon="-4.635669300332665">
        <ele>772.16</ele>
        <time>2025-02-10T16:42:11.372Z</time>
      </trkpt>
      <trkpt lat="41.732480926439166" lon="-4.635668965056539">
        <ele>771.97</ele>
        <time>2025-02-10T16:42:11.841Z</time>
      </trkpt>
      <trkpt lat="41.73246592283249" lon="-4.635665779933333">
        <ele>771.79</ele>
        <time>2025-02-10T16:42:12.310Z</time>
      </trkpt>
      <trkpt lat="41.73245083540678" lon="-4.635662594810128">
        <ele>771.62</ele>
        <time>2025-02-10T16:42:12.780Z</time>
      </trkpt>
      <trkpt lat="41.73243700526655" lon="-4.635659661144018">
        <ele>771.46</ele>
        <time>2025-02-10T16:42:13.250Z</time>
      </trkpt>
      <trkpt lat="41.73241579905152" lon="-4.635662930086255">
        <ele>771.3</ele>
        <time>2025-02-10T16:42:13.720Z</time>
      </trkpt>
      <trkpt lat="41.7323998734355" lon="-4.6356654446572065">
        <ele>771.16</ele>
        <time>2025-02-10T16:42:14.191Z</time>
      </trkpt>
      <trkpt lat="41.73239903524518" lon="-4.63566561229527">
        <ele>771.03</ele>
        <time>2025-02-10T16:42:14.662Z</time>
      </trkpt>
      <trkpt lat="41.732397275045514" lon="-4.635665947571397">
        <ele>770.91</ele>
        <time>2025-02-10T16:42:15.133Z</time>
      </trkpt>
      <trkpt lat="41.732382103800774" lon="-4.635668378323317">
        <ele>770.8</ele>
        <time>2025-02-10T16:42:15.604Z</time>
      </trkpt>
      <trkpt lat="41.73236693255603" lon="-4.635670809075236">
        <ele>770.7</ele>
        <time>2025-02-10T16:42:16.075Z</time>
      </trkpt>
      <trkpt lat="41.73235293477774" lon="-4.635673072189093">
        <ele>770.61</ele>
        <time>2025-02-10T16:42:16.546Z</time>
      </trkpt>
      <trkpt lat="41.73233441077173" lon="-4.635681789368391">
        <ele>770.52</ele>
        <time>2025-02-10T16:42:17.018Z</time>
      </trkpt>
      <trkpt lat="41.73231932334602" lon="-4.635688997805119">
        <ele>770.46</ele>
        <time>2025-02-10T16:42:17.490Z</time>
      </trkpt>
      <trkpt lat="41.7323184851557" lon="-4.635689416900277">
        <ele>770.41</ele>
        <time>2025-02-10T16:42:17.962Z</time>
      </trkpt>
      <trkpt lat="41.73231680877507" lon="-4.635690255090594">
        <ele>770.37</ele>
        <time>2025-02-10T16:42:18.434Z</time>
      </trkpt>
      <trkpt lat="41.732302475720644" lon="-4.635697212070227">
        <ele>770.34</ele>
        <time>2025-02-10T16:42:18.907Z</time>
      </trkpt>
      <trkpt lat="41.73228805884719" lon="-4.635704169049859">
        <ele>770.33</ele>
        <time>2025-02-10T16:42:19.380Z</time>
      </trkpt>
      <trkpt lat="41.73227481544018" lon="-4.635710623115301">
        <ele>770.32</ele>
        <time>2025-02-10T16:42:19.853Z</time>
      </trkpt>
      <trkpt lat="41.732262996956706" lon="-4.635712802410126">
        <ele>770.34</ele>
        <time>2025-02-10T16:42:20.326Z</time>
      </trkpt>
      <trkpt lat="41.73224715515971" lon="-4.6357158198952675">
        <ele>770.36</ele>
        <time>2025-02-10T16:42:20.800Z</time>
      </trkpt>
      <trkpt lat="41.732246316969395" lon="-4.635715987533331">
        <ele>770.4</ele>
        <time>2025-02-10T16:42:21.274Z</time>
      </trkpt>
      <trkpt lat="41.73224455676973" lon="-4.6357164066284895">
        <ele>770.45</ele>
        <time>2025-02-10T16:42:21.748Z</time>
      </trkpt>
      <trkpt lat="41.73222930170596" lon="-4.6357193402945995">
        <ele>770.5</ele>
        <time>2025-02-10T16:42:22.222Z</time>
      </trkpt>
      <trkpt lat="41.732214130461216" lon="-4.635722357779741">
        <ele>770.57</ele>
        <time>2025-02-10T16:42:22.696Z</time>
      </trkpt>
      <trkpt lat="41.73220264725387" lon="-4.635724537074566">
        <ele>770.65</ele>
        <time>2025-02-10T16:42:23.171Z</time>
      </trkpt>
      <trkpt lat="41.73220013268292" lon="-4.635725123807788">
        <ele>770.73</ele>
        <time>2025-02-10T16:42:23.646Z</time>
      </trkpt>
      <trkpt lat="41.732188230380416" lon="-4.635716825723648">
        <ele>770.83</ele>
        <time>2025-02-10T16:42:24.121Z</time>
      </trkpt>
      <trkpt lat="41.7321873921901" lon="-4.635716238990426">
        <ele>770.93</ele>
        <time>2025-02-10T16:42:24.596Z</time>
      </trkpt>
      <trkpt lat="41.73218588344753" lon="-4.635715149343014">
        <ele>771.04</ele>
        <time>2025-02-10T16:42:25.071Z</time>
      </trkpt>
      <trkpt lat="41.73217222094536" lon="-4.63570567779243">
        <ele>771.15</ele>
        <time>2025-02-10T16:42:25.546Z</time>
      </trkpt>
      <trkpt lat="41.73215855844319" lon="-4.635696206241846">
        <ele>771.28</ele>
        <time>2025-02-10T16:42:26.022Z</time>
      </trkpt>
      <trkpt lat="41.73214606940746" lon="-4.635687572881579">
        <ele>771.4</ele>
        <time>2025-02-10T16:42:26.498Z</time>
      </trkpt>
      <trkpt lat="41.732128048315644" lon="-4.635676424950361">
        <ele>771.53</ele>
        <time>2025-02-10T16:42:26.974Z</time>
      </trkpt>
      <trkpt lat="41.732113463804126" lon="-4.635667372494936">
        <ele>771.66</ele>
        <time>2025-02-10T16:42:27.451Z</time>
      </trkpt>
      <trkpt lat="41.73211254179478" lon="-4.635666785761714">
        <ele>771.76</ele>
        <time>2025-02-10T16:42:27.928Z</time>
      </trkpt>
      <trkpt lat="41.73211086541414" lon="-4.635665779933333">
        <ele>771.85</ele>
        <time>2025-02-10T16:42:28.405Z</time>
      </trkpt>
      <trkpt lat="41.732096867635846" lon="-4.635657062754035">
        <ele>771.95</ele>
        <time>2025-02-10T16:42:28.882Z</time>
      </trkpt>
      <trkpt lat="41.73208278603852" lon="-4.635648429393768">
        <ele>772.04</ele>
        <time>2025-02-10T16:42:29.359Z</time>
      </trkpt>
      <trkpt lat="41.732071470469236" lon="-4.635641472414136">
        <ele>772.12</ele>
        <time>2025-02-10T16:42:29.837Z</time>
      </trkpt>
      <trkpt lat="41.732069961726665" lon="-4.635640550404787">
        <ele>772.17</ele>
        <time>2025-02-10T16:42:30.315Z</time>
      </trkpt>
      <trkpt lat="41.73205562867224" lon="-4.635638287290931">
        <ele>772.22</ele>
        <time>2025-02-10T16:42:30.793Z</time>
      </trkpt>
      <trkpt lat="41.73205470666289" lon="-4.635638203471899">
        <ele>772.24</ele>
        <time>2025-02-10T16:42:31.271Z</time>
      </trkpt>
      <trkpt lat="41.732052862644196" lon="-4.635637952014804">
        <ele>772.24</ele>
        <time>2025-02-10T16:42:31.749Z</time>
      </trkpt>
      <trkpt lat="41.73203743994236" lon="-4.635635605081916">
        <ele>772.24</ele>
        <time>2025-02-10T16:42:32.227Z</time>
      </trkpt>
      <trkpt lat="41.732022017240524" lon="-4.635633258149028">
        <ele>772.22</ele>
        <time>2025-02-10T16:42:32.706Z</time>
      </trkpt>
      <trkpt lat="41.732017155736685" lon="-4.635632503777742">
        <ele>772.17</ele>
        <time>2025-02-10T16:42:33.185Z</time>
      </trkpt>
      <trkpt lat="41.732007851824164" lon="-4.635631162673235">
        <ele>772.11</ele>
        <time>2025-02-10T16:42:33.664Z</time>
      </trkpt>
      <trkpt lat="41.73200131393969" lon="-4.6356333419680595">
        <ele>772.03</ele>
        <time>2025-02-10T16:42:34.143Z</time>
      </trkpt>
      <trkpt lat="41.73200039193034" lon="-4.635633677244186">
        <ele>771.93</ele>
        <time>2025-02-10T16:42:34.622Z</time>
      </trkpt>
      <trkpt lat="41.731998631730676" lon="-4.63563434779644">
        <ele>771.81</ele>
        <time>2025-02-10T16:42:35.101Z</time>
      </trkpt>
      <trkpt lat="41.731983628124" lon="-4.635639628395438">
        <ele>771.67</ele>
        <time>2025-02-10T16:42:35.580Z</time>
      </trkpt>
      <trkpt lat="41.73196862451732" lon="-4.635644992813468">
        <ele>771.51</ele>
        <time>2025-02-10T16:42:36.060Z</time>
      </trkpt>
      <trkpt lat="41.73195479437709" lon="-4.635649938136339">
        <ele>771.35</ele>
        <time>2025-02-10T16:42:36.540Z</time>
      </trkpt>
      <trkpt lat="41.73186058178544" lon="-4.635695284232497">
        <ele>771.08</ele>
        <time>2025-02-10T16:42:37.022Z</time>
      </trkpt>
      <trkpt lat="41.73184532672167" lon="-4.63570274412632">
        <ele>770.89</ele>
        <time>2025-02-10T16:42:37.504Z</time>
      </trkpt>
      <trkpt lat="41.73184440471232" lon="-4.63570324704051">
        <ele>770.71</ele>
        <time>2025-02-10T16:42:37.986Z</time>
      </trkpt>
      <trkpt lat="41.731842728331685" lon="-4.635704085230827">
        <ele>770.52</ele>
        <time>2025-02-10T16:42:38.468Z</time>
      </trkpt>
      <trkpt lat="41.7318279761821" lon="-4.635711293667555">
        <ele>770.31</ele>
        <time>2025-02-10T16:42:38.951Z</time>
      </trkpt>
      <trkpt lat="41.73181314021349" lon="-4.635718502104282">
        <ele>770.11</ele>
        <time>2025-02-10T16:42:39.434Z</time>
      </trkpt>
      <trkpt lat="41.73179964534938" lon="-4.635725123807788">
        <ele>769.91</ele>
        <time>2025-02-10T16:42:39.917Z</time>
      </trkpt>
      <trkpt lat="41.731773326173425" lon="-4.635726967826486">
        <ele>769.71</ele>
        <time>2025-02-10T16:42:40.401Z</time>
      </trkpt>
      <trkpt lat="41.73175706528127" lon="-4.63572814129293">
        <ele>769.52</ele>
        <time>2025-02-10T16:42:40.885Z</time>
      </trkpt>
      <trkpt lat="41.73175614327192" lon="-4.635728225111961">
        <ele>769.34</ele>
        <time>2025-02-10T16:42:41.369Z</time>
      </trkpt>
      <trkpt lat="41.731754299253225" lon="-4.635728392750025">
        <ele>769.18</ele>
        <time>2025-02-10T16:42:41.853Z</time>
      </trkpt>
      <trkpt lat="41.731738625094295" lon="-4.635729566216469">
        <ele>769.01</ele>
        <time>2025-02-10T16:42:42.337Z</time>
      </trkpt>
      <trkpt lat="41.731722950935364" lon="-4.635730739682913">
        <ele>768.86</ele>
        <time>2025-02-10T16:42:42.822Z</time>
      </trkpt>
      <trkpt lat="41.73170853406191" lon="-4.635731829330325">
        <ele>768.72</ele>
        <time>2025-02-10T16:42:43.307Z</time>
      </trkpt>
      <trkpt lat="41.73165958374739" lon="-4.63571104221046">
        <ele>768.6</ele>
        <time>2025-02-10T16:42:43.793Z</time>
      </trkpt>
      <trkpt lat="41.731643909588456" lon="-4.635704420506954">
        <ele>768.49</ele>
        <time>2025-02-10T16:42:44.279Z</time>
      </trkpt>
      <trkpt lat="41.73164298757911" lon="-4.635704085230827">
        <ele>768.4</ele>
        <time>2025-02-10T16:42:44.765Z</time>
      </trkpt>
      <trkpt lat="41.73164122737944" lon="-4.635703330859542">
        <ele>768.33</ele>
        <time>2025-02-10T16:42:45.251Z</time>
      </trkpt>
      <trkpt lat="41.731626223772764" lon="-4.6356969606131315">
        <ele>768.26</ele>
        <time>2025-02-10T16:42:45.738Z</time>
      </trkpt>
      <trkpt lat="41.73161122016609" lon="-4.635690674185753">
        <ele>768.22</ele>
        <time>2025-02-10T16:42:46.225Z</time>
      </trkpt>
      <trkpt lat="41.731597390025854" lon="-4.6356848906725645">
        <ele>768.19</ele>
        <time>2025-02-10T16:42:46.712Z</time>
      </trkpt>
      <trkpt lat="41.7315657902509" lon="-4.635650860145688">
        <ele>768.19</ele>
        <time>2025-02-10T16:42:47.200Z</time>
      </trkpt>
      <trkpt lat="41.73155304975808" lon="-4.635637113824487">
        <ele>768.19</ele>
        <time>2025-02-10T16:42:47.689Z</time>
      </trkpt>
      <trkpt lat="41.73155229538679" lon="-4.63563627563417">
        <ele>768.21</ele>
        <time>2025-02-10T16:42:48.178Z</time>
      </trkpt>
      <trkpt lat="41.73155087046325" lon="-4.635634683072567">
        <ele>768.24</ele>
        <time>2025-02-10T16:42:48.667Z</time>
      </trkpt>
      <trkpt lat="41.73153871670365" lon="-4.635621523484588">
        <ele>768.28</ele>
        <time>2025-02-10T16:42:49.156Z</time>
      </trkpt>
      <trkpt lat="41.73152647912502" lon="-4.635608363896608">
        <ele>768.34</ele>
        <time>2025-02-10T16:42:49.645Z</time>
      </trkpt>
      <trkpt lat="41.73151524737477" lon="-4.635596293956041">
        <ele>768.41</ele>
        <time>2025-02-10T16:42:50.134Z</time>
      </trkpt>
      <trkpt lat="41.73150451853871" lon="-4.635588498786092">
        <ele>768.49</ele>
        <time>2025-02-10T16:42:50.624Z</time>
      </trkpt>
      <trkpt lat="41.73149001784623" lon="-4.635577937588096">
        <ele>768.57</ele>
        <time>2025-02-10T16:42:51.114Z</time>
      </trkpt>
      <trkpt lat="41.73148917965591" lon="-4.635577267035842">
        <ele>768.67</ele>
        <time>2025-02-10T16:42:51.604Z</time>
      </trkpt>
      <trkpt lat="41.73148758709431" lon="-4.635576093569398">
        <ele>768.76</ele>
        <time>2025-02-10T16:42:52.094Z</time>
      </trkpt>
      <trkpt lat="41.731473756954074" lon="-4.63556595146656">
        <ele>768.87</ele>
        <time>2025-02-10T16:42:52.584Z</time>
      </trkpt>
      <trkpt lat="41.73145992681384" lon="-4.6355558931827545">
        <ele>768.99</ele>
        <time>2025-02-10T16:42:53.075Z</time>
      </trkpt>
      <trkpt lat="41.73144718632102" lon="-4.635546589270234">
        <ele>769.11</ele>
        <time>2025-02-10T16:42:53.566Z</time>
      </trkpt>
      <trkpt lat="41.731376107782125" lon="-4.635518090799451">
        <ele>769.24</ele>
        <time>2025-02-10T16:42:54.059Z</time>
      </trkpt>
      <trkpt lat="41.73136026598513" lon="-4.6355117205530405">
        <ele>769.36</ele>
        <time>2025-02-10T16:42:54.552Z</time>
      </trkpt>
      <trkpt lat="41.73135934397578" lon="-4.635511385276914">
        <ele>769.48</ele>
        <time>2025-02-10T16:42:55.045Z</time>
      </trkpt>
      <trkpt lat="41.731357499957085" lon="-4.63551071472466">
        <ele>769.59</ele>
        <time>2025-02-10T16:42:55.538Z</time>
      </trkpt>
      <trkpt lat="41.731342328712344" lon="-4.635504679754376">
        <ele>769.71</ele>
        <time>2025-02-10T16:42:56.031Z</time>
      </trkpt>
      <trkpt lat="41.73132707364857" lon="-4.635498560965061">
        <ele>769.82</ele>
        <time>2025-02-10T16:42:56.525Z</time>
      </trkpt>
      <trkpt lat="41.731312992051244" lon="-4.635492945089936">
        <ele>769.93</ele>
        <time>2025-02-10T16:42:57.019Z</time>
      </trkpt>
      <trkpt lat="41.73122079111636" lon="-4.63545304723084">
        <ele>770.02</ele>
        <time>2025-02-10T16:42:57.515Z</time>
      </trkpt>
      <trkpt lat="41.73120494931936" lon="-4.635446174070239">
        <ele>770.11</ele>
        <time>2025-02-10T16:42:58.011Z</time>
      </trkpt>
      <trkpt lat="41.731204027310014" lon="-4.6354457549750805">
        <ele>770.2</ele>
        <time>2025-02-10T16:42:58.507Z</time>
      </trkpt>
      <trkpt lat="41.73120226711035" lon="-4.635445000603795">
        <ele>770.27</ele>
        <time>2025-02-10T16:42:59.003Z</time>
      </trkpt>
      <trkpt lat="41.73118709586561" lon="-4.635438462719321">
        <ele>770.33</ele>
        <time>2025-02-10T16:42:59.499Z</time>
      </trkpt>
      <trkpt lat="41.73117192462087" lon="-4.6354319248348475">
        <ele>770.39</ele>
        <time>2025-02-10T16:42:59.996Z</time>
      </trkpt>
      <trkpt lat="41.73115784302354" lon="-4.635425889864564">
        <ele>770.43</ele>
        <time>2025-02-10T16:43:00.493Z</time>
      </trkpt>
      <trkpt lat="41.73114510253072" lon="-4.635411556810141">
        <ele>770.46</ele>
        <time>2025-02-10T16:43:00.990Z</time>
      </trkpt>
      <trkpt lat="41.73113244585693" lon="-4.635397223755717">
        <ele>770.48</ele>
        <time>2025-02-10T16:43:01.488Z</time>
      </trkpt>
      <trkpt lat="41.73113169148564" lon="-4.6353963855654">
        <ele>770.49</ele>
        <time>2025-02-10T16:43:01.986Z</time>
      </trkpt>
      <trkpt lat="41.731130350381136" lon="-4.6353947930037975">
        <ele>770.48</ele>
        <time>2025-02-10T16:43:02.484Z</time>
      </trkpt>
      <trkpt lat="41.73111819662154" lon="-4.635381046682596">
        <ele>770.46</ele>
        <time>2025-02-10T16:43:02.982Z</time>
      </trkpt>
      <trkpt lat="41.73110604286194" lon="-4.635367216542363">
        <ele>770.42</ele>
        <time>2025-02-10T16:43:03.480Z</time>
      </trkpt>
      <trkpt lat="41.73109489493072" lon="-4.635354559868574">
        <ele>770.37</ele>
        <time>2025-02-10T16:43:03.979Z</time>
      </trkpt>
      <trkpt lat="41.73107813112438" lon="-4.635342573747039">
        <ele>770.29</ele>
        <time>2025-02-10T16:43:04.478Z</time>
      </trkpt>
      <trkpt lat="41.73106346279383" lon="-4.635332096368074">
        <ele>770.19</ele>
        <time>2025-02-10T16:43:04.977Z</time>
      </trkpt>
      <trkpt lat="41.73106262460351" lon="-4.635331509634852">
        <ele>770.08</ele>
        <time>2025-02-10T16:43:05.476Z</time>
      </trkpt>
      <trkpt lat="41.731060948222876" lon="-4.635330336168408">
        <ele>769.94</ele>
        <time>2025-02-10T16:43:05.976Z</time>
      </trkpt>
      <trkpt lat="41.73104695044458" lon="-4.6353202778846025">
        <ele>769.79</ele>
        <time>2025-02-10T16:43:06.476Z</time>
      </trkpt>
      <trkpt lat="41.73103278502822" lon="-4.635310219600797">
        <ele>769.61</ele>
        <time>2025-02-10T16:43:06.976Z</time>
      </trkpt>
      <trkpt lat="41.7310197930783" lon="-4.635300915688276">
        <ele>769.42</ele>
        <time>2025-02-10T16:43:07.476Z</time>
      </trkpt>
      <trkpt lat="41.7309420928359" lon="-4.635257413610816">
        <ele>769.18</ele>
        <time>2025-02-10T16:43:07.978Z</time>
      </trkpt>
      <trkpt lat="41.730926586315036" lon="-4.635248780250549">
        <ele>768.94</ele>
        <time>2025-02-10T16:43:08.480Z</time>
      </trkpt>
      <trkpt lat="41.73092574812472" lon="-4.635248277336359">
        <ele>768.69</ele>
        <time>2025-02-10T16:43:08.982Z</time>
      </trkpt>
      <trkpt lat="41.73092390410602" lon="-4.635247271507978">
        <ele>768.42</ele>
        <time>2025-02-10T16:43:09.485Z</time>
      </trkpt>
      <trkpt lat="41.73090915195644" lon="-4.635238973423839">
        <ele>768.12</ele>
        <time>2025-02-10T16:43:09.988Z</time>
      </trkpt>
      <trkpt lat="41.730894315987825" lon="-4.635230675339699">
        <ele>767.82</ele>
        <time>2025-02-10T16:43:10.491Z</time>
      </trkpt>
      <trkpt lat="41.730880569666624" lon="-4.635223047807813">
        <ele>767.49</ele>
        <time>2025-02-10T16:43:10.994Z</time>
      </trkpt>
      <trkpt lat="41.73072843812406" lon="-4.635157752782106">
        <ele>767.03</ele>
        <time>2025-02-10T16:43:11.501Z</time>
      </trkpt>
      <trkpt lat="41.73071234486997" lon="-4.635150879621506">
        <ele>766.67</ele>
        <time>2025-02-10T16:43:12.008Z</time>
      </trkpt>
      <trkpt lat="41.73071142286062" lon="-4.635150544345379">
        <ele>766.31</ele>
        <time>2025-02-10T16:43:12.515Z</time>
      </trkpt>
      <trkpt lat="41.730709578841925" lon="-4.635149789974093">
        <ele>765.94</ele>
        <time>2025-02-10T16:43:13.022Z</time>
      </trkpt>
      <trkpt lat="41.73069415614009" lon="-4.635143168270588">
        <ele>765.55</ele>
        <time>2025-02-10T16:43:13.529Z</time>
      </trkpt>
      <trkpt lat="41.73067864961922" lon="-4.635136546567082">
        <ele>765.16</ele>
        <time>2025-02-10T16:43:14.037Z</time>
      </trkpt>
      <trkpt lat="41.7306643165648" lon="-4.635130427777767">
        <ele>764.75</ele>
        <time>2025-02-10T16:43:14.545Z</time>
      </trkpt>
      <trkpt lat="41.730549819767475" lon="-4.635078543797135">
        <ele>764.25</ele>
        <time>2025-02-10T16:43:15.055Z</time>
      </trkpt>
      <trkpt lat="41.73053381033242" lon="-4.635071335360408">
        <ele>763.84</ele>
        <time>2025-02-10T16:43:15.566Z</time>
      </trkpt>
      <trkpt lat="41.73053288832307" lon="-4.635070916265249">
        <ele>763.43</ele>
        <time>2025-02-10T16:43:16.077Z</time>
      </trkpt>
      <trkpt lat="41.73053104430437" lon="-4.635070078074932">
        <ele>763.02</ele>
        <time>2025-02-10T16:43:16.588Z</time>
      </trkpt>
      <trkpt lat="41.73051570542157" lon="-4.6350631210953">
        <ele>762.59</ele>
        <time>2025-02-10T16:43:17.099Z</time>
      </trkpt>
      <trkpt lat="41.73050028271973" lon="-4.635056164115667">
        <ele>762.17</ele>
        <time>2025-02-10T16:43:17.610Z</time>
      </trkpt>
      <trkpt lat="41.73048603348434" lon="-4.635049710050225">
        <ele>761.74</ele>
        <time>2025-02-10T16:43:18.122Z</time>
      </trkpt>
      <trkpt lat="41.73044303432107" lon="-4.635034706443548">
        <ele>761.28</ele>
        <time>2025-02-10T16:43:18.635Z</time>
      </trkpt>
      <trkpt lat="41.730426689609885" lon="-4.6350290067493916">
        <ele>760.85</ele>
        <time>2025-02-10T16:43:19.148Z</time>
      </trkpt>
      <trkpt lat="41.730425767600536" lon="-4.635028755292296">
        <ele>760.43</ele>
        <time>2025-02-10T16:43:19.661Z</time>
      </trkpt>
      <trkpt lat="41.73042383976281" lon="-4.635028084740043">
        <ele>760.0</ele>
        <time>2025-02-10T16:43:20.174Z</time>
      </trkpt>
      <trkpt lat="41.730408165603876" lon="-4.635022636502981">
        <ele>759.57</ele>
        <time>2025-02-10T16:43:20.687Z</time>
      </trkpt>
      <trkpt lat="41.730392407625914" lon="-4.63501718826592">
        <ele>759.13</ele>
        <time>2025-02-10T16:43:21.201Z</time>
      </trkpt>
      <trkpt lat="41.73037790693343" lon="-4.635012159124017">
        <ele>758.69</ele>
        <time>2025-02-10T16:43:21.715Z</time>
      </trkpt>
      <trkpt lat="41.73034714534879" lon="-4.635012159124017">
        <ele>758.23</ele>
        <time>2025-02-10T16:43:22.230Z</time>
      </trkpt>
      <trkpt lat="41.73033021390438" lon="-4.635012159124017">
        <ele>757.78</ele>
        <time>2025-02-10T16:43:22.745Z</time>
      </trkpt>
      <trkpt lat="41.73032929189503" lon="-4.635012159124017">
        <ele>757.34</ele>
        <time>2025-02-10T16:43:23.260Z</time>
      </trkpt>
      <trkpt lat="41.7303273640573" lon="-4.635012159124017">
        <ele>756.91</ele>
        <time>2025-02-10T16:43:23.775Z</time>
      </trkpt>
      <trkpt lat="41.73031110316515" lon="-4.635012159124017">
        <ele>756.45</ele>
        <time>2025-02-10T16:43:24.290Z</time>
      </trkpt>
      <trkpt lat="41.730294842273" lon="-4.635012159124017">
        <ele>755.99</ele>
        <time>2025-02-10T16:43:24.806Z</time>
      </trkpt>
      <trkpt lat="41.73027975484729" lon="-4.635012159124017">
        <ele>755.54</ele>
        <time>2025-02-10T16:43:25.322Z</time>
      </trkpt>
      <trkpt lat="41.730241030454636" lon="-4.6350248996168375">
        <ele>755.04</ele>
        <time>2025-02-10T16:43:25.839Z</time>
      </trkpt>
      <trkpt lat="41.73022460192442" lon="-4.635030431672931">
        <ele>754.57</ele>
        <time>2025-02-10T16:43:26.356Z</time>
      </trkpt>
      <trkpt lat="41.73022367991507" lon="-4.635030766949058">
        <ele>754.12</ele>
        <time>2025-02-10T16:43:26.873Z</time>
      </trkpt>
      <trkpt lat="41.73022175207734" lon="-4.635031437501311">
        <ele>753.66</ele>
        <time>2025-02-10T16:43:27.390Z</time>
      </trkpt>
      <trkpt lat="41.73020607791841" lon="-4.635036718100309">
        <ele>753.19</ele>
        <time>2025-02-10T16:43:27.907Z</time>
      </trkpt>
      <trkpt lat="41.73019031994045" lon="-4.635042082518339">
        <ele>752.71</ele>
        <time>2025-02-10T16:43:28.425Z</time>
      </trkpt>
      <trkpt lat="41.7301756516099" lon="-4.63504702784121">
        <ele>752.23</ele>
        <time>2025-02-10T16:43:28.943Z</time>
      </trkpt>
      <trkpt lat="41.72998613677919" lon="-4.6349892765283585">
        <ele>751.66</ele>
        <time>2025-02-10T16:43:29.465Z</time>
      </trkpt>
      <trkpt lat="41.729969372972846" lon="-4.6349842473864555">
        <ele>751.19</ele>
        <time>2025-02-10T16:43:29.987Z</time>
      </trkpt>
      <trkpt lat="41.729968367144465" lon="-4.63498399592936">
        <ele>750.73</ele>
        <time>2025-02-10T16:43:30.509Z</time>
      </trkpt>
      <trkpt lat="41.72996652312577" lon="-4.63498349301517">
        <ele>750.27</ele>
        <time>2025-02-10T16:43:31.031Z</time>
      </trkpt>
      <trkpt lat="41.72995042987168" lon="-4.634978631511331">
        <ele>749.8</ele>
        <time>2025-02-10T16:43:31.554Z</time>
      </trkpt>
      <trkpt lat="41.72993425279856" lon="-4.634973770007491">
        <ele>749.33</ele>
        <time>2025-02-10T16:43:32.077Z</time>
      </trkpt>
      <trkpt lat="41.72991933301091" lon="-4.6349692437797785">
        <ele>748.87</ele>
        <time>2025-02-10T16:43:32.600Z</time>
      </trkpt>
      <trkpt lat="41.729877004399896" lon="-4.634973183274269">
        <ele>748.38</ele>
        <time>2025-02-10T16:43:33.124Z</time>
      </trkpt>
      <trkpt lat="41.72985998913646" lon="-4.634974775835872">
        <ele>747.91</ele>
        <time>2025-02-10T16:43:33.649Z</time>
      </trkpt>
      <trkpt lat="41.72985906712711" lon="-4.634974943473935">
        <ele>747.46</ele>
        <time>2025-02-10T16:43:34.174Z</time>
      </trkpt>
      <trkpt lat="41.72985713928938" lon="-4.63497519493103">
        <ele>747.0</ele>
        <time>2025-02-10T16:43:34.699Z</time>
      </trkpt>
      <trkpt lat="41.729840794578195" lon="-4.634976787492633">
        <ele>746.54</ele>
        <time>2025-02-10T16:43:35.224Z</time>
      </trkpt>
      <trkpt lat="41.72982436604798" lon="-4.634978463873267">
        <ele>746.09</ele>
        <time>2025-02-10T16:43:35.749Z</time>
      </trkpt>
      <trkpt lat="41.72980919480324" lon="-4.634979972615838">
        <ele>745.64</ele>
        <time>2025-02-10T16:43:36.275Z</time>
      </trkpt>
      <trkpt lat="41.7297472525388" lon="-4.6350157633423805">
        <ele>745.12</ele>
        <time>2025-02-10T16:43:36.802Z</time>
      </trkpt>
      <trkpt lat="41.7297316621989" lon="-4.6350248996168375">
        <ele>744.68</ele>
        <time>2025-02-10T16:43:37.329Z</time>
      </trkpt>
      <trkpt lat="41.729730824008584" lon="-4.6350254863500595">
        <ele>744.27</ele>
        <time>2025-02-10T16:43:37.856Z</time>
      </trkpt>
      <trkpt lat="41.72972906380892" lon="-4.635026575997472">
        <ele>743.86</ele>
        <time>2025-02-10T16:43:38.383Z</time>
      </trkpt>
      <trkpt lat="41.72971406020224" lon="-4.635035376995802">
        <ele>743.45</ele>
        <time>2025-02-10T16:43:38.911Z</time>
      </trkpt>
      <trkpt lat="41.72969897277653" lon="-4.635044261813164">
        <ele>743.05</ele>
        <time>2025-02-10T16:43:39.439Z</time>
      </trkpt>
      <trkpt lat="41.729684974998236" lon="-4.635052476078272">
        <ele>742.67</ele>
        <time>2025-02-10T16:43:39.967Z</time>
      </trkpt>
      <trkpt lat="41.72951121814549" lon="-4.635156746953726">
        <ele>742.07</ele>
        <time>2025-02-10T16:43:40.499Z</time>
      </trkpt>
      <trkpt lat="41.72949554398656" lon="-4.63516621850431">
        <ele>741.72</ele>
        <time>2025-02-10T16:43:41.031Z</time>
      </trkpt>
      <trkpt lat="41.72949470579624" lon="-4.635166805237532">
        <ele>741.42</ele>
        <time>2025-02-10T16:43:41.563Z</time>
      </trkpt>
      <trkpt lat="41.729492945596576" lon="-4.635167894884944">
        <ele>741.13</ele>
        <time>2025-02-10T16:43:42.095Z</time>
      </trkpt>
      <trkpt lat="41.72947785817087" lon="-4.635177031159401">
        <ele>740.84</ele>
        <time>2025-02-10T16:43:42.628Z</time>
      </trkpt>
      <trkpt lat="41.72946268692613" lon="-4.63518625125289">
        <ele>740.58</ele>
        <time>2025-02-10T16:43:43.161Z</time>
      </trkpt>
      <trkpt lat="41.72944868914783" lon="-4.635194716975093">
        <ele>740.34</ele>
        <time>2025-02-10T16:43:43.694Z</time>
      </trkpt>
      <trkpt lat="41.72945321537554" lon="-4.6348402462899685">
        <ele>740.31</ele>
        <time>2025-02-10T16:43:44.233Z</time>
      </trkpt>
      <trkpt lat="41.72945355065167" lon="-4.634818201884627">
        <ele>740.13</ele>
        <time>2025-02-10T16:43:44.772Z</time>
      </trkpt>
      <trkpt lat="41.7294536344707" lon="-4.63481686078012">
        <ele>739.95</ele>
        <time>2025-02-10T16:43:45.311Z</time>
      </trkpt>
      <trkpt lat="41.72945371828973" lon="-4.634814262390137">
        <ele>739.79</ele>
        <time>2025-02-10T16:43:45.850Z</time>
      </trkpt>
      <trkpt lat="41.72945405356586" lon="-4.634793139994144">
        <ele>739.65</ele>
        <time>2025-02-10T16:43:46.389Z</time>
      </trkpt>
      <trkpt lat="41.72945438884199" lon="-4.634774113073945">
        <ele>739.52</ele>
        <time>2025-02-10T16:43:46.929Z</time>
      </trkpt>
      <trkpt lat="41.72945438884199" lon="-4.634772101417184">
        <ele>739.38</ele>
        <time>2025-02-10T16:43:47.469Z</time>
      </trkpt>
      <trkpt lat="41.72945472411811" lon="-4.634751817211509">
        <ele>739.26</ele>
        <time>2025-02-10T16:43:48.009Z</time>
      </trkpt>
      <trkpt lat="41.729449443519115" lon="-4.634623238816857">
        <ele>739.16</ele>
        <time>2025-02-10T16:43:48.551Z</time>
      </trkpt>
      <trkpt lat="41.72944852150977" lon="-4.6346005238592625">
        <ele>739.04</ele>
        <time>2025-02-10T16:43:49.093Z</time>
      </trkpt>
      <trkpt lat="41.72944852150977" lon="-4.634599266573787">
        <ele>738.92</ele>
        <time>2025-02-10T16:43:49.635Z</time>
      </trkpt>
      <trkpt lat="41.729448437690735" lon="-4.634596668183804">
        <ele>738.81</ele>
        <time>2025-02-10T16:43:50.177Z</time>
      </trkpt>
      <trkpt lat="41.72944759950042" lon="-4.634574959054589">
        <ele>738.69</ele>
        <time>2025-02-10T16:43:50.720Z</time>
      </trkpt>
      <trkpt lat="41.7294467613101" lon="-4.634553333744407">
        <ele>738.58</ele>
        <time>2025-02-10T16:43:51.263Z</time>
      </trkpt>
      <trkpt lat="41.729446006938815" lon="-4.63453346863389">
        <ele>738.46</ele>
        <time>2025-02-10T16:43:51.806Z</time>
      </trkpt>
      <trkpt lat="41.72941247932613" lon="-4.634420396760106">
        <ele>738.31</ele>
        <time>2025-02-10T16:43:52.351Z</time>
      </trkpt>
      <trkpt lat="41.72940627671778" lon="-4.634399190545082">
        <ele>738.18</ele>
        <time>2025-02-10T16:43:52.897Z</time>
      </trkpt>
      <trkpt lat="41.729405941441655" lon="-4.634397933259606">
        <ele>738.05</ele>
        <time>2025-02-10T16:43:53.443Z</time>
      </trkpt>
      <trkpt lat="41.7294052708894" lon="-4.634395502507687">
        <ele>737.93</ele>
        <time>2025-02-10T16:43:53.989Z</time>
      </trkpt>
      <trkpt lat="41.72939931973815" lon="-4.63437513448298">
        <ele>737.8</ele>
        <time>2025-02-10T16:43:54.535Z</time>
      </trkpt>
      <trkpt lat="41.7293933685869" lon="-4.634354850277305">
        <ele>737.66</ele>
        <time>2025-02-10T16:43:55.081Z</time>
      </trkpt>
      <trkpt lat="41.729387920349836" lon="-4.634336242452264">
        <ele>737.53</ele>
        <time>2025-02-10T16:43:55.628Z</time>
      </trkpt>
      <trkpt lat="41.72932614572346" lon="-4.634186122566462">
        <ele>737.31</ele>
        <time>2025-02-10T16:43:56.177Z</time>
      </trkpt>
      <trkpt lat="41.729317931458354" lon="-4.634166173636913">
        <ele>737.18</ele>
        <time>2025-02-10T16:43:56.726Z</time>
      </trkpt>
      <trkpt lat="41.729317512363195" lon="-4.634165000170469">
        <ele>737.06</ele>
        <time>2025-02-10T16:43:57.275Z</time>
      </trkpt>
      <trkpt lat="41.72931659035385" lon="-4.634162653237581">
        <ele>736.95</ele>
        <time>2025-02-10T16:43:57.825Z</time>
      </trkpt>
      <trkpt lat="41.7293087951839" lon="-4.63414354249835">
        <ele>736.84</ele>
        <time>2025-02-10T16:43:58.375Z</time>
      </trkpt>
      <trkpt lat="41.72930100001395" lon="-4.634124347940087">
        <ele>736.74</ele>
        <time>2025-02-10T16:43:58.925Z</time>
      </trkpt>
      <trkpt lat="41.72929379157722" lon="-4.634106745943427">
        <ele>736.66</ele>
        <time>2025-02-10T16:43:59.475Z</time>
      </trkpt>
      <trkpt lat="41.72928557731211" lon="-4.634034326300025">
        <ele>736.6</ele>
        <time>2025-02-10T16:44:00.027Z</time>
      </trkpt>
      <trkpt lat="41.72928306274116" lon="-4.634011695161462">
        <ele>736.55</ele>
        <time>2025-02-10T16:44:00.579Z</time>
      </trkpt>
      <trkpt lat="41.72928297892213" lon="-4.634010354056954">
        <ele>736.51</ele>
        <time>2025-02-10T16:44:01.131Z</time>
      </trkpt>
      <trkpt lat="41.72928272746503" lon="-4.634007839486003">
        <ele>736.5</ele>
        <time>2025-02-10T16:44:01.683Z</time>
      </trkpt>
      <trkpt lat="41.729280296713114" lon="-4.633986046537757">
        <ele>736.5</ele>
        <time>2025-02-10T16:44:02.235Z</time>
      </trkpt>
      <trkpt lat="41.729277949780226" lon="-4.633964337408543">
        <ele>736.52</ele>
        <time>2025-02-10T16:44:02.788Z</time>
      </trkpt>
      <trkpt lat="41.7292757704854" lon="-4.633944388478994">
        <ele>736.56</ele>
        <time>2025-02-10T16:44:03.341Z</time>
      </trkpt>
      <trkpt lat="41.72930636443198" lon="-4.633845817297697">
        <ele>736.65</ele>
        <time>2025-02-10T16:44:03.896Z</time>
      </trkpt>
      <trkpt lat="41.72931298613548" lon="-4.633824694901705">
        <ele>736.73</ele>
        <time>2025-02-10T16:44:04.451Z</time>
      </trkpt>
      <trkpt lat="41.72931340523064" lon="-4.633823521435261">
        <ele>736.84</ele>
        <time>2025-02-10T16:44:05.006Z</time>
      </trkpt>
      <trkpt lat="41.72931415960193" lon="-4.633821174502373">
        <ele>736.96</ele>
        <time>2025-02-10T16:44:05.561Z</time>
      </trkpt>
      <trkpt lat="41.72932052984834" lon="-4.633800890296698">
        <ele>737.12</ele>
        <time>2025-02-10T16:44:06.116Z</time>
      </trkpt>
      <trkpt lat="41.72932690009475" lon="-4.6337806060910225">
        <ele>737.29</ele>
        <time>2025-02-10T16:44:06.672Z</time>
      </trkpt>
      <trkpt lat="41.729332851246" lon="-4.633761830627918">
        <ele>737.49</ele>
        <time>2025-02-10T16:44:07.228Z</time>
      </trkpt>
      <trkpt lat="41.729376604780555" lon="-4.633663259446621">
        <ele>737.75</ele>
        <time>2025-02-10T16:44:07.786Z</time>
      </trkpt>
      <trkpt lat="41.729385405778885" lon="-4.633643478155136">
        <ele>738.0</ele>
        <time>2025-02-10T16:44:08.344Z</time>
      </trkpt>
      <trkpt lat="41.72938599251211" lon="-4.633642388507724">
        <ele>738.27</ele>
        <time>2025-02-10T16:44:08.902Z</time>
      </trkpt>
      <trkpt lat="41.72938699834049" lon="-4.633640209212899">
        <ele>738.55</ele>
        <time>2025-02-10T16:44:09.460Z</time>
      </trkpt>
      <trkpt lat="41.72939546406269" lon="-4.6336212661117315">
        <ele>738.88</ele>
        <time>2025-02-10T16:44:10.018Z</time>
      </trkpt>
      <trkpt lat="41.729404013603926" lon="-4.633602239191532">
        <ele>739.22</ele>
        <time>2025-02-10T16:44:10.577Z</time>
      </trkpt>
      <trkpt lat="41.72941189259291" lon="-4.633584721013904">
        <ele>739.58</ele>
        <time>2025-02-10T16:44:11.136Z</time>
      </trkpt>
      <trkpt lat="41.7294295784086" lon="-4.63355815038085">
        <ele>739.97</ele>
        <time>2025-02-10T16:44:11.696Z</time>
      </trkpt>
      <trkpt lat="41.72944122925401" lon="-4.633540799841285">
        <ele>740.39</ele>
        <time>2025-02-10T16:44:12.256Z</time>
      </trkpt>
      <trkpt lat="41.72944189980626" lon="-4.633539877831936">
        <ele>740.81</ele>
        <time>2025-02-10T16:44:12.816Z</time>
      </trkpt>
      <trkpt lat="41.72944324091077" lon="-4.633537949994206">
        <ele>741.25</ele>
        <time>2025-02-10T16:44:13.376Z</time>
      </trkpt>
      <trkpt lat="41.72945438884199" lon="-4.6335214376449585">
        <ele>741.72</ele>
        <time>2025-02-10T16:44:13.936Z</time>
      </trkpt>
      <trkpt lat="41.72946562059224" lon="-4.633504841476679">
        <ele>742.21</ele>
        <time>2025-02-10T16:44:14.497Z</time>
      </trkpt>
      <trkpt lat="41.72947601415217" lon="-4.633489418774843">
        <ele>742.72</ele>
        <time>2025-02-10T16:44:15.058Z</time>
      </trkpt>
      <trkpt lat="41.72952094115317" lon="-4.633457567542791">
        <ele>743.27</ele>
        <time>2025-02-10T16:44:15.620Z</time>
      </trkpt>
      <trkpt lat="41.729536447674036" lon="-4.633446671068668">
        <ele>743.81</ele>
        <time>2025-02-10T16:44:16.182Z</time>
      </trkpt>
      <trkpt lat="41.72953728586435" lon="-4.633446168154478">
        <ele>744.34</ele>
        <time>2025-02-10T16:44:16.744Z</time>
      </trkpt>
      <trkpt lat="41.72953904606402" lon="-4.633444994688034">
        <ele>744.88</ele>
        <time>2025-02-10T16:44:17.306Z</time>
      </trkpt>
      <trkpt lat="41.72955388203263" lon="-4.633434601128101">
        <ele>745.43</ele>
        <time>2025-02-10T16:44:17.869Z</time>
      </trkpt>
      <trkpt lat="41.72956888563931" lon="-4.633424123749137">
        <ele>745.99</ele>
        <time>2025-02-10T16:44:18.432Z</time>
      </trkpt>
      <trkpt lat="41.729582883417606" lon="-4.633414400741458">
        <ele>746.55</ele>
        <time>2025-02-10T16:44:18.995Z</time>
      </trkpt>
      <trkpt lat="41.72988840378821" lon="-4.633311219513416">
        <ele>747.35</ele>
        <time>2025-02-10T16:44:19.565Z</time>
      </trkpt>
      <trkpt lat="41.72998311929405" lon="-4.633278865367174">
        <ele>747.96</ele>
        <time>2025-02-10T16:44:20.137Z</time>
      </trkpt>
      <trkpt lat="41.730000134557486" lon="-4.6332731656730175">
        <ele>748.49</ele>
        <time>2025-02-10T16:44:20.709Z</time>
      </trkpt>
      <trkpt lat="41.730001140385866" lon="-4.633272914215922">
        <ele>748.99</ele>
        <time>2025-02-10T16:44:21.281Z</time>
      </trkpt>
      <trkpt lat="41.730002984404564" lon="-4.6332723274827">
        <ele>749.48</ele>
        <time>2025-02-10T16:44:21.853Z</time>
      </trkpt>
      <trkpt lat="41.73001941293478" lon="-4.633266795426607">
        <ele>749.96</ele>
        <time>2025-02-10T16:44:22.425Z</time>
      </trkpt>
      <trkpt lat="41.73003600910306" lon="-4.633261263370514">
        <ele>750.42</ele>
        <time>2025-02-10T16:44:22.998Z</time>
      </trkpt>
      <trkpt lat="41.73005151562393" lon="-4.633256066590548">
        <ele>750.85</ele>
        <time>2025-02-10T16:44:23.571Z</time>
      </trkpt>
      <trkpt lat="41.73022703267634" lon="-4.633116004988551">
        <ele>751.3</ele>
        <time>2025-02-10T16:44:24.148Z</time>
      </trkpt>
      <trkpt lat="41.73024220392108" lon="-4.633104018867016">
        <ele>751.67</ele>
        <time>2025-02-10T16:44:24.725Z</time>
      </trkpt>
      <trkpt lat="41.7302430421114" lon="-4.633103432133794">
        <ele>752.01</ele>
        <time>2025-02-10T16:44:25.302Z</time>
      </trkpt>
      <trkpt lat="41.73024471849203" lon="-4.633102174848318">
        <ele>752.31</ele>
        <time>2025-02-10T16:44:25.879Z</time>
      </trkpt>
      <trkpt lat="41.73025930300355" lon="-4.633090691640973">
        <ele>752.6</ele>
        <time>2025-02-10T16:44:26.457Z</time>
      </trkpt>
      <trkpt lat="41.73027405515313" lon="-4.633079040795565">
        <ele>752.86</ele>
        <time>2025-02-10T16:44:27.035Z</time>
      </trkpt>
      <trkpt lat="41.73028285615146" lon="-4.633071999996901">
        <ele>753.09</ele>
        <time>2025-02-10T16:44:27.613Z</time>
      </trkpt>
      <trkpt lat="41.73028780147433" lon="-4.633068228140473">
        <ele>753.3</ele>
        <time>2025-02-10T16:44:28.191Z</time>
      </trkpt>
      <trkpt lat="41.730286879464984" lon="-4.633052386343479">
        <ele>753.46</ele>
        <time>2025-02-10T16:44:28.770Z</time>
      </trkpt>
      <trkpt lat="41.730286879464984" lon="-4.633051045238972">
        <ele>753.6</ele>
        <time>2025-02-10T16:44:29.349Z</time>
      </trkpt>
      <trkpt lat="41.73028679564595" lon="-4.6330484468489885">
        <ele>753.72</ele>
        <time>2025-02-10T16:44:29.928Z</time>
      </trkpt>
      <trkpt lat="41.73028570599854" lon="-4.6330260671675205">
        <ele>753.81</ele>
        <time>2025-02-10T16:44:30.507Z</time>
      </trkpt>
      <trkpt lat="41.73028470017016" lon="-4.633003436028957">
        <ele>753.88</ele>
        <time>2025-02-10T16:44:31.086Z</time>
      </trkpt>
      <trkpt lat="41.73028377816081" lon="-4.6329824812710285">
        <ele>753.94</ele>
        <time>2025-02-10T16:44:31.666Z</time>
      </trkpt>
      <trkpt lat="41.73029551282525" lon="-4.632953982800245">
        <ele>753.98</ele>
        <time>2025-02-10T16:44:32.246Z</time>
      </trkpt>
      <trkpt lat="41.730303978547454" lon="-4.632933447137475">
        <ele>754.02</ele>
        <time>2025-02-10T16:44:32.827Z</time>
      </trkpt>
      <trkpt lat="41.730304481461644" lon="-4.632932357490063">
        <ele>754.04</ele>
        <time>2025-02-10T16:44:33.408Z</time>
      </trkpt>
      <trkpt lat="41.730305487290025" lon="-4.632930178195238">
        <ele>754.06</ele>
        <time>2025-02-10T16:44:33.989Z</time>
      </trkpt>
      <trkpt lat="41.73031370155513" lon="-4.632910564541817">
        <ele>754.07</ele>
        <time>2025-02-10T16:44:34.570Z</time>
      </trkpt>
      <trkpt lat="41.73032199963927" lon="-4.632890867069364">
        <ele>754.08</ele>
        <time>2025-02-10T16:44:35.151Z</time>
      </trkpt>
      <trkpt lat="41.73032979480922" lon="-4.632872426882386">
        <ele>754.08</ele>
        <time>2025-02-10T16:44:35.733Z</time>
      </trkpt>
      <trkpt lat="41.730381678789854" lon="-4.632737562060356">
        <ele>754.1</ele>
        <time>2025-02-10T16:44:36.317Z</time>
      </trkpt>
      <trkpt lat="41.7303897254169" lon="-4.632716858759522">
        <ele>754.11</ele>
        <time>2025-02-10T16:44:36.901Z</time>
      </trkpt>
      <trkpt lat="41.73039022833109" lon="-4.63271576911211">
        <ele>754.12</ele>
        <time>2025-02-10T16:44:37.485Z</time>
      </trkpt>
      <trkpt lat="41.73039115034044" lon="-4.632713505998254">
        <ele>754.14</ele>
        <time>2025-02-10T16:44:38.069Z</time>
      </trkpt>
      <trkpt lat="41.730398861691356" lon="-4.632693724706769">
        <ele>754.17</ele>
        <time>2025-02-10T16:44:38.654Z</time>
      </trkpt>
      <trkpt lat="41.730406656861305" lon="-4.632673691958189">
        <ele>754.2</ele>
        <time>2025-02-10T16:44:39.239Z</time>
      </trkpt>
      <trkpt lat="41.730413949117064" lon="-4.6326550003141165">
        <ele>754.25</ele>
        <time>2025-02-10T16:44:39.824Z</time>
      </trkpt>
      <trkpt lat="41.730414032936096" lon="-4.632647121325135">
        <ele>754.29</ele>
        <time>2025-02-10T16:44:40.409Z</time>
      </trkpt>
      <trkpt lat="41.73041436821222" lon="-4.632623568177223">
        <ele>754.34</ele>
        <time>2025-02-10T16:44:40.995Z</time>
      </trkpt>
      <trkpt lat="41.730414452031255" lon="-4.632622227072716">
        <ele>754.41</ele>
        <time>2025-02-10T16:44:41.581Z</time>
      </trkpt>
      <trkpt lat="41.73041453585029" lon="-4.632619628682733">
        <ele>754.5</ele>
        <time>2025-02-10T16:44:42.167Z</time>
      </trkpt>
      <trkpt lat="41.730414954945445" lon="-4.632597081363201">
        <ele>754.58</ele>
        <time>2025-02-10T16:44:42.753Z</time>
      </trkpt>
      <trkpt lat="41.730415457859635" lon="-4.6325742825865746">
        <ele>754.69</ele>
        <time>2025-02-10T16:44:43.340Z</time>
      </trkpt>
      <trkpt lat="41.730415960773826" lon="-4.632552992552519">
        <ele>754.8</ele>
        <time>2025-02-10T16:44:43.927Z</time>
      </trkpt>
      <trkpt lat="41.730434065684676" lon="-4.632490212097764">
        <ele>754.95</ele>
        <time>2025-02-10T16:44:44.515Z</time>
      </trkpt>
      <trkpt lat="41.73044043593109" lon="-4.632468335330486">
        <ele>755.1</ele>
        <time>2025-02-10T16:44:45.103Z</time>
      </trkpt>
      <trkpt lat="41.730440855026245" lon="-4.632467078045011">
        <ele>755.26</ele>
        <time>2025-02-10T16:44:45.691Z</time>
      </trkpt>
      <trkpt lat="41.73044160939753" lon="-4.6324647311121225">
        <ele>755.44</ele>
        <time>2025-02-10T16:44:46.279Z</time>
      </trkpt>
      <trkpt lat="41.73044781200588" lon="-4.632443776354194">
        <ele>755.63</ele>
        <time>2025-02-10T16:44:46.868Z</time>
      </trkpt>
      <trkpt lat="41.730454098433256" lon="-4.63242257013917">
        <ele>755.82</ele>
        <time>2025-02-10T16:44:47.457Z</time>
      </trkpt>
      <trkpt lat="41.730459965765476" lon="-4.632402705028653">
        <ele>756.04</ele>
        <time>2025-02-10T16:44:48.046Z</time>
      </trkpt>
      <trkpt lat="41.730631375685334" lon="-4.632178908213973">
        <ele>756.41</ele>
        <time>2025-02-10T16:44:48.640Z</time>
      </trkpt>
      <trkpt lat="41.73064403235912" lon="-4.632162479683757">
        <ele>756.64</ele>
        <time>2025-02-10T16:44:49.234Z</time>
      </trkpt>
      <trkpt lat="41.73064478673041" lon="-4.632161557674408">
        <ele>756.86</ele>
        <time>2025-02-10T16:44:49.828Z</time>
      </trkpt>
      <trkpt lat="41.73064621165395" lon="-4.632159797474742">
        <ele>757.08</ele>
        <time>2025-02-10T16:44:50.422Z</time>
      </trkpt>
      <trkpt lat="41.73065836541355" lon="-4.632144039496779">
        <ele>757.31</ele>
        <time>2025-02-10T16:44:51.017Z</time>
      </trkpt>
      <trkpt lat="41.73067068681121" lon="-4.6321281138807535">
        <ele>757.53</ele>
        <time>2025-02-10T16:44:51.612Z</time>
      </trkpt>
      <trkpt lat="41.730682253837585" lon="-4.6321131102740765">
        <ele>757.75</ele>
        <time>2025-02-10T16:44:52.207Z</time>
      </trkpt>
      <trkpt lat="41.730737909674644" lon="-4.631996601819992">
        <ele>757.98</ele>
        <time>2025-02-10T16:44:52.805Z</time>
      </trkpt>
      <trkpt lat="41.73074746504426" lon="-4.6319767367094755">
        <ele>758.16</ele>
        <time>2025-02-10T16:44:53.403Z</time>
      </trkpt>
      <trkpt lat="41.73074805177748" lon="-4.631975647062063">
        <ele>758.34</ele>
        <time>2025-02-10T16:44:54.001Z</time>
      </trkpt>
      <trkpt lat="41.730749141424894" lon="-4.63197355158627">
        <ele>758.5</ele>
        <time>2025-02-10T16:44:54.599Z</time>
      </trkpt>
      <trkpt lat="41.73075836151838" lon="-4.631954524666071">
        <ele>758.65</ele>
        <time>2025-02-10T16:44:55.197Z</time>
      </trkpt>
      <trkpt lat="41.7307676654309" lon="-4.631935246288776">
        <ele>758.78</ele>
        <time>2025-02-10T16:44:55.796Z</time>
      </trkpt>
      <trkpt lat="41.7307763826102" lon="-4.631917225196958">
        <ele>758.89</ele>
        <time>2025-02-10T16:44:56.395Z</time>
      </trkpt>
      <trkpt lat="41.73079616390169" lon="-4.631849750876427">
        <ele>758.99</ele>
        <time>2025-02-10T16:44:56.995Z</time>
      </trkpt>
      <trkpt lat="41.73080270178616" lon="-4.631827622652054">
        <ele>759.05</ele>
        <time>2025-02-10T16:44:57.595Z</time>
      </trkpt>
      <trkpt lat="41.73080312088132" lon="-4.63182644918561">
        <ele>759.09</ele>
        <time>2025-02-10T16:44:58.195Z</time>
      </trkpt>
      <trkpt lat="41.730803875252604" lon="-4.63182401843369">
        <ele>759.11</ele>
        <time>2025-02-10T16:44:58.795Z</time>
      </trkpt>
      <trkpt lat="41.73081016167998" lon="-4.631802812218666">
        <ele>759.11</ele>
        <time>2025-02-10T16:44:59.396Z</time>
      </trkpt>
      <trkpt lat="41.73081192187965" lon="-4.631796693429351">
        <ele>759.08</ele>
        <time>2025-02-10T16:44:59.997Z</time>
      </trkpt>
      <trkpt lat="41.73081653192639" lon="-4.631781606003642">
        <ele>759.03</ele>
        <time>2025-02-10T16:45:00.598Z</time>
      </trkpt>
      <trkpt lat="41.730818543583155" lon="-4.631774397566915">
        <ele>758.96</ele>
        <time>2025-02-10T16:45:01.199Z</time>
      </trkpt>
      <trkpt lat="41.73081896267831" lon="-4.631773140281439">
        <ele>758.86</ele>
        <time>2025-02-10T16:45:01.800Z</time>
      </trkpt>
      <trkpt lat="41.7308197170496" lon="-4.631770793348551">
        <ele>758.74</ele>
        <time>2025-02-10T16:45:02.401Z</time>
      </trkpt>
      <trkpt lat="41.730822483077645" lon="-4.631761573255062">
        <ele>758.6</ele>
        <time>2025-02-10T16:45:03.002Z</time>
      </trkpt>
      <trkpt lat="41.730819968506694" lon="-4.631748916581273">
        <ele>758.43</ele>
        <time>2025-02-10T16:45:03.604Z</time>
      </trkpt>
      <trkpt lat="41.73081552609801" lon="-4.631726536899805">
        <ele>758.23</ele>
        <time>2025-02-10T16:45:04.206Z</time>
      </trkpt>
      <trkpt lat="41.73081141896546" lon="-4.631705414503813">
        <ele>758.01</ele>
        <time>2025-02-10T16:45:04.808Z</time>
      </trkpt>
      <trkpt lat="41.73079230822623" lon="-4.631634335964918">
        <ele>757.73</ele>
        <time>2025-02-10T16:45:05.411Z</time>
      </trkpt>
      <trkpt lat="41.730786273255944" lon="-4.631611788645387">
        <ele>757.48</ele>
        <time>2025-02-10T16:45:06.015Z</time>
      </trkpt>
      <trkpt lat="41.73078593797982" lon="-4.631610531359911">
        <ele>757.24</ele>
        <time>2025-02-10T16:45:06.619Z</time>
      </trkpt>
      <trkpt lat="41.730785351246595" lon="-4.631608100607991">
        <ele>756.99</ele>
        <time>2025-02-10T16:45:07.223Z</time>
      </trkpt>
      <trkpt lat="41.73077956773341" lon="-4.631586475297809">
        <ele>756.71</ele>
        <time>2025-02-10T16:45:07.827Z</time>
      </trkpt>
      <trkpt lat="41.73077378422022" lon="-4.631564766168594">
        <ele>756.43</ele>
        <time>2025-02-10T16:45:08.432Z</time>
      </trkpt>
      <trkpt lat="41.73076833598316" lon="-4.631544314324856">
        <ele>756.14</ele>
        <time>2025-02-10T16:45:09.037Z</time>
      </trkpt>
      <trkpt lat="41.7307642288506" lon="-4.6315128821879625">
        <ele>755.85</ele>
        <time>2025-02-10T16:45:09.642Z</time>
      </trkpt>
      <trkpt lat="41.73076121136546" lon="-4.631489161401987">
        <ele>755.57</ele>
        <time>2025-02-10T16:45:10.248Z</time>
      </trkpt>
      <trkpt lat="41.7307610437274" lon="-4.63148782029748">
        <ele>755.31</ele>
        <time>2025-02-10T16:45:10.854Z</time>
      </trkpt>
      <trkpt lat="41.73076070845127" lon="-4.631485305726528">
        <ele>755.04</ele>
        <time>2025-02-10T16:45:11.460Z</time>
      </trkpt>
      <trkpt lat="41.73075785860419" lon="-4.631462590768933">
        <ele>754.77</ele>
        <time>2025-02-10T16:45:12.066Z</time>
      </trkpt>
      <trkpt lat="41.730755008757114" lon="-4.631439708173275">
        <ele>754.5</ele>
        <time>2025-02-10T16:45:12.672Z</time>
      </trkpt>
      <trkpt lat="41.7307523265481" lon="-4.631418166682124">
        <ele>754.25</ele>
        <time>2025-02-10T16:45:13.279Z</time>
      </trkpt>
      <trkpt lat="41.730748219415545" lon="-4.631408024579287">
        <ele>754.0</ele>
        <time>2025-02-10T16:45:13.886Z</time>
      </trkpt>
      <trkpt lat="41.73073966987431" lon="-4.631386734545231">
        <ele>753.76</ele>
        <time>2025-02-10T16:45:14.493Z</time>
      </trkpt>
      <trkpt lat="41.73073925077915" lon="-4.631385561078787">
        <ele>753.55</ele>
        <time>2025-02-10T16:45:15.100Z</time>
      </trkpt>
      <trkpt lat="41.7307383287698" lon="-4.6313832979649305">
        <ele>753.35</ele>
        <time>2025-02-10T16:45:15.707Z</time>
      </trkpt>
      <trkpt lat="41.73073019832373" lon="-4.631362846121192">
        <ele>753.14</ele>
        <time>2025-02-10T16:45:16.315Z</time>
      </trkpt>
      <trkpt lat="41.73072198405862" lon="-4.631342310458422">
        <ele>752.95</ele>
        <time>2025-02-10T16:45:16.923Z</time>
      </trkpt>
      <trkpt lat="41.7307142727077" lon="-4.6313229482620955">
        <ele>752.78</ele>
        <time>2025-02-10T16:45:17.531Z</time>
      </trkpt>
      <trkpt lat="41.730762384831905" lon="-4.6311865746974945">
        <ele>752.67</ele>
        <time>2025-02-10T16:45:18.142Z</time>
      </trkpt>
      <trkpt lat="41.73077009618282" lon="-4.63116486556828">
        <ele>752.55</ele>
        <time>2025-02-10T16:45:18.753Z</time>
      </trkpt>
      <trkpt lat="41.73077059909701" lon="-4.631163692101836">
        <ele>752.45</ele>
        <time>2025-02-10T16:45:19.364Z</time>
      </trkpt>
      <trkpt lat="41.73077152110636" lon="-4.631161345168948">
        <ele>752.36</ele>
        <time>2025-02-10T16:45:19.975Z</time>
      </trkpt>
      <trkpt lat="41.73077889718115" lon="-4.6311406418681145">
        <ele>752.29</ele>
        <time>2025-02-10T16:45:20.586Z</time>
      </trkpt>
      <trkpt lat="41.730786357074976" lon="-4.631119854748249">
        <ele>752.23</ele>
        <time>2025-02-10T16:45:21.198Z</time>
      </trkpt>
      <trkpt lat="41.73079339787364" lon="-4.631100157275796">
        <ele>752.19</ele>
        <time>2025-02-10T16:45:21.810Z</time>
      </trkpt>
      <trkpt lat="41.730881575495005" lon="-4.630945594981313">
        <ele>752.21</ele>
        <time>2025-02-10T16:45:22.425Z</time>
      </trkpt>
      <trkpt lat="41.73089255578816" lon="-4.63092640042305">
        <ele>752.2</ele>
        <time>2025-02-10T16:45:23.040Z</time>
      </trkpt>
      <trkpt lat="41.73089314252138" lon="-4.630925394594669">
        <ele>752.2</ele>
        <time>2025-02-10T16:45:23.655Z</time>
      </trkpt>
      <trkpt lat="41.73089439980686" lon="-4.630923382937908">
        <ele>752.21</ele>
        <time>2025-02-10T16:45:24.270Z</time>
      </trkpt>
      <trkpt lat="41.73090496100485" lon="-4.6309050265699625">
        <ele>752.22</ele>
        <time>2025-02-10T16:45:24.886Z</time>
      </trkpt>
      <trkpt lat="41.73091552220285" lon="-4.6308867540210485">
        <ele>752.24</ele>
        <time>2025-02-10T16:45:25.502Z</time>
      </trkpt>
      <trkpt lat="41.730925580486655" lon="-4.630869319662452">
        <ele>752.27</ele>
        <time>2025-02-10T16:45:26.118Z</time>
      </trkpt>
      <trkpt lat="41.73102264292538" lon="-4.6308143343776464">
        <ele>752.33</ele>
        <time>2025-02-10T16:45:26.737Z</time>
      </trkpt>
      <trkpt lat="41.73103949055076" lon="-4.630804862827063">
        <ele>752.38</ele>
        <time>2025-02-10T16:45:27.356Z</time>
      </trkpt>
      <trkpt lat="41.73104049637914" lon="-4.630804359912872">
        <ele>752.43</ele>
        <time>2025-02-10T16:45:27.975Z</time>
      </trkpt>
      <trkpt lat="41.7310422565788" lon="-4.6308034379035234">
        <ele>752.49</ele>
        <time>2025-02-10T16:45:28.594Z</time>
      </trkpt>
      <trkpt lat="41.731058517470956" lon="-4.6307943016290665">
        <ele>752.56</ele>
        <time>2025-02-10T16:45:29.213Z</time>
      </trkpt>
      <trkpt lat="41.73107477836311" lon="-4.6307851653546095">
        <ele>752.63</ele>
        <time>2025-02-10T16:45:29.833Z</time>
      </trkpt>
      <trkpt lat="41.73109036870301" lon="-4.630776448175311">
        <ele>752.7</ele>
        <time>2025-02-10T16:45:30.453Z</time>
      </trkpt>
      <trkpt lat="41.73114141449332" lon="-4.630750548094511">
        <ele>752.79</ele>
        <time>2025-02-10T16:45:31.074Z</time>
      </trkpt>
      <trkpt lat="41.731158597394824" lon="-4.630741914734244">
        <ele>752.87</ele>
        <time>2025-02-10T16:45:31.695Z</time>
      </trkpt>
      <trkpt lat="41.73115951940417" lon="-4.630741495639086">
        <ele>752.95</ele>
        <time>2025-02-10T16:45:32.317Z</time>
      </trkpt>
      <trkpt lat="41.73116136342287" lon="-4.630740657448769">
        <ele>753.03</ele>
        <time>2025-02-10T16:45:32.939Z</time>
      </trkpt>
      <trkpt lat="41.73117787577212" lon="-4.630732359364629">
        <ele>753.12</ele>
        <time>2025-02-10T16:45:33.561Z</time>
      </trkpt>
      <trkpt lat="41.73119438812137" lon="-4.630724145099521">
        <ele>753.21</ele>
        <time>2025-02-10T16:45:34.183Z</time>
      </trkpt>
      <trkpt lat="41.73121031373739" lon="-4.630716266110539">
        <ele>753.31</ele>
        <time>2025-02-10T16:45:34.806Z</time>
      </trkpt>
      <trkpt lat="41.73128348775208" lon="-4.63065667077899">
        <ele>753.41</ele>
        <time>2025-02-10T16:45:35.430Z</time>
      </trkpt>
      <trkpt lat="41.73129916191101" lon="-4.630644014105201">
        <ele>753.51</ele>
        <time>2025-02-10T16:45:36.055Z</time>
      </trkpt>
      <trkpt lat="41.73130000010133" lon="-4.630643427371979">
        <ele>753.61</ele>
        <time>2025-02-10T16:45:36.680Z</time>
      </trkpt>
      <trkpt lat="41.731301760300994" lon="-4.630642086267471">
        <ele>753.71</ele>
        <time>2025-02-10T16:45:37.305Z</time>
      </trkpt>
      <trkpt lat="41.7313168477267" lon="-4.630629932507873">
        <ele>753.82</ele>
        <time>2025-02-10T16:45:37.930Z</time>
      </trkpt>
      <trkpt lat="41.73133201897144" lon="-4.630617778748274">
        <ele>753.93</ele>
        <time>2025-02-10T16:45:38.555Z</time>
      </trkpt>
      <trkpt lat="41.7313464358449" lon="-4.630606211721897">
        <ele>754.05</ele>
        <time>2025-02-10T16:45:39.181Z</time>
      </trkpt>
      <trkpt lat="41.73138323239982" lon="-4.630509903654456">
        <ele>754.17</ele>
        <time>2025-02-10T16:45:39.808Z</time>
      </trkpt>
      <trkpt lat="41.73139153048396" lon="-4.630488278344274">
        <ele>754.3</ele>
        <time>2025-02-10T16:45:40.436Z</time>
      </trkpt>
      <trkpt lat="41.73139203339815" lon="-4.630487188696861">
        <ele>754.44</ele>
        <time>2025-02-10T16:45:41.064Z</time>
      </trkpt>
      <trkpt lat="41.7313929554075" lon="-4.630484841763973">
        <ele>754.58</ele>
        <time>2025-02-10T16:45:41.692Z</time>
      </trkpt>
      <trkpt lat="41.731401002034545" lon="-4.630464054644108">
        <ele>754.74</ele>
        <time>2025-02-10T16:45:42.320Z</time>
      </trkpt>
      <trkpt lat="41.73140896484256" lon="-4.630443435162306">
        <ele>754.91</ele>
        <time>2025-02-10T16:45:42.949Z</time>
      </trkpt>
      <trkpt lat="41.731416592374444" lon="-4.630423737689853">
        <ele>755.08</ele>
        <time>2025-02-10T16:45:43.578Z</time>
      </trkpt>
      <trkpt lat="41.731453305110335" lon="-4.630360705778003">
        <ele>755.28</ele>
        <time>2025-02-10T16:45:44.208Z</time>
      </trkpt>
      <trkpt lat="41.731464536860585" lon="-4.63034151121974">
        <ele>755.49</ele>
        <time>2025-02-10T16:45:44.838Z</time>
      </trkpt>
      <trkpt lat="41.73146520741284" lon="-4.630340589210391">
        <ele>755.7</ele>
        <time>2025-02-10T16:45:45.468Z</time>
      </trkpt>
      <trkpt lat="41.731466464698315" lon="-4.63033857755363">
        <ele>755.93</ele>
        <time>2025-02-10T16:45:46.098Z</time>
      </trkpt>
      <trkpt lat="41.73147736117244" lon="-4.6303201373666525">
        <ele>756.17</ele>
        <time>2025-02-10T16:45:46.729Z</time>
      </trkpt>
      <trkpt lat="41.73148825764656" lon="-4.630301697179675">
        <ele>756.42</ele>
        <time>2025-02-10T16:45:47.360Z</time>
      </trkpt>
      <trkpt lat="41.73149865120649" lon="-4.630284179002047">
        <ele>756.68</ele>
        <time>2025-02-10T16:45:47.992Z</time>
      </trkpt>
      <trkpt lat="41.73156193457544" lon="-4.630268923938274">
        <ele>757.01</ele>
        <time>2025-02-10T16:45:48.625Z</time>
      </trkpt>
      <trkpt lat="41.73158003948629" lon="-4.630264649167657">
        <ele>757.31</ele>
        <time>2025-02-10T16:45:49.258Z</time>
      </trkpt>
      <trkpt lat="41.73158104531467" lon="-4.6302644815295935">
        <ele>757.62</ele>
        <time>2025-02-10T16:45:49.891Z</time>
      </trkpt>
      <trkpt lat="41.7315829731524" lon="-4.630264062434435">
        <ele>757.93</ele>
        <time>2025-02-10T16:45:50.524Z</time>
      </trkpt>
      <trkpt lat="41.73160049133003" lon="-4.630259955301881">
        <ele>758.27</ele>
        <time>2025-02-10T16:45:51.158Z</time>
      </trkpt>
      <trkpt lat="41.731618009507656" lon="-4.630255848169327">
        <ele>758.61</ele>
        <time>2025-02-10T16:45:51.792Z</time>
      </trkpt>
      <trkpt lat="41.73163485713303" lon="-4.630251908674836">
        <ele>758.97</ele>
        <time>2025-02-10T16:45:52.426Z</time>
      </trkpt>
      <trkpt lat="41.73194465227425" lon="-4.630175298079848">
        <ele>759.51</ele>
        <time>2025-02-10T16:45:53.067Z</time>
      </trkpt>
      <trkpt lat="41.731952615082264" lon="-4.630173202604055">
        <ele>759.87</ele>
        <time>2025-02-10T16:45:53.708Z</time>
      </trkpt>
      <trkpt lat="41.731970719993114" lon="-4.630168592557311">
        <ele>760.24</ele>
        <time>2025-02-10T16:45:54.349Z</time>
      </trkpt>
      <trkpt lat="41.73197164200246" lon="-4.630168424919248">
        <ele>760.6</ele>
        <time>2025-02-10T16:45:54.990Z</time>
      </trkpt>
      <trkpt lat="41.73197356984019" lon="-4.630168005824089">
        <ele>760.96</ele>
        <time>2025-02-10T16:45:55.631Z</time>
      </trkpt>
      <trkpt lat="41.73199108801782" lon="-4.63016364723444">
        <ele>761.34</ele>
        <time>2025-02-10T16:45:56.273Z</time>
      </trkpt>
      <trkpt lat="41.73200860619545" lon="-4.630159372463822">
        <ele>761.72</ele>
        <time>2025-02-10T16:45:56.915Z</time>
      </trkpt>
      <trkpt lat="41.73202528618276" lon="-4.6301553491503">
        <ele>762.09</ele>
        <time>2025-02-10T16:45:57.557Z</time>
      </trkpt>
      <trkpt lat="41.732135927304626" lon="-4.630075804889202">
        <ele>762.51</ele>
        <time>2025-02-10T16:45:58.202Z</time>
      </trkpt>
      <trkpt lat="41.73215218819678" lon="-4.630064154043794">
        <ele>762.89</ele>
        <time>2025-02-10T16:45:58.847Z</time>
      </trkpt>
      <trkpt lat="41.73215311020613" lon="-4.630063567310572">
        <ele>763.26</ele>
        <time>2025-02-10T16:45:59.492Z</time>
      </trkpt>
      <trkpt lat="41.73215487040579" lon="-4.630062393844128">
        <ele>763.63</ele>
        <time>2025-02-10T16:46:00.137Z</time>
      </trkpt>
      <trkpt lat="41.73217071220279" lon="-4.630051162093878">
        <ele>764.0</ele>
        <time>2025-02-10T16:46:00.783Z</time>
      </trkpt>
      <trkpt lat="41.73218647018075" lon="-4.630039930343628">
        <ele>764.38</ele>
        <time>2025-02-10T16:46:01.429Z</time>
      </trkpt>
      <trkpt lat="41.73220155760646" lon="-4.630029201507568">
        <ele>764.76</ele>
        <time>2025-02-10T16:46:02.075Z</time>
      </trkpt>
      <trkpt lat="41.73242501914501" lon="-4.629988633096218">
        <ele>765.26</ele>
        <time>2025-02-10T16:46:02.726Z</time>
      </trkpt>
      <trkpt lat="41.73244362697005" lon="-4.6299852803349495">
        <ele>765.65</ele>
        <time>2025-02-10T16:46:03.377Z</time>
      </trkpt>
      <trkpt lat="41.7324445489794" lon="-4.629985196515918">
        <ele>766.03</ele>
        <time>2025-02-10T16:46:04.028Z</time>
      </trkpt>
      <trkpt lat="41.73244656063616" lon="-4.629984861239791">
        <ele>766.41</ele>
        <time>2025-02-10T16:46:04.679Z</time>
      </trkpt>
      <trkpt lat="41.73246466554701" lon="-4.629981676116586">
        <ele>766.81</ele>
        <time>2025-02-10T16:46:05.331Z</time>
      </trkpt>
      <trkpt lat="41.732482770457864" lon="-4.6299784909933805">
        <ele>767.21</ele>
        <time>2025-02-10T16:46:05.983Z</time>
      </trkpt>
      <trkpt lat="41.732499953359365" lon="-4.629975473508239">
        <ele>767.61</ele>
        <time>2025-02-10T16:46:06.635Z</time>
      </trkpt>
      <trkpt lat="41.732685109600425" lon="-4.629946555942297">
        <ele>768.07</ele>
        <time>2025-02-10T16:46:07.291Z</time>
      </trkpt>
      <trkpt lat="41.7327038012445" lon="-4.629943706095219">
        <ele>768.48</ele>
        <time>2025-02-10T16:46:07.947Z</time>
      </trkpt>
      <trkpt lat="41.73270480707288" lon="-4.629943622276187">
        <ele>768.91</ele>
        <time>2025-02-10T16:46:08.603Z</time>
      </trkpt>
      <trkpt lat="41.73270681872964" lon="-4.629943370819092">
        <ele>769.34</ele>
        <time>2025-02-10T16:46:09.259Z</time>
      </trkpt>
      <trkpt lat="41.73272483982146" lon="-4.629940604791045">
        <ele>769.79</ele>
        <time>2025-02-10T16:46:09.916Z</time>
      </trkpt>
      <trkpt lat="41.73274302855134" lon="-4.629937838762999">
        <ele>770.26</ele>
        <time>2025-02-10T16:46:10.573Z</time>
      </trkpt>
      <trkpt lat="41.73276021145284" lon="-4.629935240373015">
        <ele>770.75</ele>
        <time>2025-02-10T16:46:11.230Z</time>
      </trkpt>
      <trkpt lat="41.732905553653836" lon="-4.630114696919918">
        <ele>771.4</ele>
        <time>2025-02-10T16:46:11.891Z</time>
      </trkpt>
      <trkpt lat="41.732919216156006" lon="-4.630131544545293">
        <ele>771.93</ele>
        <time>2025-02-10T16:46:12.553Z</time>
      </trkpt>
      <trkpt lat="41.73291988670826" lon="-4.63013238273561">
        <ele>772.46</ele>
        <time>2025-02-10T16:46:13.215Z</time>
      </trkpt>
      <trkpt lat="41.73292139545083" lon="-4.630134226754308">
        <ele>773.02</ele>
        <time>2025-02-10T16:46:13.877Z</time>
      </trkpt>
      <trkpt lat="41.73293455503881" lon="-4.630150403827429">
        <ele>773.6</ele>
        <time>2025-02-10T16:46:14.539Z</time>
      </trkpt>
      <trkpt lat="41.73294771462679" lon="-4.630166664719582">
        <ele>774.21</ele>
        <time>2025-02-10T16:46:15.202Z</time>
      </trkpt>
      <trkpt lat="41.732960203662515" lon="-4.6301820036023855">
        <ele>774.84</ele>
        <time>2025-02-10T16:46:15.865Z</time>
      </trkpt>
      <trkpt lat="41.73303245566785" lon="-4.630434634163976">
        <ele>775.68</ele>
        <time>2025-02-10T16:46:16.532Z</time>
      </trkpt>
      <trkpt lat="41.73303899355233" lon="-4.630457516759634">
        <ele>776.37</ele>
        <time>2025-02-10T16:46:17.199Z</time>
      </trkpt>
      <trkpt lat="41.733039328828454" lon="-4.630458690226078">
        <ele>777.07</ele>
        <time>2025-02-10T16:46:17.866Z</time>
      </trkpt>
      <trkpt lat="41.73304008319974" lon="-4.6304612047970295">
        <ele>777.79</ele>
        <time>2025-02-10T16:46:18.533Z</time>
      </trkpt>
      <trkpt lat="41.73304636962712" lon="-4.630483081564307">
        <ele>778.56</ele>
        <time>2025-02-10T16:46:19.201Z</time>
      </trkpt>
      <trkpt lat="41.7330526560545" lon="-4.630505042150617">
        <ele>779.35</ele>
        <time>2025-02-10T16:46:19.869Z</time>
      </trkpt>
      <trkpt lat="41.73305860720575" lon="-4.63052574545145">
        <ele>780.18</ele>
        <time>2025-02-10T16:46:20.537Z</time>
      </trkpt>
      <trkpt lat="41.73306606709957" lon="-4.630598919466138">
        <ele>781.07</ele>
        <time>2025-02-10T16:46:21.207Z</time>
      </trkpt>
      <trkpt lat="41.73306858167052" lon="-4.630623562261462">
        <ele>781.96</ele>
        <time>2025-02-10T16:46:21.877Z</time>
      </trkpt>
      <trkpt lat="41.733068749308586" lon="-4.630624819546938">
        <ele>782.86</ele>
        <time>2025-02-10T16:46:22.547Z</time>
      </trkpt>
      <trkpt lat="41.73306908458471" lon="-4.630627501755953">
        <ele>783.8</ele>
        <time>2025-02-10T16:46:23.217Z</time>
      </trkpt>
      <trkpt lat="41.73307151533663" lon="-4.630651054903865">
        <ele>784.78</ele>
        <time>2025-02-10T16:46:23.887Z</time>
      </trkpt>
      <trkpt lat="41.73307394608855" lon="-4.630674691870809">
        <ele>785.81</ele>
        <time>2025-02-10T16:46:24.558Z</time>
      </trkpt>
      <trkpt lat="41.73307629302144" lon="-4.630697071552277">
        <ele>786.86</ele>
        <time>2025-02-10T16:46:25.229Z</time>
      </trkpt>
      <trkpt lat="41.73309775069356" lon="-4.630735628306866">
        <ele>787.97</ele>
        <time>2025-02-10T16:46:25.901Z</time>
      </trkpt>
      <trkpt lat="41.73310898244381" lon="-4.630755661055446">
        <ele>789.1</ele>
        <time>2025-02-10T16:46:26.573Z</time>
      </trkpt>
      <trkpt lat="41.73310956917703" lon="-4.630756666883826">
        <ele>790.25</ele>
        <time>2025-02-10T16:46:27.245Z</time>
      </trkpt>
      <trkpt lat="41.73311082646251" lon="-4.630758846178651">
        <ele>791.43</ele>
        <time>2025-02-10T16:46:27.917Z</time>
      </trkpt>
      <trkpt lat="41.7331216391176" lon="-4.630778040736914">
        <ele>792.65</ele>
        <time>2025-02-10T16:46:28.590Z</time>
      </trkpt>
      <trkpt lat="41.73313245177269" lon="-4.6307972352951765">
        <ele>793.9</ele>
        <time>2025-02-10T16:46:29.263Z</time>
      </trkpt>
      <trkpt lat="41.73314276151359" lon="-4.630815591663122">
        <ele>795.18</ele>
        <time>2025-02-10T16:46:29.936Z</time>
      </trkpt>
      <trkpt lat="41.73334023915231" lon="-4.631143407896161">
        <ele>796.69</ele>
        <time>2025-02-10T16:46:30.616Z</time>
      </trkpt>
      <trkpt lat="41.733537716791034" lon="-4.631471307948232">
        <ele>798.16</ele>
        <time>2025-02-10T16:46:31.302Z</time>
      </trkpt>
      <trkpt lat="41.733735194429755" lon="-4.631799124181271">
        <ele>799.75</ele>
        <time>2025-02-10T16:46:31.994Z</time>
      </trkpt>
      <trkpt lat="41.733807949349284" lon="-4.631920075044036">
        <ele>801.19</ele>
        <time>2025-02-10T16:46:32.688Z</time>
      </trkpt>
      <trkpt lat="41.733819684013724" lon="-4.631939521059394">
        <ele>802.52</ele>
        <time>2025-02-10T16:46:33.383Z</time>
      </trkpt>
      <trkpt lat="41.73382035456598" lon="-4.631940610706806">
        <ele>803.83</ele>
        <time>2025-02-10T16:46:34.078Z</time>
      </trkpt>
      <trkpt lat="41.733821611851454" lon="-4.631942706182599">
        <ele>805.12</ele>
        <time>2025-02-10T16:46:34.773Z</time>
      </trkpt>
      <trkpt lat="41.733832843601704" lon="-4.631961397826672">
        <ele>806.42</ele>
        <time>2025-02-10T16:46:35.468Z</time>
      </trkpt>
      <trkpt lat="41.733844159170985" lon="-4.631980173289776">
        <ele>807.71</ele>
        <time>2025-02-10T16:46:36.164Z</time>
      </trkpt>
      <trkpt lat="41.733854888007045" lon="-4.6319979429244995">
        <ele>808.97</ele>
        <time>2025-02-10T16:46:36.860Z</time>
      </trkpt>
      <trkpt lat="41.734042055904865" lon="-4.632336404174566">
        <ele>810.44</ele>
        <time>2025-02-10T16:46:37.562Z</time>
      </trkpt>
      <trkpt lat="41.734150517731905" lon="-4.632532708346844">
        <ele>811.73</ele>
        <time>2025-02-10T16:46:38.268Z</time>
      </trkpt>
      <trkpt lat="41.73416158184409" lon="-4.632552741095424">
        <ele>812.9</ele>
        <time>2025-02-10T16:46:38.974Z</time>
      </trkpt>
      <trkpt lat="41.73416216857731" lon="-4.632553830742836">
        <ele>814.02</ele>
        <time>2025-02-10T16:46:39.680Z</time>
      </trkpt>
      <trkpt lat="41.73416334204376" lon="-4.632556010037661">
        <ele>815.11</ele>
        <time>2025-02-10T16:46:40.386Z</time>
      </trkpt>
      <trkpt lat="41.734173987060785" lon="-4.632575204595923">
        <ele>816.17</ele>
        <time>2025-02-10T16:46:41.093Z</time>
      </trkpt>
      <trkpt lat="41.73418463207781" lon="-4.632594482973218">
        <ele>817.2</ele>
        <time>2025-02-10T16:46:41.800Z</time>
      </trkpt>
      <trkpt lat="41.73419477418065" lon="-4.632612755522132">
        <ele>818.19</ele>
        <time>2025-02-10T16:46:42.507Z</time>
      </trkpt>
      <trkpt lat="41.734366519376636" lon="-4.632597668096423">
        <ele>819.17</ele>
        <time>2025-02-10T16:46:43.218Z</time>
      </trkpt>
      <trkpt lat="41.73438563011587" lon="-4.632596075534821">
        <ele>820.08</ele>
        <time>2025-02-10T16:46:43.929Z</time>
      </trkpt>
      <trkpt lat="41.73438663594425" lon="-4.632595991715789">
        <ele>820.96</ele>
        <time>2025-02-10T16:46:44.640Z</time>
      </trkpt>
      <trkpt lat="41.73438864760101" lon="-4.632595824077725">
        <ele>821.8</ele>
        <time>2025-02-10T16:46:45.351Z</time>
      </trkpt>
      <trkpt lat="41.734407003968954" lon="-4.6325943153351545">
        <ele>822.62</ele>
        <time>2025-02-10T16:46:46.063Z</time>
      </trkpt>
      <trkpt lat="41.73442544415593" lon="-4.632592722773552">
        <ele>823.41</ele>
        <time>2025-02-10T16:46:46.775Z</time>
      </trkpt>
      <trkpt lat="41.73444312997162" lon="-4.632591214030981">
        <ele>824.17</ele>
        <time>2025-02-10T16:46:47.487Z</time>
      </trkpt>
      <trkpt lat="41.734730461612344" lon="-4.632418463006616">
        <ele>824.98</ele>
        <time>2025-02-10T16:46:48.206Z</time>
      </trkpt>
      <trkpt lat="41.734998263418674" lon="-4.6322571113705635">
        <ele>825.73</ele>
        <time>2025-02-10T16:46:48.931Z</time>
      </trkpt>
      <trkpt lat="41.7350157815963" lon="-4.632246633991599">
        <ele>826.41</ele>
        <time>2025-02-10T16:46:49.656Z</time>
      </trkpt>
      <trkpt lat="41.73501670360565" lon="-4.632246131077409">
        <ele>827.07</ele>
        <time>2025-02-10T16:46:50.381Z</time>
      </trkpt>
      <trkpt lat="41.73501770943403" lon="-4.6322456281632185">
        <ele>827.7</ele>
        <time>2025-02-10T16:46:51.106Z</time>
      </trkpt>
      <trkpt lat="41.735018799081445" lon="-4.632244873791933">
        <ele>828.32</ele>
        <time>2025-02-10T16:46:51.831Z</time>
      </trkpt>
      <trkpt lat="41.73503531143069" lon="-4.632234983146191">
        <ele>828.92</ele>
        <time>2025-02-10T16:46:52.556Z</time>
      </trkpt>
      <trkpt lat="41.735051991418004" lon="-4.6322250086814165">
        <ele>829.5</ele>
        <time>2025-02-10T16:46:53.282Z</time>
      </trkpt>
      <trkpt lat="41.73506791703403" lon="-4.632215453311801">
        <ele>830.06</ele>
        <time>2025-02-10T16:46:54.008Z</time>
      </trkpt>
      <trkpt lat="41.735379472374916" lon="-4.632152924314141">
        <ele>830.78</ele>
        <time>2025-02-10T16:46:54.740Z</time>
      </trkpt>
      <trkpt lat="41.735691111534834" lon="-4.632090395316482">
        <ele>831.51</ele>
        <time>2025-02-10T16:46:55.479Z</time>
      </trkpt>
      <trkpt lat="41.73574115149677" lon="-4.632080085575581">
        <ele>832.05</ele>
        <time>2025-02-10T16:46:56.219Z</time>
      </trkpt>
      <trkpt lat="41.735760010778904" lon="-4.632076313719153">
        <ele>832.55</ele>
        <time>2025-02-10T16:46:56.959Z</time>
      </trkpt>
      <trkpt lat="41.735761016607285" lon="-4.63207614608109">
        <ele>833.02</ele>
        <time>2025-02-10T16:46:57.699Z</time>
      </trkpt>
      <trkpt lat="41.735763028264046" lon="-4.632075810804963">
        <ele>833.47</ele>
        <time>2025-02-10T16:46:58.439Z</time>
      </trkpt>
      <trkpt lat="41.735781133174896" lon="-4.632072206586599">
        <ele>833.92</ele>
        <time>2025-02-10T16:46:59.179Z</time>
      </trkpt>
      <trkpt lat="41.73579940572381" lon="-4.632068602368236">
        <ele>834.34</ele>
        <time>2025-02-10T16:46:59.920Z</time>
      </trkpt>
      <trkpt lat="41.735816756263375" lon="-4.632065165787935">
        <ele>834.75</ele>
        <time>2025-02-10T16:47:00.661Z</time>
      </trkpt>
      <trkpt lat="41.73605748452246" lon="-4.6318930853158236">
        <ele>835.17</ele>
        <time>2025-02-10T16:47:01.408Z</time>
      </trkpt>
      <trkpt lat="41.73607441596687" lon="-4.631881099194288">
        <ele>835.54</ele>
        <time>2025-02-10T16:47:02.155Z</time>
      </trkpt>
      <trkpt lat="41.73607533797622" lon="-4.631880512461066">
        <ele>835.89</ele>
        <time>2025-02-10T16:47:02.902Z</time>
      </trkpt>
      <trkpt lat="41.73607709817588" lon="-4.631879338994622">
        <ele>836.23</ele>
        <time>2025-02-10T16:47:03.649Z</time>
      </trkpt>
      <trkpt lat="41.736093359068036" lon="-4.6318677719682455">
        <ele>836.56</ele>
        <time>2025-02-10T16:47:04.396Z</time>
      </trkpt>
      <trkpt lat="41.73609470017254" lon="-4.631866849958897">
        <ele>836.87</ele>
        <time>2025-02-10T16:47:05.144Z</time>
      </trkpt>
      <trkpt lat="41.73610970377922" lon="-4.631856037303805">
        <ele>837.18</ele>
        <time>2025-02-10T16:47:05.892Z</time>
      </trkpt>
      <trkpt lat="41.736125126481056" lon="-4.631845057010651">
        <ele>837.47</ele>
        <time>2025-02-10T16:47:06.640Z</time>
      </trkpt>
      <trkpt lat="41.73628446646035" lon="-4.631739864125848">
        <ele>837.79</ele>
        <time>2025-02-10T16:47:07.392Z</time>
      </trkpt>
      <trkpt lat="41.73630164936185" lon="-4.631728548556566">
        <ele>838.06</ele>
        <time>2025-02-10T16:47:08.144Z</time>
      </trkpt>
      <trkpt lat="41.7363025713712" lon="-4.631728045642376">
        <ele>838.32</ele>
        <time>2025-02-10T16:47:08.896Z</time>
      </trkpt>
      <trkpt lat="41.736304415389895" lon="-4.631726872175932">
        <ele>838.58</ele>
        <time>2025-02-10T16:47:09.648Z</time>
      </trkpt>
      <trkpt lat="41.73632092773914" lon="-4.631716059520841">
        <ele>838.83</ele>
        <time>2025-02-10T16:47:10.401Z</time>
      </trkpt>
      <trkpt lat="41.73633752390742" lon="-4.631705163046718">
        <ele>839.07</ele>
        <time>2025-02-10T16:47:11.154Z</time>
      </trkpt>
      <trkpt lat="41.73635344952345" lon="-4.631694769486785">
        <ele>839.31</ele>
        <time>2025-02-10T16:47:11.907Z</time>
      </trkpt>
      <trkpt lat="41.736568780615926" lon="-4.631734164431691">
        <ele>839.68</ele>
        <time>2025-02-10T16:47:12.665Z</time>
      </trkpt>
      <trkpt lat="41.73658789135516" lon="-4.631737684831023">
        <ele>839.9</ele>
        <time>2025-02-10T16:47:13.423Z</time>
      </trkpt>
      <trkpt lat="41.73658889718354" lon="-4.631737936288118">
        <ele>840.11</ele>
        <time>2025-02-10T16:47:14.181Z</time>
      </trkpt>
      <trkpt lat="41.7365909088403" lon="-4.631738355383277">
        <ele>840.31</ele>
        <time>2025-02-10T16:47:14.939Z</time>
      </trkpt>
      <trkpt lat="41.736609349027276" lon="-4.631741791963577">
        <ele>840.5</ele>
        <time>2025-02-10T16:47:15.697Z</time>
      </trkpt>
      <trkpt lat="41.73662795685232" lon="-4.631745228543878">
        <ele>840.69</ele>
        <time>2025-02-10T16:47:16.456Z</time>
      </trkpt>
      <trkpt lat="41.736640613526106" lon="-4.631747491657734">
        <ele>840.87</ele>
        <time>2025-02-10T16:47:17.215Z</time>
      </trkpt>
      <trkpt lat="41.73664581030607" lon="-4.6317484974861145">
        <ele>841.03</ele>
        <time>2025-02-10T16:47:17.974Z</time>
      </trkpt>
      <trkpt lat="41.7366495821625" lon="-4.63176635093987">
        <ele>841.19</ele>
        <time>2025-02-10T16:47:18.733Z</time>
      </trkpt>
      <trkpt lat="41.736649917438626" lon="-4.631767608225346">
        <ele>841.34</ele>
        <time>2025-02-10T16:47:19.492Z</time>
      </trkpt>
      <trkpt lat="41.73665050417185" lon="-4.631770206615329">
        <ele>841.47</ele>
        <time>2025-02-10T16:47:20.252Z</time>
      </trkpt>
      <trkpt lat="41.736655700951815" lon="-4.631793759763241">
        <ele>841.61</ele>
        <time>2025-02-10T16:47:21.012Z</time>
      </trkpt>
      <trkpt lat="41.73666089773178" lon="-4.631817312911153">
        <ele>841.75</ele>
        <time>2025-02-10T16:47:21.772Z</time>
      </trkpt>
      <trkpt lat="41.73666089773178" lon="-4.631817480549216">
        <ele>841.85</ele>
        <time>2025-02-10T16:47:22.532Z</time>
      </trkpt>
      <trkpt lat="41.73666584305465" lon="-4.631839692592621">
        <ele>841.96</ele>
        <time>2025-02-10T16:47:23.293Z</time>
      </trkpt>
      <trkpt lat="41.736663999035954" lon="-4.631840446963906">
        <ele>842.04</ele>
        <time>2025-02-10T16:47:24.054Z</time>
      </trkpt>
      <trkpt lat="41.736663077026606" lon="-4.631840949878097">
        <ele>842.12</ele>
        <time>2025-02-10T16:47:24.815Z</time>
      </trkpt>
      <trkpt lat="41.736661149188876" lon="-4.6318418718874454">
        <ele>842.18</ele>
        <time>2025-02-10T16:47:25.576Z</time>
      </trkpt>
      <trkpt lat="41.73664379864931" lon="-4.631850169971585">
        <ele>842.23</ele>
        <time>2025-02-10T16:47:26.337Z</time>
      </trkpt>
      <trkpt lat="41.736626364290714" lon="-4.631858551874757">
        <ele>842.27</ele>
        <time>2025-02-10T16:47:27.098Z</time>
      </trkpt>
      <trkpt lat="41.736609768122435" lon="-4.63186651468277">
        <ele>842.31</ele>
        <time>2025-02-10T16:47:27.860Z</time>
      </trkpt>
      <trkpt lat="41.73658076673746" lon="-4.6318753156811">
        <ele>842.34</ele>
        <time>2025-02-10T16:47:28.622Z</time>
      </trkpt>
      <trkpt lat="41.73656199127436" lon="-4.631881099194288">
        <ele>842.36</ele>
        <time>2025-02-10T16:47:29.385Z</time>
      </trkpt>
      <trkpt lat="41.73656106926501" lon="-4.631881434470415">
        <ele>842.38</ele>
        <time>2025-02-10T16:47:30.148Z</time>
      </trkpt>
      <trkpt lat="41.73655905760825" lon="-4.631882105022669">
        <ele>842.39</ele>
        <time>2025-02-10T16:47:30.911Z</time>
      </trkpt>
      <trkpt lat="41.73654103651643" lon="-4.631887720897794">
        <ele>842.4</ele>
        <time>2025-02-10T16:47:31.674Z</time>
      </trkpt>
      <trkpt lat="41.736522847786546" lon="-4.631893336772919">
        <ele>842.4</ele>
        <time>2025-02-10T16:47:32.438Z</time>
      </trkpt>
      <trkpt lat="41.73650558106601" lon="-4.63189878500998">
        <ele>842.41</ele>
        <time>2025-02-10T16:47:33.202Z</time>
      </trkpt>
      <trkpt lat="41.73639887943864" lon="-4.631946058943868">
        <ele>842.39</ele>
        <time>2025-02-10T16:47:33.968Z</time>
      </trkpt>
      <trkpt lat="41.736380606889725" lon="-4.631954273208976">
        <ele>842.39</ele>
        <time>2025-02-10T16:47:34.735Z</time>
      </trkpt>
      <trkpt lat="41.736379601061344" lon="-4.631954776123166">
        <ele>842.39</ele>
        <time>2025-02-10T16:47:35.502Z</time>
      </trkpt>
      <trkpt lat="41.736377757042646" lon="-4.631955698132515">
        <ele>842.39</ele>
        <time>2025-02-10T16:47:36.269Z</time>
      </trkpt>
      <trkpt lat="41.736360071226954" lon="-4.631963660940528">
        <ele>842.38</ele>
        <time>2025-02-10T16:47:37.036Z</time>
      </trkpt>
      <trkpt lat="41.73634230159223" lon="-4.631971623748541">
        <ele>842.38</ele>
        <time>2025-02-10T16:47:37.803Z</time>
      </trkpt>
      <trkpt lat="41.736325370147824" lon="-4.631979251280427">
        <ele>842.37</ele>
        <time>2025-02-10T16:47:38.571Z</time>
      </trkpt>
      <trkpt lat="41.7362798564136" lon="-4.632049910724163">
        <ele>842.38</ele>
        <time>2025-02-10T16:47:39.340Z</time>
      </trkpt>
      <trkpt lat="41.73626736737788" lon="-4.632069356739521">
        <ele>842.39</ele>
        <time>2025-02-10T16:47:40.110Z</time>
      </trkpt>
      <trkpt lat="41.73626669682562" lon="-4.632070446386933">
        <ele>842.4</ele>
        <time>2025-02-10T16:47:40.880Z</time>
      </trkpt>
      <trkpt lat="41.73626543954015" lon="-4.632072541862726">
        <ele>842.41</ele>
        <time>2025-02-10T16:47:41.650Z</time>
      </trkpt>
      <trkpt lat="41.73625345341861" lon="-4.6320913173258305">
        <ele>842.42</ele>
        <time>2025-02-10T16:47:42.420Z</time>
      </trkpt>
      <trkpt lat="41.73624146729708" lon="-4.632110092788935">
        <ele>842.43</ele>
        <time>2025-02-10T16:47:43.190Z</time>
      </trkpt>
      <trkpt lat="41.73622998408973" lon="-4.6321281138807535">
        <ele>842.45</ele>
        <time>2025-02-10T16:47:43.961Z</time>
      </trkpt>
      <trkpt lat="41.73614440485835" lon="-4.632257362827659">
        <ele>842.47</ele>
        <time>2025-02-10T16:47:44.734Z</time>
      </trkpt>
      <trkpt lat="41.73613174818456" lon="-4.632276641204953">
        <ele>842.5</ele>
        <time>2025-02-10T16:47:45.508Z</time>
      </trkpt>
      <trkpt lat="41.73613116145134" lon="-4.6322777308523655">
        <ele>842.51</ele>
        <time>2025-02-10T16:47:46.282Z</time>
      </trkpt>
      <trkpt lat="41.736129904165864" lon="-4.632279826328158">
        <ele>842.53</ele>
        <time>2025-02-10T16:47:47.056Z</time>
      </trkpt>
      <trkpt lat="41.73611766658723" lon="-4.632298434153199">
        <ele>842.55</ele>
        <time>2025-02-10T16:47:47.830Z</time>
      </trkpt>
      <trkpt lat="41.736105512827635" lon="-4.632316958159208">
        <ele>842.57</ele>
        <time>2025-02-10T16:47:48.604Z</time>
      </trkpt>
      <trkpt lat="41.736093861982226" lon="-4.632334811612964">
        <ele>842.58</ele>
        <time>2025-02-10T16:47:49.379Z</time>
      </trkpt>
      <trkpt lat="41.736076176166534" lon="-4.6323551796376705">
        <ele>842.6</ele>
        <time>2025-02-10T16:47:50.154Z</time>
      </trkpt>
      <trkpt lat="41.736061507835984" lon="-4.632372111082077">
        <ele>842.6</ele>
        <time>2025-02-10T16:47:50.930Z</time>
      </trkpt>
      <trkpt lat="41.7360607534647" lon="-4.632373033091426">
        <ele>842.6</ele>
        <time>2025-02-10T16:47:51.706Z</time>
      </trkpt>
      <trkpt lat="41.73605924472213" lon="-4.632374877110124">
        <ele>842.59</ele>
        <time>2025-02-10T16:47:52.482Z</time>
      </trkpt>
      <trkpt lat="41.73604524694383" lon="-4.632391221821308">
        <ele>842.58</ele>
        <time>2025-02-10T16:47:53.258Z</time>
      </trkpt>
      <trkpt lat="41.7360311653465" lon="-4.632407650351524">
        <ele>842.56</ele>
        <time>2025-02-10T16:47:54.034Z</time>
      </trkpt>
      <trkpt lat="41.73601775430143" lon="-4.632423408329487">
        <ele>842.54</ele>
        <time>2025-02-10T16:47:54.811Z</time>
      </trkpt>
      <trkpt lat="41.73598456196487" lon="-4.6324400044977665">
        <ele>842.5</ele>
        <time>2025-02-10T16:47:55.589Z</time>
      </trkpt>
      <trkpt lat="41.73596637323499" lon="-4.6324491407722235">
        <ele>842.46</ele>
        <time>2025-02-10T16:47:56.367Z</time>
      </trkpt>
      <trkpt lat="41.73596545122564" lon="-4.632449643686414">
        <ele>842.41</ele>
        <time>2025-02-10T16:47:57.145Z</time>
      </trkpt>
      <trkpt lat="41.73596352338791" lon="-4.632450649514794">
        <ele>842.35</ele>
        <time>2025-02-10T16:47:57.923Z</time>
      </trkpt>
      <trkpt lat="41.73594600521028" lon="-4.632459534332156">
        <ele>842.28</ele>
        <time>2025-02-10T16:47:58.701Z</time>
      </trkpt>
      <trkpt lat="41.73592848703265" lon="-4.63246850296855">
        <ele>842.21</ele>
        <time>2025-02-10T16:47:59.480Z</time>
      </trkpt>
      <trkpt lat="41.73591163940728" lon="-4.632477052509785">
        <ele>842.13</ele>
        <time>2025-02-10T16:48:00.259Z</time>
      </trkpt>
      <trkpt lat="41.73583033494651" lon="-4.632510412484407">
        <ele>842.03</ele>
        <time>2025-02-10T16:48:01.040Z</time>
      </trkpt>
      <trkpt lat="41.73581164330244" lon="-4.632518123835325">
        <ele>841.94</ele>
        <time>2025-02-10T16:48:01.821Z</time>
      </trkpt>
      <trkpt lat="41.73581072129309" lon="-4.632518542930484">
        <ele>841.84</ele>
        <time>2025-02-10T16:48:02.602Z</time>
      </trkpt>
      <trkpt lat="41.73580879345536" lon="-4.632519381120801">
        <ele>841.75</ele>
        <time>2025-02-10T16:48:03.383Z</time>
      </trkpt>
      <trkpt lat="41.73579077236354" lon="-4.632526841014624">
        <ele>841.64</ele>
        <time>2025-02-10T16:48:04.165Z</time>
      </trkpt>
      <trkpt lat="41.735772751271725" lon="-4.632534300908446">
        <ele>841.53</ele>
        <time>2025-02-10T16:48:04.947Z</time>
      </trkpt>
      <trkpt lat="41.73575540073216" lon="-4.632541509345174">
        <ele>841.42</ele>
        <time>2025-02-10T16:48:05.729Z</time>
      </trkpt>
      <trkpt lat="41.735591534525156" lon="-4.632599763572216">
        <ele>841.27</ele>
        <time>2025-02-10T16:48:06.515Z</time>
      </trkpt>
      <trkpt lat="41.73557250760496" lon="-4.632606552913785">
        <ele>841.16</ele>
        <time>2025-02-10T16:48:07.301Z</time>
      </trkpt>
      <trkpt lat="41.73557158559561" lon="-4.632606972008944">
        <ele>841.05</ele>
        <time>2025-02-10T16:48:08.087Z</time>
      </trkpt>
      <trkpt lat="41.73556957393885" lon="-4.632607726380229">
        <ele>840.95</ele>
        <time>2025-02-10T16:48:08.873Z</time>
      </trkpt>
      <trkpt lat="41.7355512175709" lon="-4.6326143480837345">
        <ele>840.85</ele>
        <time>2025-02-10T16:48:09.660Z</time>
      </trkpt>
      <trkpt lat="41.735532861202955" lon="-4.63262096978724">
        <ele>840.75</ele>
        <time>2025-02-10T16:48:10.447Z</time>
      </trkpt>
      <trkpt lat="41.73551517538726" lon="-4.63262734003365">
        <ele>840.66</ele>
        <time>2025-02-10T16:48:11.234Z</time>
      </trkpt>
      <trkpt lat="41.73539321869612" lon="-4.632708728313446">
        <ele>840.55</ele>
        <time>2025-02-10T16:48:12.024Z</time>
      </trkpt>
      <trkpt lat="41.73537570051849" lon="-4.632720462977886">
        <ele>840.47</ele>
        <time>2025-02-10T16:48:12.814Z</time>
      </trkpt>
      <trkpt lat="41.73537477850914" lon="-4.63272113353014">
        <ele>840.42</ele>
        <time>2025-02-10T16:48:13.604Z</time>
      </trkpt>
      <trkpt lat="41.735373018309474" lon="-4.632722390815616">
        <ele>840.38</ele>
        <time>2025-02-10T16:48:14.395Z</time>
      </trkpt>
      <trkpt lat="41.73535608686507" lon="-4.632733790203929">
        <ele>840.34</ele>
        <time>2025-02-10T16:48:15.186Z</time>
      </trkpt>
      <trkpt lat="41.73533915542066" lon="-4.632745189592242">
        <ele>840.31</ele>
        <time>2025-02-10T16:48:15.977Z</time>
      </trkpt>
      <trkpt lat="41.73532289452851" lon="-4.632756169885397">
        <ele>840.3</ele>
        <time>2025-02-10T16:48:16.769Z</time>
      </trkpt>
      <trkpt lat="41.73517822287977" lon="-4.632959431037307">
        <ele>840.34</ele>
        <time>2025-02-10T16:48:17.565Z</time>
      </trkpt>
      <trkpt lat="41.73516481183469" lon="-4.6329783741384745">
        <ele>840.36</ele>
        <time>2025-02-10T16:48:18.361Z</time>
      </trkpt>
      <trkpt lat="41.73516414128244" lon="-4.632979379966855">
        <ele>840.39</ele>
        <time>2025-02-10T16:48:19.157Z</time>
      </trkpt>
      <trkpt lat="41.7351627163589" lon="-4.632981475442648">
        <ele>840.43</ele>
        <time>2025-02-10T16:48:19.953Z</time>
      </trkpt>
      <trkpt lat="41.73514989204705" lon="-4.63299966417253">
        <ele>840.49</ele>
        <time>2025-02-10T16:48:20.750Z</time>
      </trkpt>
      <trkpt lat="41.73513698391616" lon="-4.633017936721444">
        <ele>840.56</ele>
        <time>2025-02-10T16:48:21.547Z</time>
      </trkpt>
      <trkpt lat="41.7351246625185" lon="-4.633035371080041">
        <ele>840.64</ele>
        <time>2025-02-10T16:48:22.344Z</time>
      </trkpt>
      <trkpt lat="41.73499893397093" lon="-4.633218515664339">
        <ele>840.77</ele>
        <time>2025-02-10T16:48:23.145Z</time>
      </trkpt>
      <trkpt lat="41.73498585820198" lon="-4.633237710222602">
        <ele>840.87</ele>
        <time>2025-02-10T16:48:23.946Z</time>
      </trkpt>
      <trkpt lat="41.73498518764973" lon="-4.6332387160509825">
        <ele>840.98</ele>
        <time>2025-02-10T16:48:24.748Z</time>
      </trkpt>
      <trkpt lat="41.73498376272619" lon="-4.633240895345807">
        <ele>841.1</ele>
        <time>2025-02-10T16:48:25.550Z</time>
      </trkpt>
      <trkpt lat="41.73497118987143" lon="-4.633259419351816">
        <ele>841.22</ele>
        <time>2025-02-10T16:48:26.352Z</time>
      </trkpt>
      <trkpt lat="41.73495853319764" lon="-4.633277943357825">
        <ele>841.36</ele>
        <time>2025-02-10T16:48:27.154Z</time>
      </trkpt>
      <trkpt lat="41.734946463257074" lon="-4.633295712992549">
        <ele>841.5</ele>
        <time>2025-02-10T16:48:27.957Z</time>
      </trkpt>
      <trkpt lat="41.73469718545675" lon="-4.63354398496449">
        <ele>841.66</ele>
        <time>2025-02-10T16:48:28.766Z</time>
      </trkpt>
      <trkpt lat="41.734693916514516" lon="-4.6335473377257586">
        <ele>841.8</ele>
        <time>2025-02-10T16:48:29.575Z</time>
      </trkpt>
      <trkpt lat="41.73468134365976" lon="-4.633559575304389">
        <ele>841.95</ele>
        <time>2025-02-10T16:48:30.384Z</time>
      </trkpt>
      <trkpt lat="41.73468058928847" lon="-4.633560413494706">
        <ele>842.09</ele>
        <time>2025-02-10T16:48:31.193Z</time>
      </trkpt>
      <trkpt lat="41.73467891290784" lon="-4.633562173694372">
        <ele>842.24</ele>
        <time>2025-02-10T16:48:32.002Z</time>
      </trkpt>
      <trkpt lat="41.7346637416631" lon="-4.633577261120081">
        <ele>842.39</ele>
        <time>2025-02-10T16:48:32.812Z</time>
      </trkpt>
      <trkpt lat="41.73464857041836" lon="-4.633592432364821">
        <ele>842.54</ele>
        <time>2025-02-10T16:48:33.622Z</time>
      </trkpt>
      <trkpt lat="41.73463406972587" lon="-4.63360701687634">
        <ele>842.69</ele>
        <time>2025-02-10T16:48:34.432Z</time>
      </trkpt>
      <trkpt lat="41.73453273251653" lon="-4.633674491196871">
        <ele>842.83</ele>
        <time>2025-02-10T16:48:35.245Z</time>
      </trkpt>
      <trkpt lat="41.734515046700835" lon="-4.633686393499374">
        <ele>842.97</ele>
        <time>2025-02-10T16:48:36.058Z</time>
      </trkpt>
      <trkpt lat="41.734514124691486" lon="-4.633687064051628">
        <ele>843.11</ele>
        <time>2025-02-10T16:48:36.871Z</time>
      </trkpt>
      <trkpt lat="41.73451228067279" lon="-4.633688405156136">
        <ele>843.24</ele>
        <time>2025-02-10T16:48:37.684Z</time>
      </trkpt>
      <trkpt lat="41.73449518159032" lon="-4.633699888363481">
        <ele>843.38</ele>
        <time>2025-02-10T16:48:38.498Z</time>
      </trkpt>
      <trkpt lat="41.73447816632688" lon="-4.633711371570826">
        <ele>843.52</ele>
        <time>2025-02-10T16:48:39.312Z</time>
      </trkpt>
      <trkpt lat="41.734461821615696" lon="-4.633722435683012">
        <ele>843.65</ele>
        <time>2025-02-10T16:48:40.126Z</time>
      </trkpt>
      <trkpt lat="41.734380181878805" lon="-4.633741462603211">
        <ele>843.78</ele>
        <time>2025-02-10T16:48:40.942Z</time>
      </trkpt>
      <trkpt lat="41.734360652044415" lon="-4.633746072649956">
        <ele>843.9</ele>
        <time>2025-02-10T16:48:41.758Z</time>
      </trkpt>
      <trkpt lat="41.734359646216035" lon="-4.633746324107051">
        <ele>844.0</ele>
        <time>2025-02-10T16:48:42.574Z</time>
      </trkpt>
      <trkpt lat="41.73435755074024" lon="-4.633746827021241">
        <ele>844.09</ele>
        <time>2025-02-10T16:48:43.390Z</time>
      </trkpt>
      <trkpt lat="41.734338691458106" lon="-4.633751269429922">
        <ele>844.18</ele>
        <time>2025-02-10T16:48:44.207Z</time>
      </trkpt>
      <trkpt lat="41.73431974835694" lon="-4.633755795657635">
        <ele>844.25</ele>
        <time>2025-02-10T16:48:45.024Z</time>
      </trkpt>
      <trkpt lat="41.73430164344609" lon="-4.633760070428252">
        <ele>844.32</ele>
        <time>2025-02-10T16:48:45.842Z</time>
      </trkpt>
      <trkpt lat="41.734174992889166" lon="-4.633779600262642">
        <ele>844.38</ele>
        <time>2025-02-10T16:48:46.662Z</time>
      </trkpt>
      <trkpt lat="41.73415512777865" lon="-4.633782701566815">
        <ele>844.42</ele>
        <time>2025-02-10T16:48:47.483Z</time>
      </trkpt>
      <trkpt lat="41.73415412195027" lon="-4.633782869204879">
        <ele>844.44</ele>
        <time>2025-02-10T16:48:48.304Z</time>
      </trkpt>
      <trkpt lat="41.734152026474476" lon="-4.633783288300037">
        <ele>844.46</ele>
        <time>2025-02-10T16:48:49.125Z</time>
      </trkpt>
      <trkpt lat="41.734132915735245" lon="-4.633786305785179">
        <ele>844.46</ele>
        <time>2025-02-10T16:48:49.946Z</time>
      </trkpt>
      <trkpt lat="41.734113804996014" lon="-4.633789323270321">
        <ele>844.45</ele>
        <time>2025-02-10T16:48:50.767Z</time>
      </trkpt>
      <trkpt lat="41.734095364809036" lon="-4.633792256936431">
        <ele>844.42</ele>
        <time>2025-02-10T16:48:51.589Z</time>
      </trkpt>
      <trkpt lat="41.73402872867882" lon="-4.633822096511722">
        <ele>844.39</ele>
        <time>2025-02-10T16:48:52.412Z</time>
      </trkpt>
      <trkpt lat="41.73400995321572" lon="-4.633830646052957">
        <ele>844.35</ele>
        <time>2025-02-10T16:48:53.236Z</time>
      </trkpt>
      <trkpt lat="41.73400894738734" lon="-4.633831148967147">
        <ele>844.29</ele>
        <time>2025-02-10T16:48:54.060Z</time>
      </trkpt>
      <trkpt lat="41.73400701954961" lon="-4.633832070976496">
        <ele>844.21</ele>
        <time>2025-02-10T16:48:54.884Z</time>
      </trkpt>
      <trkpt lat="41.733988830819726" lon="-4.633840369060636">
        <ele>844.13</ele>
        <time>2025-02-10T16:48:55.708Z</time>
      </trkpt>
      <trkpt lat="41.733970725908875" lon="-4.633848667144775">
        <ele>844.03</ele>
        <time>2025-02-10T16:48:56.532Z</time>
      </trkpt>
      <trkpt lat="41.73395320773125" lon="-4.633856629952788">
        <ele>843.92</ele>
        <time>2025-02-10T16:48:57.357Z</time>
      </trkpt>
      <trkpt lat="41.73390316776931" lon="-4.633918320760131">
        <ele>843.78</ele>
        <time>2025-02-10T16:48:58.183Z</time>
      </trkpt>
      <trkpt lat="41.733888667076826" lon="-4.63393634185195">
        <ele>843.63</ele>
        <time>2025-02-10T16:48:59.009Z</time>
      </trkpt>
      <trkpt lat="41.73388791270554" lon="-4.63393734768033">
        <ele>843.49</ele>
        <time>2025-02-10T16:48:59.835Z</time>
      </trkpt>
      <trkpt lat="41.73388640396297" lon="-4.63393927551806">
        <ele>843.34</ele>
        <time>2025-02-10T16:49:00.662Z</time>
      </trkpt>
      <trkpt lat="41.73387240618467" lon="-4.6339567098766565">
        <ele>843.16</ele>
        <time>2025-02-10T16:49:01.489Z</time>
      </trkpt>
      <trkpt lat="41.73385849222541" lon="-4.633974060416222">
        <ele>842.98</ele>
        <time>2025-02-10T16:49:02.316Z</time>
      </trkpt>
      <trkpt lat="41.733845081180334" lon="-4.633990824222565">
        <ele>842.79</ele>
        <time>2025-02-10T16:49:03.144Z</time>
      </trkpt>
      <trkpt lat="41.73384256660938" lon="-4.63400037959218">
        <ele>842.61</ele>
        <time>2025-02-10T16:49:03.972Z</time>
      </trkpt>
      <trkpt lat="41.73383602872491" lon="-4.634025525301695">
        <ele>842.42</ele>
        <time>2025-02-10T16:49:04.800Z</time>
      </trkpt>
      <trkpt lat="41.733835777267814" lon="-4.634026782587171">
        <ele>842.25</ele>
        <time>2025-02-10T16:49:05.628Z</time>
      </trkpt>
      <trkpt lat="41.73383510671556" lon="-4.634029548615217">
        <ele>842.08</ele>
        <time>2025-02-10T16:49:06.456Z</time>
      </trkpt>
      <trkpt lat="41.733828987926245" lon="-4.634053772315383">
        <ele>841.89</ele>
        <time>2025-02-10T16:49:07.285Z</time>
      </trkpt>
      <trkpt lat="41.73382295295596" lon="-4.634077744558454">
        <ele>841.71</ele>
        <time>2025-02-10T16:49:08.114Z</time>
      </trkpt>
      <trkpt lat="41.73381708562374" lon="-4.634100878611207">
        <ele>841.53</ele>
        <time>2025-02-10T16:49:08.943Z</time>
      </trkpt>
      <trkpt lat="41.733831921592355" lon="-4.634144129231572">
        <ele>841.37</ele>
        <time>2025-02-10T16:49:09.773Z</time>
      </trkpt>
      <trkpt lat="41.733840219676495" lon="-4.634168269112706">
        <ele>841.22</ele>
        <time>2025-02-10T16:49:10.604Z</time>
      </trkpt>
      <trkpt lat="41.73384063877165" lon="-4.63416944257915">
        <ele>841.08</ele>
        <time>2025-02-10T16:49:11.435Z</time>
      </trkpt>
      <trkpt lat="41.733841560781" lon="-4.634172040969133">
        <ele>840.94</ele>
        <time>2025-02-10T16:49:12.266Z</time>
      </trkpt>
      <trkpt lat="41.733849523589015" lon="-4.6341952588409185">
        <ele>840.81</ele>
        <time>2025-02-10T16:49:13.097Z</time>
      </trkpt>
      <trkpt lat="41.73385748639703" lon="-4.634218225255609">
        <ele>840.68</ele>
        <time>2025-02-10T16:49:13.928Z</time>
      </trkpt>
      <trkpt lat="41.733865113928914" lon="-4.634240437299013">
        <ele>840.55</ele>
        <time>2025-02-10T16:49:14.760Z</time>
      </trkpt>
      <trkpt lat="41.73405194655061" lon="-4.634434729814529">
        <ele>840.45</ele>
        <time>2025-02-10T16:49:15.596Z</time>
      </trkpt>
      <trkpt lat="41.73406770452857" lon="-4.634451158344746">
        <ele>840.36</ele>
        <time>2025-02-10T16:49:16.433Z</time>
      </trkpt>
      <trkpt lat="41.73406854271889" lon="-4.634451996535063">
        <ele>840.26</ele>
        <time>2025-02-10T16:49:17.270Z</time>
      </trkpt>
      <trkpt lat="41.73407021909952" lon="-4.634453756734729">
        <ele>840.18</ele>
        <time>2025-02-10T16:49:18.107Z</time>
      </trkpt>
      <trkpt lat="41.73408539034426" lon="-4.634469514712691">
        <ele>840.1</ele>
        <time>2025-02-10T16:49:18.944Z</time>
      </trkpt>
      <trkpt lat="41.73410047776997" lon="-4.634485188871622">
        <ele>840.03</ele>
        <time>2025-02-10T16:49:19.782Z</time>
      </trkpt>
      <trkpt lat="41.73411372117698" lon="-4.634498935192823">
        <ele>839.96</ele>
        <time>2025-02-10T16:49:20.620Z</time>
      </trkpt>
      <trkpt lat="41.73411514610052" lon="-4.634500360116363">
        <ele>839.89</ele>
        <time>2025-02-10T16:49:21.458Z</time>
      </trkpt>
      <trkpt lat="41.73433315940201" lon="-4.634790541604161">
        <ele>839.85</ele>
        <time>2025-02-10T16:49:22.302Z</time>
      </trkpt>
      <trkpt lat="41.73433827236295" lon="-4.634797414764762">
        <ele>839.78</ele>
        <time>2025-02-10T16:49:23.146Z</time>
      </trkpt>
      <trkpt lat="41.73434724099934" lon="-4.6348093170672655">
        <ele>839.7</ele>
        <time>2025-02-10T16:49:23.991Z</time>
      </trkpt>
      <trkpt lat="41.734347911551595" lon="-4.634810239076614">
        <ele>839.64</ele>
        <time>2025-02-10T16:49:24.836Z</time>
      </trkpt>
      <trkpt lat="41.734349420294166" lon="-4.6348122507333755">
        <ele>839.57</ele>
        <time>2025-02-10T16:49:25.681Z</time>
      </trkpt>
      <trkpt lat="41.734363082796335" lon="-4.634830439463258">
        <ele>839.5</ele>
        <time>2025-02-10T16:49:26.526Z</time>
      </trkpt>
      <trkpt lat="41.73437666147947" lon="-4.634848460555077">
        <ele>839.42</ele>
        <time>2025-02-10T16:49:27.371Z</time>
      </trkpt>
      <trkpt lat="41.73438973724842" lon="-4.634865894913673">
        <ele>839.35</ele>
        <time>2025-02-10T16:49:28.217Z</time>
      </trkpt>
      <trkpt lat="41.734451092779636" lon="-4.6350031066685915">
        <ele>839.31</ele>
        <time>2025-02-10T16:49:29.065Z</time>
      </trkpt>
      <trkpt lat="41.734461318701506" lon="-4.635025905445218">
        <ele>839.25</ele>
        <time>2025-02-10T16:49:29.914Z</time>
      </trkpt>
      <trkpt lat="41.734461821615696" lon="-4.63502699509263">
        <ele>839.18</ele>
        <time>2025-02-10T16:49:30.763Z</time>
      </trkpt>
      <trkpt lat="41.73446291126311" lon="-4.63502942584455">
        <ele>839.1</ele>
        <time>2025-02-10T16:49:31.612Z</time>
      </trkpt>
      <trkpt lat="41.73447280190885" lon="-4.63505138643086">
        <ele>839.03</ele>
        <time>2025-02-10T16:49:32.461Z</time>
      </trkpt>
      <trkpt lat="41.73448252491653" lon="-4.635073095560074">
        <ele>838.94</ele>
        <time>2025-02-10T16:49:33.310Z</time>
      </trkpt>
      <trkpt lat="41.73449191264808" lon="-4.635093966498971">
        <ele>838.86</ele>
        <time>2025-02-10T16:49:34.160Z</time>
      </trkpt>
      <trkpt lat="41.734605487436056" lon="-4.6352663822472095">
        <ele>838.77</ele>
        <time>2025-02-10T16:49:35.013Z</time>
      </trkpt>
      <trkpt lat="41.734618647024035" lon="-4.6352864149957895">
        <ele>838.69</ele>
        <time>2025-02-10T16:49:35.867Z</time>
      </trkpt>
      <trkpt lat="41.73461931757629" lon="-4.63528742082417">
        <ele>838.6</ele>
        <time>2025-02-10T16:49:36.721Z</time>
      </trkpt>
      <trkpt lat="41.73462074249983" lon="-4.635289516299963">
        <ele>838.51</ele>
        <time>2025-02-10T16:49:37.575Z</time>
      </trkpt>
      <trkpt lat="41.73463339917362" lon="-4.6353087946772575">
        <ele>838.43</ele>
        <time>2025-02-10T16:49:38.429Z</time>
      </trkpt>
      <trkpt lat="41.734645972028375" lon="-4.635327821597457">
        <ele>838.33</ele>
        <time>2025-02-10T16:49:39.283Z</time>
      </trkpt>
      <trkpt lat="41.73465812578797" lon="-4.635346261784434">
        <ele>838.23</ele>
        <time>2025-02-10T16:49:40.138Z</time>
      </trkpt>
      <trkpt lat="41.734775975346565" lon="-4.6355403028428555">
        <ele>838.08</ele>
        <time>2025-02-10T16:49:40.997Z</time>
      </trkpt>
      <trkpt lat="41.73478854820132" lon="-4.635560922324657">
        <ele>838.0</ele>
        <time>2025-02-10T16:49:41.856Z</time>
      </trkpt>
      <trkpt lat="41.734789218753576" lon="-4.63556201197207">
        <ele>837.93</ele>
        <time>2025-02-10T16:49:42.715Z</time>
      </trkpt>
      <trkpt lat="41.734790559858084" lon="-4.635564191266894">
        <ele>837.87</ele>
        <time>2025-02-10T16:49:43.574Z</time>
      </trkpt>
      <trkpt lat="41.73480271361768" lon="-4.635584140196443">
        <ele>837.81</ele>
        <time>2025-02-10T16:49:44.433Z</time>
      </trkpt>
      <trkpt lat="41.73481469973922" lon="-4.635603837668896">
        <ele>837.76</ele>
        <time>2025-02-10T16:49:45.293Z</time>
      </trkpt>
      <trkpt lat="41.734826266765594" lon="-4.635622780770063">
        <ele>837.72</ele>
        <time>2025-02-10T16:49:46.153Z</time>
      </trkpt>
      <trkpt lat="41.73484269529581" lon="-4.6356383711099625">
        <ele>837.7</ele>
        <time>2025-02-10T16:49:47.014Z</time>
      </trkpt>
      <trkpt lat="41.734859040006995" lon="-4.63565387763083">
        <ele>837.69</ele>
        <time>2025-02-10T16:49:47.875Z</time>
      </trkpt>
      <trkpt lat="41.73485987819731" lon="-4.635654632002115">
        <ele>837.69</ele>
        <time>2025-02-10T16:49:48.736Z</time>
      </trkpt>
      <trkpt lat="41.73486163839698" lon="-4.63565630838275">
        <ele>837.71</ele>
        <time>2025-02-10T16:49:49.597Z</time>
      </trkpt>
      <trkpt lat="41.73487748019397" lon="-4.635671311989427">
        <ele>837.73</ele>
        <time>2025-02-10T16:49:50.458Z</time>
      </trkpt>
      <trkpt lat="41.734893238171935" lon="-4.635686231777072">
        <ele>837.77</ele>
        <time>2025-02-10T16:49:51.320Z</time>
      </trkpt>
      <trkpt lat="41.734908409416676" lon="-4.635700564831495">
        <ele>837.82</ele>
        <time>2025-02-10T16:49:52.182Z</time>
      </trkpt>
      <trkpt lat="41.73501745797694" lon="-4.63578924536705">
        <ele>837.96</ele>
        <time>2025-02-10T16:49:53.047Z</time>
      </trkpt>
      <trkpt lat="41.73503472469747" lon="-4.635803326964378">
        <ele>838.05</ele>
        <time>2025-02-10T16:49:53.912Z</time>
      </trkpt>
      <trkpt lat="41.73503556288779" lon="-4.635803997516632">
        <ele>838.14</ele>
        <time>2025-02-10T16:49:54.777Z</time>
      </trkpt>
      <trkpt lat="41.735037406906486" lon="-4.635805506259203">
        <ele>838.24</ele>
        <time>2025-02-10T16:49:55.642Z</time>
      </trkpt>
      <trkpt lat="41.7350540868938" lon="-4.635819084942341">
        <ele>838.36</ele>
        <time>2025-02-10T16:49:56.508Z</time>
      </trkpt>
      <trkpt lat="41.735070599243045" lon="-4.635832495987415">
        <ele>838.49</ele>
        <time>2025-02-10T16:49:57.374Z</time>
      </trkpt>
      <trkpt lat="41.7350866086781" lon="-4.635845487937331">
        <ele>838.61</ele>
        <time>2025-02-10T16:49:58.240Z</time>
      </trkpt>
      <trkpt lat="41.73514377325773" lon="-4.635927714407444">
        <ele>838.74</ele>
        <time>2025-02-10T16:49:59.108Z</time>
      </trkpt>
      <trkpt lat="41.7351574357599" lon="-4.635947328060865">
        <ele>838.88</ele>
        <time>2025-02-10T16:49:59.976Z</time>
      </trkpt>
      <trkpt lat="41.73515819013119" lon="-4.635948333889246">
        <ele>839.03</ele>
        <time>2025-02-10T16:50:00.844Z</time>
      </trkpt>
      <trkpt lat="41.73515969887376" lon="-4.635950513184071">
        <ele>839.18</ele>
        <time>2025-02-10T16:50:01.712Z</time>
      </trkpt>
      <trkpt lat="41.73517294228077" lon="-4.63596954010427">
        <ele>839.34</ele>
        <time>2025-02-10T16:50:02.581Z</time>
      </trkpt>
      <trkpt lat="41.73518610186875" lon="-4.635988399386406">
        <ele>839.5</ele>
        <time>2025-02-10T16:50:03.450Z</time>
      </trkpt>
      <trkpt lat="41.73519875854254" lon="-4.636006588116288">
        <ele>839.67</ele>
        <time>2025-02-10T16:50:04.320Z</time>
      </trkpt>
      <trkpt lat="41.73529330641031" lon="-4.636090993881226">
        <ele>839.91</ele>
        <time>2025-02-10T16:50:05.192Z</time>
      </trkpt>
      <trkpt lat="41.73531015403569" lon="-4.636106081306934">
        <ele>840.1</ele>
        <time>2025-02-10T16:50:06.064Z</time>
      </trkpt>
      <trkpt lat="41.735310992226005" lon="-4.63610683567822">
        <ele>840.29</ele>
        <time>2025-02-10T16:50:06.936Z</time>
      </trkpt>
      <trkpt lat="41.7353128362447" lon="-4.636108512058854">
        <ele>840.48</ele>
        <time>2025-02-10T16:50:07.808Z</time>
      </trkpt>
      <trkpt lat="41.73532918095589" lon="-4.636123096570373">
        <ele>840.68</ele>
        <time>2025-02-10T16:50:08.681Z</time>
      </trkpt>
      <trkpt lat="41.73534535802901" lon="-4.636137513443828">
        <ele>840.88</ele>
        <time>2025-02-10T16:50:09.554Z</time>
      </trkpt>
      <trkpt lat="41.73536094836891" lon="-4.636151511222124">
        <ele>841.06</ele>
        <time>2025-02-10T16:50:10.428Z</time>
      </trkpt>
      <trkpt lat="41.73545507714152" lon="-4.636226864531636">
        <ele>841.22</ele>
        <time>2025-02-10T16:50:11.304Z</time>
      </trkpt>
      <trkpt lat="41.73547251150012" lon="-4.636240862309933">
        <ele>841.41</ele>
        <time>2025-02-10T16:50:12.180Z</time>
      </trkpt>
      <trkpt lat="41.73547334969044" lon="-4.636241532862186">
        <ele>841.59</ele>
        <time>2025-02-10T16:50:13.056Z</time>
      </trkpt>
      <trkpt lat="41.73547527752817" lon="-4.636243041604757">
        <ele>841.77</ele>
        <time>2025-02-10T16:50:13.932Z</time>
      </trkpt>
      <trkpt lat="41.73549220897257" lon="-4.636256620287895">
        <ele>841.95</ele>
        <time>2025-02-10T16:50:14.809Z</time>
      </trkpt>
      <trkpt lat="41.735508972778916" lon="-4.63627003133297">
        <ele>842.12</ele>
        <time>2025-02-10T16:50:15.686Z</time>
      </trkpt>
      <trkpt lat="41.73552514985204" lon="-4.6362830232828856">
        <ele>842.3</ele>
        <time>2025-02-10T16:50:16.563Z</time>
      </trkpt>
      <trkpt lat="41.73583595082164" lon="-4.636352425441146">
        <ele>842.53</ele>
        <time>2025-02-10T16:50:17.447Z</time>
      </trkpt>
      <trkpt lat="41.73603879287839" lon="-4.6363976038992405">
        <ele>842.73</ele>
        <time>2025-02-10T16:50:18.335Z</time>
      </trkpt>
      <trkpt lat="41.736059160903096" lon="-4.636402130126953">
        <ele>842.88</ele>
        <time>2025-02-10T16:50:19.223Z</time>
      </trkpt>
      <trkpt lat="41.73606016673148" lon="-4.636402381584048">
        <ele>843.01</ele>
        <time>2025-02-10T16:50:20.111Z</time>
      </trkpt>
      <trkpt lat="41.73606242984533" lon="-4.636402884498239">
        <ele>843.13</ele>
        <time>2025-02-10T16:50:20.999Z</time>
      </trkpt>
      <trkpt lat="41.736082127317786" lon="-4.6364073269069195">
        <ele>843.25</ele>
        <time>2025-02-10T16:50:21.888Z</time>
      </trkpt>
      <trkpt lat="41.73610174097121" lon="-4.6364117693156">
        <ele>843.35</ele>
        <time>2025-02-10T16:50:22.777Z</time>
      </trkpt>
      <trkpt lat="41.736120684072375" lon="-4.636416044086218">
        <ele>843.44</ele>
        <time>2025-02-10T16:50:23.666Z</time>
      </trkpt>
      <trkpt lat="41.736166616901755" lon="-4.636435741558671">
        <ele>843.52</ele>
        <time>2025-02-10T16:50:24.556Z</time>
      </trkpt>
      <trkpt lat="41.73618606291711" lon="-4.6364441234618425">
        <ele>843.58</ele>
        <time>2025-02-10T16:50:25.447Z</time>
      </trkpt>
      <trkpt lat="41.73618698492646" lon="-4.636444542557001">
        <ele>843.62</ele>
        <time>2025-02-10T16:50:26.338Z</time>
      </trkpt>
      <trkpt lat="41.73618916422129" lon="-4.636445548385382">
        <ele>843.64</ele>
        <time>2025-02-10T16:50:27.229Z</time>
      </trkpt>
      <trkpt lat="41.73620802350342" lon="-4.63645376265049">
        <ele>843.65</ele>
        <time>2025-02-10T16:50:28.120Z</time>
      </trkpt>
      <trkpt lat="41.736226715147495" lon="-4.636461893096566">
        <ele>843.65</ele>
        <time>2025-02-10T16:50:29.012Z</time>
      </trkpt>
      <trkpt lat="41.736244820058346" lon="-4.6364697720855474">
        <ele>843.63</ele>
        <time>2025-02-10T16:50:29.904Z</time>
      </trkpt>
      <trkpt lat="41.73633333295584" lon="-4.636633973568678">
        <ele>843.52</ele>
        <time>2025-02-10T16:50:30.799Z</time>
      </trkpt>
      <trkpt lat="41.73634523525834" lon="-4.636656017974019">
        <ele>843.46</ele>
        <time>2025-02-10T16:50:31.694Z</time>
      </trkpt>
      <trkpt lat="41.73634582199156" lon="-4.636657107621431">
        <ele>843.39</ele>
        <time>2025-02-10T16:50:32.589Z</time>
      </trkpt>
      <trkpt lat="41.73634716309607" lon="-4.636659538373351">
        <ele>843.32</ele>
        <time>2025-02-10T16:50:33.485Z</time>
      </trkpt>
      <trkpt lat="41.736358646303415" lon="-4.636680744588375">
        <ele>843.22</ele>
        <time>2025-02-10T16:50:34.381Z</time>
      </trkpt>
      <trkpt lat="41.73637004569173" lon="-4.636701866984367">
        <ele>843.11</ele>
        <time>2025-02-10T16:50:35.277Z</time>
      </trkpt>
      <trkpt lat="41.73638102598488" lon="-4.636722067371011">
        <ele>842.98</ele>
        <time>2025-02-10T16:50:36.174Z</time>
      </trkpt>
      <trkpt lat="41.736434418708086" lon="-4.63672399520874">
        <ele>842.86</ele>
        <time>2025-02-10T16:50:37.072Z</time>
      </trkpt>
      <trkpt lat="41.73645503818989" lon="-4.636724749580026">
        <ele>842.74</ele>
        <time>2025-02-10T16:50:37.970Z</time>
      </trkpt>
      <trkpt lat="41.73645604401827" lon="-4.636724833399057">
        <ele>842.6</ele>
        <time>2025-02-10T16:50:38.868Z</time>
      </trkpt>
      <trkpt lat="41.73645839095116" lon="-4.636725001037121">
        <ele>842.46</ele>
        <time>2025-02-10T16:50:39.766Z</time>
      </trkpt>
      <trkpt lat="41.73647825606167" lon="-4.636725839227438">
        <ele>842.29</ele>
        <time>2025-02-10T16:50:40.665Z</time>
      </trkpt>
      <trkpt lat="41.73649812117219" lon="-4.636726677417755">
        <ele>842.11</ele>
        <time>2025-02-10T16:50:41.564Z</time>
      </trkpt>
      <trkpt lat="41.73651714809239" lon="-4.636727431789041">
        <ele>841.92</ele>
        <time>2025-02-10T16:50:42.463Z</time>
      </trkpt>
      <trkpt lat="41.73669752664864" lon="-4.6363824326545">
        <ele>841.87</ele>
        <time>2025-02-10T16:50:43.369Z</time>
      </trkpt>
      <trkpt lat="41.7367706168443" lon="-4.636242371052504">
        <ele>841.68</ele>
        <time>2025-02-10T16:50:44.277Z</time>
      </trkpt>
      <trkpt lat="41.73678235150874" lon="-4.636219991371036">
        <ele>841.47</ele>
        <time>2025-02-10T16:50:45.186Z</time>
      </trkpt>
      <trkpt lat="41.73678293824196" lon="-4.636218901723623">
        <ele>841.26</ele>
        <time>2025-02-10T16:50:46.095Z</time>
      </trkpt>
      <trkpt lat="41.736784279346466" lon="-4.636216387152672">
        <ele>841.03</ele>
        <time>2025-02-10T16:50:47.004Z</time>
      </trkpt>
      <trkpt lat="41.73679559491575" lon="-4.636194845661521">
        <ele>840.79</ele>
        <time>2025-02-10T16:50:47.913Z</time>
      </trkpt>
      <trkpt lat="41.736806826666" lon="-4.6361734718084335">
        <ele>840.54</ele>
        <time>2025-02-10T16:50:48.823Z</time>
      </trkpt>
      <trkpt lat="41.73681755550206" lon="-4.636153019964695">
        <ele>840.28</ele>
        <time>2025-02-10T16:50:49.733Z</time>
      </trkpt>
      <trkpt lat="41.737035317346454" lon="-4.6358489245176315">
        <ele>839.93</ele>
        <time>2025-02-10T16:50:50.649Z</time>
      </trkpt>
      <trkpt lat="41.73704881221056" lon="-4.6358298137784">
        <ele>839.66</ele>
        <time>2025-02-10T16:50:51.566Z</time>
      </trkpt>
      <trkpt lat="41.73706306144595" lon="-4.635809864848852">
        <ele>839.38</ele>
        <time>2025-02-10T16:50:52.483Z</time>
      </trkpt>
      <trkpt lat="41.73706381581724" lon="-4.635808942839503">
        <ele>839.11</ele>
        <time>2025-02-10T16:50:53.400Z</time>
      </trkpt>
      <trkpt lat="41.73706540837884" lon="-4.635806763544679">
        <ele>838.84</ele>
        <time>2025-02-10T16:50:54.317Z</time>
      </trkpt>
      <trkpt lat="41.73707915470004" lon="-4.635787652805448">
        <ele>838.56</ele>
        <time>2025-02-10T16:50:55.234Z</time>
      </trkpt>
      <trkpt lat="41.73709281720221" lon="-4.635768625885248">
        <ele>838.28</ele>
        <time>2025-02-10T16:50:56.152Z</time>
      </trkpt>
      <trkpt lat="41.73710589297116" lon="-4.635750437155366">
        <ele>838.01</ele>
        <time>2025-02-10T16:50:57.070Z</time>
      </trkpt>
      <trkpt lat="41.73730689100921" lon="-4.635657649487257">
        <ele>837.6</ele>
        <time>2025-02-10T16:50:57.992Z</time>
      </trkpt>
      <trkpt lat="41.737326672300696" lon="-4.635648597031832">
        <ele>837.34</ele>
        <time>2025-02-10T16:50:58.915Z</time>
      </trkpt>
      <trkpt lat="41.73732767812908" lon="-4.635648177936673">
        <ele>837.11</ele>
        <time>2025-02-10T16:50:59.838Z</time>
      </trkpt>
      <trkpt lat="41.7373298574239" lon="-4.635647255927324">
        <ele>836.88</ele>
        <time>2025-02-10T16:51:00.761Z</time>
      </trkpt>
      <trkpt lat="41.73734896816313" lon="-4.635638538748026">
        <ele>836.66</ele>
        <time>2025-02-10T16:51:01.684Z</time>
      </trkpt>
      <trkpt lat="41.7373679112643" lon="-4.635629905387759">
        <ele>836.47</ele>
        <time>2025-02-10T16:51:02.608Z</time>
      </trkpt>
      <trkpt lat="41.737386183813214" lon="-4.635621607303619">
        <ele>836.29</ele>
        <time>2025-02-10T16:51:03.532Z</time>
      </trkpt>
      <trkpt lat="41.737667648121715" lon="-4.635439217090607">
        <ele>836.11</ele>
        <time>2025-02-10T16:51:04.462Z</time>
      </trkpt>
      <trkpt lat="41.73766974359751" lon="-4.635437959805131">
        <ele>835.98</ele>
        <time>2025-02-10T16:51:05.392Z</time>
      </trkpt>
      <trkpt lat="41.73768642358482" lon="-4.635426811873913">
        <ele>835.87</ele>
        <time>2025-02-10T16:51:06.323Z</time>
      </trkpt>
      <trkpt lat="41.73768734559417" lon="-4.6354263089597225">
        <ele>835.79</ele>
        <time>2025-02-10T16:51:07.254Z</time>
      </trkpt>
      <trkpt lat="41.73768944106996" lon="-4.635425051674247">
        <ele>835.73</ele>
        <time>2025-02-10T16:51:08.185Z</time>
      </trkpt>
      <trkpt lat="41.73770746216178" lon="-4.635413400828838">
        <ele>835.69</ele>
        <time>2025-02-10T16:51:09.116Z</time>
      </trkpt>
      <trkpt lat="41.73772539943457" lon="-4.635401833802462">
        <ele>835.68</ele>
        <time>2025-02-10T16:51:10.048Z</time>
      </trkpt>
      <trkpt lat="41.7377426661551" lon="-4.635390769690275">
        <ele>835.7</ele>
        <time>2025-02-10T16:51:10.980Z</time>
      </trkpt>
      <trkpt lat="41.737822126597166" lon="-4.63526101782918">
        <ele>835.78</ele>
        <time>2025-02-10T16:51:11.915Z</time>
      </trkpt>
      <trkpt lat="41.737835286185145" lon="-4.635239727795124">
        <ele>835.85</ele>
        <time>2025-02-10T16:51:12.850Z</time>
      </trkpt>
      <trkpt lat="41.7378359567374" lon="-4.6352387219667435">
        <ele>835.93</ele>
        <time>2025-02-10T16:51:13.785Z</time>
      </trkpt>
      <trkpt lat="41.73783746547997" lon="-4.635236375033855">
        <ele>836.04</ele>
        <time>2025-02-10T16:51:14.720Z</time>
      </trkpt>
      <trkpt lat="41.73785012215376" lon="-4.635215839371085">
        <ele>836.17</ele>
        <time>2025-02-10T16:51:15.655Z</time>
      </trkpt>
      <trkpt lat="41.737862695008516" lon="-4.635195471346378">
        <ele>836.32</ele>
        <time>2025-02-10T16:51:16.591Z</time>
      </trkpt>
      <trkpt lat="41.73787476494908" lon="-4.63517602533102">
        <ele>836.49</ele>
        <time>2025-02-10T16:51:17.527Z</time>
      </trkpt>
      <trkpt lat="41.7379289958626" lon="-4.634957341477275">
        <ele>836.73</ele>
        <time>2025-02-10T16:51:18.467Z</time>
      </trkpt>
      <trkpt lat="41.73793553374708" lon="-4.634931357577443">
        <ele>836.95</ele>
        <time>2025-02-10T16:51:19.407Z</time>
      </trkpt>
      <trkpt lat="41.737935869023204" lon="-4.634930100291967">
        <ele>837.18</ele>
        <time>2025-02-10T16:51:20.347Z</time>
      </trkpt>
      <trkpt lat="41.73793662339449" lon="-4.634927166625857">
        <ele>837.42</ele>
        <time>2025-02-10T16:51:21.287Z</time>
      </trkpt>
      <trkpt lat="41.737942826002836" lon="-4.634902272373438">
        <ele>837.69</ele>
        <time>2025-02-10T16:51:22.228Z</time>
      </trkpt>
      <trkpt lat="41.73794902861118" lon="-4.634877545759082">
        <ele>837.96</ele>
        <time>2025-02-10T16:51:23.169Z</time>
      </trkpt>
      <trkpt lat="41.7379548959434" lon="-4.63485399261117">
        <ele>838.25</ele>
        <time>2025-02-10T16:51:24.110Z</time>
      </trkpt>
      <trkpt lat="41.73811499029398" lon="-4.634513016790152">
        <ele>838.67</ele>
        <time>2025-02-10T16:51:25.057Z</time>
      </trkpt>
      <trkpt lat="41.73812228254974" lon="-4.634497510269284">
        <ele>838.98</ele>
        <time>2025-02-10T16:51:26.005Z</time>
      </trkpt>
      <trkpt lat="41.73812580294907" lon="-4.634489715099335">
        <ele>839.29</ele>
        <time>2025-02-10T16:51:26.953Z</time>
      </trkpt>
      <trkpt lat="41.73812638968229" lon="-4.634488541632891">
        <ele>839.6</ele>
        <time>2025-02-10T16:51:27.901Z</time>
      </trkpt>
      <trkpt lat="41.73812764696777" lon="-4.6344859432429075">
        <ele>839.92</ele>
        <time>2025-02-10T16:51:28.849Z</time>
      </trkpt>
      <trkpt lat="41.7381382919848" lon="-4.634463228285313">
        <ele>840.25</ele>
        <time>2025-02-10T16:51:29.797Z</time>
      </trkpt>
      <trkpt lat="41.738148937001824" lon="-4.634440680965781">
        <ele>840.58</ele>
        <time>2025-02-10T16:51:30.746Z</time>
      </trkpt>
      <trkpt lat="41.738159162923694" lon="-4.63441913947463">
        <ele>840.92</ele>
        <time>2025-02-10T16:51:31.695Z</time>
      </trkpt>
      <trkpt lat="41.73838555812836" lon="-4.634126527234912">
        <ele>841.24</ele>
        <time>2025-02-10T16:51:32.650Z</time>
      </trkpt>
      <trkpt lat="41.73843551427126" lon="-4.634061651304364">
        <ele>841.59</ele>
        <time>2025-02-10T16:51:33.607Z</time>
      </trkpt>
      <trkpt lat="41.738450517877936" lon="-4.634042205289006">
        <ele>841.93</ele>
        <time>2025-02-10T16:51:34.564Z</time>
      </trkpt>
      <trkpt lat="41.73845127224922" lon="-4.634041283279657">
        <ele>842.26</ele>
        <time>2025-02-10T16:51:35.521Z</time>
      </trkpt>
      <trkpt lat="41.738452948629856" lon="-4.6340391878038645">
        <ele>842.59</ele>
        <time>2025-02-10T16:51:36.478Z</time>
      </trkpt>
      <trkpt lat="41.73846744932234" lon="-4.634020496159792">
        <ele>842.92</ele>
        <time>2025-02-10T16:51:37.436Z</time>
      </trkpt>
      <trkpt lat="41.738481782376766" lon="-4.634002055972815">
        <ele>843.26</ele>
        <time>2025-02-10T16:51:38.394Z</time>
      </trkpt>
      <trkpt lat="41.73849552869797" lon="-4.633984370157123">
        <ele>843.59</ele>
        <time>2025-02-10T16:51:39.352Z</time>
      </trkpt>
      <trkpt lat="41.738556465134025" lon="-4.633904742076993">
        <ele>843.93</ele>
        <time>2025-02-10T16:51:40.312Z</time>
      </trkpt>
      <trkpt lat="41.7385714687407" lon="-4.633885296061635">
        <ele>844.25</ele>
        <time>2025-02-10T16:51:41.273Z</time>
      </trkpt>
      <trkpt lat="41.73857222311199" lon="-4.633884374052286">
        <ele>844.57</ele>
        <time>2025-02-10T16:51:42.234Z</time>
      </trkpt>
      <trkpt lat="41.73857389949262" lon="-4.633882278576493">
        <ele>844.88</ele>
        <time>2025-02-10T16:51:43.195Z</time>
      </trkpt>
      <trkpt lat="41.73858840018511" lon="-4.633863503113389">
        <ele>845.19</ele>
        <time>2025-02-10T16:51:44.156Z</time>
      </trkpt>
      <trkpt lat="41.73860273323953" lon="-4.63384497910738">
        <ele>845.49</ele>
        <time>2025-02-10T16:51:45.117Z</time>
      </trkpt>
      <trkpt lat="41.73861647956073" lon="-4.633827209472656">
        <ele>845.79</ele>
        <time>2025-02-10T16:51:46.079Z</time>
      </trkpt>
      <trkpt lat="41.73862217925489" lon="-4.633756382390857">
        <ele>846.12</ele>
        <time>2025-02-10T16:51:47.042Z</time>
      </trkpt>
      <trkpt lat="41.738624442368746" lon="-4.633728722110391">
        <ele>846.41</ele>
        <time>2025-02-10T16:51:48.005Z</time>
      </trkpt>
      <trkpt lat="41.73862461000681" lon="-4.633727381005883">
        <ele>846.69</ele>
        <time>2025-02-10T16:51:48.968Z</time>
      </trkpt>
      <trkpt lat="41.738624945282936" lon="-4.63372427970171">
        <ele>846.95</ele>
        <time>2025-02-10T16:51:49.931Z</time>
      </trkpt>
      <trkpt lat="41.73862720839679" lon="-4.6336975414305925">
        <ele>847.22</ele>
        <time>2025-02-10T16:51:50.895Z</time>
      </trkpt>
      <trkpt lat="41.73862947151065" lon="-4.633671306073666">
        <ele>847.47</ele>
        <time>2025-02-10T16:51:51.859Z</time>
      </trkpt>
      <trkpt lat="41.73863165080547" lon="-4.633646160364151">
        <ele>847.71</ele>
        <time>2025-02-10T16:51:52.823Z</time>
      </trkpt>
      <trkpt lat="41.73864237964153" lon="-4.633225640282035">
        <ele>848.08</ele>
        <time>2025-02-10T16:51:53.794Z</time>
      </trkpt>
      <trkpt lat="41.73864874988794" lon="-4.632966555655003">
        <ele>848.31</ele>
        <time>2025-02-10T16:51:54.769Z</time>
      </trkpt>
      <trkpt lat="41.73864950425923" lon="-4.6329390630126">
        <ele>848.48</ele>
        <time>2025-02-10T16:51:55.744Z</time>
      </trkpt>
      <trkpt lat="41.73864958807826" lon="-4.6329377219080925">
        <ele>848.64</ele>
        <time>2025-02-10T16:51:56.719Z</time>
      </trkpt>
      <trkpt lat="41.73864967189729" lon="-4.632934536784887">
        <ele>848.78</ele>
        <time>2025-02-10T16:51:57.694Z</time>
      </trkpt>
      <trkpt lat="41.738650342449546" lon="-4.6329079661518335">
        <ele>848.9</ele>
        <time>2025-02-10T16:51:58.670Z</time>
      </trkpt>
      <trkpt lat="41.7386510130018" lon="-4.63288189843297">
        <ele>849.0</ele>
        <time>2025-02-10T16:51:59.646Z</time>
      </trkpt>
      <trkpt lat="41.73865168355405" lon="-4.632857087999582">
        <ele>849.08</ele>
        <time>2025-02-10T16:52:00.622Z</time>
      </trkpt>
      <trkpt lat="41.73870381899178" lon="-4.632742842659354">
        <ele>849.12</ele>
        <time>2025-02-10T16:52:01.600Z</time>
      </trkpt>
      <trkpt lat="41.738714799284935" lon="-4.632719038054347">
        <ele>849.15</ele>
        <time>2025-02-10T16:52:02.579Z</time>
      </trkpt>
      <trkpt lat="41.73871538601816" lon="-4.632717864587903">
        <ele>849.18</ele>
        <time>2025-02-10T16:52:03.558Z</time>
      </trkpt>
      <trkpt lat="41.73871664330363" lon="-4.632715182378888">
        <ele>849.18</ele>
        <time>2025-02-10T16:52:04.537Z</time>
      </trkpt>
      <trkpt lat="41.73872728832066" lon="-4.632692132145166">
        <ele>849.17</ele>
        <time>2025-02-10T16:52:05.516Z</time>
      </trkpt>
      <trkpt lat="41.738737765699625" lon="-4.6326694171875715">
        <ele>849.13</ele>
        <time>2025-02-10T16:52:06.496Z</time>
      </trkpt>
      <trkpt lat="41.73874782398343" lon="-4.632647708058357">
        <ele>849.09</ele>
        <time>2025-02-10T16:52:07.476Z</time>
      </trkpt>
      <trkpt lat="41.73876735381782" lon="-4.632386779412627">
        <ele>849.01</ele>
        <time>2025-02-10T16:52:08.460Z</time>
      </trkpt>
      <trkpt lat="41.73876944929361" lon="-4.632359286770225">
        <ele>848.94</ele>
        <time>2025-02-10T16:52:09.444Z</time>
      </trkpt>
      <trkpt lat="41.73876961693168" lon="-4.632357945665717">
        <ele>848.87</ele>
        <time>2025-02-10T16:52:10.428Z</time>
      </trkpt>
      <trkpt lat="41.73876986838877" lon="-4.632354760542512">
        <ele>848.79</ele>
        <time>2025-02-10T16:52:11.412Z</time>
      </trkpt>
      <trkpt lat="41.73877188004553" lon="-4.632328189909458">
        <ele>848.69</ele>
        <time>2025-02-10T16:52:12.397Z</time>
      </trkpt>
      <trkpt lat="41.738773891702294" lon="-4.632302206009626">
        <ele>848.59</ele>
        <time>2025-02-10T16:52:13.382Z</time>
      </trkpt>
      <trkpt lat="41.738775819540024" lon="-4.632277311757207">
        <ele>848.49</ele>
        <time>2025-02-10T16:52:14.368Z</time>
      </trkpt>
      <trkpt lat="41.738828709349036" lon="-4.632070865482092">
        <ele>848.38</ele>
        <time>2025-02-10T16:52:15.357Z</time>
      </trkpt>
      <trkpt lat="41.738835498690605" lon="-4.632044546306133">
        <ele>848.27</ele>
        <time>2025-02-10T16:52:16.346Z</time>
      </trkpt>
      <trkpt lat="41.73883583396673" lon="-4.6320432890206575">
        <ele>848.17</ele>
        <time>2025-02-10T16:52:17.335Z</time>
      </trkpt>
      <trkpt lat="41.73883667215705" lon="-4.632040271535516">
        <ele>848.06</ele>
        <time>2025-02-10T16:52:18.324Z</time>
      </trkpt>
      <trkpt lat="41.738843293860555" lon="-4.632014790549874">
        <ele>847.95</ele>
        <time>2025-02-10T16:52:19.314Z</time>
      </trkpt>
      <trkpt lat="41.738849747926" lon="-4.631989896297455">
        <ele>847.85</ele>
        <time>2025-02-10T16:52:20.304Z</time>
      </trkpt>
      <trkpt lat="41.738855950534344" lon="-4.631965924054384">
        <ele>847.75</ele>
        <time>2025-02-10T16:52:21.294Z</time>
      </trkpt>
      <trkpt lat="41.73891252838075" lon="-4.631867101415992">
        <ele>847.66</ele>
        <time>2025-02-10T16:52:22.286Z</time>
      </trkpt>
      <trkpt lat="41.738925352692604" lon="-4.6318448055535555">
        <ele>847.56</ele>
        <time>2025-02-10T16:52:23.279Z</time>
      </trkpt>
      <trkpt lat="41.73892602324486" lon="-4.631843799725175">
        <ele>847.47</ele>
        <time>2025-02-10T16:52:24.272Z</time>
      </trkpt>
      <trkpt lat="41.73892753198743" lon="-4.631841285154223">
        <ele>847.37</ele>
        <time>2025-02-10T16:52:25.265Z</time>
      </trkpt>
      <trkpt lat="41.738940021023154" lon="-4.631819659844041">
        <ele>847.29</ele>
        <time>2025-02-10T16:52:26.258Z</time>
      </trkpt>
      <trkpt lat="41.738952258601785" lon="-4.631798453629017">
        <ele>847.2</ele>
        <time>2025-02-10T16:52:27.252Z</time>
      </trkpt>
      <trkpt lat="41.73896407708526" lon="-4.63177808560431">
        <ele>847.12</ele>
        <time>2025-02-10T16:52:28.246Z</time>
      </trkpt>
      <trkpt lat="41.73914705403149" lon="-4.6316607389599085">
        <ele>846.98</ele>
        <time>2025-02-10T16:52:29.244Z</time>
      </trkpt>
      <trkpt lat="41.739166332408786" lon="-4.631648417562246">
        <ele>846.9</ele>
        <time>2025-02-10T16:52:30.243Z</time>
      </trkpt>
      <trkpt lat="41.739167254418135" lon="-4.631647914648056">
        <ele>846.83</ele>
        <time>2025-02-10T16:52:31.242Z</time>
      </trkpt>
      <trkpt lat="41.73916943371296" lon="-4.631646573543549">
        <ele>846.77</ele>
        <time>2025-02-10T16:52:32.241Z</time>
      </trkpt>
      <trkpt lat="41.73918812535703" lon="-4.631634671241045">
        <ele>846.71</ele>
        <time>2025-02-10T16:52:33.240Z</time>
      </trkpt>
      <trkpt lat="41.73920664936304" lon="-4.631622936576605">
        <ele>846.65</ele>
        <time>2025-02-10T16:52:34.239Z</time>
      </trkpt>
      <trkpt lat="41.73922433517873" lon="-4.631611704826355">
        <ele>846.6</ele>
        <time>2025-02-10T16:52:35.239Z</time>
      </trkpt>
      <trkpt lat="41.739360792562366" lon="-4.631450269371271">
        <ele>846.65</ele>
        <time>2025-02-10T16:52:36.242Z</time>
      </trkpt>
      <trkpt lat="41.73937671817839" lon="-4.631431577727199">
        <ele>846.61</ele>
        <time>2025-02-10T16:52:37.246Z</time>
      </trkpt>
      <trkpt lat="41.73937747254968" lon="-4.6314307395368814">
        <ele>846.58</ele>
        <time>2025-02-10T16:52:38.250Z</time>
      </trkpt>
      <trkpt lat="41.739379316568375" lon="-4.631428644061089">
        <ele>846.54</ele>
        <time>2025-02-10T16:52:39.254Z</time>
      </trkpt>
      <trkpt lat="41.73939473927021" lon="-4.631410539150238">
        <ele>846.5</ele>
        <time>2025-02-10T16:52:40.258Z</time>
      </trkpt>
      <trkpt lat="41.73940999433398" lon="-4.631392601877451">
        <ele>846.47</ele>
        <time>2025-02-10T16:52:41.263Z</time>
      </trkpt>
      <trkpt lat="41.7394245788455" lon="-4.631375502794981">
        <ele>846.43</ele>
        <time>2025-02-10T16:52:42.268Z</time>
      </trkpt>
      <trkpt lat="41.73959020525217" lon="-4.631249271333218">
        <ele>846.37</ele>
        <time>2025-02-10T16:52:43.277Z</time>
      </trkpt>
      <trkpt lat="41.73960881307721" lon="-4.631235189735889">
        <ele>846.34</ele>
        <time>2025-02-10T16:52:44.286Z</time>
      </trkpt>
      <trkpt lat="41.73960973508656" lon="-4.631234603002667">
        <ele>846.3</ele>
        <time>2025-02-10T16:52:45.295Z</time>
      </trkpt>
      <trkpt lat="41.73961183056235" lon="-4.6312330942600965">
        <ele>846.27</ele>
        <time>2025-02-10T16:52:46.304Z</time>
      </trkpt>
      <trkpt lat="41.73962985165417" lon="-4.631219431757927">
        <ele>846.24</ele>
        <time>2025-02-10T16:52:47.314Z</time>
      </trkpt>
      <trkpt lat="41.73964770510793" lon="-4.631205936893821">
        <ele>846.21</ele>
        <time>2025-02-10T16:52:48.324Z</time>
      </trkpt>
      <trkpt lat="41.73966488800943" lon="-4.631192944943905">
        <ele>846.18</ele>
        <time>2025-02-10T16:52:49.335Z</time>
      </trkpt>
      <trkpt lat="41.73966882750392" lon="-4.63118489831686">
        <ele>846.16</ele>
        <time>2025-02-10T16:52:50.346Z</time>
      </trkpt>
      <trkpt lat="41.739680813625455" lon="-4.631161345168948">
        <ele>846.13</ele>
        <time>2025-02-10T16:52:51.357Z</time>
      </trkpt>
      <trkpt lat="41.73968140035868" lon="-4.631160255521536">
        <ele>846.12</ele>
        <time>2025-02-10T16:52:52.368Z</time>
      </trkpt>
      <trkpt lat="41.739682825282216" lon="-4.631157657131553">
        <ele>846.11</ele>
        <time>2025-02-10T16:52:53.379Z</time>
      </trkpt>
      <trkpt lat="41.73969439230859" lon="-4.631134942173958">
        <ele>846.1</ele>
        <time>2025-02-10T16:52:54.391Z</time>
      </trkpt>
      <trkpt lat="41.73970587551594" lon="-4.631112478673458">
        <ele>846.1</ele>
        <time>2025-02-10T16:52:55.403Z</time>
      </trkpt>
      <trkpt lat="41.739716939628124" lon="-4.631090937182307">
        <ele>846.1</ele>
        <time>2025-02-10T16:52:56.416Z</time>
      </trkpt>
      <trkpt lat="41.73988541588187" lon="-4.630968393757939">
        <ele>846.08</ele>
        <time>2025-02-10T16:52:57.432Z</time>
      </trkpt>
      <trkpt lat="41.73990427516401" lon="-4.63095473125577">
        <ele>846.09</ele>
        <time>2025-02-10T16:52:58.449Z</time>
      </trkpt>
      <trkpt lat="41.73990519717336" lon="-4.630954144522548">
        <ele>846.11</ele>
        <time>2025-02-10T16:52:59.466Z</time>
      </trkpt>
      <trkpt lat="41.73990729264915" lon="-4.630952719599009">
        <ele>846.14</ele>
        <time>2025-02-10T16:53:00.483Z</time>
      </trkpt>
      <trkpt lat="41.739925649017096" lon="-4.6309394761919975">
        <ele>846.17</ele>
        <time>2025-02-10T16:53:01.500Z</time>
      </trkpt>
      <trkpt lat="41.739943753927946" lon="-4.63092640042305">
        <ele>846.21</ele>
        <time>2025-02-10T16:53:02.518Z</time>
      </trkpt>
      <trkpt lat="41.73996118828654" lon="-4.630913827568293">
        <ele>846.26</ele>
        <time>2025-02-10T16:53:03.536Z</time>
      </trkpt>
      <trkpt lat="41.74002807587385" lon="-4.630786506459117">
        <ele>846.32</ele>
        <time>2025-02-10T16:53:04.556Z</time>
      </trkpt>
      <trkpt lat="41.74004031345248" lon="-4.630763288587332">
        <ele>846.39</ele>
        <time>2025-02-10T16:53:05.577Z</time>
      </trkpt>
      <trkpt lat="41.740040984004736" lon="-4.6307621989399195">
        <ele>846.47</ele>
        <time>2025-02-10T16:53:06.598Z</time>
      </trkpt>
      <trkpt lat="41.740042408928275" lon="-4.630759684368968">
        <ele>846.55</ele>
        <time>2025-02-10T16:53:07.619Z</time>
      </trkpt>
      <trkpt lat="41.74005431123078" lon="-4.630737220868468">
        <ele>846.64</ele>
        <time>2025-02-10T16:53:08.640Z</time>
      </trkpt>
      <trkpt lat="41.74006604589522" lon="-4.630715008825064">
        <ele>846.74</ele>
        <time>2025-02-10T16:53:09.662Z</time>
      </trkpt>
      <trkpt lat="41.7400773614645" lon="-4.630693718791008">
        <ele>846.83</ele>
        <time>2025-02-10T16:53:10.684Z</time>
      </trkpt>
      <trkpt lat="41.740068811923265" lon="-4.630446117371321">
        <ele>846.99</ele>
        <time>2025-02-10T16:53:11.710Z</time>
      </trkpt>
      <trkpt lat="41.74006788991392" lon="-4.630417954176664">
        <ele>847.11</ele>
        <time>2025-02-10T16:53:12.736Z</time>
      </trkpt>
      <trkpt lat="41.74006788991392" lon="-4.630416613072157">
        <ele>847.23</ele>
        <time>2025-02-10T16:53:13.762Z</time>
      </trkpt>
      <trkpt lat="41.740067806094885" lon="-4.630413427948952">
        <ele>847.34</ele>
        <time>2025-02-10T16:53:14.788Z</time>
      </trkpt>
      <trkpt lat="41.74006696790457" lon="-4.630386438220739">
        <ele>847.46</ele>
        <time>2025-02-10T16:53:15.815Z</time>
      </trkpt>
      <trkpt lat="41.74006612971425" lon="-4.63035961613059">
        <ele>847.59</ele>
        <time>2025-02-10T16:53:16.842Z</time>
      </trkpt>
      <trkpt lat="41.74006529152393" lon="-4.630334051325917">
        <ele>847.71</ele>
        <time>2025-02-10T16:53:17.869Z</time>
      </trkpt>
      <trkpt lat="41.74011306837201" lon="-4.629918225109577">
        <ele>847.86</ele>
        <time>2025-02-10T16:53:18.903Z</time>
      </trkpt>
      <trkpt lat="41.74011633731425" lon="-4.6298889722675085">
        <ele>847.97</ele>
        <time>2025-02-10T16:53:19.937Z</time>
      </trkpt>
      <trkpt lat="41.74011952243745" lon="-4.629860557615757">
        <ele>848.08</ele>
        <time>2025-02-10T16:53:20.972Z</time>
      </trkpt>
      <trkpt lat="41.74011969007552" lon="-4.6298592165112495">
        <ele>848.18</ele>
        <time>2025-02-10T16:53:22.007Z</time>
      </trkpt>
      <trkpt lat="41.740120109170675" lon="-4.629856031388044">
        <ele>848.27</ele>
        <time>2025-02-10T16:53:23.042Z</time>
      </trkpt>
      <trkpt lat="41.74012329429388" lon="-4.629828706383705">
        <ele>848.35</ele>
        <time>2025-02-10T16:53:24.077Z</time>
      </trkpt>
      <trkpt lat="41.740126395598054" lon="-4.629801632836461">
        <ele>848.42</ele>
        <time>2025-02-10T16:53:25.113Z</time>
      </trkpt>
      <trkpt lat="41.740129413083196" lon="-4.629775816574693">
        <ele>848.49</ele>
        <time>2025-02-10T16:53:26.149Z</time>
      </trkpt>
      <trkpt lat="41.740275928750634" lon="-4.6294033247977495">
        <ele>848.6</ele>
        <time>2025-02-10T16:53:27.191Z</time>
      </trkpt>
      <trkpt lat="41.740293530747294" lon="-4.629358146339655">
        <ele>848.64</ele>
        <time>2025-02-10T16:53:28.234Z</time>
      </trkpt>
      <trkpt lat="41.74030350521207" lon="-4.629332665354013">
        <ele>848.66</ele>
        <time>2025-02-10T16:53:29.277Z</time>
      </trkpt>
      <trkpt lat="41.74030400812626" lon="-4.629331491887569">
        <ele>848.66</ele>
        <time>2025-02-10T16:53:30.320Z</time>
      </trkpt>
      <trkpt lat="41.7403051815927" lon="-4.629328725859523">
        <ele>848.65</ele>
        <time>2025-02-10T16:53:31.364Z</time>
      </trkpt>
      <trkpt lat="41.74031482078135" lon="-4.62930416688323">
        <ele>848.63</ele>
        <time>2025-02-10T16:53:32.408Z</time>
      </trkpt>
      <trkpt lat="41.74032445997" lon="-4.629279859364033">
        <ele>848.59</ele>
        <time>2025-02-10T16:53:33.452Z</time>
      </trkpt>
      <trkpt lat="41.740333680063486" lon="-4.629256641492248">
        <ele>848.54</ele>
        <time>2025-02-10T16:53:34.497Z</time>
      </trkpt>
      <trkpt lat="41.74054532311857" lon="-4.628944918513298">
        <ele>848.4</ele>
        <time>2025-02-10T16:53:35.548Z</time>
      </trkpt>
      <trkpt lat="41.74059972167015" lon="-4.628864284604788">
        <ele>848.32</ele>
        <time>2025-02-10T16:53:36.601Z</time>
      </trkpt>
      <trkpt lat="41.74061422236264" lon="-4.628842994570732">
        <ele>848.23</ele>
        <time>2025-02-10T16:53:37.654Z</time>
      </trkpt>
      <trkpt lat="41.74061497673392" lon="-4.6288419887423515">
        <ele>848.13</ele>
        <time>2025-02-10T16:53:38.707Z</time>
      </trkpt>
      <trkpt lat="41.74061665311456" lon="-4.6288396418094635">
        <ele>848.03</ele>
        <time>2025-02-10T16:53:39.760Z</time>
      </trkpt>
      <trkpt lat="41.740630650892854" lon="-4.628819106146693">
        <ele>847.92</ele>
        <time>2025-02-10T16:53:40.814Z</time>
      </trkpt>
      <trkpt lat="41.74064456485212" lon="-4.628798654302955">
        <ele>847.81</ele>
        <time>2025-02-10T16:53:41.868Z</time>
      </trkpt>
      <trkpt lat="41.74065789207816" lon="-4.628779124468565">
        <ele>847.7</ele>
        <time>2025-02-10T16:53:42.922Z</time>
      </trkpt>
      <trkpt lat="41.740930303931236" lon="-4.628567565232515">
        <ele>847.63</ele>
        <time>2025-02-10T16:53:43.983Z</time>
      </trkpt>
      <trkpt lat="41.74120271578431" lon="-4.628356089815497">
        <ele>847.31</ele>
        <time>2025-02-10T16:53:45.050Z</time>
      </trkpt>
      <trkpt lat="41.741331377997994" lon="-4.628255842253566">
        <ele>847.08</ele>
        <time>2025-02-10T16:53:46.120Z</time>
      </trkpt>
      <trkpt lat="41.7413501534611" lon="-4.628241257742047">
        <ele>846.95</ele>
        <time>2025-02-10T16:53:47.190Z</time>
      </trkpt>
      <trkpt lat="41.74135107547045" lon="-4.628240587189794">
        <ele>846.84</ele>
        <time>2025-02-10T16:53:48.260Z</time>
      </trkpt>
      <trkpt lat="41.74135317094624" lon="-4.628239078447223">
        <ele>846.74</ele>
        <time>2025-02-10T16:53:49.330Z</time>
      </trkpt>
      <trkpt lat="41.74137135967612" lon="-4.6282249968498945">
        <ele>846.64</ele>
        <time>2025-02-10T16:53:50.401Z</time>
      </trkpt>
      <trkpt lat="41.74138946458697" lon="-4.628210999071598">
        <ele>846.55</ele>
        <time>2025-02-10T16:53:51.472Z</time>
      </trkpt>
      <trkpt lat="41.74140681512654" lon="-4.628197588026524">
        <ele>846.47</ele>
        <time>2025-02-10T16:53:52.544Z</time>
      </trkpt>
      <trkpt lat="41.74153966829181" lon="-4.627816043794155">
        <ele>846.57</ele>
        <time>2025-02-10T16:53:53.622Z</time>
      </trkpt>
      <trkpt lat="41.74165089614689" lon="-4.627495687454939">
        <ele>846.61</ele>
        <time>2025-02-10T16:53:54.705Z</time>
      </trkpt>
      <trkpt lat="41.74165986478329" lon="-4.627470038831234">
        <ele>846.58</ele>
        <time>2025-02-10T16:53:55.789Z</time>
      </trkpt>
      <trkpt lat="41.74166036769748" lon="-4.62746886536479">
        <ele>846.56</ele>
        <time>2025-02-10T16:53:56.873Z</time>
      </trkpt>
      <trkpt lat="41.74166145734489" lon="-4.62746593169868">
        <ele>846.56</ele>
        <time>2025-02-10T16:53:57.957Z</time>
      </trkpt>
      <trkpt lat="41.74167017452419" lon="-4.627441121265292">
        <ele>846.56</ele>
        <time>2025-02-10T16:53:59.041Z</time>
      </trkpt>
      <trkpt lat="41.741672521457076" lon="-4.627434499561787">
        <ele>846.57</ele>
        <time>2025-02-10T16:54:00.125Z</time>
      </trkpt>
      <trkpt lat="41.74167872406542" lon="-4.627416562289">
        <ele>846.59</ele>
        <time>2025-02-10T16:54:01.210Z</time>
      </trkpt>
      <trkpt lat="41.741687189787626" lon="-4.627392338588834">
        <ele>846.62</ele>
        <time>2025-02-10T16:54:02.295Z</time>
      </trkpt>
      <trkpt lat="41.74178760498762" lon="-4.627163512632251">
        <ele>846.63</ele>
        <time>2025-02-10T16:54:03.384Z</time>
      </trkpt>
      <trkpt lat="41.741798501461744" lon="-4.6271388698369265">
        <ele>846.66</ele>
        <time>2025-02-10T16:54:04.473Z</time>
      </trkpt>
      <trkpt lat="41.741799088194966" lon="-4.627137780189514">
        <ele>846.71</ele>
        <time>2025-02-10T16:54:05.562Z</time>
      </trkpt>
      <trkpt lat="41.74180034548044" lon="-4.6271350141614676">
        <ele>846.77</ele>
        <time>2025-02-10T16:54:06.651Z</time>
      </trkpt>
      <trkpt lat="41.74181082285941" lon="-4.62711120955646">
        <ele>846.83</ele>
        <time>2025-02-10T16:54:07.741Z</time>
      </trkpt>
      <trkpt lat="41.74182130023837" lon="-4.627087572589517">
        <ele>846.9</ele>
        <time>2025-02-10T16:54:08.831Z</time>
      </trkpt>
      <trkpt lat="41.741831274703145" lon="-4.6270649414509535">
        <ele>846.97</ele>
        <time>2025-02-10T16:54:09.922Z</time>
      </trkpt>
      <trkpt lat="41.74188609234989" lon="-4.626861177384853">
        <ele>847.09</ele>
        <time>2025-02-10T16:54:11.016Z</time>
      </trkpt>
      <trkpt lat="41.741893384605646" lon="-4.626834271475673">
        <ele>847.2</ele>
        <time>2025-02-10T16:54:12.110Z</time>
      </trkpt>
      <trkpt lat="41.741893803700805" lon="-4.626833014190197">
        <ele>847.29</ele>
        <time>2025-02-10T16:54:13.204Z</time>
      </trkpt>
      <trkpt lat="41.74189464189112" lon="-4.626829996705055">
        <ele>847.39</ele>
        <time>2025-02-10T16:54:14.298Z</time>
      </trkpt>
      <trkpt lat="41.741901682689786" lon="-4.6268040128052235">
        <ele>847.5</ele>
        <time>2025-02-10T16:54:15.393Z</time>
      </trkpt>
      <trkpt lat="41.74190872348845" lon="-4.626778196543455">
        <ele>847.59</ele>
        <time>2025-02-10T16:54:16.488Z</time>
      </trkpt>
      <trkpt lat="41.74191542901099" lon="-4.626753553748131">
        <ele>847.69</ele>
        <time>2025-02-10T16:54:17.584Z</time>
      </trkpt>
      <trkpt lat="41.74197209067643" lon="-4.62666068226099">
        <ele>847.79</ele>
        <time>2025-02-10T16:54:18.681Z</time>
      </trkpt>
      <trkpt lat="41.74198583699763" lon="-4.626638302579522">
        <ele>847.88</ele>
        <time>2025-02-10T16:54:19.779Z</time>
      </trkpt>
      <trkpt lat="41.74198650754988" lon="-4.6266372967511415">
        <ele>847.97</ele>
        <time>2025-02-10T16:54:20.877Z</time>
      </trkpt>
      <trkpt lat="41.741988100111485" lon="-4.626634865999222">
        <ele>848.05</ele>
        <time>2025-02-10T16:54:21.975Z</time>
      </trkpt>
      <trkpt lat="41.74200142733753" lon="-4.6266131568700075">
        <ele>848.13</ele>
        <time>2025-02-10T16:54:23.073Z</time>
      </trkpt>
      <trkpt lat="41.74201475456357" lon="-4.626591615378857">
        <ele>848.21</ele>
        <time>2025-02-10T16:54:24.172Z</time>
      </trkpt>
      <trkpt lat="41.74202749505639" lon="-4.626571079716086">
        <ele>848.26</ele>
        <time>2025-02-10T16:54:25.271Z</time>
      </trkpt>
      <trkpt lat="41.74210117198527" lon="-4.6263078879565">
        <ele>848.32</ele>
        <time>2025-02-10T16:54:26.374Z</time>
      </trkpt>
      <trkpt lat="41.74210871569812" lon="-4.626281149685383">
        <ele>848.37</ele>
        <time>2025-02-10T16:54:27.478Z</time>
      </trkpt>
      <trkpt lat="41.74210913479328" lon="-4.626279892399907">
        <ele>848.41</ele>
        <time>2025-02-10T16:54:28.582Z</time>
      </trkpt>
      <trkpt lat="41.74211005680263" lon="-4.626276874914765">
        <ele>848.44</ele>
        <time>2025-02-10T16:54:29.686Z</time>
      </trkpt>
      <trkpt lat="41.74211743287742" lon="-4.626250974833965">
        <ele>848.45</ele>
        <time>2025-02-10T16:54:30.790Z</time>
      </trkpt>
      <trkpt lat="41.74212472513318" lon="-4.626225242391229">
        <ele>848.45</ele>
        <time>2025-02-10T16:54:31.895Z</time>
      </trkpt>
      <trkpt lat="41.74213168211281" lon="-4.626200683414936">
        <ele>848.44</ele>
        <time>2025-02-10T16:54:33.000Z</time>
      </trkpt>
      <trkpt lat="41.742229498922825" lon="-4.625927181914449">
        <ele>848.49</ele>
        <time>2025-02-10T16:54:34.110Z</time>
      </trkpt>
      <trkpt lat="41.742238802835345" lon="-4.625901281833649">
        <ele>848.45</ele>
        <time>2025-02-10T16:54:35.220Z</time>
      </trkpt>
      <trkpt lat="41.742239305749536" lon="-4.625900024548173">
        <ele>848.38</ele>
        <time>2025-02-10T16:54:36.330Z</time>
      </trkpt>
      <trkpt lat="41.74224039539695" lon="-4.625897174701095">
        <ele>848.3</ele>
        <time>2025-02-10T16:54:37.440Z</time>
      </trkpt>
      <trkpt lat="41.74224944785237" lon="-4.625872112810612">
        <ele>848.2</ele>
        <time>2025-02-10T16:54:38.551Z</time>
      </trkpt>
      <trkpt lat="41.74225841648877" lon="-4.625847218558192">
        <ele>848.08</ele>
        <time>2025-02-10T16:54:39.662Z</time>
      </trkpt>
      <trkpt lat="41.74226696603" lon="-4.625823413953185">
        <ele>847.94</ele>
        <time>2025-02-10T16:54:40.773Z</time>
      </trkpt>
      <trkpt lat="41.742424042895436" lon="-4.625503560528159">
        <ele>847.68</ele>
        <time>2025-02-10T16:54:41.890Z</time>
      </trkpt>
      <trkpt lat="41.74243594519794" lon="-4.625479504466057">
        <ele>847.5</ele>
        <time>2025-02-10T16:54:43.008Z</time>
      </trkpt>
      <trkpt lat="41.74243653193116" lon="-4.625478330999613">
        <ele>847.3</ele>
        <time>2025-02-10T16:54:44.126Z</time>
      </trkpt>
      <trkpt lat="41.74243787303567" lon="-4.625475648790598">
        <ele>847.08</ele>
        <time>2025-02-10T16:54:45.244Z</time>
      </trkpt>
      <trkpt lat="41.74243988469243" lon="-4.625471625477076">
        <ele>846.85</ele>
        <time>2025-02-10T16:54:46.362Z</time>
      </trkpt>
      <trkpt lat="41.74244927242398" lon="-4.625452263280749">
        <ele>846.59</ele>
        <time>2025-02-10T16:54:47.480Z</time>
      </trkpt>
      <trkpt lat="41.74246083945036" lon="-4.625428710132837">
        <ele>846.32</ele>
        <time>2025-02-10T16:54:48.598Z</time>
      </trkpt>
      <trkpt lat="41.74247198738158" lon="-4.625406162813306">
        <ele>846.03</ele>
        <time>2025-02-10T16:54:49.717Z</time>
      </trkpt>
      <trkpt lat="41.74248917028308" lon="-4.625220503658056">
        <ele>845.7</ele>
        <time>2025-02-10T16:54:50.839Z</time>
      </trkpt>
      <trkpt lat="41.742491852492094" lon="-4.625191669911146">
        <ele>845.39</ele>
        <time>2025-02-10T16:54:51.961Z</time>
      </trkpt>
      <trkpt lat="41.74249202013016" lon="-4.625190328806639">
        <ele>845.07</ele>
        <time>2025-02-10T16:54:53.083Z</time>
      </trkpt>
      <trkpt lat="41.742492355406284" lon="-4.6251871436834335">
        <ele>844.73</ele>
        <time>2025-02-10T16:54:54.205Z</time>
      </trkpt>
      <trkpt lat="41.74249495379627" lon="-4.625159399583936">
        <ele>844.39</ele>
        <time>2025-02-10T16:54:55.328Z</time>
      </trkpt>
      <trkpt lat="41.74249755218625" lon="-4.625131823122501">
        <ele>844.04</ele>
        <time>2025-02-10T16:54:56.451Z</time>
      </trkpt>
      <trkpt lat="41.7425000667572" lon="-4.6251055877655745">
        <ele>843.68</ele>
        <time>2025-02-10T16:54:57.574Z</time>
      </trkpt>
      <trkpt lat="41.742445919662714" lon="-4.624768383800983">
        <ele>843.21</ele>
        <time>2025-02-10T16:54:58.703Z</time>
      </trkpt>
      <trkpt lat="41.74244147725403" lon="-4.624740304425359">
        <ele>842.84</ele>
        <time>2025-02-10T16:54:59.832Z</time>
      </trkpt>
      <trkpt lat="41.74244130961597" lon="-4.62473887950182">
        <ele>842.48</ele>
        <time>2025-02-10T16:55:00.961Z</time>
      </trkpt>
      <trkpt lat="41.74244080670178" lon="-4.624735778197646">
        <ele>842.12</ele>
        <time>2025-02-10T16:55:02.090Z</time>
      </trkpt>
      <trkpt lat="41.74243653193116" lon="-4.62470862083137">
        <ele>841.76</ele>
        <time>2025-02-10T16:55:03.219Z</time>
      </trkpt>
      <trkpt lat="41.742434268817306" lon="-4.624694120138884">
        <ele>841.41</ele>
        <time>2025-02-10T16:55:04.349Z</time>
      </trkpt>
      <trkpt lat="41.742432257160544" lon="-4.624681798741221">
        <ele>841.06</ele>
        <time>2025-02-10T16:55:05.479Z</time>
      </trkpt>
      <trkpt lat="41.74242806620896" lon="-4.624655311927199">
        <ele>840.72</ele>
        <time>2025-02-10T16:55:06.609Z</time>
      </trkpt>
      <trkpt lat="41.742448434233665" lon="-4.624501587823033">
        <ele>840.3</ele>
        <time>2025-02-10T16:55:07.742Z</time>
      </trkpt>
      <trkpt lat="41.742452289909124" lon="-4.624472754076123">
        <ele>839.97</ele>
        <time>2025-02-10T16:55:08.875Z</time>
      </trkpt>
      <trkpt lat="41.74245254136622" lon="-4.624471412971616">
        <ele>839.68</ele>
        <time>2025-02-10T16:55:10.008Z</time>
      </trkpt>
      <trkpt lat="41.74245304428041" lon="-4.624468227848411">
        <ele>839.39</ele>
        <time>2025-02-10T16:55:11.141Z</time>
      </trkpt>
      <trkpt lat="41.74245656467974" lon="-4.624442076310515">
        <ele>839.12</ele>
        <time>2025-02-10T16:55:12.275Z</time>
      </trkpt>
      <trkpt lat="41.74245681613684" lon="-4.624440483748913">
        <ele>838.88</ele>
        <time>2025-02-10T16:55:13.409Z</time>
      </trkpt>
      <trkpt lat="41.74246050417423" lon="-4.624413074925542">
        <ele>838.64</ele>
        <time>2025-02-10T16:55:14.543Z</time>
      </trkpt>
      <trkpt lat="41.74246050417423" lon="-4.62441299110651">
        <ele>838.43</ele>
        <time>2025-02-10T16:55:15.677Z</time>
      </trkpt>
      <trkpt lat="41.742460671812296" lon="-4.624411566182971">
        <ele>838.24</ele>
        <time>2025-02-10T16:55:16.811Z</time>
      </trkpt>
      <trkpt lat="41.742461090907454" lon="-4.6244084648787975">
        <ele>838.06</ele>
        <time>2025-02-10T16:55:17.945Z</time>
      </trkpt>
      <trkpt lat="41.742464108392596" lon="-4.624386839568615">
        <ele>837.9</ele>
        <time>2025-02-10T16:55:19.079Z</time>
      </trkpt>
      <trkpt lat="41.74245974980295" lon="-4.624383319169283">
        <ele>837.77</ele>
        <time>2025-02-10T16:55:20.213Z</time>
      </trkpt>
      <trkpt lat="41.742441561073065" lon="-4.624368650838733">
        <ele>837.66</ele>
        <time>2025-02-10T16:55:21.348Z</time>
      </trkpt>
      <trkpt lat="41.74242412671447" lon="-4.624354653060436">
        <ele>837.57</ele>
        <time>2025-02-10T16:55:22.483Z</time>
      </trkpt>
      <trkpt lat="41.74213729798794" lon="-4.624529080465436">
        <ele>837.53</ele>
        <time>2025-02-10T16:55:23.625Z</time>
      </trkpt>
      <trkpt lat="41.74202891997993" lon="-4.624594794586301">
        <ele>837.48</ele>
        <time>2025-02-10T16:55:24.769Z</time>
      </trkpt>
      <trkpt lat="41.74200855195522" lon="-4.624607199802995">
        <ele>837.44</ele>
        <time>2025-02-10T16:55:25.913Z</time>
      </trkpt>
      <trkpt lat="41.742007629945874" lon="-4.624607786536217">
        <ele>837.42</ele>
        <time>2025-02-10T16:55:27.057Z</time>
      </trkpt>
      <trkpt lat="41.74200545065105" lon="-4.624609127640724">
        <ele>837.41</ele>
        <time>2025-02-10T16:55:28.201Z</time>
      </trkpt>
      <trkpt lat="41.741985669359565" lon="-4.624621197581291">
        <ele>837.42</ele>
        <time>2025-02-10T16:55:29.346Z</time>
      </trkpt>
      <trkpt lat="41.74196622334421" lon="-4.624633099883795">
        <ele>837.44</ele>
        <time>2025-02-10T16:55:30.491Z</time>
      </trkpt>
      <trkpt lat="41.741947531700134" lon="-4.62464458309114">
        <ele>837.48</ele>
        <time>2025-02-10T16:55:31.637Z</time>
      </trkpt>
      <trkpt lat="41.741806883364916" lon="-4.62487475015223">
        <ele>837.54</ele>
        <time>2025-02-10T16:55:32.787Z</time>
      </trkpt>
      <trkpt lat="41.74179288558662" lon="-4.62489771656692">
        <ele>837.62</ele>
        <time>2025-02-10T16:55:33.938Z</time>
      </trkpt>
      <trkpt lat="41.7417922988534" lon="-4.624898890033364">
        <ele>837.71</ele>
        <time>2025-02-10T16:55:35.089Z</time>
      </trkpt>
      <trkpt lat="41.74179079011083" lon="-4.624901404604316">
        <ele>837.83</ele>
        <time>2025-02-10T16:55:36.240Z</time>
      </trkpt>
      <trkpt lat="41.74177729524672" lon="-4.624923700466752">
        <ele>837.96</ele>
        <time>2025-02-10T16:55:37.391Z</time>
      </trkpt>
      <trkpt lat="41.74176405183971" lon="-4.62494557723403">
        <ele>838.1</ele>
        <time>2025-02-10T16:55:38.543Z</time>
      </trkpt>
      <trkpt lat="41.74175131134689" lon="-4.62496661581099">
        <ele>838.27</ele>
        <time>2025-02-10T16:55:39.695Z</time>
      </trkpt>
      <trkpt lat="41.74163958057761" lon="-4.625219330191612">
        <ele>838.48</ele>
        <time>2025-02-10T16:55:40.851Z</time>
      </trkpt>
      <trkpt lat="41.741628432646394" lon="-4.625244727358222">
        <ele>838.68</ele>
        <time>2025-02-10T16:55:42.008Z</time>
      </trkpt>
      <trkpt lat="41.7416279297322" lon="-4.625245984643698">
        <ele>838.9</ele>
        <time>2025-02-10T16:55:43.165Z</time>
      </trkpt>
      <trkpt lat="41.74162675626576" lon="-4.625248834490776">
        <ele>839.12</ele>
        <time>2025-02-10T16:55:44.322Z</time>
      </trkpt>
      <trkpt lat="41.74161594361067" lon="-4.6252734772861">
        <ele>839.37</ele>
        <time>2025-02-10T16:55:45.479Z</time>
      </trkpt>
      <trkpt lat="41.74160529859364" lon="-4.625297700986266">
        <ele>839.63</ele>
        <time>2025-02-10T16:55:46.637Z</time>
      </trkpt>
      <trkpt lat="41.7415951564908" lon="-4.625320918858051">
        <ele>839.9</ele>
        <time>2025-02-10T16:55:47.795Z</time>
      </trkpt>
      <trkpt lat="41.74145425669849" lon="-4.625463075935841">
        <ele>840.18</ele>
        <time>2025-02-10T16:55:48.957Z</time>
      </trkpt>
      <trkpt lat="41.741436403244734" lon="-4.625481180846691">
        <ele>840.48</ele>
        <time>2025-02-10T16:55:50.119Z</time>
      </trkpt>
      <trkpt lat="41.74143564887345" lon="-4.625482019037008">
        <ele>840.78</ele>
        <time>2025-02-10T16:55:51.281Z</time>
      </trkpt>
      <trkpt lat="41.74143372103572" lon="-4.6254840306937695">
        <ele>841.09</ele>
        <time>2025-02-10T16:55:52.443Z</time>
      </trkpt>
      <trkpt lat="41.741416370496154" lon="-4.62550163269043">
        <ele>841.42</ele>
        <time>2025-02-10T16:55:53.606Z</time>
      </trkpt>
      <trkpt lat="41.741399355232716" lon="-4.625518983229995">
        <ele>841.76</ele>
        <time>2025-02-10T16:55:54.769Z</time>
      </trkpt>
      <trkpt lat="41.7413829267025" lon="-4.625535663217306">
        <ele>842.1</ele>
        <time>2025-02-10T16:55:55.932Z</time>
      </trkpt>
      <trkpt lat="41.74107061699033" lon="-4.625591654330492">
        <ele>842.45</ele>
        <time>2025-02-10T16:55:57.102Z</time>
      </trkpt>
      <trkpt lat="41.740904403850436" lon="-4.6256212424486876">
        <ele>842.78</ele>
        <time>2025-02-10T16:55:58.275Z</time>
      </trkpt>
      <trkpt lat="41.74088194034994" lon="-4.62562526576221">
        <ele>843.12</ele>
        <time>2025-02-10T16:55:59.449Z</time>
      </trkpt>
      <trkpt lat="41.740880934521556" lon="-4.625625517219305">
        <ele>843.45</ele>
        <time>2025-02-10T16:56:00.623Z</time>
      </trkpt>
      <trkpt lat="41.74087858758867" lon="-4.625626020133495">
        <ele>843.79</ele>
        <time>2025-02-10T16:56:01.797Z</time>
      </trkpt>
      <trkpt lat="41.74085662700236" lon="-4.625629959627986">
        <ele>844.13</ele>
        <time>2025-02-10T16:56:02.971Z</time>
      </trkpt>
      <trkpt lat="41.740835001692176" lon="-4.625633899122477">
        <ele>844.45</ele>
        <time>2025-02-10T16:56:04.146Z</time>
      </trkpt>
      <trkpt lat="41.74081429839134" lon="-4.625637670978904">
        <ele>844.77</ele>
        <time>2025-02-10T16:56:05.321Z</time>
      </trkpt>
      <trkpt lat="41.74050441943109" lon="-4.62571419775486">
        <ele>845.12</ele>
        <time>2025-02-10T16:56:06.502Z</time>
      </trkpt>
      <trkpt lat="41.74019454047084" lon="-4.625790808349848">
        <ele>845.57</ele>
        <time>2025-02-10T16:56:07.690Z</time>
      </trkpt>
      <trkpt lat="41.7401862423867" lon="-4.625792736187577">
        <ele>845.85</ele>
        <time>2025-02-10T16:56:08.878Z</time>
      </trkpt>
      <trkpt lat="41.740164114162326" lon="-4.625798100605607">
        <ele>846.13</ele>
        <time>2025-02-10T16:56:10.066Z</time>
      </trkpt>
      <trkpt lat="41.740163108333945" lon="-4.625798435881734">
        <ele>846.37</ele>
        <time>2025-02-10T16:56:11.254Z</time>
      </trkpt>
      <trkpt lat="41.74016076140106" lon="-4.625799022614956">
        <ele>846.59</ele>
        <time>2025-02-10T16:56:12.442Z</time>
      </trkpt>
      <trkpt lat="41.740139136090875" lon="-4.625804387032986">
        <ele>846.79</ele>
        <time>2025-02-10T16:56:13.631Z</time>
      </trkpt>
      <trkpt lat="41.74011792987585" lon="-4.625809667631984">
        <ele>846.97</ele>
        <time>2025-02-10T16:56:14.820Z</time>
      </trkpt>
      <trkpt lat="41.74009747803211" lon="-4.625814780592918">
        <ele>847.12</ele>
        <time>2025-02-10T16:56:16.009Z</time>
      </trkpt>
      <trkpt lat="41.74001659266651" lon="-4.625755101442337">
        <ele>847.25</ele>
        <time>2025-02-10T16:56:17.200Z</time>
      </trkpt>
      <trkpt lat="41.739996895194054" lon="-4.625740516930819">
        <ele>847.33</ele>
        <time>2025-02-10T16:56:18.392Z</time>
      </trkpt>
      <trkpt lat="41.739995973184705" lon="-4.625739846378565">
        <ele>847.37</ele>
        <time>2025-02-10T16:56:19.584Z</time>
      </trkpt>
      <trkpt lat="41.73999379388988" lon="-4.625738253816962">
        <ele>847.37</ele>
        <time>2025-02-10T16:56:20.776Z</time>
      </trkpt>
      <trkpt lat="41.739974431693554" lon="-4.625724004581571">
        <ele>847.35</ele>
        <time>2025-02-10T16:56:21.968Z</time>
      </trkpt>
      <trkpt lat="41.739955488592386" lon="-4.625710090622306">
        <ele>847.29</ele>
        <time>2025-02-10T16:56:23.161Z</time>
      </trkpt>
      <trkpt lat="41.739937299862504" lon="-4.625696679577231">
        <ele>847.21</ele>
        <time>2025-02-10T16:56:24.354Z</time>
      </trkpt>
      <trkpt lat="41.74007887020707" lon="-4.6254760678857565">
        <ele>846.94</ele>
        <time>2025-02-10T16:56:25.552Z</time>
      </trkpt>
      <trkpt lat="41.74009345471859" lon="-4.625453352928162">
        <ele>846.76</ele>
        <time>2025-02-10T16:56:26.750Z</time>
      </trkpt>
      <trkpt lat="41.740094209089875" lon="-4.625452347099781">
        <ele>846.57</ele>
        <time>2025-02-10T16:56:27.948Z</time>
      </trkpt>
      <trkpt lat="41.74009588547051" lon="-4.62544983252883">
        <ele>846.35</ele>
        <time>2025-02-10T16:56:29.146Z</time>
      </trkpt>
      <trkpt lat="41.7401101347059" lon="-4.625427788123488">
        <ele>846.08</ele>
        <time>2025-02-10T16:56:30.344Z</time>
      </trkpt>
      <trkpt lat="41.740124048665166" lon="-4.625406162813306">
        <ele>845.79</ele>
        <time>2025-02-10T16:56:31.543Z</time>
      </trkpt>
      <trkpt lat="41.74013754352927" lon="-4.625385291874409">
        <ele>845.47</ele>
        <time>2025-02-10T16:56:32.742Z</time>
      </trkpt>
      <trkpt lat="41.740172831341624" lon="-4.625301891937852">
        <ele>845.1</ele>
        <time>2025-02-10T16:56:33.943Z</time>
      </trkpt>
      <trkpt lat="41.74018397927284" lon="-4.625275740399957">
        <ele>844.74</ele>
        <time>2025-02-10T16:56:35.144Z</time>
      </trkpt>
      <trkpt lat="41.740184566006064" lon="-4.625274566933513">
        <ele>844.36</ele>
        <time>2025-02-10T16:56:36.345Z</time>
      </trkpt>
      <trkpt lat="41.74018582329154" lon="-4.625271717086434">
        <ele>843.97</ele>
        <time>2025-02-10T16:56:37.546Z</time>
      </trkpt>
      <trkpt lat="41.74019671976566" lon="-4.625246236100793">
        <ele>843.54</ele>
        <time>2025-02-10T16:56:38.748Z</time>
      </trkpt>
      <trkpt lat="41.74020736478269" lon="-4.625221341848373">
        <ele>843.1</ele>
        <time>2025-02-10T16:56:39.950Z</time>
      </trkpt>
      <trkpt lat="41.74021759070456" lon="-4.6251974534243345">
        <ele>842.64</ele>
        <time>2025-02-10T16:56:41.153Z</time>
      </trkpt>
      <trkpt lat="41.74029319547117" lon="-4.625120423734188">
        <ele>842.13</ele>
        <time>2025-02-10T16:56:42.357Z</time>
      </trkpt>
      <trkpt lat="41.74031130038202" lon="-4.625102067366242">
        <ele>841.64</ele>
        <time>2025-02-10T16:56:43.562Z</time>
      </trkpt>
      <trkpt lat="41.740312138572335" lon="-4.625101229175925">
        <ele>841.15</ele>
        <time>2025-02-10T16:56:44.767Z</time>
      </trkpt>
      <trkpt lat="41.740314150229096" lon="-4.625099301338196">
        <ele>840.64</ele>
        <time>2025-02-10T16:56:45.972Z</time>
      </trkpt>
      <trkpt lat="41.74033175222576" lon="-4.625081531703472">
        <ele>840.12</ele>
        <time>2025-02-10T16:56:47.177Z</time>
      </trkpt>
      <trkpt lat="41.74034910276532" lon="-4.625064013525844">
        <ele>839.58</ele>
        <time>2025-02-10T16:56:48.383Z</time>
      </trkpt>
      <trkpt lat="41.74036578275263" lon="-4.625047165900469">
        <ele>839.05</ele>
        <time>2025-02-10T16:56:49.589Z</time>
      </trkpt>
      <trkpt lat="41.74054993316531" lon="-4.625061247497797">
        <ele>838.4</ele>
        <time>2025-02-10T16:56:50.799Z</time>
      </trkpt>
      <trkpt lat="41.74057289958" lon="-4.625063091516495">
        <ele>837.85</ele>
        <time>2025-02-10T16:56:52.009Z</time>
      </trkpt>
      <trkpt lat="41.74057390540838" lon="-4.6250631753355265">
        <ele>837.32</ele>
        <time>2025-02-10T16:56:53.219Z</time>
      </trkpt>
      <trkpt lat="41.740576419979334" lon="-4.625063426792622">
        <ele>836.78</ele>
        <time>2025-02-10T16:56:54.429Z</time>
      </trkpt>
      <trkpt lat="41.7405987996608" lon="-4.625065186992288">
        <ele>836.24</ele>
        <time>2025-02-10T16:56:55.640Z</time>
      </trkpt>
      <trkpt lat="41.74062084406614" lon="-4.625066947191954">
        <ele>835.71</ele>
        <time>2025-02-10T16:56:56.851Z</time>
      </trkpt>
      <trkpt lat="41.7406421341002" lon="-4.625068623572588">
        <ele>835.18</ele>
        <time>2025-02-10T16:56:58.063Z</time>
      </trkpt>
      <trkpt lat="41.7407354246825" lon="-4.62495245039463">
        <ele>834.58</ele>
        <time>2025-02-10T16:56:59.277Z</time>
      </trkpt>
      <trkpt lat="41.74075210466981" lon="-4.6249318309128284">
        <ele>834.06</ele>
        <time>2025-02-10T16:57:00.492Z</time>
      </trkpt>
      <trkpt lat="41.74075294286013" lon="-4.62493090890348">
        <ele>833.56</ele>
        <time>2025-02-10T16:57:01.707Z</time>
      </trkpt>
      <trkpt lat="41.740754786878824" lon="-4.624928645789623">
        <ele>833.08</ele>
        <time>2025-02-10T16:57:02.922Z</time>
      </trkpt>
      <trkpt lat="41.74077104777098" lon="-4.624908613041043">
        <ele>832.6</ele>
        <time>2025-02-10T16:57:04.137Z</time>
      </trkpt>
      <trkpt lat="41.740786973387" lon="-4.62488891556859">
        <ele>832.13</ele>
        <time>2025-02-10T16:57:05.353Z</time>
      </trkpt>
      <trkpt lat="41.74080231226981" lon="-4.6248699724674225">
        <ele>831.68</ele>
        <time>2025-02-10T16:57:06.569Z</time>
      </trkpt>
      <trkpt lat="41.74088269472122" lon="-4.624795960262418">
        <ele>831.19</ele>
        <time>2025-02-10T16:57:07.787Z</time>
      </trkpt>
      <trkpt lat="41.74090155400336" lon="-4.624778693541884">
        <ele>830.77</ele>
        <time>2025-02-10T16:57:09.006Z</time>
      </trkpt>
      <trkpt lat="41.74090247601271" lon="-4.624777939170599">
        <ele>830.39</ele>
        <time>2025-02-10T16:57:10.225Z</time>
      </trkpt>
      <trkpt lat="41.7409045714885" lon="-4.624776095151901">
        <ele>830.02</ele>
        <time>2025-02-10T16:57:11.444Z</time>
      </trkpt>
      <trkpt lat="41.740922844037414" lon="-4.62475941516459">
        <ele>829.67</ele>
        <time>2025-02-10T16:57:12.663Z</time>
      </trkpt>
      <trkpt lat="41.740940948948264" lon="-4.624742986634374">
        <ele>829.33</ele>
        <time>2025-02-10T16:57:13.883Z</time>
      </trkpt>
      <trkpt lat="41.74095829948783" lon="-4.6247271448373795">
        <ele>829.02</ele>
        <time>2025-02-10T16:57:15.103Z</time>
      </trkpt>
      <trkpt lat="41.74099978990853" lon="-4.624693533405662">
        <ele>828.71</ele>
        <time>2025-02-10T16:57:16.324Z</time>
      </trkpt>
      <trkpt lat="41.74101931974292" lon="-4.624677775427699">
        <ele>828.44</ele>
        <time>2025-02-10T16:57:17.545Z</time>
      </trkpt>
      <trkpt lat="41.74102024175227" lon="-4.624677104875445">
        <ele>828.19</ele>
        <time>2025-02-10T16:57:18.766Z</time>
      </trkpt>
      <trkpt lat="41.74102242104709" lon="-4.624675428494811">
        <ele>827.97</ele>
        <time>2025-02-10T16:57:19.987Z</time>
      </trkpt>
      <trkpt lat="41.74104153178632" lon="-4.624660089612007">
        <ele>827.75</ele>
        <time>2025-02-10T16:57:21.209Z</time>
      </trkpt>
      <trkpt lat="41.74106030724943" lon="-4.624645002186298">
        <ele>827.55</ele>
        <time>2025-02-10T16:57:22.431Z</time>
      </trkpt>
      <trkpt lat="41.74107841216028" lon="-4.624630501493812">
        <ele>827.37</ele>
        <time>2025-02-10T16:57:23.654Z</time>
      </trkpt>
      <trkpt lat="41.741107078269124" lon="-4.6246258076280355">
        <ele>827.21</ele>
        <time>2025-02-10T16:57:24.877Z</time>
      </trkpt>
      <trkpt lat="41.74112987704575" lon="-4.624622203409672">
        <ele>827.07</ele>
        <time>2025-02-10T16:57:26.101Z</time>
      </trkpt>
      <trkpt lat="41.74113088287413" lon="-4.62462211959064">
        <ele>826.95</ele>
        <time>2025-02-10T16:57:27.325Z</time>
      </trkpt>
      <trkpt lat="41.74113339744508" lon="-4.624621784314513">
        <ele>826.84</ele>
        <time>2025-02-10T16:57:28.549Z</time>
      </trkpt>
      <trkpt lat="41.74115560948849" lon="-4.624618347734213">
        <ele>826.74</ele>
        <time>2025-02-10T16:57:29.773Z</time>
      </trkpt>
      <trkpt lat="41.741177486255765" lon="-4.624614994972944">
        <ele>826.65</ele>
        <time>2025-02-10T16:57:30.998Z</time>
      </trkpt>
      <trkpt lat="41.74119860865176" lon="-4.624611726030707">
        <ele>826.59</ele>
        <time>2025-02-10T16:57:32.223Z</time>
      </trkpt>
      <trkpt lat="41.74121788702905" lon="-4.62459865026176">
        <ele>826.53</ele>
        <time>2025-02-10T16:57:33.449Z</time>
      </trkpt>
      <trkpt lat="41.74123842269182" lon="-4.62458498775959">
        <ele>826.47</ele>
        <time>2025-02-10T16:57:34.675Z</time>
      </trkpt>
      <trkpt lat="41.74123934470117" lon="-4.624584401026368">
        <ele>826.43</ele>
        <time>2025-02-10T16:57:35.901Z</time>
      </trkpt>
      <trkpt lat="41.74124160781503" lon="-4.624582976102829">
        <ele>826.39</ele>
        <time>2025-02-10T16:57:37.127Z</time>
      </trkpt>
      <trkpt lat="41.74126164056361" lon="-4.624569648876786">
        <ele>826.36</ele>
        <time>2025-02-10T16:57:38.354Z</time>
      </trkpt>
      <trkpt lat="41.74128142185509" lon="-4.624556573107839">
        <ele>826.33</ele>
        <time>2025-02-10T16:57:39.581Z</time>
      </trkpt>
      <trkpt lat="41.74130036495626" lon="-4.624544084072113">
        <ele>826.31</ele>
        <time>2025-02-10T16:57:40.808Z</time>
      </trkpt>
      <trkpt lat="41.74130229279399" lon="-4.6245392225682735">
        <ele>826.29</ele>
        <time>2025-02-10T16:57:42.036Z</time>
      </trkpt>
      <trkpt lat="41.74131318926811" lon="-4.624512232840061">
        <ele>826.26</ele>
        <time>2025-02-10T16:57:43.264Z</time>
      </trkpt>
      <trkpt lat="41.741313776001334" lon="-4.624511059373617">
        <ele>826.24</ele>
        <time>2025-02-10T16:57:44.492Z</time>
      </trkpt>
      <trkpt lat="41.74131503328681" lon="-4.624508209526539">
        <ele>826.22</ele>
        <time>2025-02-10T16:57:45.720Z</time>
      </trkpt>
      <trkpt lat="41.7413258459419" lon="-4.624482141807675">
        <ele>826.2</ele>
        <time>2025-02-10T16:57:46.949Z</time>
      </trkpt>
      <trkpt lat="41.74133649095893" lon="-4.624456409364939">
        <ele>826.17</ele>
        <time>2025-02-10T16:57:48.178Z</time>
      </trkpt>
      <trkpt lat="41.7413467168808" lon="-4.624431850388646">
        <ele>826.14</ele>
        <time>2025-02-10T16:57:49.407Z</time>
      </trkpt>
      <trkpt lat="41.741350991651416" lon="-4.624422714114189">
        <ele>826.12</ele>
        <time>2025-02-10T16:57:50.637Z</time>
      </trkpt>
      <trkpt lat="41.74136331304908" lon="-4.624396730214357">
        <ele>826.09</ele>
        <time>2025-02-10T16:57:51.867Z</time>
      </trkpt>
      <trkpt lat="41.7413638997823" lon="-4.624395556747913">
        <ele>826.06</ele>
        <time>2025-02-10T16:57:53.097Z</time>
      </trkpt>
      <trkpt lat="41.74136532470584" lon="-4.624392790719867">
        <ele>826.03</ele>
        <time>2025-02-10T16:57:54.327Z</time>
      </trkpt>
      <trkpt lat="41.741377394646406" lon="-4.624367645010352">
        <ele>825.99</ele>
        <time>2025-02-10T16:57:55.558Z</time>
      </trkpt>
      <trkpt lat="41.74138938076794" lon="-4.624342834576964">
        <ele>825.95</ele>
        <time>2025-02-10T16:57:56.789Z</time>
      </trkpt>
      <trkpt lat="41.741400780156255" lon="-4.624319113790989">
        <ele>825.91</ele>
        <time>2025-02-10T16:57:58.020Z</time>
      </trkpt>
      <trkpt lat="41.7414035461843" lon="-4.6243171859532595">
        <ele>825.87</ele>
        <time>2025-02-10T16:57:59.251Z</time>
      </trkpt>
      <trkpt lat="41.74142433330417" lon="-4.624303439632058">
        <ele>825.82</ele>
        <time>2025-02-10T16:58:00.483Z</time>
      </trkpt>
      <trkpt lat="41.741425255313516" lon="-4.624302852898836">
        <ele>825.77</ele>
        <time>2025-02-10T16:58:01.715Z</time>
      </trkpt>
      <trkpt lat="41.74142751842737" lon="-4.624301427975297">
        <ele>825.72</ele>
        <time>2025-02-10T16:58:02.947Z</time>
      </trkpt>
      <trkpt lat="41.741447718814015" lon="-4.624288268387318">
        <ele>825.67</ele>
        <time>2025-02-10T16:58:04.179Z</time>
      </trkpt>
      <trkpt lat="41.741467751562595" lon="-4.62427519261837">
        <ele>825.61</ele>
        <time>2025-02-10T16:58:05.412Z</time>
      </trkpt>
      <trkpt lat="41.74148686230183" lon="-4.624262787401676">
        <ele>825.55</ele>
        <time>2025-02-10T16:58:06.645Z</time>
      </trkpt>
      <trkpt lat="41.74155928194523" lon="-4.624110907316208">
        <ele>825.44</ele>
        <time>2025-02-10T16:58:07.881Z</time>
      </trkpt>
      <trkpt lat="41.74157168716192" lon="-4.6240850910544395">
        <ele>825.36</ele>
        <time>2025-02-10T16:58:09.117Z</time>
      </trkpt>
      <trkpt lat="41.741572273895144" lon="-4.6240839175879955">
        <ele>825.29</ele>
        <time>2025-02-10T16:58:10.353Z</time>
      </trkpt>
      <trkpt lat="41.741573698818684" lon="-4.624081151559949">
        <ele>825.21</ele>
        <time>2025-02-10T16:58:11.590Z</time>
      </trkpt>
      <trkpt lat="41.74158576875925" lon="-4.624056089669466">
        <ele>825.13</ele>
        <time>2025-02-10T16:58:12.827Z</time>
      </trkpt>
      <trkpt lat="41.741597671061754" lon="-4.62403136305511">
        <ele>825.04</ele>
        <time>2025-02-10T16:58:14.064Z</time>
      </trkpt>
      <trkpt lat="41.741608986631036" lon="-4.624007809907198">
        <ele>824.95</ele>
        <time>2025-02-10T16:58:15.302Z</time>
      </trkpt>
      <trkpt lat="41.741628013551235" lon="-4.623996410518885">
        <ele>824.86</ele>
        <time>2025-02-10T16:58:16.540Z</time>
      </trkpt>
      <trkpt lat="41.74164921976626" lon="-4.623983753845096">
        <ele>824.78</ele>
        <time>2025-02-10T16:58:17.779Z</time>
      </trkpt>
      <trkpt lat="41.74165014177561" lon="-4.623983250930905">
        <ele>824.68</ele>
        <time>2025-02-10T16:58:19.018Z</time>
      </trkpt>
      <trkpt lat="41.741652488708496" lon="-4.623981909826398">
        <ele>824.59</ele>
        <time>2025-02-10T16:58:20.257Z</time>
      </trkpt>
      <trkpt lat="41.7416731081903" lon="-4.6239696722477674">
        <ele>824.49</ele>
        <time>2025-02-10T16:58:21.496Z</time>
      </trkpt>
      <trkpt lat="41.74169356003404" lon="-4.6239576023072">
        <ele>824.39</ele>
        <time>2025-02-10T16:58:22.736Z</time>
      </trkpt>
      <trkpt lat="41.74171317368746" lon="-4.623946035280824">
        <ele>824.29</ele>
        <time>2025-02-10T16:58:23.976Z</time>
      </trkpt>
      <trkpt lat="41.74171409569681" lon="-4.623942766338587">
        <ele>824.18</ele>
        <time>2025-02-10T16:58:25.216Z</time>
      </trkpt>
      <trkpt lat="41.741722812876105" lon="-4.623913932591677">
        <ele>824.06</ele>
        <time>2025-02-10T16:58:26.457Z</time>
      </trkpt>
      <trkpt lat="41.741723231971264" lon="-4.623912675306201">
        <ele>823.94</ele>
        <time>2025-02-10T16:58:27.698Z</time>
      </trkpt>
      <trkpt lat="41.741724237799644" lon="-4.6239095740020275">
        <ele>823.82</ele>
        <time>2025-02-10T16:58:28.939Z</time>
      </trkpt>
      <trkpt lat="41.74173278734088" lon="-4.623881662264466">
        <ele>823.68</ele>
        <time>2025-02-10T16:58:30.180Z</time>
      </trkpt>
      <trkpt lat="41.74174116924405" lon="-4.623854253441095">
        <ele>823.53</ele>
        <time>2025-02-10T16:58:31.422Z</time>
      </trkpt>
      <trkpt lat="41.741749215871096" lon="-4.623827934265137">
        <ele>823.39</ele>
        <time>2025-02-10T16:58:32.664Z</time>
      </trkpt>
      <trkpt lat="41.741792131215334" lon="-4.623781917616725">
        <ele>823.24</ele>
        <time>2025-02-10T16:58:33.907Z</time>
      </trkpt>
      <trkpt lat="41.74181040376425" lon="-4.623762471601367">
        <ele>823.09</ele>
        <time>2025-02-10T16:58:35.151Z</time>
      </trkpt>
      <trkpt lat="41.741811241954565" lon="-4.62376163341105">
        <ele>822.95</ele>
        <time>2025-02-10T16:58:36.395Z</time>
      </trkpt>
      <trkpt lat="41.741813253611326" lon="-4.623759537935257">
        <ele>822.79</ele>
        <time>2025-02-10T16:58:37.639Z</time>
      </trkpt>
      <trkpt lat="41.74183093942702" lon="-4.623740762472153">
        <ele>822.63</ele>
        <time>2025-02-10T16:58:38.883Z</time>
      </trkpt>
      <trkpt lat="41.74184845760465" lon="-4.623722238466144">
        <ele>822.47</ele>
        <time>2025-02-10T16:58:40.128Z</time>
      </trkpt>
      <trkpt lat="41.74186530523002" lon="-4.62370446883142">
        <ele>822.3</ele>
        <time>2025-02-10T16:58:41.373Z</time>
      </trkpt>
      <trkpt lat="41.74186538904905" lon="-4.623703546822071">
        <ele>822.13</ele>
        <time>2025-02-10T16:58:42.618Z</time>
      </trkpt>
      <trkpt lat="41.74186916090548" lon="-4.6236727014184">
        <ele>821.93</ele>
        <time>2025-02-10T16:58:43.863Z</time>
      </trkpt>
      <trkpt lat="41.741869412362576" lon="-4.623671360313892">
        <ele>821.75</ele>
        <time>2025-02-10T16:58:45.108Z</time>
      </trkpt>
      <trkpt lat="41.741869915276766" lon="-4.6236680913716555">
        <ele>821.56</ele>
        <time>2025-02-10T16:58:46.354Z</time>
      </trkpt>
      <trkpt lat="41.741873770952225" lon="-4.6236383356153965">
        <ele>821.35</ele>
        <time>2025-02-10T16:58:47.600Z</time>
      </trkpt>
      <trkpt lat="41.741877626627684" lon="-4.623608998954296">
        <ele>821.14</ele>
        <time>2025-02-10T16:58:48.846Z</time>
      </trkpt>
      <trkpt lat="41.74187888391316" lon="-4.623599192127585">
        <ele>820.94</ele>
        <time>2025-02-10T16:58:50.093Z</time>
      </trkpt>
      <trkpt lat="41.74188131466508" lon="-4.623581003397703">
        <ele>820.72</ele>
        <time>2025-02-10T16:58:51.340Z</time>
      </trkpt>
      <trkpt lat="41.74188869073987" lon="-4.623572789132595">
        <ele>820.52</ele>
        <time>2025-02-10T16:58:52.587Z</time>
      </trkpt>
      <trkpt lat="41.74188952893019" lon="-4.623571950942278">
        <ele>820.3</ele>
        <time>2025-02-10T16:58:53.834Z</time>
      </trkpt>
      <trkpt lat="41.74189145676792" lon="-4.623569939285517">
        <ele>820.09</ele>
        <time>2025-02-10T16:58:55.081Z</time>
      </trkpt>
      <trkpt lat="41.74190914258361" lon="-4.623550828546286">
        <ele>819.87</ele>
        <time>2025-02-10T16:58:56.329Z</time>
      </trkpt>
      <trkpt lat="41.741926576942205" lon="-4.623532053083181">
        <ele>819.65</ele>
        <time>2025-02-10T16:58:57.577Z</time>
      </trkpt>
      <trkpt lat="41.74194342456758" lon="-4.623513948172331">
        <ele>819.43</ele>
        <time>2025-02-10T16:58:58.825Z</time>
      </trkpt>
      <trkpt lat="41.74195901490748" lon="-4.623427782207727">
        <ele>819.16</ele>
        <time>2025-02-10T16:59:00.075Z</time>
      </trkpt>
      <trkpt lat="41.74196454696357" lon="-4.623397523537278">
        <ele>818.92</ele>
        <time>2025-02-10T16:59:01.325Z</time>
      </trkpt>
      <trkpt lat="41.7419648822397" lon="-4.623396182432771">
        <ele>818.7</ele>
        <time>2025-02-10T16:59:02.575Z</time>
      </trkpt>
      <trkpt lat="41.74196555279195" lon="-4.6233929973095655">
        <ele>818.48</ele>
        <time>2025-02-10T16:59:03.825Z</time>
      </trkpt>
      <trkpt lat="41.741971001029015" lon="-4.623363744467497">
        <ele>818.25</ele>
        <time>2025-02-10T16:59:05.076Z</time>
      </trkpt>
      <trkpt lat="41.741976365447044" lon="-4.623334910720587">
        <ele>818.02</ele>
        <time>2025-02-10T16:59:06.327Z</time>
      </trkpt>
      <trkpt lat="41.74198147840798" lon="-4.623307250440121">
        <ele>817.79</ele>
        <time>2025-02-10T16:59:07.579Z</time>
      </trkpt>
      <trkpt lat="41.74202296882868" lon="-4.623184120282531">
        <ele>817.54</ele>
        <time>2025-02-10T16:59:08.833Z</time>
      </trkpt>
      <trkpt lat="41.742032524198294" lon="-4.623155789449811">
        <ele>817.33</ele>
        <time>2025-02-10T16:59:10.087Z</time>
      </trkpt>
      <trkpt lat="41.742033027112484" lon="-4.623154532164335">
        <ele>817.13</ele>
        <time>2025-02-10T16:59:11.341Z</time>
      </trkpt>
      <trkpt lat="41.742034116759896" lon="-4.6231515146791935">
        <ele>816.93</ele>
        <time>2025-02-10T16:59:12.595Z</time>
      </trkpt>
      <trkpt lat="41.74204342067242" lon="-4.623124022036791">
        <ele>816.74</ele>
        <time>2025-02-10T16:59:13.850Z</time>
      </trkpt>
      <trkpt lat="41.742052640765905" lon="-4.6230970323085785">
        <ele>816.55</ele>
        <time>2025-02-10T16:59:15.105Z</time>
      </trkpt>
      <trkpt lat="41.74206152558327" lon="-4.623071048408747">
        <ele>816.37</ele>
        <time>2025-02-10T16:59:16.361Z</time>
      </trkpt>
      <trkpt lat="41.74207971431315" lon="-4.622969124466181">
        <ele>816.18</ele>
        <time>2025-02-10T16:59:17.618Z</time>
      </trkpt>
      <trkpt lat="41.74208516255021" lon="-4.6229388657957315">
        <ele>816.01</ele>
        <time>2025-02-10T16:59:18.876Z</time>
      </trkpt>
      <trkpt lat="41.742085414007306" lon="-4.622937524691224">
        <ele>815.86</ele>
        <time>2025-02-10T16:59:20.134Z</time>
      </trkpt>
      <trkpt lat="41.74208608455956" lon="-4.622934255748987">
        <ele>815.71</ele>
        <time>2025-02-10T16:59:21.392Z</time>
      </trkpt>
      <trkpt lat="41.74209136515856" lon="-4.622904919087887">
        <ele>815.57</ele>
        <time>2025-02-10T16:59:22.650Z</time>
      </trkpt>
      <trkpt lat="41.742096561938524" lon="-4.622876085340977">
        <ele>815.44</ele>
        <time>2025-02-10T16:59:23.909Z</time>
      </trkpt>
      <trkpt lat="41.74210159108043" lon="-4.622848257422447">
        <ele>815.31</ele>
        <time>2025-02-10T16:59:25.168Z</time>
      </trkpt>
      <trkpt lat="41.7421289999038" lon="-4.6227547992020845">
        <ele>815.19</ele>
        <time>2025-02-10T16:59:26.428Z</time>
      </trkpt>
      <trkpt lat="41.742137633264065" lon="-4.622725713998079">
        <ele>815.09</ele>
        <time>2025-02-10T16:59:27.689Z</time>
      </trkpt>
      <trkpt lat="41.74213805235922" lon="-4.622724456712604">
        <ele>815.0</ele>
        <time>2025-02-10T16:59:28.950Z</time>
      </trkpt>
      <trkpt lat="41.742139058187604" lon="-4.62272135540843">
        <ele>814.92</ele>
        <time>2025-02-10T16:59:30.211Z</time>
      </trkpt>
      <trkpt lat="41.742147440090775" lon="-4.622693192213774">
        <ele>814.84</ele>
        <time>2025-02-10T16:59:31.472Z</time>
      </trkpt>
      <trkpt lat="41.742155654355884" lon="-4.622665531933308">
        <ele>814.78</ele>
        <time>2025-02-10T16:59:32.734Z</time>
      </trkpt>
      <trkpt lat="41.7421636171639" lon="-4.622638961300254">
        <ele>814.73</ele>
        <time>2025-02-10T16:59:33.996Z</time>
      </trkpt>
      <trkpt lat="41.742193875834346" lon="-4.622561680153012">
        <ele>814.69</ele>
        <time>2025-02-10T16:59:35.260Z</time>
      </trkpt>
      <trkpt lat="41.7422048561275" lon="-4.6225339360535145">
        <ele>814.65</ele>
        <time>2025-02-10T16:59:36.524Z</time>
      </trkpt>
      <trkpt lat="41.74220535904169" lon="-4.6225327625870705">
        <ele>814.62</ele>
        <time>2025-02-10T16:59:37.788Z</time>
      </trkpt>
      <trkpt lat="41.742206532508135" lon="-4.62252982892096">
        <ele>814.59</ele>
        <time>2025-02-10T16:59:39.052Z</time>
      </trkpt>
      <trkpt lat="41.74221717752516" lon="-4.62250292301178">
        <ele>814.57</ele>
        <time>2025-02-10T16:59:40.317Z</time>
      </trkpt>
      <trkpt lat="41.74222765490413" lon="-4.622476520016789">
        <ele>814.55</ele>
        <time>2025-02-10T16:59:41.582Z</time>
      </trkpt>
      <trkpt lat="41.742235869169235" lon="-4.622455481439829">
        <ele>814.53</ele>
        <time>2025-02-10T16:59:42.847Z</time>
      </trkpt>
      <trkpt lat="41.74223771318793" lon="-4.622451039031148">
        <ele>814.52</ele>
        <time>2025-02-10T16:59:44.112Z</time>
      </trkpt>
      <trkpt lat="41.7422516271472" lon="-4.622432179749012">
        <ele>814.51</ele>
        <time>2025-02-10T16:59:45.378Z</time>
      </trkpt>
      <trkpt lat="41.742252465337515" lon="-4.622431173920631">
        <ele>814.5</ele>
        <time>2025-02-10T16:59:46.644Z</time>
      </trkpt>
      <trkpt lat="41.74225430935621" lon="-4.622428743168712">
        <ele>814.5</ele>
        <time>2025-02-10T16:59:47.910Z</time>
      </trkpt>
      <trkpt lat="41.742270486429334" lon="-4.622407034039497">
        <ele>814.49</ele>
        <time>2025-02-10T16:59:49.176Z</time>
      </trkpt>
      <trkpt lat="41.74228641204536" lon="-4.622385744005442">
        <ele>814.48</ele>
        <time>2025-02-10T16:59:50.443Z</time>
      </trkpt>
      <trkpt lat="41.742301834747195" lon="-4.622365208342671">
        <ele>814.48</ele>
        <time>2025-02-10T16:59:51.710Z</time>
      </trkpt>
      <trkpt lat="41.74234500154853" lon="-4.622244592756033">
        <ele>814.47</ele>
        <time>2025-02-10T16:59:52.979Z</time>
      </trkpt>
      <trkpt lat="41.7423552274704" lon="-4.622216345742345">
        <ele>814.45</ele>
        <time>2025-02-10T16:59:54.249Z</time>
      </trkpt>
      <trkpt lat="41.74235573038459" lon="-4.622215004637837">
        <ele>814.43</ele>
        <time>2025-02-10T16:59:55.519Z</time>
      </trkpt>
      <trkpt lat="41.74235690385103" lon="-4.622211903333664">
        <ele>814.4</ele>
        <time>2025-02-10T16:59:56.789Z</time>
      </trkpt>
      <trkpt lat="41.742366794496775" lon="-4.622184494510293">
        <ele>814.37</ele>
        <time>2025-02-10T16:59:58.059Z</time>
      </trkpt>
      <trkpt lat="41.742376517504454" lon="-4.622157588601112">
        <ele>814.33</ele>
        <time>2025-02-10T16:59:59.330Z</time>
      </trkpt>
      <trkpt lat="41.742385905236006" lon="-4.622131688520312">
        <ele>814.29</ele>
        <time>2025-02-10T17:00:00.601Z</time>
      </trkpt>
      <trkpt lat="41.74253015778959" lon="-4.621765231713653">
        <ele>814.2</ele>
        <time>2025-02-10T17:00:01.878Z</time>
      </trkpt>
      <trkpt lat="41.74253258854151" lon="-4.621759280562401">
        <ele>814.14</ele>
        <time>2025-02-10T17:00:03.155Z</time>
      </trkpt>
      <trkpt lat="41.74254088662565" lon="-4.62173773907125">
        <ele>814.09</ele>
        <time>2025-02-10T17:00:04.433Z</time>
      </trkpt>
      <trkpt lat="41.74254147335887" lon="-4.6217363979667425">
        <ele>814.03</ele>
        <time>2025-02-10T17:00:05.711Z</time>
      </trkpt>
      <trkpt lat="41.742542730644345" lon="-4.621733380481601">
        <ele>813.96</ele>
        <time>2025-02-10T17:00:06.989Z</time>
      </trkpt>
      <trkpt lat="41.74255337566137" lon="-4.621706306934357">
        <ele>813.89</ele>
        <time>2025-02-10T17:00:08.267Z</time>
      </trkpt>
      <trkpt lat="41.74256393685937" lon="-4.621679652482271">
        <ele>813.82</ele>
        <time>2025-02-10T17:00:09.546Z</time>
      </trkpt>
      <trkpt lat="41.74257407896221" lon="-4.621653920039535">
        <ele>813.73</ele>
        <time>2025-02-10T17:00:10.825Z</time>
      </trkpt>
      <trkpt lat="41.742626717314124" lon="-4.621538417413831">
        <ele>813.65</ele>
        <time>2025-02-10T17:00:12.106Z</time>
      </trkpt>
      <trkpt lat="41.742639038711786" lon="-4.621511595323682">
        <ele>813.56</ele>
        <time>2025-02-10T17:00:13.388Z</time>
      </trkpt>
      <trkpt lat="41.74263970926404" lon="-4.621510254219174">
        <ele>813.48</ele>
        <time>2025-02-10T17:00:14.670Z</time>
      </trkpt>
      <trkpt lat="41.74264105036855" lon="-4.621507404372096">
        <ele>813.38</ele>
        <time>2025-02-10T17:00:15.952Z</time>
      </trkpt>
      <trkpt lat="41.74265303649008" lon="-4.621481420472264">
        <ele>813.29</ele>
        <time>2025-02-10T17:00:17.234Z</time>
      </trkpt>
      <trkpt lat="41.74266477115452" lon="-4.621455855667591">
        <ele>813.19</ele>
        <time>2025-02-10T17:00:18.517Z</time>
      </trkpt>
      <trkpt lat="41.742676170542836" lon="-4.621431129053235">
        <ele>813.09</ele>
        <time>2025-02-10T17:00:19.800Z</time>
      </trkpt>
      <trkpt lat="41.74268363043666" lon="-4.621416795998812">
        <ele>812.98</ele>
        <time>2025-02-10T17:00:21.083Z</time>
      </trkpt>
      <trkpt lat="41.7426972091198" lon="-4.62139081209898">
        <ele>812.87</ele>
        <time>2025-02-10T17:00:22.367Z</time>
      </trkpt>
      <trkpt lat="41.74269787967205" lon="-4.621389554813504">
        <ele>812.77</ele>
        <time>2025-02-10T17:00:23.651Z</time>
      </trkpt>
      <trkpt lat="41.74269938841462" lon="-4.621386788785458">
        <ele>812.66</ele>
        <time>2025-02-10T17:00:24.935Z</time>
      </trkpt>
      <trkpt lat="41.74271263182163" lon="-4.621361643075943">
        <ele>812.55</ele>
        <time>2025-02-10T17:00:26.219Z</time>
      </trkpt>
      <trkpt lat="41.74272562377155" lon="-4.621336916461587">
        <ele>812.43</ele>
        <time>2025-02-10T17:00:27.504Z</time>
      </trkpt>
      <trkpt lat="41.74273828044534" lon="-4.621313028037548">
        <ele>812.32</ele>
        <time>2025-02-10T17:00:28.789Z</time>
      </trkpt>
      <trkpt lat="41.742918491363525" lon="-4.621154693886638">
        <ele>812.22</ele>
        <time>2025-02-10T17:00:30.079Z</time>
      </trkpt>
      <trkpt lat="41.742938440293074" lon="-4.621137259528041">
        <ele>812.12</ele>
        <time>2025-02-10T17:00:31.369Z</time>
      </trkpt>
      <trkpt lat="41.742939446121454" lon="-4.621136421337724">
        <ele>812.02</ele>
        <time>2025-02-10T17:00:32.659Z</time>
      </trkpt>
      <trkpt lat="41.74294162541628" lon="-4.621134577319026">
        <ele>811.92</ele>
        <time>2025-02-10T17:00:33.949Z</time>
      </trkpt>
      <trkpt lat="41.742960987612605" lon="-4.6211176458746195">
        <ele>811.83</ele>
        <time>2025-02-10T17:00:35.240Z</time>
      </trkpt>
      <trkpt lat="41.742980014532804" lon="-4.621100965887308">
        <ele>811.74</ele>
        <time>2025-02-10T17:00:36.531Z</time>
      </trkpt>
      <trkpt lat="41.742998538538814" lon="-4.621084872633219">
        <ele>811.65</ele>
        <time>2025-02-10T17:00:37.823Z</time>
      </trkpt>
      <trkpt lat="41.74307749606669" lon="-4.620984457433224">
        <ele>811.55</ele>
        <time>2025-02-10T17:00:39.117Z</time>
      </trkpt>
      <trkpt lat="41.74309476278722" lon="-4.620962580665946">
        <ele>811.48</ele>
        <time>2025-02-10T17:00:40.411Z</time>
      </trkpt>
      <trkpt lat="41.74309560097754" lon="-4.620961574837565">
        <ele>811.42</ele>
        <time>2025-02-10T17:00:41.705Z</time>
      </trkpt>
      <trkpt lat="41.74309752881527" lon="-4.620959227904677">
        <ele>811.37</ele>
        <time>2025-02-10T17:00:42.999Z</time>
      </trkpt>
      <trkpt lat="41.74311429262161" lon="-4.620938021689653">
        <ele>811.32</ele>
        <time>2025-02-10T17:00:44.294Z</time>
      </trkpt>
      <trkpt lat="41.74313080497086" lon="-4.620917150750756">
        <ele>811.28</ele>
        <time>2025-02-10T17:00:45.589Z</time>
      </trkpt>
      <trkpt lat="41.743146730586886" lon="-4.620897034183145">
        <ele>811.26</ele>
        <time>2025-02-10T17:00:46.885Z</time>
      </trkpt>
      <trkpt lat="41.74321395345032" lon="-4.620794020593166">
        <ele>811.24</ele>
        <time>2025-02-10T17:00:48.183Z</time>
      </trkpt>
      <trkpt lat="41.74322962760925" lon="-4.620770048350096">
        <ele>811.25</ele>
        <time>2025-02-10T17:00:49.481Z</time>
      </trkpt>
      <trkpt lat="41.74323038198054" lon="-4.6207689587026834">
        <ele>811.27</ele>
        <time>2025-02-10T17:00:50.779Z</time>
      </trkpt>
      <trkpt lat="41.743232142180204" lon="-4.6207663603127">
        <ele>811.3</ele>
        <time>2025-02-10T17:00:52.077Z</time>
      </trkpt>
      <trkpt lat="41.74324739724398" lon="-4.620743226259947">
        <ele>811.35</ele>
        <time>2025-02-10T17:00:53.376Z</time>
      </trkpt>
      <trkpt lat="41.743262400850654" lon="-4.62072042748332">
        <ele>811.42</ele>
        <time>2025-02-10T17:00:54.675Z</time>
      </trkpt>
      <trkpt lat="41.743267849087715" lon="-4.620712045580149">
        <ele>811.49</ele>
        <time>2025-02-10T17:00:55.974Z</time>
      </trkpt>
      <trkpt lat="41.74327690154314" lon="-4.620698383077979">
        <ele>811.59</ele>
        <time>2025-02-10T17:00:57.274Z</time>
      </trkpt>
      <trkpt lat="41.74328654073179" lon="-4.6206938568502665">
        <ele>811.7</ele>
        <time>2025-02-10T17:00:58.574Z</time>
      </trkpt>
      <trkpt lat="41.7432876303792" lon="-4.620693437755108">
        <ele>811.82</ele>
        <time>2025-02-10T17:00:59.874Z</time>
      </trkpt>
      <trkpt lat="41.74329006113112" lon="-4.620692431926727">
        <ele>811.96</ele>
        <time>2025-02-10T17:01:01.174Z</time>
      </trkpt>
      <trkpt lat="41.74331210553646" lon="-4.620682541280985">
        <ele>812.11</ele>
        <time>2025-02-10T17:01:02.474Z</time>
      </trkpt>
      <trkpt lat="41.74333389848471" lon="-4.620672818273306">
        <ele>812.28</ele>
        <time>2025-02-10T17:01:03.775Z</time>
      </trkpt>
      <trkpt lat="41.74335493706167" lon="-4.6206635143607855">
        <ele>812.46</ele>
        <time>2025-02-10T17:01:05.076Z</time>
      </trkpt>
      <trkpt lat="41.74353774636984" lon="-4.620764264836907">
        <ele>812.72</ele>
        <time>2025-02-10T17:01:06.381Z</time>
      </trkpt>
      <trkpt lat="41.743560042232275" lon="-4.6207765862345695">
        <ele>812.92</ele>
        <time>2025-02-10T17:01:07.687Z</time>
      </trkpt>
      <trkpt lat="41.74356113187969" lon="-4.620777172967792">
        <ele>813.13</ele>
        <time>2025-02-10T17:01:08.993Z</time>
      </trkpt>
      <trkpt lat="41.743563478812575" lon="-4.620778514072299">
        <ele>813.35</ele>
        <time>2025-02-10T17:01:10.299Z</time>
      </trkpt>
      <trkpt lat="41.74358518794179" lon="-4.620790500193834">
        <ele>813.58</ele>
        <time>2025-02-10T17:01:11.605Z</time>
      </trkpt>
      <trkpt lat="41.74360656179488" lon="-4.620802318677306">
        <ele>813.81</ele>
        <time>2025-02-10T17:01:12.912Z</time>
      </trkpt>
      <trkpt lat="41.74362726509571" lon="-4.620813801884651">
        <ele>814.05</ele>
        <time>2025-02-10T17:01:14.219Z</time>
      </trkpt>
      <trkpt lat="41.743662133812904" lon="-4.6208166517317295">
        <ele>814.3</ele>
        <time>2025-02-10T17:01:15.527Z</time>
      </trkpt>
      <trkpt lat="41.74368618987501" lon="-4.620818747207522">
        <ele>814.56</ele>
        <time>2025-02-10T17:01:16.835Z</time>
      </trkpt>
      <trkpt lat="41.74368727952242" lon="-4.620818914845586">
        <ele>814.8</ele>
        <time>2025-02-10T17:01:18.143Z</time>
      </trkpt>
      <trkpt lat="41.7436898779124" lon="-4.620819166302681">
        <ele>815.06</ele>
        <time>2025-02-10T17:01:19.451Z</time>
      </trkpt>
      <trkpt lat="41.74371317960322" lon="-4.620821261778474">
        <ele>815.32</ele>
        <time>2025-02-10T17:01:20.760Z</time>
      </trkpt>
      <trkpt lat="41.74373622983694" lon="-4.620823357254267">
        <ele>815.58</ele>
        <time>2025-02-10T17:01:22.069Z</time>
      </trkpt>
      <trkpt lat="41.74375852569938" lon="-4.620825368911028">
        <ele>815.83</ele>
        <time>2025-02-10T17:01:23.379Z</time>
      </trkpt>
      <trkpt lat="41.7439163569361" lon="-4.6204611752182245">
        <ele>816.18</ele>
        <time>2025-02-10T17:01:24.695Z</time>
      </trkpt>
      <trkpt lat="41.744027165696025" lon="-4.620204856619239">
        <ele>816.45</ele>
        <time>2025-02-10T17:01:26.016Z</time>
      </trkpt>
      <trkpt lat="41.74403906799853" lon="-4.620177447795868">
        <ele>816.68</ele>
        <time>2025-02-10T17:01:27.337Z</time>
      </trkpt>
      <trkpt lat="41.74403965473175" lon="-4.6201761066913605">
        <ele>816.9</ele>
        <time>2025-02-10T17:01:28.658Z</time>
      </trkpt>
      <trkpt lat="41.74404099583626" lon="-4.62017317302525">
        <ele>817.1</ele>
        <time>2025-02-10T17:01:29.979Z</time>
      </trkpt>
      <trkpt lat="41.744052562862635" lon="-4.620146686211228">
        <ele>817.29</ele>
        <time>2025-02-10T17:01:31.301Z</time>
      </trkpt>
      <trkpt lat="41.74406396225095" lon="-4.620120534673333">
        <ele>817.47</ele>
        <time>2025-02-10T17:01:32.623Z</time>
      </trkpt>
      <trkpt lat="41.74407418817282" lon="-4.620096981525421">
        <ele>817.64</ele>
        <time>2025-02-10T17:01:33.945Z</time>
      </trkpt>
      <trkpt lat="41.7440749425441" lon="-4.620095305144787">
        <ele>817.8</ele>
        <time>2025-02-10T17:01:35.267Z</time>
      </trkpt>
      <trkpt lat="41.74429580569267" lon="-4.619795233011246">
        <ele>817.94</ele>
        <time>2025-02-10T17:01:36.596Z</time>
      </trkpt>
      <trkpt lat="41.744311563670635" lon="-4.619773523882031">
        <ele>818.07</ele>
        <time>2025-02-10T17:01:37.925Z</time>
      </trkpt>
      <trkpt lat="41.74432841129601" lon="-4.619750557467341">
        <ele>818.19</ele>
        <time>2025-02-10T17:01:39.255Z</time>
      </trkpt>
      <trkpt lat="41.74432924948633" lon="-4.619749551638961">
        <ele>818.29</ele>
        <time>2025-02-10T17:01:40.585Z</time>
      </trkpt>
      <trkpt lat="41.744331093505025" lon="-4.619747120887041">
        <ele>818.39</ele>
        <time>2025-02-10T17:01:41.915Z</time>
      </trkpt>
      <trkpt lat="41.74434743821621" lon="-4.619724992662668">
        <ele>818.47</ele>
        <time>2025-02-10T17:01:43.245Z</time>
      </trkpt>
      <trkpt lat="41.74436361528933" lon="-4.6197031158953905">
        <ele>818.54</ele>
        <time>2025-02-10T17:01:44.576Z</time>
      </trkpt>
      <trkpt lat="41.74436906352639" lon="-4.619711497798562">
        <ele>818.61</ele>
        <time>2025-02-10T17:01:45.907Z</time>
      </trkpt>
      <trkpt lat="41.7444634437561" lon="-4.619600772857666">
        <ele>818.67</ele>
        <time>2025-02-10T17:01:47.240Z</time>
      </trkpt>
      <trkpt lat="41.744591016322374" lon="-4.619417292997241">
        <ele>818.7</ele>
        <time>2025-02-10T17:01:48.577Z</time>
      </trkpt>
      <trkpt lat="41.74466787837446" lon="-4.6193064004182816">
        <ele>818.73</ele>
        <time>2025-02-10T17:01:49.916Z</time>
      </trkpt>
      <trkpt lat="41.744684306904674" lon="-4.6192828472703695">
        <ele>818.76</ele>
        <time>2025-02-10T17:01:51.256Z</time>
      </trkpt>
      <trkpt lat="41.74468514509499" lon="-4.619281757622957">
        <ele>818.79</ele>
        <time>2025-02-10T17:01:52.596Z</time>
      </trkpt>
      <trkpt lat="41.74468690529466" lon="-4.619279243052006">
        <ele>818.81</ele>
        <time>2025-02-10T17:01:53.936Z</time>
      </trkpt>
      <trkpt lat="41.74470283091068" lon="-4.619256528094411">
        <ele>818.83</ele>
        <time>2025-02-10T17:01:55.276Z</time>
      </trkpt>
      <trkpt lat="41.74471850506961" lon="-4.619234064593911">
        <ele>818.85</ele>
        <time>2025-02-10T17:01:56.617Z</time>
      </trkpt>
      <trkpt lat="41.74480676651001" lon="-4.619107246398926">
        <ele>818.87</ele>
        <time>2025-02-10T17:01:57.960Z</time>
      </trkpt>
      <trkpt lat="41.74485571682453" lon="-4.619083274155855">
        <ele>818.9</ele>
        <time>2025-02-10T17:01:59.304Z</time>
      </trkpt>
      <trkpt lat="41.74487851560116" lon="-4.619072210043669">
        <ele>818.92</ele>
        <time>2025-02-10T17:02:00.649Z</time>
      </trkpt>
      <trkpt lat="41.74487960524857" lon="-4.6190717071294785">
        <ele>818.94</ele>
        <time>2025-02-10T17:02:01.994Z</time>
      </trkpt>
      <trkpt lat="41.74488203600049" lon="-4.619070617482066">
        <ele>818.96</ele>
        <time>2025-02-10T17:02:03.339Z</time>
      </trkpt>
      <trkpt lat="41.74490416422486" lon="-4.619059972465038">
        <ele>818.99</ele>
        <time>2025-02-10T17:02:04.684Z</time>
      </trkpt>
      <trkpt lat="41.74492604099214" lon="-4.619049411267042">
        <ele>819.03</ele>
        <time>2025-02-10T17:02:06.030Z</time>
      </trkpt>
      <trkpt lat="41.74522016197443" lon="-4.618906751275063">
        <ele>819.08</ele>
        <time>2025-02-10T17:02:07.382Z</time>
      </trkpt>
      <trkpt lat="41.74547463655472" lon="-4.618783202022314">
        <ele>819.04</ele>
        <time>2025-02-10T17:02:08.740Z</time>
      </trkpt>
      <trkpt lat="41.74549768678844" lon="-4.618772054091096">
        <ele>819.08</ele>
        <time>2025-02-10T17:02:10.098Z</time>
      </trkpt>
      <trkpt lat="41.74549877643585" lon="-4.618771551176906">
        <ele>819.13</ele>
        <time>2025-02-10T17:02:11.456Z</time>
      </trkpt>
      <trkpt lat="41.74550120718777" lon="-4.618770461529493">
        <ele>819.19</ele>
        <time>2025-02-10T17:02:12.814Z</time>
      </trkpt>
      <trkpt lat="41.74551486968994" lon="-4.6187639236450195">
        <ele>819.25</ele>
        <time>2025-02-10T17:02:14.172Z</time>
      </trkpt>
      <trkpt lat="41.7455240059644" lon="-4.6187656838446856">
        <ele>819.32</ele>
        <time>2025-02-10T17:02:15.531Z</time>
      </trkpt>
      <trkpt lat="41.74554697237909" lon="-4.618770377710462">
        <ele>819.4</ele>
        <time>2025-02-10T17:02:16.890Z</time>
      </trkpt>
      <trkpt lat="41.74562215805054" lon="-4.618785381317139">
        <ele>819.5</ele>
        <time>2025-02-10T17:02:18.251Z</time>
      </trkpt>
      <trkpt lat="41.74578292295337" lon="-4.618903314694762">
        <ele>819.68</ele>
        <time>2025-02-10T17:02:19.615Z</time>
      </trkpt>
      <trkpt lat="41.745944023132324" lon="-4.619021415710449">
        <ele>819.83</ele>
        <time>2025-02-10T17:02:20.983Z</time>
      </trkpt>
      <trkpt lat="41.746201515197754" lon="-4.619171619415283">
        <ele>819.94</ele>
        <time>2025-02-10T17:02:22.357Z</time>
      </trkpt>
      <trkpt lat="41.7463234718889" lon="-4.619217971339822">
        <ele>820.04</ele>
        <time>2025-02-10T17:02:23.733Z</time>
      </trkpt>
      <trkpt lat="41.74634694121778" lon="-4.619226939976215">
        <ele>820.14</ele>
        <time>2025-02-10T17:02:25.110Z</time>
      </trkpt>
      <trkpt lat="41.74634803086519" lon="-4.619227359071374">
        <ele>820.24</ele>
        <time>2025-02-10T17:02:26.487Z</time>
      </trkpt>
      <trkpt lat="41.746350545436144" lon="-4.6192283648997545">
        <ele>820.34</ele>
        <time>2025-02-10T17:02:27.864Z</time>
      </trkpt>
      <trkpt lat="41.74637326039374" lon="-4.619237082079053">
        <ele>820.44</ele>
        <time>2025-02-10T17:02:29.241Z</time>
      </trkpt>
      <trkpt lat="41.7463958915323" lon="-4.61924571543932">
        <ele>820.54</ele>
        <time>2025-02-10T17:02:30.619Z</time>
      </trkpt>
      <trkpt lat="41.746652126312256" lon="-4.619343280792236">
        <ele>820.66</ele>
        <time>2025-02-10T17:02:32.002Z</time>
      </trkpt>
      <trkpt lat="41.74673795700073" lon="-4.619321823120117">
        <ele>820.73</ele>
        <time>2025-02-10T17:02:33.387Z</time>
      </trkpt>
      <trkpt lat="41.74700936302543" lon="-4.6193635649979115">
        <ele>820.87</ele>
        <time>2025-02-10T17:02:34.777Z</time>
      </trkpt>
      <trkpt lat="41.747206170111895" lon="-4.619393656030297">
        <ele>821.02</ele>
        <time>2025-02-10T17:02:36.171Z</time>
      </trkpt>
      <trkpt lat="41.747230561450124" lon="-4.6193974278867245">
        <ele>821.12</ele>
        <time>2025-02-10T17:02:37.566Z</time>
      </trkpt>
      <trkpt lat="41.74723173491657" lon="-4.61939767934382">
        <ele>821.21</ele>
        <time>2025-02-10T17:02:38.961Z</time>
      </trkpt>
      <trkpt lat="41.74723424948752" lon="-4.619398098438978">
        <ele>821.29</ele>
        <time>2025-02-10T17:02:40.356Z</time>
      </trkpt>
      <trkpt lat="41.747257970273495" lon="-4.619401786476374">
        <ele>821.38</ele>
        <time>2025-02-10T17:02:41.751Z</time>
      </trkpt>
      <trkpt lat="41.74728152342141" lon="-4.619405474513769">
        <ele>821.47</ele>
        <time>2025-02-10T17:02:43.147Z</time>
      </trkpt>
      <trkpt lat="41.74729585647583" lon="-4.619407653808594">
        <ele>821.56</ele>
        <time>2025-02-10T17:02:44.543Z</time>
      </trkpt>
      <trkpt lat="41.7473924998194" lon="-4.619391476735473">
        <ele>821.67</ele>
        <time>2025-02-10T17:02:45.941Z</time>
      </trkpt>
      <trkpt lat="41.747416807338595" lon="-4.61938745342195">
        <ele>821.75</ele>
        <time>2025-02-10T17:02:47.339Z</time>
      </trkpt>
      <trkpt lat="41.74741789698601" lon="-4.619387285783887">
        <ele>821.85</ele>
        <time>2025-02-10T17:02:48.737Z</time>
      </trkpt>
      <trkpt lat="41.74742049537599" lon="-4.619386866688728">
        <ele>821.95</ele>
        <time>2025-02-10T17:02:50.135Z</time>
      </trkpt>
      <trkpt lat="41.747424602508545" lon="-4.619386196136475">
        <ele>822.05</ele>
        <time>2025-02-10T17:02:51.534Z</time>
      </trkpt>
      <trkpt lat="41.747444132342935" lon="-4.619388375431299">
        <ele>822.16</ele>
        <time>2025-02-10T17:02:52.933Z</time>
      </trkpt>
      <trkpt lat="41.74746751785278" lon="-4.619390973821282">
        <ele>822.29</ele>
        <time>2025-02-10T17:02:54.332Z</time>
      </trkpt>
      <trkpt lat="41.74761780537665" lon="-4.619407653808594">
        <ele>822.38</ele>
        <time>2025-02-10T17:02:55.734Z</time>
      </trkpt>
      <trkpt lat="41.74764521420002" lon="-4.619389129802585">
        <ele>822.53</ele>
        <time>2025-02-10T17:02:57.137Z</time>
      </trkpt>
      <trkpt lat="41.7476670909673" lon="-4.6193744614720345">
        <ele>822.7</ele>
        <time>2025-02-10T17:02:58.541Z</time>
      </trkpt>
      <trkpt lat="41.74766809679568" lon="-4.6193738747388124">
        <ele>822.89</ele>
        <time>2025-02-10T17:02:59.945Z</time>
      </trkpt>
      <trkpt lat="41.747670443728566" lon="-4.619372365996242">
        <ele>823.11</ele>
        <time>2025-02-10T17:03:01.349Z</time>
      </trkpt>
      <trkpt lat="41.74769164994359" lon="-4.619358284398913">
        <ele>823.34</ele>
        <time>2025-02-10T17:03:02.753Z</time>
      </trkpt>
      <trkpt lat="41.74771268852055" lon="-4.619344286620617">
        <ele>823.59</ele>
        <time>2025-02-10T17:03:04.158Z</time>
      </trkpt>
      <trkpt lat="41.74771268852055" lon="-4.619344370439649">
        <ele>823.88</ele>
        <time>2025-02-10T17:03:05.563Z</time>
      </trkpt>
      <trkpt lat="41.74774646759033" lon="-4.619321823120117">
        <ele>824.18</ele>
        <time>2025-02-10T17:03:06.968Z</time>
      </trkpt>
      <trkpt lat="41.74774009734392" lon="-4.619311345741153">
        <ele>824.54</ele>
        <time>2025-02-10T17:03:08.373Z</time>
      </trkpt>
      <trkpt lat="41.74772484228015" lon="-4.619285864755511">
        <ele>824.94</ele>
        <time>2025-02-10T17:03:09.779Z</time>
      </trkpt>
      <trkpt lat="41.747724087908864" lon="-4.6192846074700356">
        <ele>825.34</ele>
        <time>2025-02-10T17:03:11.185Z</time>
      </trkpt>
      <trkpt lat="41.74772249534726" lon="-4.619281925261021">
        <ele>825.77</ele>
        <time>2025-02-10T17:03:12.591Z</time>
      </trkpt>
      <trkpt lat="41.74770765937865" lon="-4.619257282465696">
        <ele>826.25</ele>
        <time>2025-02-10T17:03:13.998Z</time>
      </trkpt>
      <trkpt lat="41.74769307486713" lon="-4.619232891127467">
        <ele>826.75</ele>
        <time>2025-02-10T17:03:15.405Z</time>
      </trkpt>
      <trkpt lat="41.747682094573975" lon="-4.6192145347595215">
        <ele>827.27</ele>
        <time>2025-02-10T17:03:16.812Z</time>
      </trkpt>
      <trkpt lat="41.747682094573975" lon="-4.619079753756523">
        <ele>827.89</ele>
        <time>2025-02-10T17:03:18.221Z</time>
      </trkpt>
      <trkpt lat="41.747682094573975" lon="-4.619047315791249">
        <ele>828.46</ele>
        <time>2025-02-10T17:03:19.631Z</time>
      </trkpt>
      <trkpt lat="41.747682094573975" lon="-4.619045723229647">
        <ele>829.03</ele>
        <time>2025-02-10T17:03:21.041Z</time>
      </trkpt>
      <trkpt lat="41.747682094573975" lon="-4.619042286649346">
        <ele>829.62</ele>
        <time>2025-02-10T17:03:22.451Z</time>
      </trkpt>
      <trkpt lat="41.747682094573975" lon="-4.6190110221505165">
        <ele>830.23</ele>
        <time>2025-02-10T17:03:23.861Z</time>
      </trkpt>
      <trkpt lat="41.747682094573975" lon="-4.618980176746845">
        <ele>830.85</ele>
        <time>2025-02-10T17:03:25.272Z</time>
      </trkpt>
      <trkpt lat="41.747682094573975" lon="-4.618828296661377">
        <ele>831.58</ele>
        <time>2025-02-10T17:03:26.685Z</time>
      </trkpt>
      <trkpt lat="41.747725177556276" lon="-4.61872729472816">
        <ele>832.28</ele>
        <time>2025-02-10T17:03:28.100Z</time>
      </trkpt>
      <trkpt lat="41.747737331315875" lon="-4.618698880076408">
        <ele>832.92</ele>
        <time>2025-02-10T17:03:29.515Z</time>
      </trkpt>
      <trkpt lat="41.7477379180491" lon="-4.618697622790933">
        <ele>833.53</ele>
        <time>2025-02-10T17:03:30.930Z</time>
      </trkpt>
      <trkpt lat="41.747739259153605" lon="-4.618694605305791">
        <ele>834.14</ele>
        <time>2025-02-10T17:03:32.345Z</time>
      </trkpt>
      <trkpt lat="41.747750993818045" lon="-4.618667364120483">
        <ele>834.76</ele>
        <time>2025-02-10T17:03:33.761Z</time>
      </trkpt>
      <trkpt lat="41.74776264466345" lon="-4.618640290573239">
        <ele>835.36</ele>
        <time>2025-02-10T17:03:35.177Z</time>
      </trkpt>
      <trkpt lat="41.74781084060669" lon="-4.618527889251709">
        <ele>836.0</ele>
        <time>2025-02-10T17:03:36.595Z</time>
      </trkpt>
      <trkpt lat="41.74783104099333" lon="-4.618419175967574">
        <ele>836.61</ele>
        <time>2025-02-10T17:03:38.015Z</time>
      </trkpt>
      <trkpt lat="41.747836992144585" lon="-4.618387408554554">
        <ele>837.15</ele>
        <time>2025-02-10T17:03:39.435Z</time>
      </trkpt>
      <trkpt lat="41.74783732742071" lon="-4.618385983631015">
        <ele>837.64</ele>
        <time>2025-02-10T17:03:40.855Z</time>
      </trkpt>
      <trkpt lat="41.747837997972965" lon="-4.618382630869746">
        <ele>838.09</ele>
        <time>2025-02-10T17:03:42.276Z</time>
      </trkpt>
      <trkpt lat="41.747843781486154" lon="-4.618352120742202">
        <ele>838.54</ele>
        <time>2025-02-10T17:03:43.697Z</time>
      </trkpt>
      <trkpt lat="41.74784948118031" lon="-4.618321945890784">
        <ele>838.95</ele>
        <time>2025-02-10T17:03:45.118Z</time>
      </trkpt>
      <trkpt lat="41.74787521362305" lon="-4.618184566497803">
        <ele>839.4</ele>
        <time>2025-02-10T17:03:46.542Z</time>
      </trkpt>
      <trkpt lat="41.74787521362305" lon="-4.617916597053409">
        <ele>839.9</ele>
        <time>2025-02-10T17:03:47.970Z</time>
      </trkpt>
      <trkpt lat="41.74787521362305" lon="-4.617884159088135">
        <ele>840.18</ele>
        <time>2025-02-10T17:03:49.398Z</time>
      </trkpt>
      <trkpt lat="41.74787538126111" lon="-4.617883404716849">
        <ele>840.39</ele>
        <time>2025-02-10T17:03:50.826Z</time>
      </trkpt>
      <trkpt lat="41.74787630327046" lon="-4.617880135774612">
        <ele>840.56</ele>
        <time>2025-02-10T17:03:52.254Z</time>
      </trkpt>
      <trkpt lat="41.74788476899266" lon="-4.6178503800183535">
        <ele>840.69</ele>
        <time>2025-02-10T17:03:53.683Z</time>
      </trkpt>
      <trkpt lat="41.747893234714866" lon="-4.617821043357253">
        <ele>840.78</ele>
        <time>2025-02-10T17:03:55.112Z</time>
      </trkpt>
      <trkpt lat="41.74796104431152" lon="-4.617583751678467">
        <ele>840.8</ele>
        <time>2025-02-10T17:03:56.545Z</time>
      </trkpt>
      <trkpt lat="41.748175621032715" lon="-4.617326259613037">
        <ele>840.57</ele>
        <time>2025-02-10T17:03:57.984Z</time>
      </trkpt>
      <trkpt lat="41.74828399904072" lon="-4.6170625649392605">
        <ele>840.39</ele>
        <time>2025-02-10T17:03:59.427Z</time>
      </trkpt>
      <trkpt lat="41.748295817524195" lon="-4.617034066468477">
        <ele>840.31</ele>
        <time>2025-02-10T17:04:00.871Z</time>
      </trkpt>
      <trkpt lat="41.74829640425742" lon="-4.61703272536397">
        <ele>840.23</ele>
        <time>2025-02-10T17:04:02.315Z</time>
      </trkpt>
      <trkpt lat="41.74829766154289" lon="-4.617029707878828">
        <ele>840.13</ele>
        <time>2025-02-10T17:04:03.759Z</time>
      </trkpt>
      <trkpt lat="41.748309060931206" lon="-4.617002131417394">
        <ele>839.99</ele>
        <time>2025-02-10T17:04:05.203Z</time>
      </trkpt>
      <trkpt lat="41.748320292681456" lon="-4.616974890232086">
        <ele>839.85</ele>
        <time>2025-02-10T17:04:06.648Z</time>
      </trkpt>
      <trkpt lat="41.74832582473755" lon="-4.616961479187012">
        <ele>839.72</ele>
        <time>2025-02-10T17:04:08.093Z</time>
      </trkpt>
      <trkpt lat="41.74841173924506" lon="-4.616639614105225">
        <ele>839.57</ele>
        <time>2025-02-10T17:04:09.543Z</time>
      </trkpt>
      <trkpt lat="41.748465383425355" lon="-4.616403076797724">
        <ele>839.42</ele>
        <time>2025-02-10T17:04:10.997Z</time>
      </trkpt>
      <trkpt lat="41.748512824997306" lon="-4.616194367408752">
        <ele>839.33</ele>
        <time>2025-02-10T17:04:12.454Z</time>
      </trkpt>
      <trkpt lat="41.74851894378662" lon="-4.6161675453186035">
        <ele>839.21</ele>
        <time>2025-02-10T17:04:13.911Z</time>
      </trkpt>
      <trkpt lat="41.74851927906275" lon="-4.616163019090891">
        <ele>839.09</ele>
        <time>2025-02-10T17:04:15.368Z</time>
      </trkpt>
      <trkpt lat="41.74851944670081" lon="-4.61616151034832">
        <ele>838.98</ele>
        <time>2025-02-10T17:04:16.826Z</time>
      </trkpt>
      <trkpt lat="41.74851978197694" lon="-4.61615807376802">
        <ele>838.88</ele>
        <time>2025-02-10T17:04:18.284Z</time>
      </trkpt>
      <trkpt lat="41.74852288328111" lon="-4.616126390174031">
        <ele>838.8</ele>
        <time>2025-02-10T17:04:19.742Z</time>
      </trkpt>
      <trkpt lat="41.748525984585285" lon="-4.616095125675201">
        <ele>838.74</ele>
        <time>2025-02-10T17:04:21.201Z</time>
      </trkpt>
      <trkpt lat="41.748525984585285" lon="-4.61609504185617">
        <ele>838.69</ele>
        <time>2025-02-10T17:04:22.660Z</time>
      </trkpt>
      <trkpt lat="41.748554734513164" lon="-4.61579798720777">
        <ele>838.76</ele>
        <time>2025-02-10T17:04:24.123Z</time>
      </trkpt>
      <trkpt lat="41.74858340062201" lon="-4.61550235748291">
        <ele>838.79</ele>
        <time>2025-02-10T17:04:25.590Z</time>
      </trkpt>
      <trkpt lat="41.74858340062201" lon="-4.615373611450195">
        <ele>838.79</ele>
        <time>2025-02-10T17:04:27.059Z</time>
      </trkpt>
      <trkpt lat="41.74858340062201" lon="-4.615051746368408">
        <ele>838.75</ele>
        <time>2025-02-10T17:04:28.533Z</time>
      </trkpt>
      <trkpt lat="41.74858482554555" lon="-4.615045627579093">
        <ele>838.78</ele>
        <time>2025-02-10T17:04:30.007Z</time>
      </trkpt>
      <trkpt lat="41.7485926207155" lon="-4.615014279261231">
        <ele>838.84</ele>
        <time>2025-02-10T17:04:31.482Z</time>
      </trkpt>
      <trkpt lat="41.74859303981066" lon="-4.6150127705186605">
        <ele>838.92</ele>
        <time>2025-02-10T17:04:32.957Z</time>
      </trkpt>
      <trkpt lat="41.748593878000975" lon="-4.615009501576424">
        <ele>839.03</ele>
        <time>2025-02-10T17:04:34.432Z</time>
      </trkpt>
      <trkpt lat="41.74860142171383" lon="-4.614979242905974">
        <ele>839.16</ele>
        <time>2025-02-10T17:04:35.907Z</time>
      </trkpt>
      <trkpt lat="41.74860896542668" lon="-4.614949319511652">
        <ele>839.31</ele>
        <time>2025-02-10T17:04:37.383Z</time>
      </trkpt>
      <trkpt lat="41.74860896542668" lon="-4.61494923569262">
        <ele>839.49</ele>
        <time>2025-02-10T17:04:38.859Z</time>
      </trkpt>
      <trkpt lat="41.74862623214722" lon="-4.614880084991455">
        <ele>839.69</ele>
        <time>2025-02-10T17:04:40.336Z</time>
      </trkpt>
      <trkpt lat="41.74875506199896" lon="-4.6146440505981445">
        <ele>839.95</ele>
        <time>2025-02-10T17:04:41.817Z</time>
      </trkpt>
      <trkpt lat="41.748783057555556" lon="-4.614517064765096">
        <ele>840.21</ele>
        <time>2025-02-10T17:04:43.300Z</time>
      </trkpt>
      <trkpt lat="41.74879001453519" lon="-4.614485632628202">
        <ele>840.49</ele>
        <time>2025-02-10T17:04:44.784Z</time>
      </trkpt>
      <trkpt lat="41.74879043363035" lon="-4.614484123885632">
        <ele>840.8</ele>
        <time>2025-02-10T17:04:46.268Z</time>
      </trkpt>
      <trkpt lat="41.74879118800163" lon="-4.614480854943395">
        <ele>841.12</ele>
        <time>2025-02-10T17:04:47.752Z</time>
      </trkpt>
      <trkpt lat="41.7487979773432" lon="-4.614450428634882">
        <ele>841.48</ele>
        <time>2025-02-10T17:04:49.236Z</time>
      </trkpt>
      <trkpt lat="41.74880468286574" lon="-4.614420421421528">
        <ele>841.85</ele>
        <time>2025-02-10T17:04:50.721Z</time>
      </trkpt>
      <trkpt lat="41.74880468286574" lon="-4.614420337602496">
        <ele>842.24</ele>
        <time>2025-02-10T17:04:52.206Z</time>
      </trkpt>
      <trkpt lat="41.74884089268744" lon="-4.6142578125">
        <ele>842.68</ele>
        <time>2025-02-10T17:04:53.693Z</time>
      </trkpt>
      <trkpt lat="41.74886235035956" lon="-4.613978862762451">
        <ele>843.22</ele>
        <time>2025-02-10T17:04:55.185Z</time>
      </trkpt>
      <trkpt lat="41.74883351661265" lon="-4.613758586347103">
        <ele>843.72</ele>
        <time>2025-02-10T17:04:56.680Z</time>
      </trkpt>
      <trkpt lat="41.74881775863469" lon="-4.613638808950782">
        <ele>844.21</ele>
        <time>2025-02-10T17:04:58.177Z</time>
      </trkpt>
      <trkpt lat="41.7488135676831" lon="-4.61360645480454">
        <ele>844.66</ele>
        <time>2025-02-10T17:04:59.674Z</time>
      </trkpt>
      <trkpt lat="41.74881340004504" lon="-4.613604862242937">
        <ele>845.11</ele>
        <time>2025-02-10T17:05:01.171Z</time>
      </trkpt>
      <trkpt lat="41.74881298094988" lon="-4.6136015094816685">
        <ele>845.57</ele>
        <time>2025-02-10T17:05:02.668Z</time>
      </trkpt>
      <trkpt lat="41.748808957636356" lon="-4.613570244982839">
        <ele>846.03</ele>
        <time>2025-02-10T17:05:04.166Z</time>
      </trkpt>
      <trkpt lat="41.748804934322834" lon="-4.613539399579167">
        <ele>846.49</ele>
        <time>2025-02-10T17:05:05.664Z</time>
      </trkpt>
      <trkpt lat="41.7487979773432" lon="-4.613485336303711">
        <ele>846.96</ele>
        <time>2025-02-10T17:05:07.163Z</time>
      </trkpt>
      <trkpt lat="41.7487548943609" lon="-4.613270256668329">
        <ele>847.44</ele>
        <time>2025-02-10T17:05:08.665Z</time>
      </trkpt>
      <trkpt lat="41.74873159267008" lon="-4.613153915852308">
        <ele>847.93</ele>
        <time>2025-02-10T17:05:10.169Z</time>
      </trkpt>
      <trkpt lat="41.74872522242367" lon="-4.613122064620256">
        <ele>848.37</ele>
        <time>2025-02-10T17:05:11.674Z</time>
      </trkpt>
      <trkpt lat="41.74872497096658" lon="-4.6131205558776855">
        <ele>848.79</ele>
        <time>2025-02-10T17:05:13.179Z</time>
      </trkpt>
      <trkpt lat="41.748724300414324" lon="-4.613117203116417">
        <ele>849.2</ele>
        <time>2025-02-10T17:05:14.684Z</time>
      </trkpt>
      <trkpt lat="41.74871818162501" lon="-4.613086441531777">
        <ele>849.61</ele>
        <time>2025-02-10T17:05:16.189Z</time>
      </trkpt>
      <trkpt lat="41.748712146654725" lon="-4.613056182861328">
        <ele>849.99</ele>
        <time>2025-02-10T17:05:17.695Z</time>
      </trkpt>
      <trkpt lat="41.74871206283569" lon="-4.613056182861328">
        <ele>850.36</ele>
        <time>2025-02-10T17:05:19.201Z</time>
      </trkpt>
      <trkpt lat="41.748712146654725" lon="-4.613056182861328">
        <ele>849.99</ele>
        <time>2025-02-10T17:05:20.707Z</time>
      </trkpt>
      <trkpt lat="41.74866906367242" lon="-4.612726354971528">
        <ele>851.14</ele>
        <time>2025-02-10T17:05:22.218Z</time>
      </trkpt>
      <trkpt lat="41.74862606450915" lon="-4.61239661090076">
        <ele>851.51</ele>
        <time>2025-02-10T17:05:23.734Z</time>
      </trkpt>
      <trkpt lat="41.74858331680298" lon="-4.612069129943848">
        <ele>851.79</ele>
        <time>2025-02-10T17:05:25.255Z</time>
      </trkpt>
      <trkpt lat="41.74850712530315" lon="-4.6118647791445255">
        <ele>852.01</ele>
        <time>2025-02-10T17:05:26.779Z</time>
      </trkpt>
      <trkpt lat="41.74846504814923" lon="-4.611752042546868">
        <ele>852.26</ele>
        <time>2025-02-10T17:05:28.305Z</time>
      </trkpt>
      <trkpt lat="41.74845406785607" lon="-4.611722454428673">
        <ele>852.51</ele>
        <time>2025-02-10T17:05:29.831Z</time>
      </trkpt>
      <trkpt lat="41.74845356494188" lon="-4.611721029505134">
        <ele>852.75</ele>
        <time>2025-02-10T17:05:31.357Z</time>
      </trkpt>
      <trkpt lat="41.74845239147544" lon="-4.61171792820096">
        <ele>852.97</ele>
        <time>2025-02-10T17:05:32.884Z</time>
      </trkpt>
      <trkpt lat="41.74844174645841" lon="-4.611689345911145">
        <ele>853.17</ele>
        <time>2025-02-10T17:05:34.411Z</time>
      </trkpt>
      <trkpt lat="41.74843126907945" lon="-4.611661098897457">
        <ele>853.36</ele>
        <time>2025-02-10T17:05:35.938Z</time>
      </trkpt>
      <trkpt lat="41.74829623661935" lon="-4.6112987492233515">
        <ele>853.56</ele>
        <time>2025-02-10T17:05:37.472Z</time>
      </trkpt>
      <trkpt lat="41.74816128797829" lon="-4.6109364833682775">
        <ele>853.8</ele>
        <time>2025-02-10T17:05:39.012Z</time>
      </trkpt>
      <trkpt lat="41.74802633933723" lon="-4.610574217513204">
        <ele>853.97</ele>
        <time>2025-02-10T17:05:40.558Z</time>
      </trkpt>
      <trkpt lat="41.74789139069617" lon="-4.61021195165813">
        <ele>854.12</ele>
        <time>2025-02-10T17:05:42.110Z</time>
      </trkpt>
      <trkpt lat="41.747756442055106" lon="-4.609849685803056">
        <ele>854.26</ele>
        <time>2025-02-10T17:05:43.668Z</time>
      </trkpt>
      <trkpt lat="41.747621493414044" lon="-4.609487419947982">
        <ele>854.35</ele>
        <time>2025-02-10T17:05:45.232Z</time>
      </trkpt>
      <trkpt lat="41.74756307154894" lon="-4.609330762177706">
        <ele>854.42</ele>
        <time>2025-02-10T17:05:46.798Z</time>
      </trkpt>
      <trkpt lat="41.747552091255784" lon="-4.60930117405951">
        <ele>854.49</ele>
        <time>2025-02-10T17:05:48.365Z</time>
      </trkpt>
      <trkpt lat="41.747551588341594" lon="-4.609299749135971">
        <ele>854.55</ele>
        <time>2025-02-10T17:05:49.932Z</time>
      </trkpt>
      <trkpt lat="41.74755041487515" lon="-4.609296647831798">
        <ele>854.6</ele>
        <time>2025-02-10T17:05:51.499Z</time>
      </trkpt>
      <trkpt lat="41.74753976985812" lon="-4.609268065541983">
        <ele>854.64</ele>
        <time>2025-02-10T17:05:53.067Z</time>
      </trkpt>
      <trkpt lat="41.74752929247916" lon="-4.609239818528295">
        <ele>854.67</ele>
        <time>2025-02-10T17:05:54.635Z</time>
      </trkpt>
      <trkpt lat="41.74748654477298" lon="-4.609125154092908">
        <ele>854.7</ele>
        <time>2025-02-10T17:05:56.205Z</time>
      </trkpt>
      <trkpt lat="41.74735159613192" lon="-4.608762888237834">
        <ele>854.7</ele>
        <time>2025-02-10T17:05:57.781Z</time>
      </trkpt>
      <trkpt lat="41.74721664749086" lon="-4.60840062238276">
        <ele>854.76</ele>
        <time>2025-02-10T17:05:59.363Z</time>
      </trkpt>
      <trkpt lat="41.7470816988498" lon="-4.608038356527686">
        <ele>854.7</ele>
        <time>2025-02-10T17:06:00.951Z</time>
      </trkpt>
      <trkpt lat="41.746946750208735" lon="-4.607676090672612">
        <ele>854.65</ele>
        <time>2025-02-10T17:06:02.545Z</time>
      </trkpt>
      <trkpt lat="41.746811801567674" lon="-4.607313824817538">
        <ele>854.68</ele>
        <time>2025-02-10T17:06:04.145Z</time>
      </trkpt>
      <trkpt lat="41.74667685292661" lon="-4.606951558962464">
        <ele>854.72</ele>
        <time>2025-02-10T17:06:05.751Z</time>
      </trkpt>
      <trkpt lat="41.74654483795166" lon="-4.606597423553467">
        <ele>854.68</ele>
        <time>2025-02-10T17:06:07.363Z</time>
      </trkpt>
      <trkpt lat="41.746431179344654" lon="-4.606259632855654">
        <ele>854.74</ele>
        <time>2025-02-10T17:06:08.981Z</time>
      </trkpt>
      <trkpt lat="41.74631760455668" lon="-4.605921842157841">
        <ele>854.82</ele>
        <time>2025-02-10T17:06:10.604Z</time>
      </trkpt>
      <trkpt lat="41.746203945949674" lon="-4.605584051460028">
        <ele>854.87</ele>
        <time>2025-02-10T17:06:12.233Z</time>
      </trkpt>
      <trkpt lat="41.7460903711617" lon="-4.605246344581246">
        <ele>854.93</ele>
        <time>2025-02-10T17:06:13.867Z</time>
      </trkpt>
      <trkpt lat="41.74597671255469" lon="-4.604908553883433">
        <ele>854.98</ele>
        <time>2025-02-10T17:06:15.507Z</time>
      </trkpt>
      <trkpt lat="41.74586313776672" lon="-4.60457076318562">
        <ele>855.01</ele>
        <time>2025-02-10T17:06:17.152Z</time>
      </trkpt>
      <trkpt lat="41.74575090408325" lon="-4.604237079620361">
        <ele>854.98</ele>
        <time>2025-02-10T17:06:18.803Z</time>
      </trkpt>
      <trkpt lat="41.74564336426556" lon="-4.603855451568961">
        <ele>854.95</ele>
        <time>2025-02-10T17:06:20.460Z</time>
      </trkpt>
      <trkpt lat="41.7455359082669" lon="-4.603473907336593">
        <ele>854.95</ele>
        <time>2025-02-10T17:06:22.123Z</time>
      </trkpt>
      <trkpt lat="41.74542836844921" lon="-4.6030922792851925">
        <ele>854.99</ele>
        <time>2025-02-10T17:06:23.792Z</time>
      </trkpt>
      <trkpt lat="41.74532175064087" lon="-4.602713584899902">
        <ele>855.0</ele>
        <time>2025-02-10T17:06:25.467Z</time>
      </trkpt>
      <trkpt lat="41.74523298628628" lon="-4.602345367893577">
        <ele>855.1</ele>
        <time>2025-02-10T17:06:27.148Z</time>
      </trkpt>
      <trkpt lat="41.74514430575073" lon="-4.601977150887251">
        <ele>855.12</ele>
        <time>2025-02-10T17:06:28.835Z</time>
      </trkpt>
      <trkpt lat="41.74505562521517" lon="-4.601608933880925">
        <ele>855.23</ele>
        <time>2025-02-10T17:06:30.528Z</time>
      </trkpt>
      <trkpt lat="41.74496694467962" lon="-4.601240800693631">
        <ele>855.32</ele>
        <time>2025-02-10T17:06:32.226Z</time>
      </trkpt>
      <trkpt lat="41.74487826414406" lon="-4.6008725836873055">
        <ele>855.34</ele>
        <time>2025-02-10T17:06:33.930Z</time>
      </trkpt>
      <trkpt lat="41.74478958360851" lon="-4.60050436668098">
        <ele>855.38</ele>
        <time>2025-02-10T17:06:35.640Z</time>
      </trkpt>
      <trkpt lat="41.74470090307295" lon="-4.600136233493686">
        <ele>855.46</ele>
        <time>2025-02-10T17:06:37.356Z</time>
      </trkpt>
      <trkpt lat="41.74461364746094" lon="-4.59977388381958">
        <ele>855.63</ele>
        <time>2025-02-10T17:06:39.078Z</time>
      </trkpt>
      <trkpt lat="41.744526056572795" lon="-4.599651172757149">
        <ele>855.72</ele>
        <time>2025-02-10T17:06:40.802Z</time>
      </trkpt>
      <trkpt lat="41.74450887367129" lon="-4.599627116695046">
        <ele>855.8</ele>
        <time>2025-02-10T17:06:42.527Z</time>
      </trkpt>
      <trkpt lat="41.744508035480976" lon="-4.599625943228602">
        <ele>855.87</ele>
        <time>2025-02-10T17:06:44.252Z</time>
      </trkpt>
      <trkpt lat="41.74450644291937" lon="-4.599623680114746">
        <ele>855.93</ele>
        <time>2025-02-10T17:06:45.977Z</time>
      </trkpt>
      <trkpt lat="41.74450635910034" lon="-4.599623680114746">
        <ele>855.99</ele>
        <time>2025-02-10T17:06:47.702Z</time>
      </trkpt>
      <trkpt lat="41.74450635910034" lon="-4.599623596295714">
        <ele>856.05</ele>
        <time>2025-02-10T17:06:49.427Z</time>
      </trkpt>
      <trkpt lat="41.74451155588031" lon="-4.599592080339789">
        <ele>856.11</ele>
        <time>2025-02-10T17:06:51.152Z</time>
      </trkpt>
      <trkpt lat="41.744516836479306" lon="-4.599560983479023">
        <ele>856.17</ele>
        <time>2025-02-10T17:06:52.878Z</time>
      </trkpt>
      <trkpt lat="41.7445707321167" lon="-4.599237442016602">
        <ele>856.26</ele>
        <time>2025-02-10T17:06:54.609Z</time>
      </trkpt>
      <trkpt lat="41.744611049070954" lon="-4.598855646327138">
        <ele>856.3</ele>
        <time>2025-02-10T17:06:56.345Z</time>
      </trkpt>
      <trkpt lat="41.74465136602521" lon="-4.598473934456706">
        <ele>856.37</ele>
        <time>2025-02-10T17:06:58.087Z</time>
      </trkpt>
      <trkpt lat="41.744691682979465" lon="-4.598092222586274">
        <ele>856.39</ele>
        <time>2025-02-10T17:06:59.835Z</time>
      </trkpt>
      <trkpt lat="41.74473199993372" lon="-4.597710510715842">
        <ele>856.39</ele>
        <time>2025-02-10T17:07:01.589Z</time>
      </trkpt>
      <trkpt lat="41.744772316887975" lon="-4.597328715026379">
        <ele>856.37</ele>
        <time>2025-02-10T17:07:03.348Z</time>
      </trkpt>
      <trkpt lat="41.74481263384223" lon="-4.596947003155947">
        <ele>856.37</ele>
        <time>2025-02-10T17:07:05.113Z</time>
      </trkpt>
      <trkpt lat="41.744852950796485" lon="-4.596565291285515">
        <ele>856.34</ele>
        <time>2025-02-10T17:07:06.884Z</time>
      </trkpt>
      <trkpt lat="41.744892597198486" lon="-4.596190452575684">
        <ele>856.29</ele>
        <time>2025-02-10T17:07:08.661Z</time>
      </trkpt>
      <trkpt lat="41.74487826414406" lon="-4.595781750977039">
        <ele>856.25</ele>
        <time>2025-02-10T17:07:10.444Z</time>
      </trkpt>
      <trkpt lat="41.74486393108964" lon="-4.595373133197427">
        <ele>856.22</ele>
        <time>2025-02-10T17:07:12.233Z</time>
      </trkpt>
      <trkpt lat="41.74485303461552" lon="-4.595067612826824">
        <ele>856.21</ele>
        <time>2025-02-10T17:07:14.026Z</time>
      </trkpt>
      <trkpt lat="41.744851944968104" lon="-4.595034923404455">
        <ele>856.19</ele>
        <time>2025-02-10T17:07:15.820Z</time>
      </trkpt>
      <trkpt lat="41.744851944968104" lon="-4.595033414661884">
        <ele>856.17</ele>
        <time>2025-02-10T17:07:17.614Z</time>
      </trkpt>
      <trkpt lat="41.74485186114907" lon="-4.595029978081584">
        <ele>856.16</ele>
        <time>2025-02-10T17:07:19.408Z</time>
      </trkpt>
      <trkpt lat="41.74485077150166" lon="-4.594998378306627">
        <ele>856.14</ele>
        <time>2025-02-10T17:07:21.202Z</time>
      </trkpt>
      <trkpt lat="41.74484976567328" lon="-4.594967365264893">
        <ele>856.12</ele>
        <time>2025-02-10T17:07:22.997Z</time>
      </trkpt>
      <trkpt lat="41.74484968185425" lon="-4.594967365264893">
        <ele>856.12</ele>
        <time>2025-02-10T17:07:24.792Z</time>
      </trkpt>
      <trkpt lat="41.74484976567328" lon="-4.594967365264893">
        <ele>856.12</ele>
        <time>2025-02-10T17:07:26.587Z</time>
      </trkpt>
      <trkpt lat="41.744914054870605" lon="-4.594902992248535">
        <ele>856.09</ele>
        <time>2025-02-10T17:07:28.384Z</time>
      </trkpt>
      <trkpt lat="41.744914054870605" lon="-4.594838619232178">
        <ele>856.11</ele>
        <time>2025-02-10T17:07:30.182Z</time>
      </trkpt>
      <trkpt lat="41.744851022958755" lon="-4.594796542078257">
        <ele>856.16</ele>
        <time>2025-02-10T17:07:31.981Z</time>
      </trkpt>
      <trkpt lat="41.74484968185425" lon="-4.5947957038879395">
        <ele>856.18</ele>
        <time>2025-02-10T17:07:33.780Z</time>
      </trkpt>
      <trkpt lat="41.74482830800116" lon="-4.594809198752046">
        <ele>856.23</ele>
        <time>2025-02-10T17:07:35.579Z</time>
      </trkpt>
      <trkpt lat="41.74482730217278" lon="-4.594809869304299">
        <ele>856.27</ele>
        <time>2025-02-10T17:07:37.378Z</time>
      </trkpt>
      <trkpt lat="41.74482495523989" lon="-4.59481137804687">
        <ele>856.32</ele>
        <time>2025-02-10T17:07:39.178Z</time>
      </trkpt>
      <trkpt lat="41.74480299465358" lon="-4.594825375825167">
        <ele>856.38</ele>
        <time>2025-02-10T17:07:40.978Z</time>
      </trkpt>
      <trkpt lat="41.74478128552437" lon="-4.5948392059654">
        <ele>856.45</ele>
        <time>2025-02-10T17:07:42.778Z</time>
      </trkpt>
      <trkpt lat="41.74461364746094" lon="-4.594945907592773">
        <ele>856.51</ele>
        <time>2025-02-10T17:07:44.582Z</time>
      </trkpt>
      <trkpt lat="41.74447417259216" lon="-4.595053112134337">
        <ele>856.59</ele>
        <time>2025-02-10T17:07:46.389Z</time>
      </trkpt>
      <trkpt lat="41.74433469772339" lon="-4.595160484313965">
        <ele>856.69</ele>
        <time>2025-02-10T17:07:48.200Z</time>
      </trkpt>
      <trkpt lat="41.744141494855285" lon="-4.595385789871216">
        <ele>856.79</ele>
        <time>2025-02-10T17:07:50.016Z</time>
      </trkpt>
      <trkpt lat="41.743948459625244" lon="-4.595611095428467">
        <ele>856.88</ele>
        <time>2025-02-10T17:07:51.837Z</time>
      </trkpt>
      <trkpt lat="41.743897665292025" lon="-4.595686784014106">
        <ele>856.97</ele>
        <time>2025-02-10T17:07:53.659Z</time>
      </trkpt>
      <trkpt lat="41.743881069123745" lon="-4.595711678266525">
        <ele>857.07</ele>
        <time>2025-02-10T17:07:55.482Z</time>
      </trkpt>
      <trkpt lat="41.74388031475246" lon="-4.595712935552001">
        <ele>857.16</ele>
        <time>2025-02-10T17:07:57.305Z</time>
      </trkpt>
      <trkpt lat="41.743878638371825" lon="-4.595715533941984">
        <ele>857.25</ele>
        <time>2025-02-10T17:07:59.128Z</time>
      </trkpt>
      <trkpt lat="41.743862545117736" lon="-4.59573975764215">
        <ele>857.35</ele>
        <time>2025-02-10T17:08:00.951Z</time>
      </trkpt>
      <trkpt lat="41.74384661950171" lon="-4.5957637298852205">
        <ele>857.44</ele>
        <time>2025-02-10T17:08:02.775Z</time>
      </trkpt>
      <trkpt lat="41.743762297555804" lon="-4.595890212804079">
        <ele>857.55</ele>
        <time>2025-02-10T17:08:04.601Z</time>
      </trkpt>
      <trkpt lat="41.743576219305396" lon="-4.596169330179691">
        <ele>857.64</ele>
        <time>2025-02-10T17:08:06.433Z</time>
      </trkpt>
      <trkpt lat="41.74339056015015" lon="-4.596447944641113">
        <ele>857.76</ele>
        <time>2025-02-10T17:08:08.271Z</time>
      </trkpt>
      <trkpt lat="41.74338377080858" lon="-4.596462529152632">
        <ele>857.85</ele>
        <time>2025-02-10T17:08:10.109Z</time>
      </trkpt>
      <trkpt lat="41.7433706112206" lon="-4.596491111442447">
        <ele>857.93</ele>
        <time>2025-02-10T17:08:11.947Z</time>
      </trkpt>
      <trkpt lat="41.743370024487376" lon="-4.596492452546954">
        <ele>858.01</ele>
        <time>2025-02-10T17:08:13.785Z</time>
      </trkpt>
      <trkpt lat="41.74336868338287" lon="-4.596495386213064">
        <ele>858.08</ele>
        <time>2025-02-10T17:08:15.623Z</time>
      </trkpt>
      <trkpt lat="41.74335602670908" lon="-4.59652304649353">
        <ele>858.15</ele>
        <time>2025-02-10T17:08:17.462Z</time>
      </trkpt>
      <trkpt lat="41.743343537673354" lon="-4.596550455316901">
        <ele>858.22</ele>
        <time>2025-02-10T17:08:19.301Z</time>
      </trkpt>
      <trkpt lat="41.74323298037052" lon="-4.596791686490178">
        <ele>858.28</ele>
        <time>2025-02-10T17:08:21.145Z</time>
      </trkpt>
      <trkpt lat="41.7430754005909" lon="-4.597135428339243">
        <ele>858.34</ele>
        <time>2025-02-10T17:08:22.995Z</time>
      </trkpt>
      <trkpt lat="41.74306048080325" lon="-4.597167614847422">
        <ele>858.4</ele>
        <time>2025-02-10T17:08:24.845Z</time>
      </trkpt>
      <trkpt lat="41.74304732121527" lon="-4.597196197137237">
        <ele>858.45</ele>
        <time>2025-02-10T17:08:26.696Z</time>
      </trkpt>
      <trkpt lat="41.74304673448205" lon="-4.597197622060776">
        <ele>858.51</ele>
        <time>2025-02-10T17:08:28.547Z</time>
      </trkpt>
      <trkpt lat="41.743045477196574" lon="-4.597200555726886">
        <ele>858.56</ele>
        <time>2025-02-10T17:08:30.398Z</time>
      </trkpt>
      <trkpt lat="41.743032820522785" lon="-4.597228216007352">
        <ele>858.61</ele>
        <time>2025-02-10T17:08:32.249Z</time>
      </trkpt>
      <trkpt lat="41.74302024766803" lon="-4.5972557086497545">
        <ele>858.65</ele>
        <time>2025-02-10T17:08:34.101Z</time>
      </trkpt>
      <trkpt lat="41.742918491363525" lon="-4.597477912902832">
        <ele>858.68</ele>
        <time>2025-02-10T17:08:35.957Z</time>
      </trkpt>
      <trkpt lat="41.74285411834717" lon="-4.59752082824707">
        <ele>858.72</ele>
        <time>2025-02-10T17:08:37.814Z</time>
      </trkpt>
      <trkpt lat="41.74276837147772" lon="-4.597499370574951">
        <ele>858.77</ele>
        <time>2025-02-10T17:08:39.673Z</time>
      </trkpt>
      <trkpt lat="41.7426641844213" lon="-4.597329301759601">
        <ele>858.81</ele>
        <time>2025-02-10T17:08:41.535Z</time>
      </trkpt>
      <trkpt lat="41.742609199136496" lon="-4.597239615395665">
        <ele>858.86</ele>
        <time>2025-02-10T17:08:43.399Z</time>
      </trkpt>
      <trkpt lat="41.74259327352047" lon="-4.597213631495833">
        <ele>858.91</ele>
        <time>2025-02-10T17:08:45.263Z</time>
      </trkpt>
      <trkpt lat="41.742592519149184" lon="-4.597212374210358">
        <ele>858.96</ele>
        <time>2025-02-10T17:08:47.127Z</time>
      </trkpt>
      <trkpt lat="41.74259084276855" lon="-4.597209608182311">
        <ele>859.01</ele>
        <time>2025-02-10T17:08:48.992Z</time>
      </trkpt>
      <trkpt lat="41.742575503885746" lon="-4.597184462472796">
        <ele>859.06</ele>
        <time>2025-02-10T17:08:50.857Z</time>
      </trkpt>
      <trkpt lat="41.742560332641006" lon="-4.597159652039409">
        <ele>859.1</ele>
        <time>2025-02-10T17:08:52.722Z</time>
      </trkpt>
      <trkpt lat="41.74241490662098" lon="-4.596922192722559">
        <ele>859.15</ele>
        <time>2025-02-10T17:08:54.592Z</time>
      </trkpt>
      <trkpt lat="41.742269564419985" lon="-4.596684733405709">
        <ele>859.23</ele>
        <time>2025-02-10T17:08:56.467Z</time>
      </trkpt>
      <trkpt lat="41.74212455749512" lon="-4.596447944641113">
        <ele>859.35</ele>
        <time>2025-02-10T17:08:58.346Z</time>
      </trkpt>
      <trkpt lat="41.74198499880731" lon="-4.596276199445128">
        <ele>859.42</ele>
        <time>2025-02-10T17:09:00.229Z</time>
      </trkpt>
      <trkpt lat="41.74184560775757" lon="-4.596104621887207">
        <ele>859.48</ele>
        <time>2025-02-10T17:09:02.116Z</time>
      </trkpt>
      <trkpt lat="41.741614853963256" lon="-4.595857774838805">
        <ele>859.51</ele>
        <time>2025-02-10T17:09:04.009Z</time>
      </trkpt>
      <trkpt lat="41.741384183987975" lon="-4.595611011609435">
        <ele>859.53</ele>
        <time>2025-02-10T17:09:05.908Z</time>
      </trkpt>
      <trkpt lat="41.741153514012694" lon="-4.595364248380065">
        <ele>859.58</ele>
        <time>2025-02-10T17:09:07.813Z</time>
      </trkpt>
      <trkpt lat="41.740922927856445" lon="-4.595117568969727">
        <ele>859.7</ele>
        <time>2025-02-10T17:09:09.723Z</time>
      </trkpt>
      <trkpt lat="41.74069980159402" lon="-4.594928724691272">
        <ele>859.76</ele>
        <time>2025-02-10T17:09:11.639Z</time>
      </trkpt>
      <trkpt lat="41.740476759150624" lon="-4.594739964231849">
        <ele>859.79</ele>
        <time>2025-02-10T17:09:13.560Z</time>
      </trkpt>
      <trkpt lat="41.7402536328882" lon="-4.594551203772426">
        <ele>859.8</ele>
        <time>2025-02-10T17:09:15.486Z</time>
      </trkpt>
      <trkpt lat="41.7400305904448" lon="-4.594362443313003">
        <ele>859.84</ele>
        <time>2025-02-10T17:09:17.418Z</time>
      </trkpt>
      <trkpt lat="41.73980712890625" lon="-4.594173431396484">
        <ele>859.84</ele>
        <time>2025-02-10T17:09:19.355Z</time>
      </trkpt>
      <trkpt lat="41.739667570218444" lon="-4.594012415036559">
        <ele>859.82</ele>
        <time>2025-02-10T17:09:21.296Z</time>
      </trkpt>
      <trkpt lat="41.7395281791687" lon="-4.593851566314697">
        <ele>859.8</ele>
        <time>2025-02-10T17:09:23.240Z</time>
      </trkpt>
      <trkpt lat="41.739356350153685" lon="-4.5936082396656275">
        <ele>859.79</ele>
        <time>2025-02-10T17:09:25.189Z</time>
      </trkpt>
      <trkpt lat="41.7391846049577" lon="-4.593364913016558">
        <ele>859.87</ele>
        <time>2025-02-10T17:09:27.143Z</time>
      </trkpt>
      <trkpt lat="41.73901319503784" lon="-4.5931220054626465">
        <ele>859.91</ele>
        <time>2025-02-10T17:09:29.102Z</time>
      </trkpt>
      <trkpt lat="41.73881999216974" lon="-4.592893011868">
        <ele>859.94</ele>
        <time>2025-02-10T17:09:31.066Z</time>
      </trkpt>
      <trkpt lat="41.738626789301634" lon="-4.592664102092385">
        <ele>859.91</ele>
        <time>2025-02-10T17:09:33.036Z</time>
      </trkpt>
      <trkpt lat="41.738433837890625" lon="-4.592435359954834">
        <ele>859.88</ele>
        <time>2025-02-10T17:09:35.011Z</time>
      </trkpt>
      <trkpt lat="41.738247675821185" lon="-4.592149034142494">
        <ele>859.88</ele>
        <time>2025-02-10T17:09:36.991Z</time>
      </trkpt>
      <trkpt lat="41.73806159757078" lon="-4.591862708330154">
        <ele>859.9</ele>
        <time>2025-02-10T17:09:38.977Z</time>
      </trkpt>
      <trkpt lat="41.73787593841553" lon="-4.591577053070068">
        <ele>859.91</ele>
        <time>2025-02-10T17:09:40.969Z</time>
      </trkpt>
      <trkpt lat="41.73778130672872" lon="-4.591258876025677">
        <ele>859.89</ele>
        <time>2025-02-10T17:09:42.966Z</time>
      </trkpt>
      <trkpt lat="41.737686758860946" lon="-4.590940698981285">
        <ele>859.82</ele>
        <time>2025-02-10T17:09:44.968Z</time>
      </trkpt>
      <trkpt lat="41.73759212717414" lon="-4.5906225219368935">
        <ele>859.74</ele>
        <time>2025-02-10T17:09:46.975Z</time>
      </trkpt>
      <trkpt lat="41.737497579306364" lon="-4.5903044287115335">
        <ele>859.68</ele>
        <time>2025-02-10T17:09:48.987Z</time>
      </trkpt>
      <trkpt lat="41.737403869628906" lon="-4.589989185333252">
        <ele>859.62</ele>
        <time>2025-02-10T17:09:51.004Z</time>
      </trkpt>
      <trkpt lat="41.73725877888501" lon="-4.589656088501215">
        <ele>859.61</ele>
        <time>2025-02-10T17:09:53.027Z</time>
      </trkpt>
      <trkpt lat="41.73711377196014" lon="-4.58932307548821">
        <ele>859.61</ele>
        <time>2025-02-10T17:09:55.056Z</time>
      </trkpt>
      <trkpt lat="41.73696868121624" lon="-4.588989978656173">
        <ele>859.57</ele>
        <time>2025-02-10T17:09:57.091Z</time>
      </trkpt>
      <trkpt lat="41.73682451248169" lon="-4.588658809661865">
        <ele>859.44</ele>
        <time>2025-02-10T17:09:59.131Z</time>
      </trkpt>
      <trkpt lat="41.736723091453314" lon="-4.588299477472901">
        <ele>859.36</ele>
        <time>2025-02-10T17:10:01.177Z</time>
      </trkpt>
      <trkpt lat="41.73662175424397" lon="-4.5879401452839375">
        <ele>859.32</ele>
        <time>2025-02-10T17:10:03.229Z</time>
      </trkpt>
      <trkpt lat="41.736520417034626" lon="-4.587580813094974">
        <ele>859.26</ele>
        <time>2025-02-10T17:10:05.287Z</time>
      </trkpt>
      <trkpt lat="41.73641907982528" lon="-4.58722148090601">
        <ele>859.2</ele>
        <time>2025-02-10T17:10:07.350Z</time>
      </trkpt>
      <trkpt lat="41.73631774261594" lon="-4.586862148717046">
        <ele>859.14</ele>
        <time>2025-02-10T17:10:09.419Z</time>
      </trkpt>
      <trkpt lat="41.736216405406594" lon="-4.586502816528082">
        <ele>859.04</ele>
        <time>2025-02-10T17:10:11.494Z</time>
      </trkpt>
      <trkpt lat="41.73611640930176" lon="-4.586148262023926">
        <ele>858.92</ele>
        <time>2025-02-10T17:10:13.575Z</time>
      </trkpt>
      <trkpt lat="41.7360625974834" lon="-4.585911724716425">
        <ele>858.84</ele>
        <time>2025-02-10T17:10:15.659Z</time>
      </trkpt>
      <trkpt lat="41.73600912094116" lon="-4.585676193237305">
        <ele>858.74</ele>
        <time>2025-02-10T17:10:17.747Z</time>
      </trkpt>
      <trkpt lat="41.73596603795886" lon="-4.585418114438653">
        <ele>858.69</ele>
        <time>2025-02-10T17:10:19.839Z</time>
      </trkpt>
      <trkpt lat="41.735923290252686" lon="-4.585161209106445">
        <ele>858.63</ele>
        <time>2025-02-10T17:10:21.935Z</time>
      </trkpt>
      <trkpt lat="41.735912477597594" lon="-4.5847847778350115">
        <ele>858.56</ele>
        <time>2025-02-10T17:10:24.036Z</time>
      </trkpt>
      <trkpt lat="41.735901832580566" lon="-4.584410190582275">
        <ele>858.48</ele>
        <time>2025-02-10T17:10:26.143Z</time>
      </trkpt>
      <trkpt lat="41.73584089614451" lon="-4.58405178040266">
        <ele>858.39</ele>
        <time>2025-02-10T17:10:28.256Z</time>
      </trkpt>
      <trkpt lat="41.73577995970845" lon="-4.583693370223045">
        <ele>858.34</ele>
        <time>2025-02-10T17:10:30.374Z</time>
      </trkpt>
      <trkpt lat="41.735719023272395" lon="-4.58333496004343">
        <ele>858.23</ele>
        <time>2025-02-10T17:10:32.498Z</time>
      </trkpt>
      <trkpt lat="41.73565808683634" lon="-4.582976549863815">
        <ele>858.15</ele>
        <time>2025-02-10T17:10:34.627Z</time>
      </trkpt>
      <trkpt lat="41.73559715040028" lon="-4.5826181396842">
        <ele>858.11</ele>
        <time>2025-02-10T17:10:36.762Z</time>
      </trkpt>
      <trkpt lat="41.73553705215454" lon="-4.582264423370361">
        <ele>858.11</ele>
        <time>2025-02-10T17:10:38.902Z</time>
      </trkpt>
      <trkpt lat="41.73549405299127" lon="-4.581855805590749">
        <ele>858.12</ele>
        <time>2025-02-10T17:10:41.048Z</time>
      </trkpt>
      <trkpt lat="41.735451053828" lon="-4.581447187811136">
        <ele>858.15</ele>
        <time>2025-02-10T17:10:43.200Z</time>
      </trkpt>
      <trkpt lat="41.73540838994086" lon="-4.58104133605957">
        <ele>858.15</ele>
        <time>2025-02-10T17:10:45.359Z</time>
      </trkpt>
      <trkpt lat="41.73537964001298" lon="-4.58071150816977">
        <ele>858.16</ele>
        <time>2025-02-10T17:10:47.523Z</time>
      </trkpt>
      <trkpt lat="41.73535097390413" lon="-4.580381764099002">
        <ele>858.16</ele>
        <time>2025-02-10T17:10:49.691Z</time>
      </trkpt>
      <trkpt lat="41.73532247543335" lon="-4.58005428314209">
        <ele>858.13</ele>
        <time>2025-02-10T17:10:51.864Z</time>
      </trkpt>
      <trkpt lat="41.73525793477893" lon="-4.579656394198537">
        <ele>858.09</ele>
        <time>2025-02-10T17:10:54.044Z</time>
      </trkpt>
      <trkpt lat="41.735193729400635" lon="-4.579260349273682">
        <ele>858.13</ele>
        <time>2025-02-10T17:10:56.230Z</time>
      </trkpt>
      <trkpt lat="41.735129188746214" lon="-4.578943178057671">
        <ele>858.2</ele>
        <time>2025-02-10T17:10:58.421Z</time>
      </trkpt>
      <trkpt lat="41.73506464809179" lon="-4.5786260068416595">
        <ele>858.22</ele>
        <time>2025-02-10T17:11:00.616Z</time>
      </trkpt>
      <trkpt lat="41.735000191256404" lon="-4.5783088356256485">
        <ele>858.24</ele>
        <time>2025-02-10T17:11:02.816Z</time>
      </trkpt>
      <trkpt lat="41.734936237335205" lon="-4.577994346618652">
        <ele>858.29</ele>
        <time>2025-02-10T17:11:05.021Z</time>
      </trkpt>
      <trkpt lat="41.734914695844054" lon="-4.577596457675099">
        <ele>858.3</ele>
        <time>2025-02-10T17:11:07.232Z</time>
      </trkpt>
      <trkpt lat="41.73489332199097" lon="-4.577200412750244">
        <ele>858.31</ele>
        <time>2025-02-10T17:11:09.449Z</time>
      </trkpt>
      <trkpt lat="41.73479659482837" lon="-4.576942501589656">
        <ele>858.37</ele>
        <time>2025-02-10T17:11:11.670Z</time>
      </trkpt>
      <trkpt lat="41.734700202941895" lon="-4.576685428619385">
        <ele>858.47</ele>
        <time>2025-02-10T17:11:13.896Z</time>
      </trkpt>
      <trkpt lat="41.734560476616025" lon="-4.576373873278499">
        <ele>858.58</ele>
        <time>2025-02-10T17:11:16.127Z</time>
      </trkpt>
      <trkpt lat="41.734421253204346" lon="-4.57606315612793">
        <ele>858.62</ele>
        <time>2025-02-10T17:11:18.364Z</time>
      </trkpt>
      <trkpt lat="41.734393341466784" lon="-4.575937930494547">
        <ele>858.66</ele>
        <time>2025-02-10T17:11:20.603Z</time>
      </trkpt>
      <trkpt lat="41.73438621684909" lon="-4.575905995443463">
        <ele>858.7</ele>
        <time>2025-02-10T17:11:22.842Z</time>
      </trkpt>
      <trkpt lat="41.73438588157296" lon="-4.5759044867008924">
        <ele>858.72</ele>
        <time>2025-02-10T17:11:25.081Z</time>
      </trkpt>
      <trkpt lat="41.734385127201676" lon="-4.575901050120592">
        <ele>858.75</ele>
        <time>2025-02-10T17:11:27.320Z</time>
      </trkpt>
      <trkpt lat="41.73437833786011" lon="-4.575870204716921">
        <ele>858.77</ele>
        <time>2025-02-10T17:11:29.560Z</time>
      </trkpt>
      <trkpt lat="41.73437833786011" lon="-4.575870037078857">
        <ele>858.78</ele>
        <time>2025-02-10T17:11:31.800Z</time>
      </trkpt>
      <trkpt lat="41.73437833786011" lon="-4.575838269665837">
        <ele>858.78</ele>
        <time>2025-02-10T17:11:34.040Z</time>
      </trkpt>
      <trkpt lat="41.73437833786011" lon="-4.575762748718262">
        <ele>858.78</ele>
        <time>2025-02-10T17:11:36.281Z</time>
      </trkpt>
      <trkpt lat="41.73427104949951" lon="-4.575634002685547">
        <ele>858.78</ele>
        <time>2025-02-10T17:11:38.525Z</time>
      </trkpt>
      <trkpt lat="41.73427113331854" lon="-4.575634002685547">
        <ele>858.77</ele>
        <time>2025-02-10T17:11:40.769Z</time>
      </trkpt>
      <trkpt lat="41.734131406992674" lon="-4.57530090585351">
        <ele>858.73</ele>
        <time>2025-02-10T17:11:43.019Z</time>
      </trkpt>
      <trkpt lat="41.73399209976196" lon="-4.5749688148498535">
        <ele>858.64</ele>
        <time>2025-02-10T17:11:45.275Z</time>
      </trkpt>
      <trkpt lat="41.733841728419065" lon="-4.574689529836178">
        <ele>858.62</ele>
        <time>2025-02-10T17:11:47.536Z</time>
      </trkpt>
      <trkpt lat="41.733691692352295" lon="-4.574410915374756">
        <ele>858.63</ele>
        <time>2025-02-10T17:11:49.802Z</time>
      </trkpt>
      <trkpt lat="41.733541237190366" lon="-4.5740455482155085">
        <ele>858.62</ele>
        <time>2025-02-10T17:11:52.074Z</time>
      </trkpt>
      <trkpt lat="41.73339128494263" lon="-4.573681354522705">
        <ele>858.57</ele>
        <time>2025-02-10T17:11:54.352Z</time>
      </trkpt>
      <trkpt lat="41.73330528661609" lon="-4.573477171361446">
        <ele>858.48</ele>
        <time>2025-02-10T17:11:56.634Z</time>
      </trkpt>
      <trkpt lat="41.733219623565674" lon="-4.573273658752441">
        <ele>858.39</ele>
        <time>2025-02-10T17:11:58.919Z</time>
      </trkpt>
      <trkpt lat="41.733126416802406" lon="-4.572986997663975">
        <ele>858.34</ele>
        <time>2025-02-10T17:12:01.209Z</time>
      </trkpt>
      <trkpt lat="41.73303329385817" lon="-4.57270042039454">
        <ele>858.35</ele>
        <time>2025-02-10T17:12:03.504Z</time>
      </trkpt>
      <trkpt lat="41.732940673828125" lon="-4.572415351867676">
        <ele>858.36</ele>
        <time>2025-02-10T17:12:05.803Z</time>
      </trkpt>
      <trkpt lat="41.732876133173704" lon="-4.572032550349832">
        <ele>858.39</ele>
        <time>2025-02-10T17:12:08.108Z</time>
      </trkpt>
      <trkpt lat="41.73281159251928" lon="-4.571649748831987">
        <ele>858.35</ele>
        <time>2025-02-10T17:12:10.419Z</time>
      </trkpt>
      <trkpt lat="41.732747135683894" lon="-4.571267031133175">
        <ele>858.28</ele>
        <time>2025-02-10T17:12:12.736Z</time>
      </trkpt>
      <trkpt lat="41.73268259502947" lon="-4.570884229615331">
        <ele>858.18</ele>
        <time>2025-02-10T17:12:15.059Z</time>
      </trkpt>
      <trkpt lat="41.732634315267205" lon="-4.570598490536213">
        <ele>858.16</ele>
        <time>2025-02-10T17:12:17.386Z</time>
      </trkpt>
      <trkpt lat="41.732628950849175" lon="-4.570566304028034">
        <ele>858.14</ele>
        <time>2025-02-10T17:12:19.714Z</time>
      </trkpt>
      <trkpt lat="41.73262869939208" lon="-4.570564795285463">
        <ele>858.12</ele>
        <time>2025-02-10T17:12:22.042Z</time>
      </trkpt>
      <trkpt lat="41.73262811265886" lon="-4.570561274886131">
        <ele>858.1</ele>
        <time>2025-02-10T17:12:24.370Z</time>
      </trkpt>
      <trkpt lat="41.73262291587889" lon="-4.570530178025365">
        <ele>858.09</ele>
        <time>2025-02-10T17:12:26.698Z</time>
      </trkpt>
      <trkpt lat="41.73261880874634" lon="-4.570505619049072">
        <ele>858.09</ele>
        <time>2025-02-10T17:12:29.027Z</time>
      </trkpt>
      <trkpt lat="41.73261847347021" lon="-4.570499248802662">
        <ele>858.09</ele>
        <time>2025-02-10T17:12:31.356Z</time>
      </trkpt>
      <trkpt lat="41.73259701579809" lon="-4.5701029524207115">
        <ele>858.12</ele>
        <time>2025-02-10T17:12:33.691Z</time>
      </trkpt>
      <trkpt lat="41.73257555812597" lon="-4.569706656038761">
        <ele>858.13</ele>
        <time>2025-02-10T17:12:36.032Z</time>
      </trkpt>
      <trkpt lat="41.732554184272885" lon="-4.569310359656811">
        <ele>858.17</ele>
        <time>2025-02-10T17:12:38.379Z</time>
      </trkpt>
      <trkpt lat="41.73253297805786" lon="-4.568917751312256">
        <ele>858.2</ele>
        <time>2025-02-10T17:12:40.732Z</time>
      </trkpt>
      <trkpt lat="41.73244697973132" lon="-4.568562945351005">
        <ele>858.18</ele>
        <time>2025-02-10T17:12:43.090Z</time>
      </trkpt>
      <trkpt lat="41.73236098140478" lon="-4.568208223208785">
        <ele>858.18</ele>
        <time>2025-02-10T17:12:45.454Z</time>
      </trkpt>
      <trkpt lat="41.73227498307824" lon="-4.567853417247534">
        <ele>858.25</ele>
        <time>2025-02-10T17:12:47.823Z</time>
      </trkpt>
      <trkpt lat="41.732189655303955" lon="-4.567501544952393">
        <ele>858.28</ele>
        <time>2025-02-10T17:12:50.198Z</time>
      </trkpt>
      <trkpt lat="41.732135843485594" lon="-4.567157467827201">
        <ele>858.32</ele>
        <time>2025-02-10T17:12:52.578Z</time>
      </trkpt>
      <trkpt lat="41.73208236694336" lon="-4.56681489944458">
        <ele>858.36</ele>
        <time>2025-02-10T17:12:54.963Z</time>
      </trkpt>
      <trkpt lat="41.73203391954303" lon="-4.566454645246267">
        <ele>858.44</ele>
        <time>2025-02-10T17:12:57.354Z</time>
      </trkpt>
      <trkpt lat="41.73198555596173" lon="-4.566094474866986">
        <ele>858.51</ele>
        <time>2025-02-10T17:12:59.750Z</time>
      </trkpt>
      <trkpt lat="41.73193719238043" lon="-4.5657342206686735">
        <ele>858.51</ele>
        <time>2025-02-10T17:13:02.152Z</time>
      </trkpt>
      <trkpt lat="41.73188924789429" lon="-4.565377235412598">
        <ele>858.51</ele>
        <time>2025-02-10T17:13:04.559Z</time>
      </trkpt>
      <trkpt lat="41.73182487487793" lon="-4.565141201019287">
        <ele>858.46</ele>
        <time>2025-02-10T17:13:06.970Z</time>
      </trkpt>
      <trkpt lat="41.73165321350098" lon="-4.564797878265381">
        <ele>858.44</ele>
        <time>2025-02-10T17:13:09.387Z</time>
      </trkpt>
      <trkpt lat="41.73154592514038" lon="-4.564540386199951">
        <ele>858.51</ele>
        <time>2025-02-10T17:13:11.809Z</time>
      </trkpt>
      <trkpt lat="41.73144911415875" lon="-4.56417485140264">
        <ele>858.62</ele>
        <time>2025-02-10T17:13:14.236Z</time>
      </trkpt>
      <trkpt lat="41.73135280609131" lon="-4.5638108253479">
        <ele>858.68</ele>
        <time>2025-02-10T17:13:16.669Z</time>
      </trkpt>
      <trkpt lat="41.73130259849131" lon="-4.563531205058098">
        <ele>858.73</ele>
        <time>2025-02-10T17:13:19.106Z</time>
      </trkpt>
      <trkpt lat="41.731252390891314" lon="-4.563251668587327">
        <ele>858.72</ele>
        <time>2025-02-10T17:13:21.548Z</time>
      </trkpt>
      <trkpt lat="41.731202602386475" lon="-4.562973976135254">
        <ele>858.7</ele>
        <time>2025-02-10T17:13:23.994Z</time>
      </trkpt>
      <trkpt lat="41.73119178973138" lon="-4.562737355008721">
        <ele>858.74</ele>
        <time>2025-02-10T17:13:26.444Z</time>
      </trkpt>
      <trkpt lat="41.731181144714355" lon="-4.562501907348633">
        <ele>858.82</ele>
        <time>2025-02-10T17:13:28.897Z</time>
      </trkpt>
      <trkpt lat="41.731095146387815" lon="-4.562179371714592">
        <ele>858.98</ele>
        <time>2025-02-10T17:13:31.355Z</time>
      </trkpt>
      <trkpt lat="41.7310094833374" lon="-4.561858177185059">
        <ele>859.15</ele>
        <time>2025-02-10T17:13:33.818Z</time>
      </trkpt>
      <trkpt lat="41.73085927963257" lon="-4.561557769775391">
        <ele>859.31</ele>
        <time>2025-02-10T17:13:36.287Z</time>
      </trkpt>
      <trkpt lat="41.73083782196045" lon="-4.561192989349365">
        <ele>859.42</ele>
        <time>2025-02-10T17:13:38.761Z</time>
      </trkpt>
      <trkpt lat="41.73074461519718" lon="-4.5608059130609035">
        <ele>859.48</ele>
        <time>2025-02-10T17:13:41.241Z</time>
      </trkpt>
      <trkpt lat="41.730651408433914" lon="-4.560418920591474">
        <ele>859.55</ele>
        <time>2025-02-10T17:13:43.727Z</time>
      </trkpt>
      <trkpt lat="41.7305588722229" lon="-4.560034275054932">
        <ele>859.65</ele>
        <time>2025-02-10T17:13:46.219Z</time>
      </trkpt>
      <trkpt lat="41.730442782863975" lon="-4.559686006978154">
        <ele>859.83</ele>
        <time>2025-02-10T17:13:48.717Z</time>
      </trkpt>
      <trkpt lat="41.73032669350505" lon="-4.559337822720408">
        <ele>860.03</ele>
        <time>2025-02-10T17:13:51.221Z</time>
      </trkpt>
      <trkpt lat="41.73021060414612" lon="-4.558989638462663">
        <ele>860.29</ele>
        <time>2025-02-10T17:13:53.731Z</time>
      </trkpt>
      <trkpt lat="41.73009459860623" lon="-4.558641370385885">
        <ele>860.43</ele>
        <time>2025-02-10T17:13:56.246Z</time>
      </trkpt>
      <trkpt lat="41.729979515075684" lon="-4.558296203613281">
        <ele>860.55</ele>
        <time>2025-02-10T17:13:58.767Z</time>
      </trkpt>
      <trkpt lat="41.72984339296818" lon="-4.558024043217301">
        <ele>860.68</ele>
        <time>2025-02-10T17:14:01.293Z</time>
      </trkpt>
      <trkpt lat="41.729707354679704" lon="-4.557751966640353">
        <ele>860.89</ele>
        <time>2025-02-10T17:14:03.824Z</time>
      </trkpt>
      <trkpt lat="41.72957181930542" lon="-4.557480812072754">
        <ele>861.07</ele>
        <time>2025-02-10T17:14:06.360Z</time>
      </trkpt>
      <trkpt lat="41.729507278651" lon="-4.557244274765253">
        <ele>861.24</ele>
        <time>2025-02-10T17:14:08.899Z</time>
      </trkpt>
      <trkpt lat="41.729443073272705" lon="-4.557008743286133">
        <ele>861.45</ele>
        <time>2025-02-10T17:14:11.442Z</time>
      </trkpt>
      <trkpt lat="41.72939286567271" lon="-4.556657457724214">
        <ele>861.61</ele>
        <time>2025-02-10T17:14:13.990Z</time>
      </trkpt>
      <trkpt lat="41.72934265807271" lon="-4.556306172162294">
        <ele>861.75</ele>
        <time>2025-02-10T17:14:16.544Z</time>
      </trkpt>
      <trkpt lat="41.72929286956787" lon="-4.555957317352295">
        <ele>861.94</ele>
        <time>2025-02-10T17:14:19.103Z</time>
      </trkpt>
      <trkpt lat="41.72933578491211" lon="-4.555699825286865">
        <ele>862.12</ele>
        <time>2025-02-10T17:14:21.666Z</time>
      </trkpt>
      <trkpt lat="41.7293035145849" lon="-4.555344935506582">
        <ele>862.29</ele>
        <time>2025-02-10T17:14:24.234Z</time>
      </trkpt>
      <trkpt lat="41.72927141189575" lon="-4.554991722106934">
        <ele>862.44</ele>
        <time>2025-02-10T17:14:26.808Z</time>
      </trkpt>
      <trkpt lat="41.729207038879395" lon="-4.554862976074219">
        <ele>862.62</ele>
        <time>2025-02-10T17:14:29.384Z</time>
      </trkpt>
      <trkpt lat="41.72892834059894" lon="-4.554755771532655">
        <ele>862.85</ele>
        <time>2025-02-10T17:14:31.966Z</time>
      </trkpt>
      <trkpt lat="41.7286491394043" lon="-4.554648399353027">
        <ele>863.07</ele>
        <time>2025-02-10T17:14:34.554Z</time>
      </trkpt>
      <trkpt lat="41.72852039337158" lon="-4.554541110992432">
        <ele>863.25</ele>
        <time>2025-02-10T17:14:37.145Z</time>
      </trkpt>
      <trkpt lat="41.72834873199463" lon="-4.554498195648193">
        <ele>863.41</ele>
        <time>2025-02-10T17:14:39.739Z</time>
      </trkpt>
      <trkpt lat="41.72812359407544" lon="-4.55438026227057">
        <ele>863.62</ele>
        <time>2025-02-10T17:14:42.338Z</time>
      </trkpt>
      <trkpt lat="41.727898456156254" lon="-4.554262328892946">
        <ele>863.78</ele>
        <time>2025-02-10T17:14:44.942Z</time>
      </trkpt>
      <trkpt lat="41.7276734020561" lon="-4.554144395515323">
        <ele>863.89</ele>
        <time>2025-02-10T17:14:47.551Z</time>
      </trkpt>
      <trkpt lat="41.727447509765625" lon="-4.554026126861572">
        <ele>863.95</ele>
        <time>2025-02-10T17:14:50.165Z</time>
      </trkpt>
      <trkpt lat="41.72716881148517" lon="-4.5538813713938">
        <ele>864.05</ele>
        <time>2025-02-10T17:14:52.785Z</time>
      </trkpt>
      <trkpt lat="41.72689011320472" lon="-4.553736699745059">
        <ele>864.09</ele>
        <time>2025-02-10T17:14:55.411Z</time>
      </trkpt>
      <trkpt lat="41.726611414924264" lon="-4.5535919442772865">
        <ele>864.06</ele>
        <time>2025-02-10T17:14:58.043Z</time>
      </trkpt>
      <trkpt lat="41.72633171081543" lon="-4.5534467697143555">
        <ele>864.04</ele>
        <time>2025-02-10T17:15:00.681Z</time>
      </trkpt>
      <trkpt lat="41.72613859176636" lon="-4.553318023681641">
        <ele>864.01</ele>
        <time>2025-02-10T17:15:03.323Z</time>
      </trkpt>
      <trkpt lat="41.726053012534976" lon="-4.553279047831893">
        <ele>863.94</ele>
        <time>2025-02-10T17:15:05.967Z</time>
      </trkpt>
      <trkpt lat="41.72602912411094" lon="-4.55326815135777">
        <ele>863.84</ele>
        <time>2025-02-10T17:15:08.611Z</time>
      </trkpt>
      <trkpt lat="41.726028034463525" lon="-4.55326764844358">
        <ele>863.7</ele>
        <time>2025-02-10T17:15:11.255Z</time>
      </trkpt>
      <trkpt lat="41.72602551989257" lon="-4.553266558796167">
        <ele>863.51</ele>
        <time>2025-02-10T17:15:13.899Z</time>
      </trkpt>
      <trkpt lat="41.72600221820176" lon="-4.553255997598171">
        <ele>863.28</ele>
        <time>2025-02-10T17:15:16.544Z</time>
      </trkpt>
      <trkpt lat="41.725979084149" lon="-4.553245520219207">
        <ele>862.99</ele>
        <time>2025-02-10T17:15:19.189Z</time>
      </trkpt>
      <trkpt lat="41.72582292929292" lon="-4.553174525499344">
        <ele>862.69</ele>
        <time>2025-02-10T17:15:21.838Z</time>
      </trkpt>
      <trkpt lat="41.725666522979736" lon="-4.553103446960449">
        <ele>862.32</ele>
        <time>2025-02-10T17:15:24.490Z</time>
      </trkpt>
      <trkpt lat="41.72539486549795" lon="-4.552938994020224">
        <ele>861.84</ele>
        <time>2025-02-10T17:15:27.148Z</time>
      </trkpt>
      <trkpt lat="41.72512329183519" lon="-4.55277462489903">
        <ele>861.25</ele>
        <time>2025-02-10T17:15:29.812Z</time>
      </trkpt>
      <trkpt lat="41.72485113143921" lon="-4.552609920501709">
        <ele>860.66</ele>
        <time>2025-02-10T17:15:32.482Z</time>
      </trkpt>
      <trkpt lat="41.72463655471802" lon="-4.552459716796875">
        <ele>860.01</ele>
        <time>2025-02-10T17:15:35.157Z</time>
      </trkpt>
      <trkpt lat="41.72443295828998" lon="-4.552427530288696">
        <ele>859.29</ele>
        <time>2025-02-10T17:15:37.836Z</time>
      </trkpt>
      <trkpt lat="41.724228858947754" lon="-4.552395343780518">
        <ele>858.53</ele>
        <time>2025-02-10T17:15:40.519Z</time>
      </trkpt>
      <trkpt lat="41.724035907536745" lon="-4.552320325747132">
        <ele>857.68</ele>
        <time>2025-02-10T17:15:43.206Z</time>
      </trkpt>
      <trkpt lat="41.72384262084961" lon="-4.552245140075684">
        <ele>856.7</ele>
        <time>2025-02-10T17:15:45.897Z</time>
      </trkpt>
      <trkpt lat="41.723692333325744" lon="-4.552084123715758">
        <ele>855.62</ele>
        <time>2025-02-10T17:15:48.592Z</time>
      </trkpt>
      <trkpt lat="41.72354221343994" lon="-4.5519232749938965">
        <ele>854.46</ele>
        <time>2025-02-10T17:15:51.291Z</time>
      </trkpt>
      <trkpt lat="41.72332763671875" lon="-4.551987648010254">
        <ele>853.23</ele>
        <time>2025-02-10T17:15:53.994Z</time>
      </trkpt>
      <trkpt lat="41.723070312291384" lon="-4.552126955240965">
        <ele>851.93</ele>
        <time>2025-02-10T17:15:56.702Z</time>
      </trkpt>
      <trkpt lat="41.72281265258789" lon="-4.552266597747803">
        <ele>850.52</ele>
        <time>2025-02-10T17:15:59.416Z</time>
      </trkpt>
      <trkpt lat="41.72266244888306" lon="-4.552266597747803">
        <ele>849.08</ele>
        <time>2025-02-10T17:16:02.133Z</time>
      </trkpt>
      <trkpt lat="41.722458600997925" lon="-4.552062749862671">
        <ele>847.59</ele>
        <time>2025-02-10T17:16:04.855Z</time>
      </trkpt>
      <trkpt lat="41.72225475311279" lon="-4.551858901977539">
        <ele>846.07</ele>
        <time>2025-02-10T17:16:07.582Z</time>
      </trkpt>
      <trkpt lat="41.721975803375244" lon="-4.551858901977539">
        <ele>844.3</ele>
        <time>2025-02-10T17:16:10.315Z</time>
      </trkpt>
      <trkpt lat="41.72174706123769" lon="-4.5517444889992476">
        <ele>842.6</ele>
        <time>2025-02-10T17:16:13.053Z</time>
      </trkpt>
      <trkpt lat="41.72151840291917" lon="-4.551630159839988">
        <ele>840.76</ele>
        <time>2025-02-10T17:16:15.796Z</time>
      </trkpt>
      <trkpt lat="41.72128915786743" lon="-4.551515579223633">
        <ele>838.98</ele>
        <time>2025-02-10T17:16:18.543Z</time>
      </trkpt>
      <trkpt lat="41.72109603881836" lon="-4.551386833190918">
        <ele>837.26</ele>
        <time>2025-02-10T17:16:21.295Z</time>
      </trkpt>
      <trkpt lat="41.72088162973523" lon="-4.551301086321473">
        <ele>835.53</ele>
        <time>2025-02-10T17:16:24.051Z</time>
      </trkpt>
      <trkpt lat="41.72066688537598" lon="-4.551215171813965">
        <ele>833.92</ele>
        <time>2025-02-10T17:16:26.812Z</time>
      </trkpt>
      <trkpt lat="41.720452308654785" lon="-4.551000595092773">
        <ele>832.46</ele>
        <time>2025-02-10T17:16:29.578Z</time>
      </trkpt>
      <trkpt lat="41.72036647796631" lon="-4.550957679748535">
        <ele>831.01</ele>
        <time>2025-02-10T17:16:32.346Z</time>
      </trkpt>
      <trkpt lat="41.72020873054862" lon="-4.550974275916815">
        <ele>829.6</ele>
        <time>2025-02-10T17:16:35.117Z</time>
      </trkpt>
      <trkpt lat="41.72012868337333" lon="-4.550982574000955">
        <ele>828.29</ele>
        <time>2025-02-10T17:16:37.890Z</time>
      </trkpt>
      <trkpt lat="41.720103453844786" lon="-4.5509852562099695">
        <ele>827.06</ele>
        <time>2025-02-10T17:16:40.663Z</time>
      </trkpt>
      <trkpt lat="41.72010228037834" lon="-4.550985423848033">
        <ele>825.91</ele>
        <time>2025-02-10T17:16:43.436Z</time>
      </trkpt>
      <trkpt lat="41.72009959816933" lon="-4.55098575912416">
        <ele>824.84</ele>
        <time>2025-02-10T17:16:46.209Z</time>
      </trkpt>
      <trkpt lat="41.720075039193034" lon="-4.550988357514143">
        <ele>823.84</ele>
        <time>2025-02-10T17:16:48.983Z</time>
      </trkpt>
      <trkpt lat="41.72005056403577" lon="-4.550990955904126">
        <ele>822.91</ele>
        <time>2025-02-10T17:16:51.757Z</time>
      </trkpt>
      <trkpt lat="41.72020822763443" lon="-4.550974275916815">
        <ele>822.12</ele>
        <time>2025-02-10T17:16:54.534Z</time>
      </trkpt>
      <trkpt lat="41.72036647796631" lon="-4.550957679748535">
        <ele>831.01</ele>
        <time>2025-02-10T17:16:57.315Z</time>
      </trkpt>
      <trkpt lat="41.720452308654785" lon="-4.551000595092773">
        <ele>832.46</ele>
        <time>2025-02-10T17:17:00.097Z</time>
      </trkpt>
      <trkpt lat="41.72066688537598" lon="-4.551215171813965">
        <ele>833.92</ele>
        <time>2025-02-10T17:17:02.885Z</time>
      </trkpt>
      <trkpt lat="41.72079110518098" lon="-4.55126479268074">
        <ele>819.67</ele>
        <time>2025-02-10T17:17:05.675Z</time>
      </trkpt>
      <trkpt lat="41.72081549651921" lon="-4.551274515688419">
        <ele>819.19</ele>
        <time>2025-02-10T17:17:08.466Z</time>
      </trkpt>
      <trkpt lat="41.72081658616662" lon="-4.551274934783578">
        <ele>818.76</ele>
        <time>2025-02-10T17:17:11.257Z</time>
      </trkpt>
      <trkpt lat="41.7208191845566" lon="-4.55127602443099">
        <ele>818.4</ele>
        <time>2025-02-10T17:17:14.048Z</time>
      </trkpt>
      <trkpt lat="41.72084290534258" lon="-4.551285579800606">
        <ele>818.11</ele>
        <time>2025-02-10T17:17:16.839Z</time>
      </trkpt>
      <trkpt lat="41.72086654230952" lon="-4.55129505135119">
        <ele>817.87</ele>
        <time>2025-02-10T17:17:19.631Z</time>
      </trkpt>
      <trkpt lat="41.72066688537598" lon="-4.551215171813965">
        <ele>833.92</ele>
        <time>2025-02-10T17:17:22.427Z</time>
      </trkpt>
      <trkpt lat="41.720452308654785" lon="-4.551000595092773">
        <ele>832.46</ele>
        <time>2025-02-10T17:17:25.228Z</time>
      </trkpt>
      <trkpt lat="41.72036647796631" lon="-4.550957679748535">
        <ele>831.01</ele>
        <time>2025-02-10T17:17:28.031Z</time>
      </trkpt>
      <trkpt lat="41.72016288153827" lon="-4.550979053601623">
        <ele>817.15</ele>
        <time>2025-02-10T17:17:30.838Z</time>
      </trkpt>
      <trkpt lat="41.719958782196045" lon="-4.551000595092773">
        <ele>817.12</ele>
        <time>2025-02-10T17:17:33.649Z</time>
      </trkpt>
      <trkpt lat="41.71980857849121" lon="-4.551129341125488">
        <ele>817.09</ele>
        <time>2025-02-10T17:17:36.464Z</time>
      </trkpt>
      <trkpt lat="41.71959542669356" lon="-4.5509961526840925">
        <ele>817.3</ele>
        <time>2025-02-10T17:17:39.284Z</time>
      </trkpt>
      <trkpt lat="41.7194533534348" lon="-4.550907304510474">
        <ele>817.49</ele>
        <time>2025-02-10T17:17:42.107Z</time>
      </trkpt>
      <trkpt lat="41.71943030320108" lon="-4.550892887637019">
        <ele>817.67</ele>
        <time>2025-02-10T17:17:44.930Z</time>
      </trkpt>
      <trkpt lat="41.71942921355367" lon="-4.550892217084765">
        <ele>817.89</ele>
        <time>2025-02-10T17:17:47.753Z</time>
      </trkpt>
      <trkpt lat="41.71942678280175" lon="-4.550890708342195">
        <ele>818.14</ele>
        <time>2025-02-10T17:17:50.576Z</time>
      </trkpt>
      <trkpt lat="41.71940440312028" lon="-4.550876710563898">
        <ele>818.43</ele>
        <time>2025-02-10T17:17:53.400Z</time>
      </trkpt>
      <trkpt lat="41.71938210725784" lon="-4.550862796604633">
        <ele>818.75</ele>
        <time>2025-02-10T17:17:56.224Z</time>
      </trkpt>
      <trkpt lat="41.71929359436035" lon="-4.550807476043701">
        <ele>819.13</ele>
        <time>2025-02-10T17:17:59.050Z</time>
      </trkpt>
      <trkpt lat="41.71908974647522" lon="-4.550603628158569">
        <ele>819.55</ele>
        <time>2025-02-10T17:18:01.882Z</time>
      </trkpt>
      <trkpt lat="41.71888589859009" lon="-4.5503997802734375">
        <ele>820.04</ele>
        <time>2025-02-10T17:18:04.719Z</time>
      </trkpt>
      <trkpt lat="41.71885211952031" lon="-4.550130721181631">
        <ele>820.48</ele>
        <time>2025-02-10T17:18:07.560Z</time>
      </trkpt>
      <trkpt lat="41.71884801238775" lon="-4.55009794794023">
        <ele>820.91</ele>
        <time>2025-02-10T17:18:10.401Z</time>
      </trkpt>
      <trkpt lat="41.71884784474969" lon="-4.5500964391976595">
        <ele>821.34</ele>
        <time>2025-02-10T17:18:13.242Z</time>
      </trkpt>
      <trkpt lat="41.71884742565453" lon="-4.5500929187983274">
        <ele>821.8</ele>
        <time>2025-02-10T17:18:16.083Z</time>
      </trkpt>
      <trkpt lat="41.71884348616004" lon="-4.550061067566276">
        <ele>822.26</ele>
        <time>2025-02-10T17:18:18.925Z</time>
      </trkpt>
      <trkpt lat="41.71883963048458" lon="-4.550029635429382">
        <ele>822.74</ele>
        <time>2025-02-10T17:18:21.767Z</time>
      </trkpt>
      <trkpt lat="41.71880006790161" lon="-4.549713134765625">
        <ele>823.22</ele>
        <time>2025-02-10T17:18:24.614Z</time>
      </trkpt>
      <trkpt lat="41.7186710704118" lon="-4.549390766769648">
        <ele>823.68</ele>
        <time>2025-02-10T17:18:27.466Z</time>
      </trkpt>
      <trkpt lat="41.71854257583618" lon="-4.549069404602051">
        <ele>824.24</ele>
        <time>2025-02-10T17:18:30.324Z</time>
      </trkpt>
      <trkpt lat="41.71850670129061" lon="-4.548739576712251">
        <ele>824.79</ele>
        <time>2025-02-10T17:18:33.187Z</time>
      </trkpt>
      <trkpt lat="41.71847082674503" lon="-4.548409832641482">
        <ele>825.31</ele>
        <time>2025-02-10T17:18:36.055Z</time>
      </trkpt>
      <trkpt lat="41.718435287475586" lon="-4.54808235168457">
        <ele>825.89</ele>
        <time>2025-02-10T17:18:38.928Z</time>
      </trkpt>
      <trkpt lat="41.71843025833368" lon="-4.547850843518972">
        <ele>826.53</ele>
        <time>2025-02-10T17:18:41.804Z</time>
      </trkpt>
      <trkpt lat="41.71842958778143" lon="-4.54781748354435">
        <ele>827.13</ele>
        <time>2025-02-10T17:18:44.681Z</time>
      </trkpt>
      <trkpt lat="41.71842958778143" lon="-4.547815974801779">
        <ele>827.72</ele>
        <time>2025-02-10T17:18:47.558Z</time>
      </trkpt>
      <trkpt lat="41.71842958778143" lon="-4.547812370583415">
        <ele>828.34</ele>
        <time>2025-02-10T17:18:50.435Z</time>
      </trkpt>
      <trkpt lat="41.718428917229176" lon="-4.547780016437173">
        <ele>828.98</ele>
        <time>2025-02-10T17:18:53.312Z</time>
      </trkpt>
      <trkpt lat="41.718428330495954" lon="-4.547747997567058">
        <ele>829.62</ele>
        <time>2025-02-10T17:18:56.190Z</time>
      </trkpt>
      <trkpt lat="41.718428330495954" lon="-4.547748081386089">
        <ele>830.28</ele>
        <time>2025-02-10T17:18:59.068Z</time>
      </trkpt>
      <trkpt lat="41.718421038240194" lon="-4.547399394214153">
        <ele>831.0</ele>
        <time>2025-02-10T17:19:01.951Z</time>
      </trkpt>
      <trkpt lat="41.71841382980347" lon="-4.547052383422852">
        <ele>831.68</ele>
        <time>2025-02-10T17:19:04.839Z</time>
      </trkpt>
      <trkpt lat="41.718386923894286" lon="-4.546692129224539">
        <ele>832.41</ele>
        <time>2025-02-10T17:19:07.733Z</time>
      </trkpt>
      <trkpt lat="41.718360017985106" lon="-4.546331875026226">
        <ele>833.18</ele>
        <time>2025-02-10T17:19:10.632Z</time>
      </trkpt>
      <trkpt lat="41.718333112075925" lon="-4.545971620827913">
        <ele>833.92</ele>
        <time>2025-02-10T17:19:13.537Z</time>
      </trkpt>
      <trkpt lat="41.71830654144287" lon="-4.545614719390869">
        <ele>834.72</ele>
        <time>2025-02-10T17:19:16.447Z</time>
      </trkpt>
      <trkpt lat="41.71832799911499" lon="-4.545270558446646">
        <ele>835.55</ele>
        <time>2025-02-10T17:19:19.362Z</time>
      </trkpt>
      <trkpt lat="41.71834945678711" lon="-4.544928073883057">
        <ele>836.36</ele>
        <time>2025-02-10T17:19:22.282Z</time>
      </trkpt>
      <trkpt lat="41.718478202819824" lon="-4.5447455160319805">
        <ele>837.16</ele>
        <time>2025-02-10T17:19:25.206Z</time>
      </trkpt>
      <trkpt lat="41.71860694885254" lon="-4.544563293457031">
        <ele>838.03</ele>
        <time>2025-02-10T17:19:28.134Z</time>
      </trkpt>
      <trkpt lat="41.718690348789096" lon="-4.544229274615645">
        <ele>838.87</ele>
        <time>2025-02-10T17:19:31.067Z</time>
      </trkpt>
      <trkpt lat="41.71874885447323" lon="-4.543994413688779">
        <ele>839.66</ele>
        <time>2025-02-10T17:19:34.004Z</time>
      </trkpt>
      <trkpt lat="41.718756817281246" lon="-4.5439627300947905">
        <ele>840.45</ele>
        <time>2025-02-10T17:19:36.941Z</time>
      </trkpt>
      <trkpt lat="41.718757236376405" lon="-4.543961305171251">
        <ele>841.24</ele>
        <time>2025-02-10T17:19:39.878Z</time>
      </trkpt>
      <trkpt lat="41.718758158385754" lon="-4.543957868590951">
        <ele>842.02</ele>
        <time>2025-02-10T17:19:42.815Z</time>
      </trkpt>
      <trkpt lat="41.71876586973667" lon="-4.543927190825343">
        <ele>842.81</ele>
        <time>2025-02-10T17:19:45.753Z</time>
      </trkpt>
      <trkpt lat="41.71877358108759" lon="-4.543896596878767">
        <ele>843.6</ele>
        <time>2025-02-10T17:19:48.691Z</time>
      </trkpt>
      <trkpt lat="41.71884055249393" lon="-4.543628543615341">
        <ele>844.38</ele>
        <time>2025-02-10T17:19:51.634Z</time>
      </trkpt>
      <trkpt lat="41.71890735626221" lon="-4.543361663818359">
        <ele>845.18</ele>
        <time>2025-02-10T17:19:54.581Z</time>
      </trkpt>
      <trkpt lat="41.71890735626221" lon="-4.543018341064453">
        <ele>846.04</ele>
        <time>2025-02-10T17:19:57.533Z</time>
      </trkpt>
      <trkpt lat="41.718853544443846" lon="-4.542749533429742">
        <ele>846.84</ele>
        <time>2025-02-10T17:20:00.489Z</time>
      </trkpt>
      <trkpt lat="41.71880006790161" lon="-4.542481899261475">
        <ele>847.64</ele>
        <time>2025-02-10T17:20:03.449Z</time>
      </trkpt>
      <trkpt lat="41.71880719251931" lon="-4.542187945917249">
        <ele>848.44</ele>
        <time>2025-02-10T17:20:06.414Z</time>
      </trkpt>
      <trkpt lat="41.718814400956035" lon="-4.541893992573023">
        <ele>849.27</ele>
        <time>2025-02-10T17:20:09.383Z</time>
      </trkpt>
      <trkpt lat="41.71882152557373" lon="-4.54160213470459">
        <ele>850.07</ele>
        <time>2025-02-10T17:20:12.356Z</time>
      </trkpt>
      <trkpt lat="41.71875698491931" lon="-4.541408680379391">
        <ele>850.78</ele>
        <time>2025-02-10T17:20:15.333Z</time>
      </trkpt>
      <trkpt lat="41.718692779541016" lon="-4.541215896606445">
        <ele>851.48</ele>
        <time>2025-02-10T17:20:18.313Z</time>
      </trkpt>
      <trkpt lat="41.7186713218689" lon="-4.541001319885254">
        <ele>852.18</ele>
        <time>2025-02-10T17:20:21.296Z</time>
      </trkpt>
      <trkpt lat="41.7188108805567" lon="-4.540722034871578">
        <ele>852.88</ele>
        <time>2025-02-10T17:20:24.284Z</time>
      </trkpt>
      <trkpt lat="41.718950271606445" lon="-4.540443420410156">
        <ele>853.55</ele>
        <time>2025-02-10T17:20:27.277Z</time>
      </trkpt>
      <trkpt lat="41.71906912699342" lon="-4.540302185341716">
        <ele>854.18</ele>
        <time>2025-02-10T17:20:30.273Z</time>
      </trkpt>
      <trkpt lat="41.719129141420126" lon="-4.540230603888631">
        <ele>854.77</ele>
        <time>2025-02-10T17:20:33.271Z</time>
      </trkpt>
      <trkpt lat="41.719148168340325" lon="-4.540208056569099">
        <ele>855.33</ele>
        <time>2025-02-10T17:20:36.269Z</time>
      </trkpt>
      <trkpt lat="41.719149090349674" lon="-4.540207050740719">
        <ele>855.88</ele>
        <time>2025-02-10T17:20:39.267Z</time>
      </trkpt>
      <trkpt lat="41.719151102006435" lon="-4.540204703807831">
        <ele>856.4</ele>
        <time>2025-02-10T17:20:42.265Z</time>
      </trkpt>
      <trkpt lat="41.719169626012444" lon="-4.540182827040553">
        <ele>856.9</ele>
        <time>2025-02-10T17:20:45.264Z</time>
      </trkpt>
      <trkpt lat="41.71918806619942" lon="-4.540161034092307">
        <ele>857.38</ele>
        <time>2025-02-10T17:20:48.263Z</time>
      </trkpt>
      <trkpt lat="41.71929359436035" lon="-4.540035724639893">
        <ele>857.86</ele>
        <time>2025-02-10T17:20:51.265Z</time>
      </trkpt>
      <trkpt lat="41.719422340393066" lon="-4.539799690246582">
        <ele>858.34</ele>
        <time>2025-02-10T17:20:54.272Z</time>
      </trkpt>
      <trkpt lat="41.719476068392396" lon="-4.539563152939081">
        <ele>858.78</ele>
        <time>2025-02-10T17:20:57.282Z</time>
      </trkpt>
      <trkpt lat="41.71952962875366" lon="-4.539327621459961">
        <ele>859.18</ele>
        <time>2025-02-10T17:21:00.296Z</time>
      </trkpt>
      <trkpt lat="41.71949735842645" lon="-4.539069542661309">
        <ele>859.54</ele>
        <time>2025-02-10T17:21:03.314Z</time>
      </trkpt>
      <trkpt lat="41.719465255737305" lon="-4.538812637329102">
        <ele>859.9</ele>
        <time>2025-02-10T17:21:06.336Z</time>
      </trkpt>
      <trkpt lat="41.71928269788623" lon="-4.538533436134458">
        <ele>860.31</ele>
        <time>2025-02-10T17:21:09.363Z</time>
      </trkpt>
      <trkpt lat="41.71910047531128" lon="-4.538254737854004">
        <ele>860.78</ele>
        <time>2025-02-10T17:21:12.396Z</time>
      </trkpt>
      <trkpt lat="41.71910047531128" lon="-4.5379535760730505">
        <ele>861.09</ele>
        <time>2025-02-10T17:21:15.433Z</time>
      </trkpt>
      <trkpt lat="41.71910047531128" lon="-4.537653923034668">
        <ele>861.35</ele>
        <time>2025-02-10T17:21:18.475Z</time>
      </trkpt>
      <trkpt lat="41.71929367817938" lon="-4.537353264167905">
        <ele>861.59</ele>
        <time>2025-02-10T17:21:21.523Z</time>
      </trkpt>
      <trkpt lat="41.719486713409424" lon="-4.537053108215332">
        <ele>861.84</ele>
        <time>2025-02-10T17:21:24.577Z</time>
      </trkpt>
      <trkpt lat="41.71958335675299" lon="-4.536848925054073">
        <ele>862.07</ele>
        <time>2025-02-10T17:21:27.634Z</time>
      </trkpt>
      <trkpt lat="41.719679832458496" lon="-4.536645412445068">
        <ele>862.28</ele>
        <time>2025-02-10T17:21:30.695Z</time>
      </trkpt>
      <trkpt lat="41.719840597361326" lon="-4.536548852920532">
        <ele>862.48</ele>
        <time>2025-02-10T17:21:33.760Z</time>
      </trkpt>
      <trkpt lat="41.72000169754028" lon="-4.536452293395996">
        <ele>862.69</ele>
        <time>2025-02-10T17:21:36.828Z</time>
      </trkpt>
      <trkpt lat="41.72006607055664" lon="-4.536280632019043">
        <ele>862.85</ele>
        <time>2025-02-10T17:21:39.899Z</time>
      </trkpt>
      <trkpt lat="41.719958782196045" lon="-4.536044597625732">
        <ele>862.98</ele>
        <time>2025-02-10T17:21:42.974Z</time>
      </trkpt>
      <trkpt lat="41.71993296593428" lon="-4.535933369770646">
        <ele>863.13</ele>
        <time>2025-02-10T17:21:46.051Z</time>
      </trkpt>
      <trkpt lat="41.719925506040454" lon="-4.535901015624404">
        <ele>863.27</ele>
        <time>2025-02-10T17:21:49.128Z</time>
      </trkpt>
      <trkpt lat="41.71992517076433" lon="-4.535899506881833">
        <ele>863.4</ele>
        <time>2025-02-10T17:21:52.205Z</time>
      </trkpt>
      <trkpt lat="41.71992441639304" lon="-4.535896070301533">
        <ele>863.51</ele>
        <time>2025-02-10T17:21:55.282Z</time>
      </trkpt>
      <trkpt lat="41.719917207956314" lon="-4.535864721983671">
        <ele>863.63</ele>
        <time>2025-02-10T17:21:58.360Z</time>
      </trkpt>
      <trkpt lat="41.71991008333862" lon="-4.535833541303873">
        <ele>863.73</ele>
        <time>2025-02-10T17:22:01.438Z</time>
      </trkpt>
      <trkpt lat="41.71991008333862" lon="-4.535833625122905">
        <ele>863.83</ele>
        <time>2025-02-10T17:22:04.516Z</time>
      </trkpt>
      <trkpt lat="41.71989440917969" lon="-4.535765647888184">
        <ele>863.92</ele>
        <time>2025-02-10T17:22:07.595Z</time>
      </trkpt>
      <trkpt lat="41.71985149383545" lon="-4.535636901855469">
        <ele>864.01</ele>
        <time>2025-02-10T17:22:10.677Z</time>
      </trkpt>
      <trkpt lat="41.71971193514764" lon="-4.535443615168333">
        <ele>864.13</ele>
        <time>2025-02-10T17:22:13.763Z</time>
      </trkpt>
      <trkpt lat="41.7195725440979" lon="-4.535250663757324">
        <ele>864.22</ele>
        <time>2025-02-10T17:22:16.853Z</time>
      </trkpt>
      <trkpt lat="41.719540022313595" lon="-4.535153601318598">
        <ele>864.3</ele>
        <time>2025-02-10T17:22:19.944Z</time>
      </trkpt>
      <trkpt lat="41.719529712572694" lon="-4.535122588276863">
        <ele>864.37</ele>
        <time>2025-02-10T17:22:23.036Z</time>
      </trkpt>
      <trkpt lat="41.719529293477535" lon="-4.535121163353324">
        <ele>864.42</ele>
        <time>2025-02-10T17:22:26.128Z</time>
      </trkpt>
      <trkpt lat="41.71952820383012" lon="-4.535117726773024">
        <ele>864.47</ele>
        <time>2025-02-10T17:22:29.220Z</time>
      </trkpt>
      <trkpt lat="41.71951822936535" lon="-4.535087635740638">
        <ele>864.52</ele>
        <time>2025-02-10T17:22:32.312Z</time>
      </trkpt>
      <trkpt lat="41.719508254900575" lon="-4.535057712346315">
        <ele>864.56</ele>
        <time>2025-02-10T17:22:35.405Z</time>
      </trkpt>
      <trkpt lat="41.719493586570024" lon="-4.5350137911736965">
        <ele>864.6</ele>
        <time>2025-02-10T17:22:38.498Z</time>
      </trkpt>
      <trkpt lat="41.719486713409424" lon="-4.5349931716918945">
        <ele>864.63</ele>
        <time>2025-02-10T17:22:41.592Z</time>
      </trkpt>
      <trkpt lat="41.71934346668422" lon="-4.534756885841489">
        <ele>864.67</ele>
        <time>2025-02-10T17:22:44.690Z</time>
      </trkpt>
      <trkpt lat="41.71920030377805" lon="-4.534520683810115">
        <ele>864.7</ele>
        <time>2025-02-10T17:22:47.793Z</time>
      </trkpt>
      <trkpt lat="41.71905755996704" lon="-4.534285068511963">
        <ele>864.68</ele>
        <time>2025-02-10T17:22:50.900Z</time>
      </trkpt>
      <trkpt lat="41.718864273279905" lon="-4.534002346917987">
        <ele>864.67</ele>
        <time>2025-02-10T17:22:54.013Z</time>
      </trkpt>
      <trkpt lat="41.7186710704118" lon="-4.533719625324011">
        <ele>864.66</ele>
        <time>2025-02-10T17:22:57.132Z</time>
      </trkpt>
      <trkpt lat="41.718477783724666" lon="-4.533436903730035">
        <ele>864.68</ele>
        <time>2025-02-10T17:23:00.257Z</time>
      </trkpt>
      <trkpt lat="41.71828458085656" lon="-4.533154182136059">
        <ele>864.67</ele>
        <time>2025-02-10T17:23:03.387Z</time>
      </trkpt>
      <trkpt lat="41.718091294169426" lon="-4.5328715443611145">
        <ele>864.63</ele>
        <time>2025-02-10T17:23:06.523Z</time>
      </trkpt>
      <trkpt lat="41.71789884567261" lon="-4.532589912414551">
        <ele>864.58</ele>
        <time>2025-02-10T17:23:09.665Z</time>
      </trkpt>
      <trkpt lat="41.71774855814874" lon="-4.5323823764920235">
        <ele>864.56</ele>
        <time>2025-02-10T17:23:12.811Z</time>
      </trkpt>
      <trkpt lat="41.717598270624876" lon="-4.532174840569496">
        <ele>864.55</ele>
        <time>2025-02-10T17:23:15.961Z</time>
      </trkpt>
      <trkpt lat="41.717448234558105" lon="-4.531967639923096">
        <ele>864.47</ele>
        <time>2025-02-10T17:23:19.116Z</time>
      </trkpt>
      <trkpt lat="41.717340778559446" lon="-4.531763540580869">
        <ele>864.4</ele>
        <time>2025-02-10T17:23:22.275Z</time>
      </trkpt>
      <trkpt lat="41.717233657836914" lon="-4.531559944152832">
        <ele>864.33</ele>
        <time>2025-02-10T17:23:25.437Z</time>
      </trkpt>
      <trkpt lat="41.71706585213542" lon="-4.531312845647335">
        <ele>864.27</ele>
        <time>2025-02-10T17:23:28.604Z</time>
      </trkpt>
      <trkpt lat="41.71689813025296" lon="-4.531065747141838">
        <ele>864.21</ele>
        <time>2025-02-10T17:23:31.776Z</time>
      </trkpt>
      <trkpt lat="41.716783633455634" lon="-4.53089727088809">
        <ele>864.15</ele>
        <time>2025-02-10T17:23:34.952Z</time>
      </trkpt>
      <trkpt lat="41.716766534373164" lon="-4.530872041359544">
        <ele>864.08</ele>
        <time>2025-02-10T17:23:38.128Z</time>
      </trkpt>
      <trkpt lat="41.71676578000188" lon="-4.5308708678931">
        <ele>864.01</ele>
        <time>2025-02-10T17:23:41.304Z</time>
      </trkpt>
      <trkpt lat="41.71676393598318" lon="-4.530868101865053">
        <ele>863.94</ele>
        <time>2025-02-10T17:23:44.480Z</time>
      </trkpt>
      <trkpt lat="41.7167473398149" lon="-4.530843626707792">
        <ele>863.87</ele>
        <time>2025-02-10T17:23:47.657Z</time>
      </trkpt>
      <trkpt lat="41.71673074364662" lon="-4.530819235369563">
        <ele>863.78</ele>
        <time>2025-02-10T17:23:50.834Z</time>
      </trkpt>
      <trkpt lat="41.716520357877016" lon="-4.530509356409311">
        <ele>863.66</ele>
        <time>2025-02-10T17:23:54.017Z</time>
      </trkpt>
      <trkpt lat="41.71630997210741" lon="-4.5301994774490595">
        <ele>863.64</ele>
        <time>2025-02-10T17:23:57.207Z</time>
      </trkpt>
      <trkpt lat="41.716099586337805" lon="-4.529889598488808">
        <ele>863.61</ele>
        <time>2025-02-10T17:24:00.403Z</time>
      </trkpt>
      <trkpt lat="41.7158892005682" lon="-4.529579719528556">
        <ele>863.53</ele>
        <time>2025-02-10T17:24:03.605Z</time>
      </trkpt>
      <trkpt lat="41.71567881479859" lon="-4.529269840568304">
        <ele>863.44</ele>
        <time>2025-02-10T17:24:06.814Z</time>
      </trkpt>
      <trkpt lat="41.71546842902899" lon="-4.528959961608052">
        <ele>863.3</ele>
        <time>2025-02-10T17:24:10.029Z</time>
      </trkpt>
      <trkpt lat="41.71525804325938" lon="-4.5286500826478004">
        <ele>863.18</ele>
        <time>2025-02-10T17:24:13.250Z</time>
      </trkpt>
      <trkpt lat="41.71504765748978" lon="-4.528340203687549">
        <ele>863.03</ele>
        <time>2025-02-10T17:24:16.477Z</time>
      </trkpt>
      <trkpt lat="41.7148373555392" lon="-4.528030324727297">
        <ele>862.87</ele>
        <time>2025-02-10T17:24:19.711Z</time>
      </trkpt>
      <trkpt lat="41.7146269697696" lon="-4.527720445767045">
        <ele>862.78</ele>
        <time>2025-02-10T17:24:22.951Z</time>
      </trkpt>
      <trkpt lat="41.71441658399999" lon="-4.527410650625825">
        <ele>862.71</ele>
        <time>2025-02-10T17:24:26.197Z</time>
      </trkpt>
      <trkpt lat="41.714206198230386" lon="-4.527100771665573">
        <ele>862.55</ele>
        <time>2025-02-10T17:24:29.449Z</time>
      </trkpt>
      <trkpt lat="41.71399581246078" lon="-4.526790892705321">
        <ele>862.35</ele>
        <time>2025-02-10T17:24:32.708Z</time>
      </trkpt>
      <trkpt lat="41.713785426691175" lon="-4.5264810137450695">
        <ele>862.19</ele>
        <time>2025-02-10T17:24:35.973Z</time>
      </trkpt>
      <trkpt lat="41.71357504092157" lon="-4.526171134784818">
        <ele>862.06</ele>
        <time>2025-02-10T17:24:39.244Z</time>
      </trkpt>
      <trkpt lat="41.71336465515196" lon="-4.525861339643598">
        <ele>861.94</ele>
        <time>2025-02-10T17:24:42.521Z</time>
      </trkpt>
      <trkpt lat="41.71315426938236" lon="-4.525551460683346">
        <ele>861.83</ele>
        <time>2025-02-10T17:24:45.805Z</time>
      </trkpt>
      <trkpt lat="41.712943967431784" lon="-4.525241581723094">
        <ele>861.64</ele>
        <time>2025-02-10T17:24:49.095Z</time>
      </trkpt>
      <trkpt lat="41.71273358166218" lon="-4.524931702762842">
        <ele>861.51</ele>
        <time>2025-02-10T17:24:52.391Z</time>
      </trkpt>
      <trkpt lat="41.71252319589257" lon="-4.524621907621622">
        <ele>861.44</ele>
        <time>2025-02-10T17:24:55.693Z</time>
      </trkpt>
      <trkpt lat="41.71231281012297" lon="-4.52431202866137">
        <ele>861.41</ele>
        <time>2025-02-10T17:24:59.002Z</time>
      </trkpt>
      <trkpt lat="41.71210527420044" lon="-4.5240068435668945">
        <ele>861.34</ele>
        <time>2025-02-10T17:25:02.317Z</time>
      </trkpt>
      <trkpt lat="41.71210535801947" lon="-4.5240068435668945">
        <ele>861.26</ele>
        <time>2025-02-10T17:25:05.632Z</time>
      </trkpt>
      <trkpt lat="41.71201944351196" lon="-4.5238566398620605">
        <ele>861.18</ele>
        <time>2025-02-10T17:25:08.950Z</time>
      </trkpt>
      <trkpt lat="41.71183411963284" lon="-4.523588921874762">
        <ele>861.09</ele>
        <time>2025-02-10T17:25:12.273Z</time>
      </trkpt>
      <trkpt lat="41.71182640828192" lon="-4.523577690124512">
        <ele>861.04</ele>
        <time>2025-02-10T17:25:15.596Z</time>
      </trkpt>
      <trkpt lat="41.71181467361748" lon="-4.523587832227349">
        <ele>861.0</ele>
        <time>2025-02-10T17:25:18.920Z</time>
      </trkpt>
      <trkpt lat="41.7118136677891" lon="-4.523588754236698">
        <ele>860.97</ele>
        <time>2025-02-10T17:25:22.244Z</time>
      </trkpt>
      <trkpt lat="41.711811404675245" lon="-4.523590849712491">
        <ele>860.95</ele>
        <time>2025-02-10T17:25:25.568Z</time>
      </trkpt>
      <trkpt lat="41.71179070137441" lon="-4.523609206080437">
        <ele>860.95</ele>
        <time>2025-02-10T17:25:28.892Z</time>
      </trkpt>
      <trkpt lat="41.71176999807358" lon="-4.523627562448382">
        <ele>860.95</ele>
        <time>2025-02-10T17:25:32.217Z</time>
      </trkpt>
      <trkpt lat="41.71182640828192" lon="-4.523577690124512">
        <ele>861.04</ele>
        <time>2025-02-10T17:25:35.543Z</time>
      </trkpt>
      <trkpt lat="41.71182632446289" lon="-4.523577690124512">
        <ele>861.0</ele>
        <time>2025-02-10T17:25:38.869Z</time>
      </trkpt>
      <trkpt lat="41.71208373270929" lon="-4.523341655731201">
        <ele>861.05</ele>
        <time>2025-02-10T17:25:42.201Z</time>
      </trkpt>
      <trkpt lat="41.71234139241278" lon="-4.523105621337891">
        <ele>861.08</ele>
        <time>2025-02-10T17:25:45.540Z</time>
      </trkpt>
      <trkpt lat="41.71234130859375" lon="-4.523105621337891">
        <ele>861.15</ele>
        <time>2025-02-10T17:25:48.879Z</time>
      </trkpt>
      <trkpt lat="41.71256653033197" lon="-4.522901773452759">
        <ele>861.19</ele>
        <time>2025-02-10T17:25:52.223Z</time>
      </trkpt>
      <trkpt lat="41.71279191970825" lon="-4.522697925567627">
        <ele>861.3</ele>
        <time>2025-02-10T17:25:55.573Z</time>
      </trkpt>
      <trkpt lat="41.71296332962811" lon="-4.522655010223389">
        <ele>861.41</ele>
        <time>2025-02-10T17:25:58.926Z</time>
      </trkpt>
      <trkpt lat="41.71313524246216" lon="-4.52261209487915">
        <ele>861.55</ele>
        <time>2025-02-10T17:26:02.283Z</time>
      </trkpt>
      <trkpt lat="41.71343548223376" lon="-4.522625338286161">
        <ele>861.69</ele>
        <time>2025-02-10T17:26:05.646Z</time>
      </trkpt>
      <trkpt lat="41.7137358058244" lon="-4.5226385816931725">
        <ele>861.81</ele>
        <time>2025-02-10T17:26:09.015Z</time>
      </trkpt>
      <trkpt lat="41.714036129415035" lon="-4.522651908919215">
        <ele>861.95</ele>
        <time>2025-02-10T17:26:12.390Z</time>
      </trkpt>
      <trkpt lat="41.71433636918664" lon="-4.522665152326226">
        <ele>862.09</ele>
        <time>2025-02-10T17:26:15.771Z</time>
      </trkpt>
      <trkpt lat="41.714636692777276" lon="-4.522678395733237">
        <ele>862.18</ele>
        <time>2025-02-10T17:26:19.158Z</time>
      </trkpt>
      <trkpt lat="41.71493701636791" lon="-4.52269172295928">
        <ele>862.33</ele>
        <time>2025-02-10T17:26:22.551Z</time>
      </trkpt>
      <trkpt lat="41.71523733995855" lon="-4.522704966366291">
        <ele>862.52</ele>
        <time>2025-02-10T17:26:25.950Z</time>
      </trkpt>
      <trkpt lat="41.71553757973015" lon="-4.522718209773302">
        <ele>862.72</ele>
        <time>2025-02-10T17:26:29.355Z</time>
      </trkpt>
      <trkpt lat="41.71583790332079" lon="-4.522731536999345">
        <ele>862.93</ele>
        <time>2025-02-10T17:26:32.766Z</time>
      </trkpt>
      <trkpt lat="41.716138226911426" lon="-4.522744780406356">
        <ele>863.13</ele>
        <time>2025-02-10T17:26:36.183Z</time>
      </trkpt>
      <trkpt lat="41.71643846668303" lon="-4.522758023813367">
        <ele>863.33</ele>
        <time>2025-02-10T17:26:39.606Z</time>
      </trkpt>
      <trkpt lat="41.716738790273666" lon="-4.52277135103941">
        <ele>863.49</ele>
        <time>2025-02-10T17:26:43.035Z</time>
      </trkpt>
      <trkpt lat="41.7170391138643" lon="-4.522784594446421">
        <ele>863.68</ele>
        <time>2025-02-10T17:26:46.470Z</time>
      </trkpt>
      <trkpt lat="41.71733943745494" lon="-4.522797837853432">
        <ele>863.85</ele>
        <time>2025-02-10T17:26:49.911Z</time>
      </trkpt>
      <trkpt lat="41.71763967722654" lon="-4.5228111650794744">
        <ele>863.94</ele>
        <time>2025-02-10T17:26:53.358Z</time>
      </trkpt>
      <trkpt lat="41.71794000081718" lon="-4.5228244084864855">
        <ele>864.04</ele>
        <time>2025-02-10T17:26:56.811Z</time>
      </trkpt>
      <trkpt lat="41.7181670665741" lon="-4.522834299132228">
        <ele>864.15</ele>
        <time>2025-02-10T17:27:00.268Z</time>
      </trkpt>
      <trkpt lat="41.71819305047393" lon="-4.522835472598672">
        <ele>864.27</ele>
        <time>2025-02-10T17:27:03.726Z</time>
      </trkpt>
      <trkpt lat="41.71819422394037" lon="-4.522835556417704">
        <ele>864.38</ele>
        <time>2025-02-10T17:27:07.184Z</time>
      </trkpt>
      <trkpt lat="41.71819698996842" lon="-4.522835724055767">
        <ele>864.49</ele>
        <time>2025-02-10T17:27:10.642Z</time>
      </trkpt>
      <trkpt lat="41.718222303316" lon="-4.522836897522211">
        <ele>864.59</ele>
        <time>2025-02-10T17:27:14.100Z</time>
      </trkpt>
      <trkpt lat="41.718247616663575" lon="-4.522838070988655">
        <ele>864.69</ele>
        <time>2025-02-10T17:27:17.559Z</time>
      </trkpt>
      <trkpt lat="41.71854215674102" lon="-4.522851062938571">
        <ele>864.74</ele>
        <time>2025-02-10T17:27:21.024Z</time>
      </trkpt>
      <trkpt lat="41.7188367806375" lon="-4.522864054888487">
        <ele>864.83</ele>
        <time>2025-02-10T17:27:24.495Z</time>
      </trkpt>
      <trkpt lat="41.71913140453398" lon="-4.522877046838403">
        <ele>864.92</ele>
        <time>2025-02-10T17:27:27.971Z</time>
      </trkpt>
      <trkpt lat="41.71942602843046" lon="-4.52289012260735">
        <ele>865.04</ele>
        <time>2025-02-10T17:27:31.453Z</time>
      </trkpt>
      <trkpt lat="41.71972065232694" lon="-4.522903114557266">
        <ele>865.16</ele>
        <time>2025-02-10T17:27:34.941Z</time>
      </trkpt>
      <trkpt lat="41.72001527622342" lon="-4.522916106507182">
        <ele>865.28</ele>
        <time>2025-02-10T17:27:38.435Z</time>
      </trkpt>
      <trkpt lat="41.7203099001199" lon="-4.52292918227613">
        <ele>865.37</ele>
        <time>2025-02-10T17:27:41.935Z</time>
      </trkpt>
      <trkpt lat="41.72060452401638" lon="-4.522942174226046">
        <ele>865.44</ele>
        <time>2025-02-10T17:27:45.441Z</time>
      </trkpt>
      <trkpt lat="41.72090291976929" lon="-4.522955417633057">
        <ele>865.52</ele>
        <time>2025-02-10T17:27:48.953Z</time>
      </trkpt>
      <trkpt lat="41.72118857502937" lon="-4.522955333814025">
        <ele>865.65</ele>
        <time>2025-02-10T17:27:52.471Z</time>
      </trkpt>
      <trkpt lat="41.72147423028946" lon="-4.522955333814025">
        <ele>865.84</ele>
        <time>2025-02-10T17:27:55.994Z</time>
      </trkpt>
      <trkpt lat="41.72176122665405" lon="-4.522955417633057">
        <ele>865.98</ele>
        <time>2025-02-10T17:27:59.523Z</time>
      </trkpt>
      <trkpt lat="41.721996925771236" lon="-4.522998249158263">
        <ele>866.16</ele>
        <time>2025-02-10T17:28:03.057Z</time>
      </trkpt>
      <trkpt lat="41.722233295440674" lon="-4.523041248321533">
        <ele>866.32</ele>
        <time>2025-02-10T17:28:06.596Z</time>
      </trkpt>
      <trkpt lat="41.72253496013582" lon="-4.523121966049075">
        <ele>866.46</ele>
        <time>2025-02-10T17:28:10.141Z</time>
      </trkpt>
      <trkpt lat="41.72283662483096" lon="-4.523202767595649">
        <ele>866.64</ele>
        <time>2025-02-10T17:28:13.692Z</time>
      </trkpt>
      <trkpt lat="41.723138289526105" lon="-4.523283485323191">
        <ele>866.84</ele>
        <time>2025-02-10T17:28:17.249Z</time>
      </trkpt>
      <trkpt lat="41.72343995422125" lon="-4.523364286869764">
        <ele>867.0</ele>
        <time>2025-02-10T17:28:20.812Z</time>
      </trkpt>
      <trkpt lat="41.72374161891639" lon="-4.523445088416338">
        <ele>867.21</ele>
        <time>2025-02-10T17:28:24.381Z</time>
      </trkpt>
      <trkpt lat="41.724043283611536" lon="-4.52352580614388">
        <ele>867.47</ele>
        <time>2025-02-10T17:28:27.956Z</time>
      </trkpt>
      <trkpt lat="41.72434494830668" lon="-4.5236066076904535">
        <ele>867.65</ele>
        <time>2025-02-10T17:28:31.538Z</time>
      </trkpt>
      <trkpt lat="41.72464661300182" lon="-4.523687409237027">
        <ele>867.72</ele>
        <time>2025-02-10T17:28:35.126Z</time>
      </trkpt>
      <trkpt lat="41.72494827769697" lon="-4.523768126964569">
        <ele>867.85</ele>
        <time>2025-02-10T17:28:38.720Z</time>
      </trkpt>
      <trkpt lat="41.72524994239211" lon="-4.523848928511143">
        <ele>868.02</ele>
        <time>2025-02-10T17:28:42.320Z</time>
      </trkpt>
      <trkpt lat="41.725551607087255" lon="-4.523929730057716">
        <ele>868.16</ele>
        <time>2025-02-10T17:28:45.926Z</time>
      </trkpt>
      <trkpt lat="41.7258532717824" lon="-4.524010447785258">
        <ele>868.29</ele>
        <time>2025-02-10T17:28:49.538Z</time>
      </trkpt>
      <trkpt lat="41.72616004943848" lon="-4.524092674255371">
        <ele>868.46</ele>
        <time>2025-02-10T17:28:53.157Z</time>
      </trkpt>
      <trkpt lat="41.7261950019747" lon="-4.524103989824653">
        <ele>868.59</ele>
        <time>2025-02-10T17:28:56.776Z</time>
      </trkpt>
      <trkpt lat="41.726220063865185" lon="-4.524112204089761">
        <ele>868.72</ele>
        <time>2025-02-10T17:29:00.396Z</time>
      </trkpt>
      <trkpt lat="41.7262211535126" lon="-4.524112623184919">
        <ele>868.84</ele>
        <time>2025-02-10T17:29:04.016Z</time>
      </trkpt>
      <trkpt lat="41.72622383572161" lon="-4.524113545194268">
        <ele>868.95</ele>
        <time>2025-02-10T17:29:07.636Z</time>
      </trkpt>
      <trkpt lat="41.72624814324081" lon="-4.524121508002281">
        <ele>869.05</ele>
        <time>2025-02-10T17:29:11.256Z</time>
      </trkpt>
      <trkpt lat="41.72627253457904" lon="-4.524129554629326">
        <ele>869.15</ele>
        <time>2025-02-10T17:29:14.877Z</time>
      </trkpt>
      <trkpt lat="41.72616004943848" lon="-4.524092674255371">
        <ele>868.46</ele>
        <time>2025-02-10T17:29:18.500Z</time>
      </trkpt>
      <trkpt lat="41.7258738912642" lon="-4.524016063660383">
        <ele>869.27</ele>
        <time>2025-02-10T17:29:22.129Z</time>
      </trkpt>
      <trkpt lat="41.725587816908956" lon="-4.523939453065395">
        <ele>869.35</ele>
        <time>2025-02-10T17:29:25.764Z</time>
      </trkpt>
      <trkpt lat="41.72530165873468" lon="-4.5238628424704075">
        <ele>869.42</ele>
        <time>2025-02-10T17:29:29.405Z</time>
      </trkpt>
      <trkpt lat="41.725015584379435" lon="-4.52378623187542">
        <ele>869.45</ele>
        <time>2025-02-10T17:29:33.052Z</time>
      </trkpt>
      <trkpt lat="41.72472942620516" lon="-4.523709621280432">
        <ele>869.48</ele>
        <time>2025-02-10T17:29:36.704Z</time>
      </trkpt>
      <trkpt lat="41.724443351849914" lon="-4.523633010685444">
        <ele>869.59</ele>
        <time>2025-02-10T17:29:40.362Z</time>
      </trkpt>
      <trkpt lat="41.72420564107597" lon="-4.5235692244023085">
        <ele>869.65</ele>
        <time>2025-02-10T17:29:44.025Z</time>
      </trkpt>
      <trkpt lat="41.724180076271296" lon="-4.523562351241708">
        <ele>869.65</ele>
        <time>2025-02-10T17:29:47.689Z</time>
      </trkpt>
      <trkpt lat="41.72417898662388" lon="-4.523562099784613">
        <ele>869.63</ele>
        <time>2025-02-10T17:29:51.353Z</time>
      </trkpt>
      <trkpt lat="41.72417622059584" lon="-4.523561429232359">
        <ele>869.61</ele>
        <time>2025-02-10T17:29:55.017Z</time>
      </trkpt>
      <trkpt lat="41.724154679104686" lon="-4.523555729538202">
        <ele>869.56</ele>
        <time>2025-02-10T17:29:58.681Z</time>
      </trkpt>
      <trkpt lat="41.72415786422789" lon="-4.523556567728519">
        <ele>869.51</ele>
        <time>2025-02-10T17:30:02.345Z</time>
      </trkpt>
      <trkpt lat="41.724726827815175" lon="-4.523708866909146">
        <ele>869.33</ele>
        <time>2025-02-10T17:30:06.021Z</time>
      </trkpt>
      <trkpt lat="41.72501298598945" lon="-4.523785477504134">
        <ele>869.25</ele>
        <time>2025-02-10T17:30:09.703Z</time>
      </trkpt>
      <trkpt lat="41.725299060344696" lon="-4.523862088099122">
        <ele>869.18</ele>
        <time>2025-02-10T17:30:13.390Z</time>
      </trkpt>
      <trkpt lat="41.72558521851897" lon="-4.52393869869411">
        <ele>869.07</ele>
        <time>2025-02-10T17:30:17.083Z</time>
      </trkpt>
      <trkpt lat="41.72587129287422" lon="-4.524015309289098">
        <ele>868.94</ele>
        <time>2025-02-10T17:30:20.782Z</time>
      </trkpt>
      <trkpt lat="41.72616004943848" lon="-4.524092674255371">
        <ele>868.46</ele>
        <time>2025-02-10T17:30:24.487Z</time>
      </trkpt>
      <trkpt lat="41.72643430531025" lon="-4.524182612076402">
        <ele>868.74</ele>
        <time>2025-02-10T17:30:28.198Z</time>
      </trkpt>
      <trkpt lat="41.726708645001054" lon="-4.524272633716464">
        <ele>868.58</ele>
        <time>2025-02-10T17:30:31.914Z</time>
      </trkpt>
      <trkpt lat="41.72698298469186" lon="-4.524362655356526">
        <ele>868.46</ele>
        <time>2025-02-10T17:30:35.636Z</time>
      </trkpt>
      <trkpt lat="41.72725732438266" lon="-4.524452676996589">
        <ele>868.32</ele>
        <time>2025-02-10T17:30:39.364Z</time>
      </trkpt>
      <trkpt lat="41.7275333404541" lon="-4.524543285369873">
        <ele>868.18</ele>
        <time>2025-02-10T17:30:43.097Z</time>
      </trkpt>
      <trkpt lat="41.72776375897229" lon="-4.524650406092405">
        <ele>867.99</ele>
        <time>2025-02-10T17:30:46.835Z</time>
      </trkpt>
      <trkpt lat="41.72799417749047" lon="-4.524757610633969">
        <ele>867.72</ele>
        <time>2025-02-10T17:30:50.578Z</time>
      </trkpt>
      <trkpt lat="41.72822459600866" lon="-4.524864815175533">
        <ele>867.42</ele>
        <time>2025-02-10T17:30:54.326Z</time>
      </trkpt>
      <trkpt lat="41.728456020355225" lon="-4.524972438812256">
        <ele>867.16</ele>
        <time>2025-02-10T17:30:58.079Z</time>
      </trkpt>
      <trkpt lat="41.72872759401798" lon="-4.5251439325511456">
        <ele>866.99</ele>
        <time>2025-02-10T17:31:01.838Z</time>
      </trkpt>
      <trkpt lat="41.72899916768074" lon="-4.525315426290035">
        <ele>866.81</ele>
        <time>2025-02-10T17:31:05.603Z</time>
      </trkpt>
      <trkpt lat="41.7292707413435" lon="-4.525487003847957">
        <ele>866.58</ele>
        <time>2025-02-10T17:31:09.374Z</time>
      </trkpt>
      <trkpt lat="41.72954239882529" lon="-4.525658497586846">
        <ele>866.35</ele>
        <time>2025-02-10T17:31:13.151Z</time>
      </trkpt>
      <trkpt lat="41.729813972488046" lon="-4.525829991325736">
        <ele>866.19</ele>
        <time>2025-02-10T17:31:16.934Z</time>
      </trkpt>
      <trkpt lat="41.730085546150804" lon="-4.5260015688836575">
        <ele>865.99</ele>
        <time>2025-02-10T17:31:20.723Z</time>
      </trkpt>
      <trkpt lat="41.73035711981356" lon="-4.526173062622547">
        <ele>865.79</ele>
        <time>2025-02-10T17:31:24.518Z</time>
      </trkpt>
      <trkpt lat="41.73062877729535" lon="-4.526344640180469">
        <ele>865.6</ele>
        <time>2025-02-10T17:31:28.319Z</time>
      </trkpt>
      <trkpt lat="41.73090035095811" lon="-4.526516133919358">
        <ele>865.42</ele>
        <time>2025-02-10T17:31:32.126Z</time>
      </trkpt>
      <trkpt lat="41.73117192462087" lon="-4.52668771147728">
        <ele>865.24</ele>
        <time>2025-02-10T17:31:35.939Z</time>
      </trkpt>
      <trkpt lat="41.731443498283625" lon="-4.526859205216169">
        <ele>865.01</ele>
        <time>2025-02-10T17:31:39.758Z</time>
      </trkpt>
      <trkpt lat="41.731717586517334" lon="-4.527032375335693">
        <ele>864.82</ele>
        <time>2025-02-10T17:31:43.583Z</time>
      </trkpt>
      <trkpt lat="41.731927301734686" lon="-4.527183081954718">
        <ele>864.67</ele>
        <time>2025-02-10T17:31:47.413Z</time>
      </trkpt>
      <trkpt lat="41.73204473219812" lon="-4.527267487719655">
        <ele>864.52</ele>
        <time>2025-02-10T17:31:51.245Z</time>
      </trkpt>
      <trkpt lat="41.732067447155714" lon="-4.5272838324308395">
        <ele>864.38</ele>
        <time>2025-02-10T17:31:55.078Z</time>
      </trkpt>
      <trkpt lat="41.732068536803126" lon="-4.527284586802125">
        <ele>864.26</ele>
        <time>2025-02-10T17:31:58.911Z</time>
      </trkpt>
      <trkpt lat="41.732070967555046" lon="-4.527286347001791">
        <ele>864.14</ele>
        <time>2025-02-10T17:32:02.744Z</time>
      </trkpt>
      <trkpt lat="41.73209301196039" lon="-4.527302188798785">
        <ele>864.04</ele>
        <time>2025-02-10T17:32:06.578Z</time>
      </trkpt>
      <trkpt lat="41.73213710077107" lon="-4.527333872392774">
        <ele>863.94</ele>
        <time>2025-02-10T17:32:10.413Z</time>
      </trkpt>
      <trkpt lat="41.73234723508358" lon="-4.527484914287925">
        <ele>863.86</ele>
        <time>2025-02-10T17:32:14.252Z</time>
      </trkpt>
      <trkpt lat="41.73234958201647" lon="-4.527486590668559">
        <ele>863.79</ele>
        <time>2025-02-10T17:32:18.091Z</time>
      </trkpt>
      <trkpt lat="41.73237229697406" lon="-4.527502935379744">
        <ele>863.73</ele>
        <time>2025-02-10T17:32:21.931Z</time>
      </trkpt>
      <trkpt lat="41.73237330280244" lon="-4.527503689751029">
        <ele>863.67</ele>
        <time>2025-02-10T17:32:25.771Z</time>
      </trkpt>
      <trkpt lat="41.73237573355436" lon="-4.527505449950695">
        <ele>863.63</ele>
        <time>2025-02-10T17:32:29.611Z</time>
      </trkpt>
      <trkpt lat="41.732397777959704" lon="-4.527521291747689">
        <ele>863.6</ele>
        <time>2025-02-10T17:32:33.451Z</time>
      </trkpt>
      <trkpt lat="41.73240423202515" lon="-4.527525901794434">
        <ele>863.58</ele>
        <time>2025-02-10T17:32:37.292Z</time>
      </trkpt>
      <trkpt lat="41.73249006271362" lon="-4.527719020843506">
        <ele>863.56</ele>
        <time>2025-02-10T17:32:41.136Z</time>
      </trkpt>
      <trkpt lat="41.73251152038574" lon="-4.527847766876221">
        <ele>863.57</ele>
        <time>2025-02-10T17:32:44.982Z</time>
      </trkpt>
      <trkpt lat="41.73250883817673" lon="-4.527866626158357">
        <ele>863.57</ele>
        <time>2025-02-10T17:32:48.828Z</time>
      </trkpt>
      <trkpt lat="41.73240423202515" lon="-4.528598785400391">
        <ele>863.61</ele>
        <time>2025-02-10T17:32:52.685Z</time>
      </trkpt>
      <trkpt lat="41.732382690533996" lon="-4.529007403180003">
        <ele>863.63</ele>
        <time>2025-02-10T17:32:56.549Z</time>
      </trkpt>
      <trkpt lat="41.73236131668091" lon="-4.529414176940918">
        <ele>863.62</ele>
        <time>2025-02-10T17:33:00.419Z</time>
      </trkpt>
      <trkpt lat="41.73238277435303" lon="-4.5296502113342285">
        <ele>863.65</ele>
        <time>2025-02-10T17:33:04.292Z</time>
      </trkpt>
      <trkpt lat="41.73249006271362" lon="-4.530036449432373">
        <ele>863.66</ele>
        <time>2025-02-10T17:33:08.171Z</time>
      </trkpt>
      <trkpt lat="41.732590310275555" lon="-4.530337359756231">
        <ele>863.67</ele>
        <time>2025-02-10T17:33:12.055Z</time>
      </trkpt>
      <trkpt lat="41.73269064165652" lon="-4.53063827008009">
        <ele>863.72</ele>
        <time>2025-02-10T17:33:15.944Z</time>
      </trkpt>
      <trkpt lat="41.73279047012329" lon="-4.530937671661377">
        <ele>863.76</ele>
        <time>2025-02-10T17:33:19.838Z</time>
      </trkpt>
      <trkpt lat="41.73287630081177" lon="-4.531238079071045">
        <ele>863.78</ele>
        <time>2025-02-10T17:33:23.737Z</time>
      </trkpt>
      <trkpt lat="41.73292709514499" lon="-4.531644266098738">
        <ele>863.83</ele>
        <time>2025-02-10T17:33:27.642Z</time>
      </trkpt>
      <trkpt lat="41.73297788947821" lon="-4.532050536945462">
        <ele>863.91</ele>
        <time>2025-02-10T17:33:31.553Z</time>
      </trkpt>
      <trkpt lat="41.733028683811426" lon="-4.532456807792187">
        <ele>864.08</ele>
        <time>2025-02-10T17:33:35.470Z</time>
      </trkpt>
      <trkpt lat="41.733079478144646" lon="-4.532863078638911">
        <ele>864.2</ele>
        <time>2025-02-10T17:33:39.394Z</time>
      </trkpt>
      <trkpt lat="41.733130272477865" lon="-4.533269349485636">
        <ele>864.23</ele>
        <time>2025-02-10T17:33:43.324Z</time>
      </trkpt>
      <trkpt lat="41.733181066811085" lon="-4.53367562033236">
        <ele>864.32</ele>
        <time>2025-02-10T17:33:47.260Z</time>
      </trkpt>
      <trkpt lat="41.733231861144304" lon="-4.534081891179085">
        <ele>864.41</ele>
        <time>2025-02-10T17:33:51.202Z</time>
      </trkpt>
      <trkpt lat="41.733282655477524" lon="-4.534488162025809">
        <ele>864.41</ele>
        <time>2025-02-10T17:33:55.150Z</time>
      </trkpt>
      <trkpt lat="41.73333344981074" lon="-4.534894432872534">
        <ele>864.43</ele>
        <time>2025-02-10T17:33:59.104Z</time>
      </trkpt>
      <trkpt lat="41.73338424414396" lon="-4.535300703719258">
        <ele>864.44</ele>
        <time>2025-02-10T17:34:03.065Z</time>
      </trkpt>
      <trkpt lat="41.73343503847718" lon="-4.535706974565983">
        <ele>864.53</ele>
        <time>2025-02-10T17:34:07.032Z</time>
      </trkpt>
      <trkpt lat="41.7334858328104" lon="-4.536113245412707">
        <ele>864.63</ele>
        <time>2025-02-10T17:34:11.005Z</time>
      </trkpt>
      <trkpt lat="41.73353662714362" lon="-4.536519516259432">
        <ele>864.59</ele>
        <time>2025-02-10T17:34:14.984Z</time>
      </trkpt>
      <trkpt lat="41.73358742147684" lon="-4.536925787106156">
        <ele>864.56</ele>
        <time>2025-02-10T17:34:18.969Z</time>
      </trkpt>
      <trkpt lat="41.73363821581006" lon="-4.537332057952881">
        <ele>864.6</ele>
        <time>2025-02-10T17:34:22.960Z</time>
      </trkpt>
      <trkpt lat="41.73368901014328" lon="-4.537738328799605">
        <ele>864.64</ele>
        <time>2025-02-10T17:34:26.958Z</time>
      </trkpt>
      <trkpt lat="41.733736703172326" lon="-4.538120208308101">
        <ele>864.61</ele>
        <time>2025-02-10T17:34:30.961Z</time>
      </trkpt>
      <trkpt lat="41.7337398044765" lon="-4.53814459964633">
        <ele>864.61</ele>
        <time>2025-02-10T17:34:34.965Z</time>
      </trkpt>
      <trkpt lat="41.73374081030488" lon="-4.53815340064466">
        <ele>864.6</ele>
        <time>2025-02-10T17:34:38.969Z</time>
      </trkpt>
      <trkpt lat="41.733740977942944" lon="-4.538154909387231">
        <ele>864.59</ele>
        <time>2025-02-10T17:34:42.973Z</time>
      </trkpt>
      <trkpt lat="41.733741480857134" lon="-4.538158597424626">
        <ele>864.57</ele>
        <time>2025-02-10T17:34:46.977Z</time>
      </trkpt>
      <trkpt lat="41.73374567180872" lon="-4.5381915383040905">
        <ele>864.55</ele>
        <time>2025-02-10T17:34:50.981Z</time>
      </trkpt>
      <trkpt lat="41.73379059880972" lon="-4.538550786674023">
        <ele>864.55</ele>
        <time>2025-02-10T17:34:54.991Z</time>
      </trkpt>
      <trkpt lat="41.73383904621005" lon="-4.538940126076341">
        <ele>864.56</ele>
        <time>2025-02-10T17:34:59.007Z</time>
      </trkpt>
      <trkpt lat="41.73384189605713" lon="-4.5389628410339355">
        <ele>864.51</ele>
        <time>2025-02-10T17:35:03.023Z</time>
      </trkpt>
      <trkpt lat="41.73388481140137" lon="-4.539048671722412">
        <ele>864.45</ele>
        <time>2025-02-10T17:35:07.041Z</time>
      </trkpt>
      <trkpt lat="41.73409930430353" lon="-4.539236342534423">
        <ele>864.37</ele>
        <time>2025-02-10T17:35:11.064Z</time>
      </trkpt>
      <trkpt lat="41.73431379720569" lon="-4.539424013346434">
        <ele>864.23</ele>
        <time>2025-02-10T17:35:15.092Z</time>
      </trkpt>
      <trkpt lat="41.734528290107846" lon="-4.539611684158444">
        <ele>864.14</ele>
        <time>2025-02-10T17:35:19.125Z</time>
      </trkpt>
      <trkpt lat="41.73474311828613" lon="-4.539799690246582">
        <ele>864.11</ele>
        <time>2025-02-10T17:35:23.163Z</time>
      </trkpt>
      <trkpt lat="41.734936237335205" lon="-4.540057182312012">
        <ele>864.06</ele>
        <time>2025-02-10T17:35:27.207Z</time>
      </trkpt>
      <trkpt lat="41.735086273401976" lon="-4.540142929181457">
        <ele>863.97</ele>
        <time>2025-02-10T17:35:31.254Z</time>
      </trkpt>
      <trkpt lat="41.73523664474487" lon="-4.540228843688965">
        <ele>863.88</ele>
        <time>2025-02-10T17:35:35.304Z</time>
      </trkpt>
      <trkpt lat="41.73538684844971" lon="-4.54035758972168">
        <ele>863.8</ele>
        <time>2025-02-10T17:35:39.358Z</time>
      </trkpt>
      <trkpt lat="41.735515678301454" lon="-4.5405723340809345">
        <ele>863.75</ele>
        <time>2025-02-10T17:35:43.416Z</time>
      </trkpt>
      <trkpt lat="41.73564434051514" lon="-4.5407867431640625">
        <ele>863.67</ele>
        <time>2025-02-10T17:35:47.478Z</time>
      </trkpt>
      <trkpt lat="41.735708713531494" lon="-4.540979862213135">
        <ele>863.59</ele>
        <time>2025-02-10T17:35:51.543Z</time>
      </trkpt>
      <trkpt lat="41.735762441530824" lon="-4.5411840453743935">
        <ele>863.53</ele>
        <time>2025-02-10T17:35:55.611Z</time>
      </trkpt>
      <trkpt lat="41.73581600189209" lon="-4.541387557983398">
        <ele>863.47</ele>
        <time>2025-02-10T17:35:59.683Z</time>
      </trkpt>
      <trkpt lat="41.73588766716421" lon="-4.541731551289558">
        <ele>863.44</ele>
        <time>2025-02-10T17:36:03.760Z</time>
      </trkpt>
      <trkpt lat="41.73595933243632" lon="-4.542075544595718">
        <ele>863.38</ele>
        <time>2025-02-10T17:36:07.842Z</time>
      </trkpt>
      <trkpt lat="41.73603057861328" lon="-4.542417526245117">
        <ele>863.32</ele>
        <time>2025-02-10T17:36:11.930Z</time>
      </trkpt>
      <trkpt lat="41.73603057861328" lon="-4.54278314486146">
        <ele>863.28</ele>
        <time>2025-02-10T17:36:16.023Z</time>
      </trkpt>
      <trkpt lat="41.73603057861328" lon="-4.543147087097168">
        <ele>863.13</ele>
        <time>2025-02-10T17:36:20.122Z</time>
      </trkpt>
      <trkpt lat="41.7360520362854" lon="-4.54334020614624">
        <ele>863.04</ele>
        <time>2025-02-10T17:36:24.224Z</time>
      </trkpt>
      <trkpt lat="41.73612722195685" lon="-4.543544305488467">
        <ele>862.95</ele>
        <time>2025-02-10T17:36:28.329Z</time>
      </trkpt>
      <trkpt lat="41.736202239990234" lon="-4.543747901916504">
        <ele>862.86</ele>
        <time>2025-02-10T17:36:32.437Z</time>
      </trkpt>
      <trkpt lat="41.736255967989564" lon="-4.544070437550545">
        <ele>862.81</ele>
        <time>2025-02-10T17:36:36.550Z</time>
      </trkpt>
      <trkpt lat="41.73630952835083" lon="-4.544391632080078">
        <ele>862.7</ele>
        <time>2025-02-10T17:36:40.668Z</time>
      </trkpt>
      <trkpt lat="41.7364061716944" lon="-4.544617189094424">
        <ele>862.64</ele>
        <time>2025-02-10T17:36:44.790Z</time>
      </trkpt>
      <trkpt lat="41.7365026473999" lon="-4.54484224319458">
        <ele>862.56</ele>
        <time>2025-02-10T17:36:48.916Z</time>
      </trkpt>
      <trkpt lat="41.73658856190741" lon="-4.5450786128640175">
        <ele>862.46</ele>
        <time>2025-02-10T17:36:53.046Z</time>
      </trkpt>
      <trkpt lat="41.736674308776855" lon="-4.545314311981201">
        <ele>862.35</ele>
        <time>2025-02-10T17:36:57.180Z</time>
      </trkpt>
      <trkpt lat="41.736695766448975" lon="-4.545507431030273">
        <ele>862.24</ele>
        <time>2025-02-10T17:37:01.317Z</time>
      </trkpt>
      <trkpt lat="41.7367100995034" lon="-4.5459088403731585">
        <ele>862.14</ele>
        <time>2025-02-10T17:37:05.460Z</time>
      </trkpt>
      <trkpt lat="41.73672443255782" lon="-4.546310333535075">
        <ele>862.0</ele>
        <time>2025-02-10T17:37:09.609Z</time>
      </trkpt>
      <trkpt lat="41.7367323115468" lon="-4.546535974368453">
        <ele>861.85</ele>
        <time>2025-02-10T17:37:13.761Z</time>
      </trkpt>
      <trkpt lat="41.73673356883228" lon="-4.5465700048953295">
        <ele>861.73</ele>
        <time>2025-02-10T17:37:17.914Z</time>
      </trkpt>
      <trkpt lat="41.73673365265131" lon="-4.546571597456932">
        <ele>861.62</ele>
        <time>2025-02-10T17:37:22.067Z</time>
      </trkpt>
      <trkpt lat="41.73673382028937" lon="-4.5465752854943275">
        <ele>861.5</ele>
        <time>2025-02-10T17:37:26.220Z</time>
      </trkpt>
      <trkpt lat="41.73673499375582" lon="-4.546608058735728">
        <ele>861.37</ele>
        <time>2025-02-10T17:37:30.373Z</time>
      </trkpt>
      <trkpt lat="41.73673868179321" lon="-4.546709060668945">
        <ele>861.23</ele>
        <time>2025-02-10T17:37:34.528Z</time>
      </trkpt>
      <trkpt lat="41.73673868179321" lon="-4.547038469463587">
        <ele>861.08</ele>
        <time>2025-02-10T17:37:38.688Z</time>
      </trkpt>
      <trkpt lat="41.73673868179321" lon="-4.547366369515657">
        <ele>860.95</ele>
        <time>2025-02-10T17:37:42.853Z</time>
      </trkpt>
      <trkpt lat="41.73673868179321" lon="-4.547438621520996">
        <ele>860.83</ele>
        <time>2025-02-10T17:37:47.019Z</time>
      </trkpt>
      <trkpt lat="41.73674941062927" lon="-4.547836426645517">
        <ele>860.74</ele>
        <time>2025-02-10T17:37:51.191Z</time>
      </trkpt>
      <trkpt lat="41.73676013946533" lon="-4.548232555389404">
        <ele>860.59</ele>
        <time>2025-02-10T17:37:55.369Z</time>
      </trkpt>
      <trkpt lat="41.736731389537454" lon="-4.548562299460173">
        <ele>860.46</ele>
        <time>2025-02-10T17:37:59.552Z</time>
      </trkpt>
      <trkpt lat="41.73670272342861" lon="-4.548892043530941">
        <ele>860.39</ele>
        <time>2025-02-10T17:38:03.740Z</time>
      </trkpt>
      <trkpt lat="41.736674308776855" lon="-4.549219608306885">
        <ele>860.26</ele>
        <time>2025-02-10T17:38:07.933Z</time>
      </trkpt>
      <trkpt lat="41.736577497795224" lon="-4.549590423703194">
        <ele>860.1</ele>
        <time>2025-02-10T17:38:12.131Z</time>
      </trkpt>
      <trkpt lat="41.736480770632625" lon="-4.549961239099503">
        <ele>860.01</ele>
        <time>2025-02-10T17:38:16.335Z</time>
      </trkpt>
      <trkpt lat="41.736384043470025" lon="-4.550332138314843">
        <ele>859.89</ele>
        <time>2025-02-10T17:38:20.545Z</time>
      </trkpt>
      <trkpt lat="41.73628807067871" lon="-4.5507001876831055">
        <ele>859.77</ele>
        <time>2025-02-10T17:38:24.761Z</time>
      </trkpt>
      <trkpt lat="41.73626652918756" lon="-4.550958266481757">
        <ele>859.65</ele>
        <time>2025-02-10T17:38:28.981Z</time>
      </trkpt>
      <trkpt lat="41.73624515533447" lon="-4.551215171813965">
        <ele>859.52</ele>
        <time>2025-02-10T17:38:33.205Z</time>
      </trkpt>
      <trkpt lat="41.73624515533447" lon="-4.551548520103097">
        <ele>859.37</ele>
        <time>2025-02-10T17:38:37.434Z</time>
      </trkpt>
      <trkpt lat="41.73624515533447" lon="-4.551880359649658">
        <ele>859.2</ele>
        <time>2025-02-10T17:38:41.668Z</time>
      </trkpt>
      <trkpt lat="41.73622369766235" lon="-4.55209493637085">
        <ele>859.08</ele>
        <time>2025-02-10T17:38:45.905Z</time>
      </trkpt>
      <trkpt lat="41.73613786697388" lon="-4.552438259124756">
        <ele>858.95</ele>
        <time>2025-02-10T17:38:50.147Z</time>
      </trkpt>
      <trkpt lat="41.73611640930176" lon="-4.552609920501709">
        <ele>858.81</ele>
        <time>2025-02-10T17:38:54.392Z</time>
      </trkpt>
      <trkpt lat="41.73617013730109" lon="-4.552846373990178">
        <ele>858.68</ele>
        <time>2025-02-10T17:38:58.641Z</time>
      </trkpt>
      <trkpt lat="41.73622369766235" lon="-4.55308198928833">
        <ele>858.6</ele>
        <time>2025-02-10T17:39:02.893Z</time>
      </trkpt>
      <trkpt lat="41.73621288500726" lon="-4.553487589582801">
        <ele>858.55</ele>
        <time>2025-02-10T17:39:07.151Z</time>
      </trkpt>
      <trkpt lat="41.73621288500726" lon="-4.553490607067943">
        <ele>858.45</ele>
        <time>2025-02-10T17:39:11.409Z</time>
      </trkpt>
      <trkpt lat="41.73621196299791" lon="-4.5535212848335505">
        <ele>858.36</ele>
        <time>2025-02-10T17:39:15.668Z</time>
      </trkpt>
      <trkpt lat="41.73621196299791" lon="-4.553522877395153">
        <ele>858.28</ele>
        <time>2025-02-10T17:39:19.927Z</time>
      </trkpt>
      <trkpt lat="41.73621187917888" lon="-4.5535265654325485">
        <ele>858.2</ele>
        <time>2025-02-10T17:39:24.186Z</time>
      </trkpt>
      <trkpt lat="41.736211040988564" lon="-4.553560009226203">
        <ele>858.12</ele>
        <time>2025-02-10T17:39:28.446Z</time>
      </trkpt>
      <trkpt lat="41.736202239990234" lon="-4.553897380828857">
        <ele>858.01</ele>
        <time>2025-02-10T17:39:32.711Z</time>
      </trkpt>
      <trkpt lat="41.73619570210576" lon="-4.554108353331685">
        <ele>857.94</ele>
        <time>2025-02-10T17:39:36.979Z</time>
      </trkpt>
      <trkpt lat="41.73618924804032" lon="-4.554318487644196">
        <ele>857.88</ele>
        <time>2025-02-10T17:39:41.250Z</time>
      </trkpt>
      <trkpt lat="41.736176339909434" lon="-4.554734481498599">
        <ele>857.86</ele>
        <time>2025-02-10T17:39:45.527Z</time>
      </trkpt>
      <trkpt lat="41.73616343177855" lon="-4.5551504753530025">
        <ele>857.77</ele>
        <time>2025-02-10T17:39:49.810Z</time>
      </trkpt>
      <trkpt lat="41.7361506074667" lon="-4.555566553026438">
        <ele>857.72</ele>
        <time>2025-02-10T17:39:54.100Z</time>
      </trkpt>
      <trkpt lat="41.73613786697388" lon="-4.555978775024414">
        <ele>857.71</ele>
        <time>2025-02-10T17:39:58.396Z</time>
      </trkpt>
      <trkpt lat="41.736109117046" lon="-4.556315643712878">
        <ele>857.64</ele>
        <time>2025-02-10T17:40:02.697Z</time>
      </trkpt>
      <trkpt lat="41.73608045093715" lon="-4.556652596220374">
        <ele>857.56</ele>
        <time>2025-02-10T17:40:07.003Z</time>
      </trkpt>
      <trkpt lat="41.7360520362854" lon="-4.556987285614014">
        <ele>857.5</ele>
        <time>2025-02-10T17:40:11.314Z</time>
      </trkpt>
      <trkpt lat="41.7360520362854" lon="-4.5572238229215145">
        <ele>857.47</ele>
        <time>2025-02-10T17:40:15.629Z</time>
      </trkpt>
      <trkpt lat="41.7360520362854" lon="-4.557459354400635">
        <ele>857.48</ele>
        <time>2025-02-10T17:40:19.947Z</time>
      </trkpt>
      <trkpt lat="41.73608422279358" lon="-4.5577604323625565">
        <ele>857.5</ele>
        <time>2025-02-10T17:40:24.270Z</time>
      </trkpt>
      <trkpt lat="41.73611640930176" lon="-4.558060169219971">
        <ele>857.51</ele>
        <time>2025-02-10T17:40:28.597Z</time>
      </trkpt>
      <trkpt lat="41.736202323809266" lon="-4.558361079543829">
        <ele>857.49</ele>
        <time>2025-02-10T17:40:32.929Z</time>
      </trkpt>
      <trkpt lat="41.736288322135806" lon="-4.558662073686719">
        <ele>857.48</ele>
        <time>2025-02-10T17:40:37.266Z</time>
      </trkpt>
      <trkpt lat="41.73632629215717" lon="-4.5587950106710196">
        <ele>857.48</ele>
        <time>2025-02-10T17:40:41.605Z</time>
      </trkpt>
      <trkpt lat="41.73633551225066" lon="-4.5588271133601665">
        <ele>857.49</ele>
        <time>2025-02-10T17:40:45.944Z</time>
      </trkpt>
      <trkpt lat="41.73633593134582" lon="-4.558828622102737">
        <ele>857.5</ele>
        <time>2025-02-10T17:40:50.283Z</time>
      </trkpt>
      <trkpt lat="41.7363369371742" lon="-4.558832058683038">
        <ele>857.51</ele>
        <time>2025-02-10T17:40:54.622Z</time>
      </trkpt>
      <trkpt lat="41.73634582199156" lon="-4.558863155543804">
        <ele>857.53</ele>
        <time>2025-02-10T17:40:58.962Z</time>
      </trkpt>
      <trkpt lat="41.736365016549826" lon="-4.55893037840724">
        <ele>857.55</ele>
        <time>2025-02-10T17:41:03.303Z</time>
      </trkpt>
      <trkpt lat="41.73637390136719" lon="-4.558961391448975">
        <ele>857.57</ele>
        <time>2025-02-10T17:41:07.645Z</time>
      </trkpt>
      <trkpt lat="41.73637415282428" lon="-4.558962732553482">
        <ele>857.6</ele>
        <time>2025-02-10T17:41:11.987Z</time>
      </trkpt>
      <trkpt lat="41.73637457191944" lon="-4.558964241296053">
        <ele>857.62</ele>
        <time>2025-02-10T17:41:16.329Z</time>
      </trkpt>
      <trkpt lat="41.73637541010976" lon="-4.558967761695385">
        <ele>857.65</ele>
        <time>2025-02-10T17:41:20.671Z</time>
      </trkpt>
      <trkpt lat="41.736383121460676" lon="-4.5589997805655">
        <ele>857.68</ele>
        <time>2025-02-10T17:41:25.013Z</time>
      </trkpt>
      <trkpt lat="41.736449087038636" lon="-4.559273114427924">
        <ele>857.72</ele>
        <time>2025-02-10T17:41:29.359Z</time>
      </trkpt>
      <trkpt lat="41.73648144118488" lon="-4.559407392516732">
        <ele>857.74</ele>
        <time>2025-02-10T17:41:33.708Z</time>
      </trkpt>
      <trkpt lat="41.73648940399289" lon="-4.559440249577165">
        <ele>857.76</ele>
        <time>2025-02-10T17:41:38.057Z</time>
      </trkpt>
      <trkpt lat="41.73648982308805" lon="-4.5594417583197355">
        <ele>857.78</ele>
        <time>2025-02-10T17:41:42.406Z</time>
      </trkpt>
      <trkpt lat="41.73649066127837" lon="-4.559445278719068">
        <ele>857.8</ele>
        <time>2025-02-10T17:41:46.755Z</time>
      </trkpt>
      <trkpt lat="41.736498372629285" lon="-4.559477129951119">
        <ele>857.82</ele>
        <time>2025-02-10T17:41:51.105Z</time>
      </trkpt>
      <trkpt lat="41.73652410507202" lon="-4.55958366394043">
        <ele>857.85</ele>
        <time>2025-02-10T17:41:55.456Z</time>
      </trkpt>
      <trkpt lat="41.73661890439689" lon="-4.5596559997648">
        <ele>857.86</ele>
        <time>2025-02-10T17:41:59.810Z</time>
      </trkpt>
      <trkpt lat="41.73663097433746" lon="-4.559674859046936">
        <ele>857.86</ele>
        <time>2025-02-10T17:42:04.164Z</time>
      </trkpt>
      <trkpt lat="41.7366479896009" lon="-4.559701345860958">
        <ele>857.86</ele>
        <time>2025-02-10T17:42:08.518Z</time>
      </trkpt>
      <trkpt lat="41.73664874397218" lon="-4.559702519327402">
        <ele>857.85</ele>
        <time>2025-02-10T17:42:12.872Z</time>
      </trkpt>
      <trkpt lat="41.73665050417185" lon="-4.559705285355449">
        <ele>857.84</ele>
        <time>2025-02-10T17:42:17.227Z</time>
      </trkpt>
      <trkpt lat="41.736667016521096" lon="-4.559730933979154">
        <ele>857.83</ele>
        <time>2025-02-10T17:42:21.582Z</time>
      </trkpt>
      <trkpt lat="41.736713368445635" lon="-4.559803185984492">
        <ele>857.81</ele>
        <time>2025-02-10T17:42:25.938Z</time>
      </trkpt>
      <trkpt lat="41.73673038370907" lon="-4.559829672798514">
        <ele>857.78</ele>
        <time>2025-02-10T17:42:30.295Z</time>
      </trkpt>
      <trkpt lat="41.73673113808036" lon="-4.559830846264958">
        <ele>857.76</ele>
        <time>2025-02-10T17:42:34.652Z</time>
      </trkpt>
      <trkpt lat="41.736732982099056" lon="-4.559833612293005">
        <ele>857.73</ele>
        <time>2025-02-10T17:42:39.009Z</time>
      </trkpt>
      <trkpt lat="41.73674941062927" lon="-4.55985926091671">
        <ele>857.69</ele>
        <time>2025-02-10T17:42:43.367Z</time>
      </trkpt>
      <trkpt lat="41.7367825191468" lon="-4.559910893440247">
        <ele>857.64</ele>
        <time>2025-02-10T17:42:47.726Z</time>
      </trkpt>
      <trkpt lat="41.73679953441024" lon="-4.5599374640733">
        <ele>857.59</ele>
        <time>2025-02-10T17:42:52.085Z</time>
      </trkpt>
      <trkpt lat="41.736800288781524" lon="-4.559938637539744">
        <ele>857.55</ele>
        <time>2025-02-10T17:42:56.444Z</time>
      </trkpt>
      <trkpt lat="41.73680213280022" lon="-4.559941403567791">
        <ele>857.51</ele>
        <time>2025-02-10T17:43:00.803Z</time>
      </trkpt>
      <trkpt lat="41.73681864514947" lon="-4.559967052191496">
        <ele>857.46</ele>
        <time>2025-02-10T17:43:05.163Z</time>
      </trkpt>
      <trkpt lat="41.7368240095675" lon="-4.559975434094667">
        <ele>857.42</ele>
        <time>2025-02-10T17:43:09.523Z</time>
      </trkpt>
      <trkpt lat="41.73686315305531" lon="-4.560036454349756">
        <ele>857.38</ele>
        <time>2025-02-10T17:43:13.884Z</time>
      </trkpt>
      <trkpt lat="41.73699734732509" lon="-4.560345159843564">
        <ele>857.38</ele>
        <time>2025-02-10T17:43:18.250Z</time>
      </trkpt>
      <trkpt lat="41.73711335286498" lon="-4.5604124665260315">
        <ele>857.31</ele>
        <time>2025-02-10T17:43:22.619Z</time>
      </trkpt>
      <trkpt lat="41.737219635397196" lon="-4.560420345515013">
        <ele>857.24</ele>
        <time>2025-02-10T17:43:26.990Z</time>
      </trkpt>
      <trkpt lat="41.73753445968032" lon="-4.560438701882958">
        <ele>857.12</ele>
        <time>2025-02-10T17:43:31.367Z</time>
      </trkpt>
      <trkpt lat="41.73776026815176" lon="-4.560451861470938">
        <ele>857.08</ele>
        <time>2025-02-10T17:43:35.749Z</time>
      </trkpt>
      <trkpt lat="41.737786838784814" lon="-4.56045345403254">
        <ele>857.03</ele>
        <time>2025-02-10T17:43:40.131Z</time>
      </trkpt>
      <trkpt lat="41.73778801225126" lon="-4.560453537851572">
        <ele>856.98</ele>
        <time>2025-02-10T17:43:44.513Z</time>
      </trkpt>
      <trkpt lat="41.737790778279305" lon="-4.5604537054896355">
        <ele>856.93</ele>
        <time>2025-02-10T17:43:48.895Z</time>
      </trkpt>
      <trkpt lat="41.73781651072204" lon="-4.560455214232206">
        <ele>856.89</ele>
        <time>2025-02-10T17:43:53.278Z</time>
      </trkpt>
      <trkpt lat="41.73784928396344" lon="-4.560457142069936">
        <ele>856.84</ele>
        <time>2025-02-10T17:43:57.662Z</time>
      </trkpt>
      <trkpt lat="41.738164108246565" lon="-4.5604754984378815">
        <ele>856.85</ele>
        <time>2025-02-10T17:44:02.052Z</time>
      </trkpt>
      <trkpt lat="41.73838530667126" lon="-4.560488406568766">
        <ele>856.8</ele>
        <time>2025-02-10T17:44:06.446Z</time>
      </trkpt>
      <trkpt lat="41.738489996641874" lon="-4.560480527579784">
        <ele>856.78</ele>
        <time>2025-02-10T17:44:10.842Z</time>
      </trkpt>
      <trkpt lat="41.73851631581783" lon="-4.560478599742055">
        <ele>856.73</ele>
        <time>2025-02-10T17:44:15.239Z</time>
      </trkpt>
      <trkpt lat="41.73851748928428" lon="-4.560478599742055">
        <ele>856.68</ele>
        <time>2025-02-10T17:44:19.636Z</time>
      </trkpt>
      <trkpt lat="41.738520255312324" lon="-4.5604784321039915">
        <ele>856.62</ele>
        <time>2025-02-10T17:44:24.033Z</time>
      </trkpt>
      <trkpt lat="41.738545820117" lon="-4.560476588085294">
        <ele>856.57</ele>
        <time>2025-02-10T17:44:28.431Z</time>
      </trkpt>
      <trkpt lat="41.73869987949729" lon="-4.560465272516012">
        <ele>856.51</ele>
        <time>2025-02-10T17:44:32.832Z</time>
      </trkpt>
      <trkpt lat="41.73898997716606" lon="-4.560443898662925">
        <ele>856.44</ele>
        <time>2025-02-10T17:44:37.238Z</time>
      </trkpt>
      <trkpt lat="41.73901453614235" lon="-4.560442138463259">
        <ele>856.37</ele>
        <time>2025-02-10T17:44:41.645Z</time>
      </trkpt>
      <trkpt lat="41.73901663161814" lon="-4.560441887006164">
        <ele>856.31</ele>
        <time>2025-02-10T17:44:46.052Z</time>
      </trkpt>
      <trkpt lat="41.739017805084586" lon="-4.560441803187132">
        <ele>856.24</ele>
        <time>2025-02-10T17:44:50.459Z</time>
      </trkpt>
      <trkpt lat="41.73902057111263" lon="-4.5604416355490685">
        <ele>856.18</ele>
        <time>2025-02-10T17:44:54.866Z</time>
      </trkpt>
      <trkpt lat="41.73904588446021" lon="-4.560439791530371">
        <ele>856.11</ele>
        <time>2025-02-10T17:44:59.274Z</time>
      </trkpt>
      <trkpt lat="41.73911411315203" lon="-4.560434762388468">
        <ele>856.03</ele>
        <time>2025-02-10T17:45:03.683Z</time>
      </trkpt>
      <trkpt lat="41.73942315392196" lon="-4.560516905039549">
        <ele>855.93</ele>
        <time>2025-02-10T17:45:08.098Z</time>
      </trkpt>
      <trkpt lat="41.73957595601678" lon="-4.560557473450899">
        <ele>855.85</ele>
        <time>2025-02-10T17:45:12.516Z</time>
      </trkpt>
      <trkpt lat="41.73960193991661" lon="-4.5605644304305315">
        <ele>855.79</ele>
        <time>2025-02-10T17:45:16.935Z</time>
      </trkpt>
      <trkpt lat="41.739603113383055" lon="-4.560564765706658">
        <ele>855.73</ele>
        <time>2025-02-10T17:45:21.354Z</time>
      </trkpt>
      <trkpt lat="41.73960520885885" lon="-4.56056535243988">
        <ele>855.68</ele>
        <time>2025-02-10T17:45:25.773Z</time>
      </trkpt>
      <trkpt lat="41.739606047049165" lon="-4.560565771535039">
        <ele>855.64</ele>
        <time>2025-02-10T17:45:30.192Z</time>
      </trkpt>
      <trkpt lat="41.739629516378045" lon="-4.560578763484955">
        <ele>855.59</ele>
        <time>2025-02-10T17:45:34.612Z</time>
      </trkpt>
      <trkpt lat="41.73989639617503" lon="-4.560726201161742">
        <ele>855.51</ele>
        <time>2025-02-10T17:45:39.037Z</time>
      </trkpt>
      <trkpt lat="41.740155229344964" lon="-4.56086928024888">
        <ele>855.49</ele>
        <time>2025-02-10T17:45:43.468Z</time>
      </trkpt>
      <trkpt lat="41.740273078903556" lon="-4.560923678800464">
        <ele>855.46</ele>
        <time>2025-02-10T17:45:47.901Z</time>
      </trkpt>
      <trkpt lat="41.74029814079404" lon="-4.56093524582684">
        <ele>855.44</ele>
        <time>2025-02-10T17:45:52.335Z</time>
      </trkpt>
      <trkpt lat="41.74029923044145" lon="-4.560935748741031">
        <ele>855.44</ele>
        <time>2025-02-10T17:45:56.769Z</time>
      </trkpt>
      <trkpt lat="41.740301912650466" lon="-4.560937006026506">
        <ele>855.44</ele>
        <time>2025-02-10T17:46:01.203Z</time>
      </trkpt>
      <trkpt lat="41.7403260525316" lon="-4.560948153957725">
        <ele>855.44</ele>
        <time>2025-02-10T17:46:05.637Z</time>
      </trkpt>
      <trkpt lat="41.74045312218368" lon="-4.561006827279925">
        <ele>855.43</ele>
        <time>2025-02-10T17:46:10.074Z</time>
      </trkpt>
      <trkpt lat="41.7405419703573" lon="-4.5610477309674025">
        <ele>855.45</ele>
        <time>2025-02-10T17:46:14.513Z</time>
      </trkpt>
      <trkpt lat="41.74056703224778" lon="-4.561059297993779">
        <ele>855.48</ele>
        <time>2025-02-10T17:46:18.953Z</time>
      </trkpt>
      <trkpt lat="41.740568121895194" lon="-4.5610598009079695">
        <ele>855.52</ele>
        <time>2025-02-10T17:46:23.393Z</time>
      </trkpt>
      <trkpt lat="41.74057072028518" lon="-4.561061058193445">
        <ele>855.56</ele>
        <time>2025-02-10T17:46:27.833Z</time>
      </trkpt>
      <trkpt lat="41.74059486016631" lon="-4.561072206124663">
        <ele>855.6</ele>
        <time>2025-02-10T17:46:32.273Z</time>
      </trkpt>
      <trkpt lat="41.740707429125905" lon="-4.561124090105295">
        <ele>855.64</ele>
        <time>2025-02-10T17:46:36.716Z</time>
      </trkpt>
      <trkpt lat="41.74073257483542" lon="-4.561135740950704">
        <ele>855.68</ele>
        <time>2025-02-10T17:46:41.159Z</time>
      </trkpt>
      <trkpt lat="41.74073366448283" lon="-4.561136243864894">
        <ele>855.73</ele>
        <time>2025-02-10T17:46:45.602Z</time>
      </trkpt>
      <trkpt lat="41.740736262872815" lon="-4.56113750115037">
        <ele>855.78</ele>
        <time>2025-02-10T17:46:50.045Z</time>
      </trkpt>
      <trkpt lat="41.740750931203365" lon="-4.561144290491939">
        <ele>855.83</ele>
        <time>2025-02-10T17:46:54.488Z</time>
      </trkpt>
      <trkpt lat="41.74076057039201" lon="-4.5611487329006195">
        <ele>855.87</ele>
        <time>2025-02-10T17:46:58.932Z</time>
      </trkpt>
      <trkpt lat="41.7408284638077" lon="-4.561179997399449">
        <ele>855.89</ele>
        <time>2025-02-10T17:47:03.377Z</time>
      </trkpt>
      <trkpt lat="41.74085360951722" lon="-4.561191648244858">
        <ele>855.91</ele>
        <time>2025-02-10T17:47:07.823Z</time>
      </trkpt>
      <trkpt lat="41.74085469916463" lon="-4.561192151159048">
        <ele>855.92</ele>
        <time>2025-02-10T17:47:12.269Z</time>
      </trkpt>
      <trkpt lat="41.74085729755461" lon="-4.561193408444524">
        <ele>855.92</ele>
        <time>2025-02-10T17:47:16.715Z</time>
      </trkpt>
      <trkpt lat="41.74086408689618" lon="-4.561196509748697">
        <ele>855.91</ele>
        <time>2025-02-10T17:47:21.161Z</time>
      </trkpt>
      <trkpt lat="41.74087808467448" lon="-4.561212519183755">
        <ele>855.87</ele>
        <time>2025-02-10T17:47:25.607Z</time>
      </trkpt>
      <trkpt lat="41.74101797863841" lon="-4.561372194439173">
        <ele>855.77</ele>
        <time>2025-02-10T17:47:30.057Z</time>
      </trkpt>
      <trkpt lat="41.74103809520602" lon="-4.561395160853863">
        <ele>855.69</ele>
        <time>2025-02-10T17:47:34.507Z</time>
      </trkpt>
      <trkpt lat="41.74103901721537" lon="-4.561396166682243">
        <ele>855.58</ele>
        <time>2025-02-10T17:47:38.957Z</time>
      </trkpt>
      <trkpt lat="41.741041112691164" lon="-4.561398597434163">
        <ele>855.44</ele>
        <time>2025-02-10T17:47:43.408Z</time>
      </trkpt>
      <trkpt lat="41.74106055870652" lon="-4.561420725658536">
        <ele>855.26</ele>
        <time>2025-02-10T17:47:47.859Z</time>
      </trkpt>
      <trkpt lat="41.741080256178975" lon="-4.561443272978067">
        <ele>855.05</ele>
        <time>2025-02-10T17:47:52.311Z</time>
      </trkpt>
      <trkpt lat="41.74125250428915" lon="-4.561486188322306">
        <ele>854.69</ele>
        <time>2025-02-10T17:47:56.766Z</time>
      </trkpt>
      <trkpt lat="41.74126775935292" lon="-4.561519548296928">
        <ele>854.38</ele>
        <time>2025-02-10T17:48:01.222Z</time>
      </trkpt>
      <trkpt lat="41.74128167331219" lon="-4.561549890786409">
        <ele>854.04</ele>
        <time>2025-02-10T17:48:05.678Z</time>
      </trkpt>
      <trkpt lat="41.74128226004541" lon="-4.561551148071885">
        <ele>853.65</ele>
        <time>2025-02-10T17:48:10.134Z</time>
      </trkpt>
      <trkpt lat="41.74128376878798" lon="-4.56155433319509">
        <ele>853.2</ele>
        <time>2025-02-10T17:48:14.590Z</time>
      </trkpt>
      <trkpt lat="41.741297179833055" lon="-4.5615834183990955">
        <ele>852.7</ele>
        <time>2025-02-10T17:48:19.047Z</time>
      </trkpt>
      <trkpt lat="41.74131947569549" lon="-4.561631949618459">
        <ele>852.13</ele>
        <time>2025-02-10T17:48:23.505Z</time>
      </trkpt>
      <trkpt lat="41.74142123199999" lon="-4.56182112917304">
        <ele>851.47</ele>
        <time>2025-02-10T17:48:27.966Z</time>
      </trkpt>
      <trkpt lat="41.74143673852086" lon="-4.561849795281887">
        <ele>850.79</ele>
        <time>2025-02-10T17:48:32.428Z</time>
      </trkpt>
      <trkpt lat="41.741437409073114" lon="-4.561851052567363">
        <ele>850.03</ele>
        <time>2025-02-10T17:48:36.890Z</time>
      </trkpt>
      <trkpt lat="41.74143908545375" lon="-4.5618540700525045">
        <ele>849.2</ele>
        <time>2025-02-10T17:48:41.352Z</time>
      </trkpt>
      <trkpt lat="41.74145392142236" lon="-4.561881646513939">
        <ele>848.3</ele>
        <time>2025-02-10T17:48:45.814Z</time>
      </trkpt>
      <trkpt lat="41.74145962111652" lon="-4.561892123892903">
        <ele>847.33</ele>
        <time>2025-02-10T17:48:50.276Z</time>
      </trkpt>
      <trkpt lat="41.74157788977027" lon="-4.562068814411759">
        <ele>846.14</ele>
        <time>2025-02-10T17:48:54.742Z</time>
      </trkpt>
      <trkpt lat="41.74159557558596" lon="-4.56209521740675">
        <ele>844.99</ele>
        <time>2025-02-10T17:48:59.208Z</time>
      </trkpt>
      <trkpt lat="41.74159632995725" lon="-4.562096390873194">
        <ele>843.79</ele>
        <time>2025-02-10T17:49:03.675Z</time>
      </trkpt>
      <trkpt lat="41.741598173975945" lon="-4.56209915690124">
        <ele>842.5</ele>
        <time>2025-02-10T17:49:08.142Z</time>
      </trkpt>
      <trkpt lat="41.74161518923938" lon="-4.56212455406785">
        <ele>841.13</ele>
        <time>2025-02-10T17:49:12.609Z</time>
      </trkpt>
      <trkpt lat="41.74165056087077" lon="-4.562177360057831">
        <ele>839.67</ele>
        <time>2025-02-10T17:49:17.077Z</time>
      </trkpt>
      <trkpt lat="41.741812247782946" lon="-4.562374670058489">
        <ele>837.96</ele>
        <time>2025-02-10T17:49:21.550Z</time>
      </trkpt>
      <trkpt lat="41.7418319452554" lon="-4.5623986423015594">
        <ele>836.36</ele>
        <time>2025-02-10T17:49:26.023Z</time>
      </trkpt>
      <trkpt lat="41.741832783445716" lon="-4.562399731948972">
        <ele>834.72</ele>
        <time>2025-02-10T17:49:30.496Z</time>
      </trkpt>
      <trkpt lat="41.74183487892151" lon="-4.562402246519923">
        <ele>833.01</ele>
        <time>2025-02-10T17:49:34.969Z</time>
      </trkpt>
      <trkpt lat="41.74185206182301" lon="-4.562423201277852">
        <ele>831.23</ele>
        <time>2025-02-10T17:49:39.443Z</time>
      </trkpt>
      <trkpt lat="41.741854241117835" lon="-4.562424290925264">
        <ele>829.41</ele>
        <time>2025-02-10T17:49:43.917Z</time>
      </trkpt>
      <trkpt lat="41.74208030104637" lon="-4.5625358540564775">
        <ele>827.17</ele>
        <time>2025-02-10T17:49:48.395Z</time>
      </trkpt>
      <trkpt lat="41.74239529296756" lon="-4.5625461637973785">
        <ele>824.83</ele>
        <time>2025-02-10T17:49:52.880Z</time>
      </trkpt>
      <trkpt lat="41.7424086201936" lon="-4.562546582892537">
        <ele>822.89</ele>
        <time>2025-02-10T17:49:57.365Z</time>
      </trkpt>
      <trkpt lat="41.74271430820227" lon="-4.562648925930262">
        <ele>820.77</ele>
        <time>2025-02-10T17:50:01.856Z</time>
      </trkpt>
      <trkpt lat="41.7430199123919" lon="-4.562751268967986">
        <ele>818.64</ele>
        <time>2025-02-10T17:50:06.354Z</time>
      </trkpt>
      <trkpt lat="41.743226777762175" lon="-4.56282033585012">
        <ele>816.56</ele>
        <time>2025-02-10T17:50:10.856Z</time>
      </trkpt>
      <trkpt lat="41.74325292930007" lon="-4.56282913684845">
        <ele>814.56</ele>
        <time>2025-02-10T17:50:15.358Z</time>
      </trkpt>
      <trkpt lat="41.743254102766514" lon="-4.562829555943608">
        <ele>812.57</ele>
        <time>2025-02-10T17:50:19.860Z</time>
      </trkpt>
      <trkpt lat="41.74325678497553" lon="-4.562830477952957">
        <ele>810.59</ele>
        <time>2025-02-10T17:50:24.363Z</time>
      </trkpt>
      <trkpt lat="41.743282014504075" lon="-4.56283894367516">
        <ele>808.6</ele>
        <time>2025-02-10T17:50:28.866Z</time>
      </trkpt>
      <trkpt lat="41.74332560040057" lon="-4.562853528186679">
        <ele>806.62</ele>
        <time>2025-02-10T17:50:33.370Z</time>
      </trkpt>
      <trkpt lat="41.74363128840923" lon="-4.562955871224403">
        <ele>804.42</ele>
        <time>2025-02-10T17:50:37.880Z</time>
      </trkpt>
      <trkpt lat="41.743834717199206" lon="-4.563024016097188">
        <ele>802.32</ele>
        <time>2025-02-10T17:50:42.394Z</time>
      </trkpt>
      <trkpt lat="41.74414308741689" lon="-4.563110349699855">
        <ele>800.17</ele>
        <time>2025-02-10T17:50:46.915Z</time>
      </trkpt>
      <trkpt lat="41.744294464588165" lon="-4.563152678310871">
        <ele>798.2</ele>
        <time>2025-02-10T17:50:51.439Z</time>
      </trkpt>
      <trkpt lat="41.744320867583156" lon="-4.563160054385662">
        <ele>796.34</ele>
        <time>2025-02-10T17:50:55.963Z</time>
      </trkpt>
      <trkpt lat="41.7443220410496" lon="-4.563160389661789">
        <ele>794.5</ele>
        <time>2025-02-10T17:51:00.487Z</time>
      </trkpt>
      <trkpt lat="41.744324723258615" lon="-4.563161144033074">
        <ele>792.69</ele>
        <time>2025-02-10T17:51:05.011Z</time>
      </trkpt>
      <trkpt lat="41.744350204244256" lon="-4.56316826865077">
        <ele>790.9</ele>
        <time>2025-02-10T17:51:09.536Z</time>
      </trkpt>
      <trkpt lat="41.7444515414536" lon="-4.563196683302522">
        <ele>789.12</ele>
        <time>2025-02-10T17:51:14.063Z</time>
      </trkpt>
      <trkpt lat="41.74475991167128" lon="-4.563283016905189">
        <ele>787.36</ele>
        <time>2025-02-10T17:51:18.596Z</time>
      </trkpt>
      <trkpt lat="41.74490776844323" lon="-4.563324423506856">
        <ele>785.6</ele>
        <time>2025-02-10T17:51:23.132Z</time>
      </trkpt>
      <trkpt lat="41.744931070134044" lon="-4.563316125422716">
        <ele>783.87</ele>
        <time>2025-02-10T17:51:27.669Z</time>
      </trkpt>
      <trkpt lat="41.744935512542725" lon="-4.563338756561279">
        <ele>782.16</ele>
        <time>2025-02-10T17:51:32.206Z</time>
      </trkpt>
      <trkpt lat="41.744999969378114" lon="-4.563585938885808">
        <ele>780.43</ele>
        <time>2025-02-10T17:51:36.747Z</time>
      </trkpt>
      <trkpt lat="41.74506425857544" lon="-4.5638322830200195">
        <ele>778.68</ele>
        <time>2025-02-10T17:51:41.292Z</time>
      </trkpt>
      <trkpt lat="41.74521446228027" lon="-4.564111232757568">
        <ele>776.87</ele>
        <time>2025-02-10T17:51:45.842Z</time>
      </trkpt>
      <trkpt lat="41.74541302956641" lon="-4.5644118078053">
        <ele>775.12</ele>
        <time>2025-02-10T17:51:50.398Z</time>
      </trkpt>
      <trkpt lat="41.74561168067157" lon="-4.564712382853031">
        <ele>773.32</ele>
        <time>2025-02-10T17:51:54.960Z</time>
      </trkpt>
      <trkpt lat="41.74575995653868" lon="-4.564937017858028">
        <ele>771.52</ele>
        <time>2025-02-10T17:51:59.527Z</time>
      </trkpt>
      <trkpt lat="41.74577764235437" lon="-4.564963756129146">
        <ele>769.82</ele>
        <time>2025-02-10T17:52:04.094Z</time>
      </trkpt>
      <trkpt lat="41.745778396725655" lon="-4.56496492959559">
        <ele>768.14</ele>
        <time>2025-02-10T17:52:08.661Z</time>
      </trkpt>
      <trkpt lat="41.74578024074435" lon="-4.564967695623636">
        <ele>766.45</ele>
        <time>2025-02-10T17:52:13.228Z</time>
      </trkpt>
      <trkpt lat="41.74579717218876" lon="-4.564993344247341">
        <ele>764.75</ele>
        <time>2025-02-10T17:52:17.796Z</time>
      </trkpt>
      <trkpt lat="41.74581024795771" lon="-4.565013041719794">
        <ele>763.06</ele>
        <time>2025-02-10T17:52:22.364Z</time>
      </trkpt>
      <trkpt lat="41.74600839614868" lon="-4.56531286239624">
        <ele>761.22</ele>
        <time>2025-02-10T17:52:26.938Z</time>
      </trkpt>
      <trkpt lat="41.74622297286987" lon="-4.565484523773193">
        <ele>759.42</ele>
        <time>2025-02-10T17:52:31.517Z</time>
      </trkpt>
      <trkpt lat="41.746416091918945" lon="-4.56557035446167">
        <ele>757.66</ele>
        <time>2025-02-10T17:52:36.100Z</time>
      </trkpt>
      <trkpt lat="41.7466982267797" lon="-4.565641768276691">
        <ele>755.92</ele>
        <time>2025-02-10T17:52:40.689Z</time>
      </trkpt>
      <trkpt lat="41.74698036164045" lon="-4.565713182091713">
        <ele>754.2</ele>
        <time>2025-02-10T17:52:45.284Z</time>
      </trkpt>
      <trkpt lat="41.74726249650121" lon="-4.5657845959067345">
        <ele>752.46</ele>
        <time>2025-02-10T17:52:49.884Z</time>
      </trkpt>
      <trkpt lat="41.74754471518099" lon="-4.565856009721756">
        <ele>750.78</ele>
        <time>2025-02-10T17:52:54.490Z</time>
      </trkpt>
      <trkpt lat="41.74782685004175" lon="-4.565927507355809">
        <ele>749.13</ele>
        <time>2025-02-10T17:52:59.102Z</time>
      </trkpt>
      <trkpt lat="41.74811124801636" lon="-4.565999507904053">
        <ele>747.54</ele>
        <time>2025-02-10T17:53:03.720Z</time>
      </trkpt>
      <trkpt lat="41.74811133183539" lon="-4.565999507904053">
        <ele>746.05</ele>
        <time>2025-02-10T17:53:08.338Z</time>
      </trkpt>
      <trkpt lat="41.74838986247778" lon="-4.566070921719074">
        <ele>744.58</ele>
        <time>2025-02-10T17:53:12.961Z</time>
      </trkpt>
      <trkpt lat="41.74866839312017" lon="-4.566142335534096">
        <ele>743.13</ele>
        <time>2025-02-10T17:53:17.590Z</time>
      </trkpt>
      <trkpt lat="41.748948097229004" lon="-4.566214084625244">
        <ele>741.72</ele>
        <time>2025-02-10T17:53:22.225Z</time>
      </trkpt>
      <trkpt lat="41.749194441363215" lon="-4.566230094060302">
        <ele>740.35</ele>
        <time>2025-02-10T17:53:26.865Z</time>
      </trkpt>
      <trkpt lat="41.74944086931646" lon="-4.566246187314391">
        <ele>739.03</ele>
        <time>2025-02-10T17:53:31.510Z</time>
      </trkpt>
      <trkpt lat="41.7496872972697" lon="-4.5662622805684805">
        <ele>737.79</ele>
        <time>2025-02-10T17:53:36.160Z</time>
      </trkpt>
      <trkpt lat="41.749935150146484" lon="-4.566278457641602">
        <ele>736.63</ele>
        <time>2025-02-10T17:53:40.814Z</time>
      </trkpt>
      <trkpt lat="41.75016012042761" lon="-4.566310560330749">
        <ele>735.56</ele>
        <time>2025-02-10T17:53:45.473Z</time>
      </trkpt>
      <trkpt lat="41.750385761260986" lon="-4.566342830657959">
        <ele>734.61</ele>
        <time>2025-02-10T17:53:50.137Z</time>
      </trkpt>
      <trkpt lat="41.75062146037817" lon="-4.566412400454283">
        <ele>733.67</ele>
        <time>2025-02-10T17:53:54.805Z</time>
      </trkpt>
      <trkpt lat="41.750857159495354" lon="-4.566482054069638">
        <ele>732.82</ele>
        <time>2025-02-10T17:53:59.478Z</time>
      </trkpt>
      <trkpt lat="41.75109294243157" lon="-4.566551707684994">
        <ele>732.09</ele>
        <time>2025-02-10T17:54:04.156Z</time>
      </trkpt>
      <trkpt lat="41.75132989883423" lon="-4.566621780395508">
        <ele>731.49</ele>
        <time>2025-02-10T17:54:08.839Z</time>
      </trkpt>
      <trkpt lat="41.75148236565292" lon="-4.566694786772132">
        <ele>730.98</ele>
        <time>2025-02-10T17:54:13.525Z</time>
      </trkpt>
      <trkpt lat="41.75150784663856" lon="-4.566707024350762">
        <ele>730.58</ele>
        <time>2025-02-10T17:54:18.212Z</time>
      </trkpt>
      <trkpt lat="41.75150893628597" lon="-4.566707611083984">
        <ele>730.28</ele>
        <time>2025-02-10T17:54:22.899Z</time>
      </trkpt>
      <trkpt lat="41.751511534675956" lon="-4.56670886836946">
        <ele>730.09</ele>
        <time>2025-02-10T17:54:27.586Z</time>
      </trkpt>
      <trkpt lat="41.75153600983322" lon="-4.566720686852932">
        <ele>730.0</ele>
        <time>2025-02-10T17:54:32.273Z</time>
      </trkpt>
      <trkpt lat="41.75159778445959" lon="-4.566750358790159">
        <ele>730.0</ele>
        <time>2025-02-10T17:54:36.962Z</time>
      </trkpt>
      <trkpt lat="41.75186634063721" lon="-4.5668792724609375">
        <ele>730.09</ele>
        <time>2025-02-10T17:54:41.656Z</time>
      </trkpt>
      <trkpt lat="41.75206339918077" lon="-4.567006006836891">
        <ele>730.36</ele>
        <time>2025-02-10T17:54:46.355Z</time>
      </trkpt>
      <trkpt lat="41.75206339918077" lon="-4.5670059230178595">
        <ele>730.69</ele>
        <time>2025-02-10T17:54:51.054Z</time>
      </trkpt>
      <trkpt lat="41.752166748046875" lon="-4.56707239151001">
        <ele>731.17</ele>
        <time>2025-02-10T17:54:55.755Z</time>
      </trkpt>
      <trkpt lat="41.7520809173584" lon="-4.567115306854248">
        <ele>731.69</ele>
        <time>2025-02-10T17:55:00.458Z</time>
      </trkpt>
      <trkpt lat="41.75195200368762" lon="-4.567416133359075">
        <ele>732.33</ele>
        <time>2025-02-10T17:55:05.166Z</time>
      </trkpt>
      <trkpt lat="41.751823509112" lon="-4.567716121673584">
        <ele>733.1</ele>
        <time>2025-02-10T17:55:09.879Z</time>
      </trkpt>
      <trkpt lat="41.75168378278613" lon="-4.56803840585053">
        <ele>733.95</ele>
        <time>2025-02-10T17:55:14.598Z</time>
      </trkpt>
      <trkpt lat="41.75154405646026" lon="-4.568360690027475">
        <ele>734.93</ele>
        <time>2025-02-10T17:55:19.322Z</time>
      </trkpt>
      <trkpt lat="41.75140441395342" lon="-4.568683058023453">
        <ele>735.99</ele>
        <time>2025-02-10T17:55:24.052Z</time>
      </trkpt>
      <trkpt lat="41.75126552581787" lon="-4.569003582000732">
        <ele>737.1</ele>
        <time>2025-02-10T17:55:28.787Z</time>
      </trkpt>
      <trkpt lat="41.75114725716412" lon="-4.5693151373416185">
        <ele>738.3</ele>
        <time>2025-02-10T17:55:33.528Z</time>
      </trkpt>
      <trkpt lat="41.75102949142456" lon="-4.5696258544921875">
        <ele>739.62</ele>
        <time>2025-02-10T17:55:38.274Z</time>
      </trkpt>
      <trkpt lat="41.750914826989174" lon="-4.569984097033739">
        <ele>740.99</ele>
        <time>2025-02-10T17:55:43.026Z</time>
      </trkpt>
      <trkpt lat="41.75080016255379" lon="-4.570342339575291">
        <ele>742.41</ele>
        <time>2025-02-10T17:55:47.784Z</time>
      </trkpt>
      <trkpt lat="41.75068558193743" lon="-4.570700582116842">
        <ele>743.89</ele>
        <time>2025-02-10T17:55:52.547Z</time>
      </trkpt>
      <trkpt lat="41.750570917502046" lon="-4.571058824658394">
        <ele>745.46</ele>
        <time>2025-02-10T17:55:57.316Z</time>
      </trkpt>
      <trkpt lat="41.75045633688569" lon="-4.5714170671999454">
        <ele>747.14</ele>
        <time>2025-02-10T17:56:02.091Z</time>
      </trkpt>
      <trkpt lat="41.75034292973578" lon="-4.571771621704102">
        <ele>748.84</ele>
        <time>2025-02-10T17:56:06.872Z</time>
      </trkpt>
      <trkpt lat="41.75034284591675" lon="-4.571771621704102">
        <ele>750.47</ele>
        <time>2025-02-10T17:56:11.653Z</time>
      </trkpt>
      <trkpt lat="41.75024603493512" lon="-4.572088625282049">
        <ele>752.21</ele>
        <time>2025-02-10T17:56:16.439Z</time>
      </trkpt>
      <trkpt lat="41.75014930777252" lon="-4.5724057126790285">
        <ele>753.93</ele>
        <time>2025-02-10T17:56:21.230Z</time>
      </trkpt>
      <trkpt lat="41.75005258060992" lon="-4.572722800076008">
        <ele>755.66</ele>
        <time>2025-02-10T17:56:26.026Z</time>
      </trkpt>
      <trkpt lat="41.7499566078186" lon="-4.573037624359131">
        <ele>757.35</ele>
        <time>2025-02-10T17:56:30.827Z</time>
      </trkpt>
      <trkpt lat="41.74983833916485" lon="-4.573359992355108">
        <ele>759.06</ele>
        <time>2025-02-10T17:56:35.634Z</time>
      </trkpt>
      <trkpt lat="41.74972057342529" lon="-4.573681354522705">
        <ele>760.78</ele>
        <time>2025-02-10T17:56:40.446Z</time>
      </trkpt>
      <trkpt lat="41.749570118263364" lon="-4.57402509637177">
        <ele>762.53</ele>
        <time>2025-02-10T17:56:45.264Z</time>
      </trkpt>
      <trkpt lat="41.749419746920466" lon="-4.5743689220398664">
        <ele>764.24</ele>
        <time>2025-02-10T17:56:50.088Z</time>
      </trkpt>
      <trkpt lat="41.74926929175854" lon="-4.574712663888931">
        <ele>765.91</ele>
        <time>2025-02-10T17:56:54.918Z</time>
      </trkpt>
      <trkpt lat="41.74911892041564" lon="-4.575056489557028">
        <ele>767.56</ele>
        <time>2025-02-10T17:56:59.754Z</time>
      </trkpt>
      <trkpt lat="41.74896955490112" lon="-4.575397968292236">
        <ele>769.05</ele>
        <time>2025-02-10T17:57:04.596Z</time>
      </trkpt>
      <trkpt lat="41.74884080886841" lon="-4.57554817199707">
        <ele>770.43</ele>
        <time>2025-02-10T17:57:09.441Z</time>
      </trkpt>
      <trkpt lat="41.74857267178595" lon="-4.575741123408079">
        <ele>771.77</ele>
        <time>2025-02-10T17:57:14.292Z</time>
      </trkpt>
      <trkpt lat="41.74830436706543" lon="-4.575934410095215">
        <ele>773.05</ele>
        <time>2025-02-10T17:57:19.149Z</time>
      </trkpt>
      <trkpt lat="41.748175621032715" lon="-4.57606315612793">
        <ele>774.22</ele>
        <time>2025-02-10T17:57:24.010Z</time>
      </trkpt>
      <trkpt lat="41.74798233434558" lon="-4.576342273503542">
        <ele>775.31</ele>
        <time>2025-02-10T17:57:28.876Z</time>
      </trkpt>
      <trkpt lat="41.747789131477475" lon="-4.576621390879154">
        <ele>776.25</ele>
        <time>2025-02-10T17:57:33.748Z</time>
      </trkpt>
      <trkpt lat="41.74759584479034" lon="-4.5769005082547665">
        <ele>777.02</ele>
        <time>2025-02-10T17:57:38.626Z</time>
      </trkpt>
      <trkpt lat="41.747402641922235" lon="-4.577179625630379">
        <ele>777.71</ele>
        <time>2025-02-10T17:57:43.509Z</time>
      </trkpt>
      <trkpt lat="41.74720943905413" lon="-4.577458743005991">
        <ele>778.3</ele>
        <time>2025-02-10T17:57:48.398Z</time>
      </trkpt>
      <trkpt lat="41.747016152366996" lon="-4.577737860381603">
        <ele>778.91</ele>
        <time>2025-02-10T17:57:53.293Z</time>
      </trkpt>
      <trkpt lat="41.74682294949889" lon="-4.5780169777572155">
        <ele>779.39</ele>
        <time>2025-02-10T17:57:58.193Z</time>
      </trkpt>
      <trkpt lat="41.74663066864014" lon="-4.57829475402832">
        <ele>779.84</ele>
        <time>2025-02-10T17:58:03.099Z</time>
      </trkpt>
      <trkpt lat="41.74644459038973" lon="-4.578545205295086">
        <ele>780.24</ele>
        <time>2025-02-10T17:58:08.010Z</time>
      </trkpt>
      <trkpt lat="41.74625851213932" lon="-4.5787956565618515">
        <ele>780.53</ele>
        <time>2025-02-10T17:58:12.927Z</time>
      </trkpt>
      <trkpt lat="41.74607276916504" lon="-4.57904577255249">
        <ele>780.87</ele>
        <time>2025-02-10T17:58:17.849Z</time>
      </trkpt>
      <trkpt lat="41.74585299566388" lon="-4.579174350947142">
        <ele>781.27</ele>
        <time>2025-02-10T17:58:22.776Z</time>
      </trkpt>
      <trkpt lat="41.74563322216272" lon="-4.579303013160825">
        <ele>781.61</ele>
        <time>2025-02-10T17:58:27.708Z</time>
      </trkpt>
      <trkpt lat="41.745413448661566" lon="-4.579431675374508">
        <ele>781.86</ele>
        <time>2025-02-10T17:58:32.644Z</time>
      </trkpt>
      <trkpt lat="41.745193004608154" lon="-4.57956075668335">
        <ele>782.13</ele>
        <time>2025-02-10T17:58:37.585Z</time>
      </trkpt>
      <trkpt lat="41.74492503516376" lon="-4.579694699496031">
        <ele>782.45</ele>
        <time>2025-02-10T17:58:42.532Z</time>
      </trkpt>
      <trkpt lat="41.744657065719366" lon="-4.579828642308712">
        <ele>782.79</ele>
        <time>2025-02-10T17:58:47.485Z</time>
      </trkpt>
      <trkpt lat="41.74438909627497" lon="-4.579962668940425">
        <ele>783.07</ele>
        <time>2025-02-10T17:58:52.443Z</time>
      </trkpt>
      <trkpt lat="41.74417066387832" lon="-4.580071633681655">
        <ele>783.36</ele>
        <time>2025-02-10T17:58:57.406Z</time>
      </trkpt>
      <trkpt lat="41.74414526671171" lon="-4.580084374174476">
        <ele>783.7</ele>
        <time>2025-02-10T17:59:02.369Z</time>
      </trkpt>
      <trkpt lat="41.7441441770643" lon="-4.580084960907698">
        <ele>784.07</ele>
        <time>2025-02-10T17:59:07.333Z</time>
      </trkpt>
      <trkpt lat="41.744141578674316" lon="-4.580086302012205">
        <ele>784.49</ele>
        <time>2025-02-10T17:59:12.297Z</time>
      </trkpt>
      <trkpt lat="41.74412112683058" lon="-4.580096611753106">
        <ele>784.96</ele>
        <time>2025-02-10T17:59:17.261Z</time>
      </trkpt>
      <trkpt lat="41.744117103517056" lon="-4.580098539590836">
        <ele>785.49</ele>
        <time>2025-02-10T17:59:22.225Z</time>
      </trkpt>
      <trkpt lat="41.743853241205215" lon="-4.580230638384819">
        <ele>786.08</ele>
        <time>2025-02-10T17:59:27.195Z</time>
      </trkpt>
      <trkpt lat="41.74358376301825" lon="-4.580365419387817">
        <ele>786.76</ele>
        <time>2025-02-10T17:59:32.170Z</time>
      </trkpt>
      <trkpt lat="41.743433475494385" lon="-4.580440521240234">
        <ele>787.52</ele>
        <time>2025-02-10T17:59:37.149Z</time>
      </trkpt>
      <trkpt lat="41.743133487179875" lon="-4.580455273389816">
        <ele>788.4</ele>
        <time>2025-02-10T17:59:42.134Z</time>
      </trkpt>
      <trkpt lat="41.742833498865366" lon="-4.58047010935843">
        <ele>789.32</ele>
        <time>2025-02-10T17:59:47.125Z</time>
      </trkpt>
      <trkpt lat="41.74253351055086" lon="-4.5804849453270435">
        <ele>790.38</ele>
        <time>2025-02-10T17:59:52.122Z</time>
      </trkpt>
      <trkpt lat="41.74223352223635" lon="-4.580499781295657">
        <ele>791.55</ele>
        <time>2025-02-10T17:59:57.125Z</time>
      </trkpt>
      <trkpt lat="41.74193353392184" lon="-4.580514617264271">
        <ele>792.81</ele>
        <time>2025-02-10T18:00:02.134Z</time>
      </trkpt>
      <trkpt lat="41.74163354560733" lon="-4.580529453232884">
        <ele>794.12</ele>
        <time>2025-02-10T18:00:07.149Z</time>
      </trkpt>
      <trkpt lat="41.74133355729282" lon="-4.580544289201498">
        <ele>795.46</ele>
        <time>2025-02-10T18:00:12.170Z</time>
      </trkpt>
      <trkpt lat="41.74103356897831" lon="-4.580559125170112">
        <ele>796.87</ele>
        <time>2025-02-10T18:00:17.197Z</time>
      </trkpt>
      <trkpt lat="41.7407335806638" lon="-4.580573961138725">
        <ele>798.42</ele>
        <time>2025-02-10T18:00:22.230Z</time>
      </trkpt>
      <trkpt lat="41.74043359234929" lon="-4.580588797107339">
        <ele>800.11</ele>
        <time>2025-02-10T18:00:27.269Z</time>
      </trkpt>
      <trkpt lat="41.74013360403478" lon="-4.5806036330759525">
        <ele>801.9</ele>
        <time>2025-02-10T18:00:32.314Z</time>
      </trkpt>
      <trkpt lat="41.73983361572027" lon="-4.580618469044566">
        <ele>803.73</ele>
        <time>2025-02-10T18:00:37.365Z</time>
      </trkpt>
      <trkpt lat="41.7395281791687" lon="-4.580633640289307">
        <ele>805.64</ele>
        <time>2025-02-10T18:00:42.422Z</time>
      </trkpt>
      <trkpt lat="41.739292396232486" lon="-4.580697929486632">
        <ele>807.61</ele>
        <time>2025-02-10T18:00:47.484Z</time>
      </trkpt>
      <trkpt lat="41.7390566971153" lon="-4.580762218683958">
        <ele>809.65</ele>
        <time>2025-02-10T18:00:52.550Z</time>
      </trkpt>
      <trkpt lat="41.73888394609094" lon="-4.580809073522687">
        <ele>811.73</ele>
        <time>2025-02-10T18:00:57.620Z</time>
      </trkpt>
      <trkpt lat="41.73885720781982" lon="-4.580816365778446">
        <ele>813.79</ele>
        <time>2025-02-10T18:01:02.691Z</time>
      </trkpt>
      <trkpt lat="41.73885611817241" lon="-4.580816701054573">
        <ele>815.87</ele>
        <time>2025-02-10T18:01:07.762Z</time>
      </trkpt>
      <trkpt lat="41.73885335214436" lon="-4.58081753924489">
        <ele>817.99</ele>
        <time>2025-02-10T18:01:12.833Z</time>
      </trkpt>
      <trkpt lat="41.738827703520656" lon="-4.580824580043554">
        <ele>820.17</ele>
        <time>2025-02-10T18:01:17.904Z</time>
      </trkpt>
      <trkpt lat="41.73882007598877" lon="-4.580826759338379">
        <ele>822.35</ele>
        <time>2025-02-10T18:01:22.975Z</time>
      </trkpt>
      <trkpt lat="41.73865931108594" lon="-4.580891048535705">
        <ele>824.67</ele>
        <time>2025-02-10T18:01:28.050Z</time>
      </trkpt>
      <trkpt lat="41.738498294726014" lon="-4.580955505371094">
        <ele>827.02</ele>
        <time>2025-02-10T18:01:33.128Z</time>
      </trkpt>
      <trkpt lat="41.7383695486933" lon="-4.580976963043213">
        <ele>829.35</ele>
        <time>2025-02-10T18:01:38.209Z</time>
      </trkpt>
      <trkpt lat="41.738280868157744" lon="-4.580926336348057">
        <ele>831.64</ele>
        <time>2025-02-10T18:01:43.292Z</time>
      </trkpt>
      <trkpt lat="41.738219344988465" lon="-4.580891132354736">
        <ele>833.9</ele>
        <time>2025-02-10T18:01:48.376Z</time>
      </trkpt>
      <trkpt lat="41.737940311431885" lon="-4.580698013305664">
        <ele>836.31</ele>
        <time>2025-02-10T18:01:53.466Z</time>
      </trkpt>
      <trkpt lat="41.7377046123147" lon="-4.580698013305664">
        <ele>838.68</ele>
        <time>2025-02-10T18:01:58.561Z</time>
      </trkpt>
      <trkpt lat="41.737468242645264" lon="-4.580698013305664">
        <ele>840.97</ele>
        <time>2025-02-10T18:02:03.661Z</time>
      </trkpt>
      <trkpt lat="41.73729658126831" lon="-4.580719470977783">
        <ele>843.19</ele>
        <time>2025-02-10T18:02:08.764Z</time>
      </trkpt>
      <trkpt lat="41.73703908920288" lon="-4.580633640289307">
        <ele>845.29</ele>
        <time>2025-02-10T18:02:13.872Z</time>
      </trkpt>
      <trkpt lat="41.736781848594546" lon="-4.580733636394143">
        <ele>847.26</ele>
        <time>2025-02-10T18:02:18.986Z</time>
      </trkpt>
      <trkpt lat="41.73652460798621" lon="-4.58083363249898">
        <ele>849.02</ele>
        <time>2025-02-10T18:02:24.105Z</time>
      </trkpt>
      <trkpt lat="41.73626661300659" lon="-4.580934047698975">
        <ele>850.68</ele>
        <time>2025-02-10T18:02:29.229Z</time>
      </trkpt>
      <trkpt lat="41.735980873927474" lon="-4.580969754606485">
        <ele>852.28</ele>
        <time>2025-02-10T18:02:34.359Z</time>
      </trkpt>
      <trkpt lat="41.73569521866739" lon="-4.581005461513996">
        <ele>853.8</ele>
        <time>2025-02-10T18:02:39.495Z</time>
      </trkpt>
      <trkpt lat="41.735665714368224" lon="-4.581008981913328">
        <ele>855.18</ele>
        <time>2025-02-10T18:02:44.631Z</time>
      </trkpt>
      <trkpt lat="41.73563864082098" lon="-4.581012334674597">
        <ele>856.46</ele>
        <time>2025-02-10T18:02:49.768Z</time>
      </trkpt>
      <trkpt lat="41.73563755117357" lon="-4.58101250231266">
        <ele>857.64</ele>
        <time>2025-02-10T18:02:54.905Z</time>
      </trkpt>
      <trkpt lat="41.73563478514552" lon="-4.581012921407819">
        <ele>858.71</ele>
        <time>2025-02-10T18:03:00.042Z</time>
      </trkpt>
      <trkpt lat="41.73560888506472" lon="-4.581016190350056">
        <ele>859.69</ele>
        <time>2025-02-10T18:03:05.180Z</time>
      </trkpt>
      <trkpt lat="41.73540838994086" lon="-4.58104133605957">
        <ele>858.15</ele>
        <time>2025-02-10T18:03:10.322Z</time>
      </trkpt>
      <trkpt lat="41.73543403856456" lon="-4.5812854170799255">
        <ele>861.37</ele>
        <time>2025-02-10T18:03:15.467Z</time>
      </trkpt>
      <trkpt lat="41.735459603369236" lon="-4.5815284922719">
        <ele>862.04</ele>
        <time>2025-02-10T18:03:20.616Z</time>
      </trkpt>
      <trkpt lat="41.73549841158092" lon="-4.581897212192416">
        <ele>862.6</ele>
        <time>2025-02-10T18:03:25.771Z</time>
      </trkpt>
      <trkpt lat="41.73553705215454" lon="-4.582264423370361">
        <ele>858.11</ele>
        <time>2025-02-10T18:03:30.931Z</time>
      </trkpt>
      <trkpt lat="41.735597904771566" lon="-4.582622749730945">
        <ele>863.52</ele>
        <time>2025-02-10T18:03:36.097Z</time>
      </trkpt>
      <trkpt lat="41.73565884120762" lon="-4.58298115991056">
        <ele>863.89</ele>
        <time>2025-02-10T18:03:41.268Z</time>
      </trkpt>
      <trkpt lat="41.73571977764368" lon="-4.583339570090175">
        <ele>864.24</ele>
        <time>2025-02-10T18:03:46.445Z</time>
      </trkpt>
      <trkpt lat="41.73578071407974" lon="-4.58369798026979">
        <ele>864.54</ele>
        <time>2025-02-10T18:03:51.627Z</time>
      </trkpt>
      <trkpt lat="41.735841650515795" lon="-4.584056306630373">
        <ele>864.72</ele>
        <time>2025-02-10T18:03:56.815Z</time>
      </trkpt>
      <trkpt lat="41.735901832580566" lon="-4.584410190582275">
        <ele>858.48</ele>
        <time>2025-02-10T18:04:02.008Z</time>
      </trkpt>
      <trkpt lat="41.735912561416626" lon="-4.5847865380346775">
        <ele>864.96</ele>
        <time>2025-02-10T18:04:07.207Z</time>
      </trkpt>
      <trkpt lat="41.735923290252686" lon="-4.585161209106445">
        <ele>858.63</ele>
        <time>2025-02-10T18:04:12.411Z</time>
      </trkpt>
      <trkpt lat="41.735966289415956" lon="-4.585419204086065">
        <ele>864.97</ele>
        <time>2025-02-10T18:04:17.619Z</time>
      </trkpt>
      <trkpt lat="41.73600912094116" lon="-4.585676193237305">
        <ele>858.74</ele>
        <time>2025-02-10T18:04:22.831Z</time>
      </trkpt>
      <trkpt lat="41.73606284894049" lon="-4.585912646725774">
        <ele>864.83</ele>
        <time>2025-02-10T18:04:28.047Z</time>
      </trkpt>
      <trkpt lat="41.73611640930176" lon="-4.586148262023926">
        <ele>858.92</ele>
        <time>2025-02-10T18:04:33.267Z</time>
      </trkpt>
      <trkpt lat="41.7362177465111" lon="-4.586507510393858">
        <ele>864.63</ele>
        <time>2025-02-10T18:04:38.492Z</time>
      </trkpt>
      <trkpt lat="41.736319083720446" lon="-4.586866842582822">
        <ele>864.49</ele>
        <time>2025-02-10T18:04:43.723Z</time>
      </trkpt>
      <trkpt lat="41.73642042092979" lon="-4.587226174771786">
        <ele>864.29</ele>
        <time>2025-02-10T18:04:48.960Z</time>
      </trkpt>
      <trkpt lat="41.73652175813913" lon="-4.58758550696075">
        <ele>864.08</ele>
        <time>2025-02-10T18:04:54.203Z</time>
      </trkpt>
      <trkpt lat="41.73662309534848" lon="-4.587944755330682">
        <ele>863.86</ele>
        <time>2025-02-10T18:04:59.451Z</time>
      </trkpt>
      <trkpt lat="41.73672443255782" lon="-4.588304087519646">
        <ele>863.61</ele>
        <time>2025-02-10T18:05:04.705Z</time>
      </trkpt>
      <trkpt lat="41.73682451248169" lon="-4.588658809661865">
        <ele>859.44</ele>
        <time>2025-02-10T18:05:09.965Z</time>
      </trkpt>
      <trkpt lat="41.73696951940656" lon="-4.5889918226748705">
        <ele>863.23</ele>
        <time>2025-02-10T18:05:15.231Z</time>
      </trkpt>
      <trkpt lat="41.737114526331425" lon="-4.589324835687876">
        <ele>862.98</ele>
        <time>2025-02-10T18:05:20.502Z</time>
      </trkpt>
      <trkpt lat="41.737259617075324" lon="-4.589657932519913">
        <ele>862.68</ele>
        <time>2025-02-10T18:05:25.779Z</time>
      </trkpt>
      <trkpt lat="41.737403869628906" lon="-4.589989185333252">
        <ele>859.62</ele>
        <time>2025-02-10T18:05:31.062Z</time>
      </trkpt>
      <trkpt lat="41.73749841749668" lon="-4.590307278558612">
        <ele>862.18</ele>
        <time>2025-02-10T18:05:36.350Z</time>
      </trkpt>
      <trkpt lat="41.737592965364456" lon="-4.5906254556030035">
        <ele>861.97</ele>
        <time>2025-02-10T18:05:41.643Z</time>
      </trkpt>
      <trkpt lat="41.73768759705126" lon="-4.590943548828363">
        <ele>861.79</ele>
        <time>2025-02-10T18:05:46.941Z</time>
      </trkpt>
      <trkpt lat="41.73778214491904" lon="-4.591261725872755">
        <ele>861.59</ele>
        <time>2025-02-10T18:05:52.244Z</time>
      </trkpt>
      <trkpt lat="41.73787593841553" lon="-4.591577053070068">
        <ele>859.91</ele>
        <time>2025-02-10T18:05:57.552Z</time>
      </trkpt>
      <trkpt lat="41.738062016665936" lon="-4.591863295063376">
        <ele>861.13</ele>
        <time>2025-02-10T18:06:02.866Z</time>
      </trkpt>
      <trkpt lat="41.738248094916344" lon="-4.592149620875716">
        <ele>860.89</ele>
        <time>2025-02-10T18:06:08.186Z</time>
      </trkpt>
      <trkpt lat="41.738433837890625" lon="-4.592435359954834">
        <ele>859.88</ele>
        <time>2025-02-10T18:06:13.511Z</time>
      </trkpt>
      <trkpt lat="41.7386269569397" lon="-4.592664269730449">
        <ele>860.52</ele>
        <time>2025-02-10T18:06:18.842Z</time>
      </trkpt>
      <trkpt lat="41.7388201598078" lon="-4.5928931795060635">
        <ele>860.37</ele>
        <time>2025-02-10T18:06:24.178Z</time>
      </trkpt>
      <trkpt lat="41.73901319503784" lon="-4.5931220054626465">
        <ele>859.91</ele>
        <time>2025-02-10T18:06:29.519Z</time>
      </trkpt>
      <trkpt lat="41.73918494023383" lon="-4.5933652482926846">
        <ele>859.96</ele>
        <time>2025-02-10T18:06:34.865Z</time>
      </trkpt>
      <trkpt lat="41.73935668542981" lon="-4.593608574941754">
        <ele>859.74</ele>
        <time>2025-02-10T18:06:40.216Z</time>
      </trkpt>
      <trkpt lat="41.7395281791687" lon="-4.593851566314697">
        <ele>859.8</ele>
        <time>2025-02-10T18:06:45.572Z</time>
      </trkpt>
      <trkpt lat="41.739667654037476" lon="-4.594012498855591">
        <ele>859.51</ele>
        <time>2025-02-10T18:06:50.932Z</time>
      </trkpt>
      <trkpt lat="41.73980712890625" lon="-4.594173431396484">
        <ele>859.84</ele>
        <time>2025-02-10T18:06:56.295Z</time>
      </trkpt>
      <trkpt lat="41.740030171349645" lon="-4.594362108036876">
        <ele>859.31</ele>
        <time>2025-02-10T18:07:01.664Z</time>
      </trkpt>
      <trkpt lat="41.74025321379304" lon="-4.594550868496299">
        <ele>859.18</ele>
        <time>2025-02-10T18:07:07.038Z</time>
      </trkpt>
      <trkpt lat="41.740476340055466" lon="-4.594739628955722">
        <ele>859.08</ele>
        <time>2025-02-10T18:07:12.417Z</time>
      </trkpt>
      <trkpt lat="41.74069938249886" lon="-4.594928389415145">
        <ele>858.96</ele>
        <time>2025-02-10T18:07:17.801Z</time>
      </trkpt>
      <trkpt lat="41.740922927856445" lon="-4.595117568969727">
        <ele>859.7</ele>
        <time>2025-02-10T18:07:23.191Z</time>
      </trkpt>
      <trkpt lat="41.741153597831726" lon="-4.595364332199097">
        <ele>858.64</ele>
        <time>2025-02-10T18:07:28.587Z</time>
      </trkpt>
      <trkpt lat="41.74138426780701" lon="-4.595611095428467">
        <ele>858.53</ele>
        <time>2025-02-10T18:07:33.989Z</time>
      </trkpt>
      <trkpt lat="41.74161493778229" lon="-4.595857858657837">
        <ele>858.46</ele>
        <time>2025-02-10T18:07:39.396Z</time>
      </trkpt>
      <trkpt lat="41.74184560775757" lon="-4.596104621887207">
        <ele>859.48</ele>
        <time>2025-02-10T18:07:44.809Z</time>
      </trkpt>
      <trkpt lat="41.74198508262634" lon="-4.59627628326416">
        <ele>858.27</ele>
        <time>2025-02-10T18:07:50.226Z</time>
      </trkpt>
      <trkpt lat="41.74212455749512" lon="-4.596447944641113">
        <ele>859.35</ele>
        <time>2025-02-10T18:07:55.647Z</time>
      </trkpt>
      <trkpt lat="41.74228557385504" lon="-4.596710968762636">
        <ele>857.99</ele>
        <time>2025-02-10T18:08:01.073Z</time>
      </trkpt>
      <trkpt lat="41.742446674034" lon="-4.596974076703191">
        <ele>857.86</ele>
        <time>2025-02-10T18:08:06.504Z</time>
      </trkpt>
      <trkpt lat="41.742607774212956" lon="-4.597237100824714">
        <ele>857.79</ele>
        <time>2025-02-10T18:08:11.940Z</time>
      </trkpt>
      <trkpt lat="41.74276837147772" lon="-4.597499370574951">
        <ele>858.77</ele>
        <time>2025-02-10T18:08:17.381Z</time>
      </trkpt>
      <trkpt lat="41.74285411834717" lon="-4.59752082824707">
        <ele>858.72</ele>
        <time>2025-02-10T18:08:22.824Z</time>
      </trkpt>
      <trkpt lat="41.742918491363525" lon="-4.597477912902832">
        <ele>858.68</ele>
        <time>2025-02-10T18:08:28.268Z</time>
      </trkpt>
      <trkpt lat="41.74307598732412" lon="-4.5971340872347355">
        <ele>857.47</ele>
        <time>2025-02-10T18:08:33.718Z</time>
      </trkpt>
      <trkpt lat="41.743233567103744" lon="-4.596790345385671">
        <ele>857.39</ele>
        <time>2025-02-10T18:08:39.175Z</time>
      </trkpt>
      <trkpt lat="41.74339056015015" lon="-4.596447944641113">
        <ele>857.76</ele>
        <time>2025-02-10T18:08:44.638Z</time>
      </trkpt>
      <trkpt lat="41.743576638400555" lon="-4.596168743446469">
        <ele>857.2</ele>
        <time>2025-02-10T18:08:50.106Z</time>
      </trkpt>
      <trkpt lat="41.74376271665096" lon="-4.595889626070857">
        <ele>857.12</ele>
        <time>2025-02-10T18:08:55.580Z</time>
      </trkpt>
      <trkpt lat="41.743948459625244" lon="-4.595611095428467">
        <ele>856.88</ele>
        <time>2025-02-10T18:09:01.059Z</time>
      </trkpt>
      <trkpt lat="41.744141578674316" lon="-4.595385706052184">
        <ele>856.93</ele>
        <time>2025-02-10T18:09:06.543Z</time>
      </trkpt>
      <trkpt lat="41.74433469772339" lon="-4.595160484313965">
        <ele>856.69</ele>
        <time>2025-02-10T18:09:12.033Z</time>
      </trkpt>
      <trkpt lat="41.74447408877313" lon="-4.595053195953369">
        <ele>856.77</ele>
        <time>2025-02-10T18:09:17.526Z</time>
      </trkpt>
      <trkpt lat="41.74461364746094" lon="-4.594945907592773">
        <ele>856.51</ele>
        <time>2025-02-10T18:09:23.022Z</time>
      </trkpt>
      <trkpt lat="41.74484968185425" lon="-4.5947957038879395">
        <ele>856.18</ele>
        <time>2025-02-10T18:09:28.523Z</time>
      </trkpt>
      <trkpt lat="41.744914054870605" lon="-4.594838619232178">
        <ele>856.11</ele>
        <time>2025-02-10T18:09:34.026Z</time>
      </trkpt>
      <trkpt lat="41.74491413868964" lon="-4.594902992248535">
        <ele>856.51</ele>
        <time>2025-02-10T18:09:39.530Z</time>
      </trkpt>
      <trkpt lat="41.74484968185425" lon="-4.594967365264893">
        <ele>856.12</ele>
        <time>2025-02-10T18:09:45.035Z</time>
      </trkpt>
      <trkpt lat="41.74486401490867" lon="-4.595375983044505">
        <ele>856.5</ele>
        <time>2025-02-10T18:09:50.546Z</time>
      </trkpt>
      <trkpt lat="41.744878347963095" lon="-4.595784600824118">
        <ele>856.48</ele>
        <time>2025-02-10T18:09:56.063Z</time>
      </trkpt>
      <trkpt lat="41.744892597198486" lon="-4.596190452575684">
        <ele>856.29</ele>
        <time>2025-02-10T18:10:01.587Z</time>
      </trkpt>
      <trkpt lat="41.7448521964252" lon="-4.5965721644461155">
        <ele>856.51</ele>
        <time>2025-02-10T18:10:07.116Z</time>
      </trkpt>
      <trkpt lat="41.744811879470944" lon="-4.596953876316547">
        <ele>856.51</ele>
        <time>2025-02-10T18:10:12.651Z</time>
      </trkpt>
      <trkpt lat="41.74477156251669" lon="-4.597335588186979">
        <ele>856.5</ele>
        <time>2025-02-10T18:10:18.192Z</time>
      </trkpt>
      <trkpt lat="41.744731245562434" lon="-4.597717383876443">
        <ele>856.51</ele>
        <time>2025-02-10T18:10:23.739Z</time>
      </trkpt>
      <trkpt lat="41.74469092860818" lon="-4.598099095746875">
        <ele>856.51</ele>
        <time>2025-02-10T18:10:29.291Z</time>
      </trkpt>
      <trkpt lat="41.744650611653924" lon="-4.598480807617307">
        <ele>856.5</ele>
        <time>2025-02-10T18:10:34.849Z</time>
      </trkpt>
      <trkpt lat="41.74461029469967" lon="-4.598862519487739">
        <ele>856.44</ele>
        <time>2025-02-10T18:10:40.413Z</time>
      </trkpt>
      <trkpt lat="41.7445707321167" lon="-4.599237442016602">
        <ele>856.26</ele>
        <time>2025-02-10T18:10:45.983Z</time>
      </trkpt>
      <trkpt lat="41.74450635910034" lon="-4.599623680114746">
        <ele>855.99</ele>
        <time>2025-02-10T18:10:51.559Z</time>
      </trkpt>
      <trkpt lat="41.74450644291937" lon="-4.599623680114746">
        <ele>855.93</ele>
        <time>2025-02-10T18:10:57.135Z</time>
      </trkpt>
      <trkpt lat="41.74461364746094" lon="-4.59977388381958">
        <ele>855.63</ele>
        <time>2025-02-10T18:11:02.714Z</time>
      </trkpt>
      <trkpt lat="41.74470232799649" lon="-4.600142017006874">
        <ele>856.19</ele>
        <time>2025-02-10T18:11:08.298Z</time>
      </trkpt>
      <trkpt lat="41.74479100853205" lon="-4.6005102340132">
        <ele>856.17</ele>
        <time>2025-02-10T18:11:13.888Z</time>
      </trkpt>
      <trkpt lat="41.7448796890676" lon="-4.600878367200494">
        <ele>856.2</ele>
        <time>2025-02-10T18:11:19.484Z</time>
      </trkpt>
      <trkpt lat="41.74496836960316" lon="-4.6012465842068195">
        <ele>856.24</ele>
        <time>2025-02-10T18:11:25.086Z</time>
      </trkpt>
      <trkpt lat="41.74505705013871" lon="-4.6016147173941135">
        <ele>856.22</ele>
        <time>2025-02-10T18:11:30.694Z</time>
      </trkpt>
      <trkpt lat="41.74514573067427" lon="-4.601982934400439">
        <ele>856.17</ele>
        <time>2025-02-10T18:11:36.307Z</time>
      </trkpt>
      <trkpt lat="41.74523441120982" lon="-4.602351151406765">
        <ele>856.21</ele>
        <time>2025-02-10T18:11:41.926Z</time>
      </trkpt>
      <trkpt lat="41.74532175064087" lon="-4.602713584899902">
        <ele>855.0</ele>
        <time>2025-02-10T18:11:47.551Z</time>
      </trkpt>
      <trkpt lat="41.74542920663953" lon="-4.603095129132271">
        <ele>856.2</ele>
        <time>2025-02-10T18:11:53.182Z</time>
      </trkpt>
      <trkpt lat="41.74553666263819" lon="-4.603476673364639">
        <ele>856.21</ele>
        <time>2025-02-10T18:11:58.819Z</time>
      </trkpt>
      <trkpt lat="41.74564420245588" lon="-4.6038583014160395">
        <ele>856.24</ele>
        <time>2025-02-10T18:12:04.462Z</time>
      </trkpt>
      <trkpt lat="41.74575090408325" lon="-4.604237079620361">
        <ele>854.98</ele>
        <time>2025-02-10T18:12:10.111Z</time>
      </trkpt>
      <trkpt lat="41.745864478871226" lon="-4.604574786499143">
        <ele>856.34</ele>
        <time>2025-02-10T18:12:15.766Z</time>
      </trkpt>
      <trkpt lat="41.7459780536592" lon="-4.604912577196956">
        <ele>856.32</ele>
        <time>2025-02-10T18:12:21.426Z</time>
      </trkpt>
      <trkpt lat="41.74609171226621" lon="-4.605250284075737">
        <ele>856.25</ele>
        <time>2025-02-10T18:12:27.092Z</time>
      </trkpt>
      <trkpt lat="41.74620528705418" lon="-4.60558807477355">
        <ele>856.17</ele>
        <time>2025-02-10T18:12:32.763Z</time>
      </trkpt>
      <trkpt lat="41.74631894566119" lon="-4.605925865471363">
        <ele>856.08</ele>
        <time>2025-02-10T18:12:38.440Z</time>
      </trkpt>
      <trkpt lat="41.74643252044916" lon="-4.606263572350144">
        <ele>855.94</ele>
        <time>2025-02-10T18:12:44.123Z</time>
      </trkpt>
      <trkpt lat="41.74654483795166" lon="-4.606597423553467">
        <ele>854.68</ele>
        <time>2025-02-10T18:12:49.811Z</time>
      </trkpt>
      <trkpt lat="41.746680876240134" lon="-4.6069627068936825">
        <ele>855.77</ele>
        <time>2025-02-10T18:12:55.505Z</time>
      </trkpt>
      <trkpt lat="41.74681699834764" lon="-4.60732807405293">
        <ele>855.61</ele>
        <time>2025-02-10T18:13:01.205Z</time>
      </trkpt>
      <trkpt lat="41.746953120455146" lon="-4.607693441212177">
        <ele>855.45</ele>
        <time>2025-02-10T18:13:06.911Z</time>
      </trkpt>
      <trkpt lat="41.74708924256265" lon="-4.608058724552393">
        <ele>855.36</ele>
        <time>2025-02-10T18:13:12.623Z</time>
      </trkpt>
      <trkpt lat="41.74722536467016" lon="-4.60842409171164">
        <ele>855.23</ele>
        <time>2025-02-10T18:13:18.342Z</time>
      </trkpt>
      <trkpt lat="41.74736148677766" lon="-4.608789458870888">
        <ele>854.96</ele>
        <time>2025-02-10T18:13:24.067Z</time>
      </trkpt>
      <trkpt lat="41.74749760888517" lon="-4.609154826030135">
        <ele>854.74</ele>
        <time>2025-02-10T18:13:29.798Z</time>
      </trkpt>
      <trkpt lat="41.747633730992675" lon="-4.609520109370351">
        <ele>854.5</ele>
        <time>2025-02-10T18:13:35.535Z</time>
      </trkpt>
      <trkpt lat="41.74776985310018" lon="-4.609885476529598">
        <ele>854.19</ele>
        <time>2025-02-10T18:13:41.278Z</time>
      </trkpt>
      <trkpt lat="41.747905975207686" lon="-4.610250843688846">
        <ele>853.83</ele>
        <time>2025-02-10T18:13:47.027Z</time>
      </trkpt>
      <trkpt lat="41.74804209731519" lon="-4.610616210848093">
        <ele>853.42</ele>
        <time>2025-02-10T18:13:52.782Z</time>
      </trkpt>
      <trkpt lat="41.7481782194227" lon="-4.610981494188309">
        <ele>852.99</ele>
        <time>2025-02-10T18:13:58.543Z</time>
      </trkpt>
      <trkpt lat="41.748314341530204" lon="-4.611346861347556">
        <ele>852.46</ele>
        <time>2025-02-10T18:14:04.310Z</time>
      </trkpt>
      <trkpt lat="41.74845046363771" lon="-4.6117122285068035">
        <ele>851.96</ele>
        <time>2025-02-10T18:14:10.084Z</time>
      </trkpt>
      <trkpt lat="41.74858331680298" lon="-4.612069129943848">
        <ele>851.79</ele>
        <time>2025-02-10T18:14:15.864Z</time>
      </trkpt>
      <trkpt lat="41.74862631596625" lon="-4.612398874014616">
        <ele>850.99</ele>
        <time>2025-02-10T18:14:21.649Z</time>
      </trkpt>
      <trkpt lat="41.74866931512952" lon="-4.612728618085384">
        <ele>850.36</ele>
        <time>2025-02-10T18:14:27.439Z</time>
      </trkpt>
      <trkpt lat="41.748712146654725" lon="-4.613056182861328">
        <ele>849.99</ele>
        <time>2025-02-10T18:14:33.234Z</time>
      </trkpt>
      <trkpt lat="41.748755145817995" lon="-4.613271178677678">
        <ele>848.92</ele>
        <time>2025-02-10T18:14:39.032Z</time>
      </trkpt>
      <trkpt lat="41.7487979773432" lon="-4.613485336303711">
        <ele>846.96</ele>
        <time>2025-02-10T18:14:44.833Z</time>
      </trkpt>
      <trkpt lat="41.74883016385138" lon="-4.613732602447271">
        <ele>847.44</ele>
        <time>2025-02-10T18:14:50.638Z</time>
      </trkpt>
      <trkpt lat="41.74886235035956" lon="-4.613978862762451">
        <ele>843.22</ele>
        <time>2025-02-10T18:14:56.447Z</time>
      </trkpt>
      <trkpt lat="41.74884089268744" lon="-4.6142578125">
        <ele>842.68</ele>
        <time>2025-02-10T18:15:02.260Z</time>
      </trkpt>
      <trkpt lat="41.74875506199896" lon="-4.6146440505981445">
        <ele>839.95</ele>
        <time>2025-02-10T18:15:08.079Z</time>
      </trkpt>
      <trkpt lat="41.74862623214722" lon="-4.614880084991455">
        <ele>839.69</ele>
        <time>2025-02-10T18:15:13.902Z</time>
      </trkpt>
      <trkpt lat="41.74858340062201" lon="-4.615051746368408">
        <ele>838.75</ele>
        <time>2025-02-10T18:15:19.728Z</time>
      </trkpt>
      <trkpt lat="41.74858340062201" lon="-4.615373611450195">
        <ele>838.79</ele>
        <time>2025-02-10T18:15:25.559Z</time>
      </trkpt>
      <trkpt lat="41.74858340062201" lon="-4.61550235748291">
        <ele>838.79</ele>
        <time>2025-02-10T18:15:31.392Z</time>
      </trkpt>
      <trkpt lat="41.74855104647577" lon="-4.615835621953011">
        <ele>840.97</ele>
        <time>2025-02-10T18:15:37.230Z</time>
      </trkpt>
      <trkpt lat="41.74851894378662" lon="-4.6161675453186035">
        <ele>839.21</ele>
        <time>2025-02-10T18:15:43.073Z</time>
      </trkpt>
      <trkpt lat="41.74846521578729" lon="-4.616403998807073">
        <ele>839.12</ele>
        <time>2025-02-10T18:15:48.919Z</time>
      </trkpt>
      <trkpt lat="41.74841173924506" lon="-4.616639614105225">
        <ele>839.57</ele>
        <time>2025-02-10T18:15:54.769Z</time>
      </trkpt>
      <trkpt lat="41.74832582473755" lon="-4.616961479187012">
        <ele>839.72</ele>
        <time>2025-02-10T18:16:00.624Z</time>
      </trkpt>
      <trkpt lat="41.748175621032715" lon="-4.617326259613037">
        <ele>840.57</ele>
        <time>2025-02-10T18:16:06.486Z</time>
      </trkpt>
      <trkpt lat="41.74796104431152" lon="-4.617583751678467">
        <ele>840.8</ele>
        <time>2025-02-10T18:16:12.353Z</time>
      </trkpt>
      <trkpt lat="41.74787521362305" lon="-4.617884159088135">
        <ele>840.18</ele>
        <time>2025-02-10T18:16:18.225Z</time>
      </trkpt>
      <trkpt lat="41.74787521362305" lon="-4.618184566497803">
        <ele>839.4</ele>
        <time>2025-02-10T18:16:24.102Z</time>
      </trkpt>
      <trkpt lat="41.74781084060669" lon="-4.618527889251709">
        <ele>836.0</ele>
        <time>2025-02-10T18:16:29.984Z</time>
      </trkpt>
      <trkpt lat="41.74772643484175" lon="-4.618724109604955">
        <ele>832.08</ele>
        <time>2025-02-10T18:16:35.869Z</time>
      </trkpt>
      <trkpt lat="41.74771310761571" lon="-4.618755206465721">
        <ele>831.2</ele>
        <time>2025-02-10T18:16:41.755Z</time>
      </trkpt>
      <trkpt lat="41.74771260470152" lon="-4.61875663138926">
        <ele>830.36</ele>
        <time>2025-02-10T18:16:47.641Z</time>
      </trkpt>
      <trkpt lat="41.74771126359701" lon="-4.618759900331497">
        <ele>829.52</ele>
        <time>2025-02-10T18:16:53.527Z</time>
      </trkpt>
      <trkpt lat="41.74769860692322" lon="-4.618789656087756">
        <ele>828.7</ele>
        <time>2025-02-10T18:16:59.413Z</time>
      </trkpt>
      <trkpt lat="41.747682094573975" lon="-4.618828296661377">
        <ele>831.58</ele>
        <time>2025-02-10T18:17:05.300Z</time>
      </trkpt>
      <trkpt lat="41.747682094573975" lon="-4.6192145347595215">
        <ele>827.27</ele>
        <time>2025-02-10T18:17:11.193Z</time>
      </trkpt>
      <trkpt lat="41.74774646759033" lon="-4.619321823120117">
        <ele>824.18</ele>
        <time>2025-02-10T18:17:17.088Z</time>
      </trkpt>
      <trkpt lat="41.74761780537665" lon="-4.619407653808594">
        <ele>822.38</ele>
        <time>2025-02-10T18:17:22.986Z</time>
      </trkpt>
      <trkpt lat="41.74761772155762" lon="-4.619407653808594">
        <ele>824.73</ele>
        <time>2025-02-10T18:17:28.884Z</time>
      </trkpt>
      <trkpt lat="41.74761780537665" lon="-4.619407653808594">
        <ele>822.38</ele>
        <time>2025-02-10T18:17:34.782Z</time>
      </trkpt>
      <trkpt lat="41.747424602508545" lon="-4.619386196136475">
        <ele>822.05</ele>
        <time>2025-02-10T18:17:40.684Z</time>
      </trkpt>
      <trkpt lat="41.74729585647583" lon="-4.619407653808594">
        <ele>821.56</ele>
        <time>2025-02-10T18:17:46.588Z</time>
      </trkpt>
      <trkpt lat="41.74701724201441" lon="-4.6193647384643555">
        <ele>822.46</ele>
        <time>2025-02-10T18:17:52.498Z</time>
      </trkpt>
      <trkpt lat="41.74673795700073" lon="-4.619321823120117">
        <ele>820.73</ele>
        <time>2025-02-10T18:17:58.413Z</time>
      </trkpt>
      <trkpt lat="41.746652126312256" lon="-4.619343280792236">
        <ele>820.66</ele>
        <time>2025-02-10T18:18:04.330Z</time>
      </trkpt>
      <trkpt lat="41.7464270722121" lon="-4.6192575339227915">
        <ele>821.21</ele>
        <time>2025-02-10T18:18:10.252Z</time>
      </trkpt>
      <trkpt lat="41.746201515197754" lon="-4.619171619415283">
        <ele>819.94</ele>
        <time>2025-02-10T18:18:16.179Z</time>
      </trkpt>
      <trkpt lat="41.745944023132324" lon="-4.619021415710449">
        <ele>819.83</ele>
        <time>2025-02-10T18:18:22.111Z</time>
      </trkpt>
      <trkpt lat="41.74578317441046" lon="-4.618903398513794">
        <ele>820.3</ele>
        <time>2025-02-10T18:18:28.047Z</time>
      </trkpt>
      <trkpt lat="41.74562215805054" lon="-4.618785381317139">
        <ele>819.5</ele>
        <time>2025-02-10T18:18:33.987Z</time>
      </trkpt>
      <trkpt lat="41.74551486968994" lon="-4.6187639236450195">
        <ele>819.25</ele>
        <time>2025-02-10T18:18:39.929Z</time>
      </trkpt>
      <trkpt lat="41.745279002934694" lon="-4.618878168985248">
        <ele>819.83</ele>
        <time>2025-02-10T18:18:45.876Z</time>
      </trkpt>
      <trkpt lat="41.74504321999848" lon="-4.618992498144507">
        <ele>819.78</ele>
        <time>2025-02-10T18:18:51.828Z</time>
      </trkpt>
      <trkpt lat="41.74480676651001" lon="-4.619107246398926">
        <ele>818.87</ele>
        <time>2025-02-10T18:18:57.785Z</time>
      </trkpt>
      <trkpt lat="41.74463493749499" lon="-4.619354093447328">
        <ele>819.67</ele>
        <time>2025-02-10T18:19:03.747Z</time>
      </trkpt>
      <trkpt lat="41.7444634437561" lon="-4.619600772857666">
        <ele>818.67</ele>
        <time>2025-02-10T18:19:09.714Z</time>
      </trkpt>
      <trkpt lat="41.744298823177814" lon="-4.619793891906738">
        <ele>819.73</ele>
        <time>2025-02-10T18:19:15.685Z</time>
      </trkpt>
      <trkpt lat="41.74413428641856" lon="-4.6199870109558105">
        <ele>819.78</ele>
        <time>2025-02-10T18:19:21.661Z</time>
      </trkpt>
      <trkpt lat="41.74402238801122" lon="-4.620118020102382">
        <ele>819.82</ele>
        <time>2025-02-10T18:19:27.640Z</time>
      </trkpt>
      <trkpt lat="41.74400210380554" lon="-4.620141908526421">
        <ele>819.89</ele>
        <time>2025-02-10T18:19:33.619Z</time>
      </trkpt>
      <trkpt lat="41.744001265615225" lon="-4.620142998173833">
        <ele>819.98</ele>
        <time>2025-02-10T18:19:39.598Z</time>
      </trkpt>
      <trkpt lat="41.74399917013943" lon="-4.620145512744784">
        <ele>820.07</ele>
        <time>2025-02-10T18:19:45.577Z</time>
      </trkpt>
      <trkpt lat="41.743979724124074" lon="-4.620168479159474">
        <ele>820.15</ele>
        <time>2025-02-10T18:19:51.557Z</time>
      </trkpt>
      <trkpt lat="41.74396991729736" lon="-4.620180130004883">
        <ele>820.22</ele>
        <time>2025-02-10T18:19:57.537Z</time>
      </trkpt>
      <trkpt lat="41.74392859451473" lon="-4.6202897652983665">
        <ele>820.29</ele>
        <time>2025-02-10T18:20:03.519Z</time>
      </trkpt>
      <trkpt lat="41.74391652457416" lon="-4.620322035625577">
        <ele>820.34</ele>
        <time>2025-02-10T18:20:09.501Z</time>
      </trkpt>
      <trkpt lat="41.74391602165997" lon="-4.620323460549116">
        <ele>820.36</ele>
        <time>2025-02-10T18:20:15.483Z</time>
      </trkpt>
      <trkpt lat="41.743914764374495" lon="-4.6203268971294165">
        <ele>820.35</ele>
        <time>2025-02-10T18:20:21.465Z</time>
      </trkpt>
      <trkpt lat="41.74390319734812" lon="-4.6203578263521194">
        <ele>820.3</ele>
        <time>2025-02-10T18:20:27.448Z</time>
      </trkpt>
      <trkpt lat="41.74387050792575" lon="-4.620444662868977">
        <ele>820.19</ele>
        <time>2025-02-10T18:20:33.432Z</time>
      </trkpt>
      <trkpt lat="41.74385843798518" lon="-4.620477017015219">
        <ele>820.05</ele>
        <time>2025-02-10T18:20:39.417Z</time>
      </trkpt>
      <trkpt lat="41.74385793507099" lon="-4.620478441938758">
        <ele>819.86</ele>
        <time>2025-02-10T18:20:45.402Z</time>
      </trkpt>
      <trkpt lat="41.743856677785516" lon="-4.620481878519058">
        <ele>819.62</ele>
        <time>2025-02-10T18:20:51.387Z</time>
      </trkpt>
      <trkpt lat="41.74384511075914" lon="-4.620512807741761">
        <ele>819.31</ele>
        <time>2025-02-10T18:20:57.373Z</time>
      </trkpt>
      <trkpt lat="41.74384117126465" lon="-4.620523452758789">
        <ele>818.93</ele>
        <time>2025-02-10T18:21:03.359Z</time>
      </trkpt>
      <trkpt lat="41.74379825592041" lon="-4.6207380294799805">
        <ele>818.46</ele>
        <time>2025-02-10T18:21:09.348Z</time>
      </trkpt>
      <trkpt lat="41.74377679824829" lon="-4.620823860168457">
        <ele>817.91</ele>
        <time>2025-02-10T18:21:15.338Z</time>
      </trkpt>
      <trkpt lat="41.743772607296705" lon="-4.620870128273964">
        <ele>817.29</ele>
        <time>2025-02-10T18:21:21.329Z</time>
      </trkpt>
      <trkpt lat="41.74376145936549" lon="-4.6209925878793">
        <ele>816.62</ele>
        <time>2025-02-10T18:21:27.322Z</time>
      </trkpt>
      <trkpt lat="41.74375534057617" lon="-4.621059894561768">
        <ele>815.86</ele>
        <time>2025-02-10T18:21:33.316Z</time>
      </trkpt>
      <trkpt lat="41.74380814656615" lon="-4.6211904007941484">
        <ele>814.94</ele>
        <time>2025-02-10T18:21:39.312Z</time>
      </trkpt>
      <trkpt lat="41.74380814656615" lon="-4.621190316975117">
        <ele>813.98</ele>
        <time>2025-02-10T18:21:45.308Z</time>
      </trkpt>
      <trkpt lat="41.74386975355446" lon="-4.621342616155744">
        <ele>812.9</ele>
        <time>2025-02-10T18:21:51.307Z</time>
      </trkpt>
      <trkpt lat="41.74386975355446" lon="-4.621342532336712">
        <ele>811.76</ele>
        <time>2025-02-10T18:21:57.306Z</time>
      </trkpt>
      <trkpt lat="41.74399506300688" lon="-4.6216522436589">
        <ele>810.41</ele>
        <time>2025-02-10T18:22:03.310Z</time>
      </trkpt>
      <trkpt lat="41.74400210380554" lon="-4.6216698456555605">
        <ele>809.08</ele>
        <time>2025-02-10T18:22:09.314Z</time>
      </trkpt>
      <trkpt lat="41.744015011936426" lon="-4.621701864525676">
        <ele>807.63</ele>
        <time>2025-02-10T18:22:15.319Z</time>
      </trkpt>
      <trkpt lat="41.74401559866965" lon="-4.621703205630183">
        <ele>806.13</ele>
        <time>2025-02-10T18:22:21.324Z</time>
      </trkpt>
      <trkpt lat="41.74401702359319" lon="-4.621706558391452">
        <ele>804.53</ele>
        <time>2025-02-10T18:22:27.329Z</time>
      </trkpt>
      <trkpt lat="41.74402942880988" lon="-4.621737068518996">
        <ele>802.86</ele>
        <time>2025-02-10T18:22:33.335Z</time>
      </trkpt>
      <trkpt lat="41.7441201210022" lon="-4.6219611167907715">
        <ele>800.94</ele>
        <time>2025-02-10T18:22:39.344Z</time>
      </trkpt>
      <trkpt lat="41.74427032470703" lon="-4.622154235839844">
        <ele>798.78</ele>
        <time>2025-02-10T18:22:45.358Z</time>
      </trkpt>
      <trkpt lat="41.744420528411865" lon="-4.622347354888916">
        <ele>796.65</ele>
        <time>2025-02-10T18:22:51.376Z</time>
      </trkpt>
      <trkpt lat="41.74445355311036" lon="-4.6224051900208">
        <ele>794.66</ele>
        <time>2025-02-10T18:22:57.395Z</time>
      </trkpt>
      <trkpt lat="41.74456587061286" lon="-4.622601745650172">
        <ele>792.51</ele>
        <time>2025-02-10T18:23:03.417Z</time>
      </trkpt>
      <trkpt lat="41.744678020477295" lon="-4.622797966003418">
        <ele>790.39</ele>
        <time>2025-02-10T18:23:09.443Z</time>
      </trkpt>
      <trkpt lat="41.744703920558095" lon="-4.622864853590727">
        <ele>788.36</ele>
        <time>2025-02-10T18:23:15.470Z</time>
      </trkpt>
      <trkpt lat="41.74471649341285" lon="-4.622897123917937">
        <ele>786.33</ele>
        <time>2025-02-10T18:23:21.498Z</time>
      </trkpt>
      <trkpt lat="41.744717080146074" lon="-4.622898465022445">
        <ele>784.31</ele>
        <time>2025-02-10T18:23:27.526Z</time>
      </trkpt>
      <trkpt lat="41.74471842125058" lon="-4.622901901602745">
        <ele>782.27</ele>
        <time>2025-02-10T18:23:33.554Z</time>
      </trkpt>
      <trkpt lat="41.74473040737212" lon="-4.622932663187385">
        <ele>780.2</ele>
        <time>2025-02-10T18:23:39.582Z</time>
      </trkpt>
      <trkpt lat="41.744753206148744" lon="-4.622991336509585">
        <ele>778.11</ele>
        <time>2025-02-10T18:23:45.611Z</time>
      </trkpt>
      <trkpt lat="41.74482822418213" lon="-4.6231842041015625">
        <ele>775.93</ele>
        <time>2025-02-10T18:23:51.644Z</time>
      </trkpt>
      <trkpt lat="41.74476368352771" lon="-4.62337757460773">
        <ele>773.92</ele>
        <time>2025-02-10T18:23:57.680Z</time>
      </trkpt>
      <trkpt lat="41.744699478149414" lon="-4.623570442199707">
        <ele>771.85</ele>
        <time>2025-02-10T18:24:03.719Z</time>
      </trkpt>
      <trkpt lat="41.74462546594441" lon="-4.623718550428748">
        <ele>769.82</ele>
        <time>2025-02-10T18:24:09.761Z</time>
      </trkpt>
      <trkpt lat="41.74462546594441" lon="-4.623718466609716">
        <ele>767.84</ele>
        <time>2025-02-10T18:24:15.803Z</time>
      </trkpt>
      <trkpt lat="41.74450635910034" lon="-4.623956680297852">
        <ele>765.81</ele>
        <time>2025-02-10T18:24:21.849Z</time>
      </trkpt>
      <trkpt lat="41.74448481760919" lon="-4.624225487932563">
        <ele>763.7</ele>
        <time>2025-02-10T18:24:27.899Z</time>
      </trkpt>
      <trkpt lat="41.7444634437561" lon="-4.62449312210083">
        <ele>761.75</ele>
        <time>2025-02-10T18:24:33.953Z</time>
      </trkpt>
      <trkpt lat="41.74451717175543" lon="-4.62476184591651">
        <ele>759.78</ele>
        <time>2025-02-10T18:24:40.011Z</time>
      </trkpt>
      <trkpt lat="41.7445707321167" lon="-4.625029563903809">
        <ele>757.82</ele>
        <time>2025-02-10T18:24:46.073Z</time>
      </trkpt>
      <trkpt lat="41.74458146095276" lon="-4.62528764270246">
        <ele>756.0</ele>
        <time>2025-02-10T18:24:52.139Z</time>
      </trkpt>
      <trkpt lat="41.74459218978882" lon="-4.625544548034668">
        <ele>754.38</ele>
        <time>2025-02-10T18:24:58.209Z</time>
      </trkpt>
      <trkpt lat="41.74466553144157" lon="-4.6257753018289804">
        <ele>752.72</ele>
        <time>2025-02-10T18:25:04.283Z</time>
      </trkpt>
      <trkpt lat="41.74466737546027" lon="-4.625780917704105">
        <ele>751.21</ele>
        <time>2025-02-10T18:25:10.357Z</time>
      </trkpt>
      <trkpt lat="41.744676092639565" lon="-4.625808661803603">
        <ele>749.75</ele>
        <time>2025-02-10T18:25:16.431Z</time>
      </trkpt>
      <trkpt lat="41.744676595553756" lon="-4.625810086727142">
        <ele>748.37</ele>
        <time>2025-02-10T18:25:22.505Z</time>
      </trkpt>
      <trkpt lat="41.7446777690202" lon="-4.625813607126474">
        <ele>747.07</ele>
        <time>2025-02-10T18:25:28.579Z</time>
      </trkpt>
      <trkpt lat="41.74468799494207" lon="-4.625845709815621">
        <ele>745.81</ele>
        <time>2025-02-10T18:25:34.654Z</time>
      </trkpt>
      <trkpt lat="41.74474239349365" lon="-4.626016616821289">
        <ele>744.54</ele>
        <time>2025-02-10T18:25:40.732Z</time>
      </trkpt>
      <trkpt lat="41.74484968185425" lon="-4.626317024230957">
        <ele>743.28</ele>
        <time>2025-02-10T18:25:46.815Z</time>
      </trkpt>
      <trkpt lat="41.74497842788696" lon="-4.626510143280029">
        <ele>742.12</ele>
        <time>2025-02-10T18:25:52.902Z</time>
      </trkpt>
      <trkpt lat="41.74497842788696" lon="-4.626617431640625">
        <ele>741.18</ele>
        <time>2025-02-10T18:25:58.990Z</time>
      </trkpt>
      <trkpt lat="41.744978511705995" lon="-4.626617431640625">
        <ele>740.33</ele>
        <time>2025-02-10T18:26:05.078Z</time>
      </trkpt>
      <trkpt lat="41.74497784115374" lon="-4.626619694754481">
        <ele>739.56</ele>
        <time>2025-02-10T18:26:11.166Z</time>
      </trkpt>
      <trkpt lat="41.744968285784125" lon="-4.626654060557485">
        <ele>738.86</ele>
        <time>2025-02-10T18:26:17.255Z</time>
      </trkpt>
      <trkpt lat="41.744967950508" lon="-4.6266555693000555">
        <ele>738.22</ele>
        <time>2025-02-10T18:26:23.344Z</time>
      </trkpt>
      <trkpt lat="41.74496702849865" lon="-4.626659173518419">
        <ele>737.65</ele>
        <time>2025-02-10T18:26:29.433Z</time>
      </trkpt>
      <trkpt lat="41.74495814368129" lon="-4.62669194675982">
        <ele>737.14</ele>
        <time>2025-02-10T18:26:35.522Z</time>
      </trkpt>
      <trkpt lat="41.744914054870605" lon="-4.6268534660339355">
        <ele>736.66</ele>
        <time>2025-02-10T18:26:41.614Z</time>
      </trkpt>
      <trkpt lat="41.74485362134874" lon="-4.6269612573087215">
        <ele>736.27</ele>
        <time>2025-02-10T18:26:47.708Z</time>
      </trkpt>
      <trkpt lat="41.744837276637554" lon="-4.626990593969822">
        <ele>735.91</ele>
        <time>2025-02-10T18:26:53.803Z</time>
      </trkpt>
      <trkpt lat="41.7448366060853" lon="-4.626991851255298">
        <ele>735.61</ele>
        <time>2025-02-10T18:26:59.898Z</time>
      </trkpt>
      <trkpt lat="41.744834929704666" lon="-4.626994952559471">
        <ele>735.34</ele>
        <time>2025-02-10T18:27:05.993Z</time>
      </trkpt>
      <trkpt lat="41.74481933936477" lon="-4.627022948116064">
        <ele>735.12</ele>
        <time>2025-02-10T18:27:12.088Z</time>
      </trkpt>
      <trkpt lat="41.74467919394374" lon="-4.627274153754115">
        <ele>734.89</ele>
        <time>2025-02-10T18:27:18.188Z</time>
      </trkpt>
      <trkpt lat="41.74453888088465" lon="-4.62752552703023">
        <ele>734.73</ele>
        <time>2025-02-10T18:27:24.293Z</time>
      </trkpt>
      <trkpt lat="41.744399070739746" lon="-4.627776145935059">
        <ele>734.6</ele>
        <time>2025-02-10T18:27:30.402Z</time>
      </trkpt>
      <trkpt lat="41.74422740936279" lon="-4.627883434295654">
        <ele>734.58</ele>
        <time>2025-02-10T18:27:36.515Z</time>
      </trkpt>
      <trkpt lat="41.7441201210022" lon="-4.627904891967773">
        <ele>734.59</ele>
        <time>2025-02-10T18:27:42.630Z</time>
      </trkpt>
      <trkpt lat="41.74403429031372" lon="-4.62799072265625">
        <ele>734.54</ele>
        <time>2025-02-10T18:27:48.747Z</time>
      </trkpt>
      <trkpt lat="41.743948459625244" lon="-4.628162384033203">
        <ele>734.42</ele>
        <time>2025-02-10T18:27:54.867Z</time>
      </trkpt>
      <trkpt lat="41.743905544281006" lon="-4.628570079803467">
        <ele>734.08</ele>
        <time>2025-02-10T18:28:00.994Z</time>
      </trkpt>
      <trkpt lat="41.74375534057617" lon="-4.628891944885254">
        <ele>734.01</ele>
        <time>2025-02-10T18:28:07.126Z</time>
      </trkpt>
      <trkpt lat="41.743571273982525" lon="-4.62917416356504">
        <ele>733.9</ele>
        <time>2025-02-10T18:28:13.264Z</time>
      </trkpt>
      <trkpt lat="41.74338720738888" lon="-4.629456382244825">
        <ele>733.8</ele>
        <time>2025-02-10T18:28:19.407Z</time>
      </trkpt>
      <trkpt lat="41.74320314079523" lon="-4.629738600924611">
        <ele>733.84</ele>
        <time>2025-02-10T18:28:25.556Z</time>
      </trkpt>
      <trkpt lat="41.743019074201584" lon="-4.630020819604397">
        <ele>733.91</ele>
        <time>2025-02-10T18:28:31.711Z</time>
      </trkpt>
      <trkpt lat="41.74283500760794" lon="-4.6303030382841825">
        <ele>734.15</ele>
        <time>2025-02-10T18:28:37.871Z</time>
      </trkpt>
      <trkpt lat="41.74265102483332" lon="-4.630585173144937">
        <ele>734.5</ele>
        <time>2025-02-10T18:28:44.037Z</time>
      </trkpt>
      <trkpt lat="41.74246788024902" lon="-4.630866050720215">
        <ele>734.49</ele>
        <time>2025-02-10T18:28:50.208Z</time>
      </trkpt>
      <trkpt lat="41.74229621887207" lon="-4.631080627441406">
        <ele>734.62</ele>
        <time>2025-02-10T18:28:56.384Z</time>
      </trkpt>
      <trkpt lat="41.74221022054553" lon="-4.631349267438054">
        <ele>734.56</ele>
        <time>2025-02-10T18:29:02.565Z</time>
      </trkpt>
      <trkpt lat="41.74212455749512" lon="-4.631617069244385">
        <ele>734.52</ele>
        <time>2025-02-10T18:29:08.750Z</time>
      </trkpt>
      <trkpt lat="41.741952896118164" lon="-4.631810188293457">
        <ele>734.62</ele>
        <time>2025-02-10T18:29:14.939Z</time>
      </trkpt>
      <trkpt lat="41.74186706542969" lon="-4.63198184967041">
        <ele>734.67</ele>
        <time>2025-02-10T18:29:21.131Z</time>
      </trkpt>
      <trkpt lat="41.74175977706909" lon="-4.632132053375244">
        <ele>734.69</ele>
        <time>2025-02-10T18:29:27.327Z</time>
      </trkpt>
      <trkpt lat="41.74158803187311" lon="-4.632335901260376">
        <ele>734.82</ele>
        <time>2025-02-10T18:29:33.527Z</time>
      </trkpt>
      <trkpt lat="41.741416454315186" lon="-4.632539749145508">
        <ele>735.07</ele>
        <time>2025-02-10T18:29:39.732Z</time>
      </trkpt>
      <trkpt lat="41.741319727152586" lon="-4.632786847651005">
        <ele>735.33</ele>
        <time>2025-02-10T18:29:45.941Z</time>
      </trkpt>
      <trkpt lat="41.74122333526611" lon="-4.633033275604248">
        <ele>735.54</ele>
        <time>2025-02-10T18:29:52.154Z</time>
      </trkpt>
      <trkpt lat="41.74105167388916" lon="-4.633376598358154">
        <ele>735.7</ele>
        <time>2025-02-10T18:29:58.373Z</time>
      </trkpt>
      <trkpt lat="41.74103021621704" lon="-4.63348388671875">
        <ele>735.75</ele>
        <time>2025-02-10T18:30:04.594Z</time>
      </trkpt>
      <trkpt lat="41.74095494672656" lon="-4.633677257224917">
        <ele>735.82</ele>
        <time>2025-02-10T18:30:10.818Z</time>
      </trkpt>
      <trkpt lat="41.74088001251221" lon="-4.6338701248168945">
        <ele>735.91</ele>
        <time>2025-02-10T18:30:17.045Z</time>
      </trkpt>
      <trkpt lat="41.74088001251221" lon="-4.6340203285217285">
        <ele>735.91</ele>
        <time>2025-02-10T18:30:23.275Z</time>
      </trkpt>
      <trkpt lat="41.740783201530576" lon="-4.634342696517706">
        <ele>736.0</ele>
        <time>2025-02-10T18:30:29.510Z</time>
      </trkpt>
      <trkpt lat="41.740686893463135" lon="-4.634664058685303">
        <ele>736.2</ele>
        <time>2025-02-10T18:30:35.750Z</time>
      </trkpt>
      <trkpt lat="41.74051523208618" lon="-4.634921550750732">
        <ele>736.46</ele>
        <time>2025-02-10T18:30:41.995Z</time>
      </trkpt>
      <trkpt lat="41.74041490070522" lon="-4.635215252637863">
        <ele>736.54</ele>
        <time>2025-02-10T18:30:48.245Z</time>
      </trkpt>
      <trkpt lat="41.740314569324255" lon="-4.635509038344026">
        <ele>736.67</ele>
        <time>2025-02-10T18:30:54.500Z</time>
      </trkpt>
      <trkpt lat="41.740214824676514" lon="-4.635801315307617">
        <ele>736.71</ele>
        <time>2025-02-10T18:31:00.760Z</time>
      </trkpt>
      <trkpt lat="41.74009672366083" lon="-4.635962247848511">
        <ele>736.88</ele>
        <time>2025-02-10T18:31:07.023Z</time>
      </trkpt>
      <trkpt lat="41.7399787902832" lon="-4.636123180389404">
        <ele>737.04</ele>
        <time>2025-02-10T18:31:13.289Z</time>
      </trkpt>
      <trkpt lat="41.73989295959473" lon="-4.6364665031433105">
        <ele>737.11</ele>
        <time>2025-02-10T18:31:19.561Z</time>
      </trkpt>
      <trkpt lat="41.73982858657837" lon="-4.636573791503906">
        <ele>737.3</ele>
        <time>2025-02-10T18:31:25.835Z</time>
      </trkpt>
      <trkpt lat="41.73961400985718" lon="-4.636788368225098">
        <ele>737.58</ele>
        <time>2025-02-10T18:31:32.114Z</time>
      </trkpt>
      <trkpt lat="41.73948526382446" lon="-4.636874198913574">
        <ele>737.8</ele>
        <time>2025-02-10T18:31:38.396Z</time>
      </trkpt>
      <trkpt lat="41.73937797546387" lon="-4.636874198913574">
        <ele>738.07</ele>
        <time>2025-02-10T18:31:44.680Z</time>
      </trkpt>
      <trkpt lat="41.73929214477539" lon="-4.636938571929932">
        <ele>738.26</ele>
        <time>2025-02-10T18:31:50.966Z</time>
      </trkpt>
      <trkpt lat="41.73931360244751" lon="-4.6370673179626465">
        <ele>738.26</ele>
        <time>2025-02-10T18:31:57.254Z</time>
      </trkpt>
      <trkpt lat="41.73922777175903" lon="-4.637303352355957">
        <ele>738.29</ele>
        <time>2025-02-10T18:32:03.546Z</time>
      </trkpt>
      <trkpt lat="41.73905611038208" lon="-4.637464201077819">
        <ele>738.56</ele>
        <time>2025-02-10T18:32:09.842Z</time>
      </trkpt>
      <trkpt lat="41.73888444900513" lon="-4.637625217437744">
        <ele>738.78</ele>
        <time>2025-02-10T18:32:16.143Z</time>
      </trkpt>
      <trkpt lat="41.73875570297241" lon="-4.637625217437744">
        <ele>739.05</ele>
        <time>2025-02-10T18:32:22.446Z</time>
      </trkpt>
      <trkpt lat="41.738691329956055" lon="-4.637818336486816">
        <ele>739.08</ele>
        <time>2025-02-10T18:32:28.752Z</time>
      </trkpt>
      <trkpt lat="41.73856258392334" lon="-4.63796854019165">
        <ele>739.15</ele>
        <time>2025-02-10T18:32:35.062Z</time>
      </trkpt>
      <trkpt lat="41.73834800720215" lon="-4.638032913208008">
        <ele>739.43</ele>
        <time>2025-02-10T18:32:41.376Z</time>
      </trkpt>
      <trkpt lat="41.73809051513672" lon="-4.63822603225708">
        <ele>739.72</ele>
        <time>2025-02-10T18:32:47.696Z</time>
      </trkpt>
      <trkpt lat="41.73788306303322" lon="-4.63844052515924">
        <ele>739.81</ele>
        <time>2025-02-10T18:32:54.021Z</time>
      </trkpt>
      <trkpt lat="41.73767561092973" lon="-4.638655101880431">
        <ele>739.93</ele>
        <time>2025-02-10T18:33:00.352Z</time>
      </trkpt>
      <trkpt lat="41.737468242645264" lon="-4.638869762420654">
        <ele>740.37</ele>
        <time>2025-02-10T18:33:06.688Z</time>
      </trkpt>
      <trkpt lat="41.73738241195679" lon="-4.639148712158203">
        <ele>740.57</ele>
        <time>2025-02-10T18:33:13.028Z</time>
      </trkpt>
      <trkpt lat="41.73723220825195" lon="-4.639320373535156">
        <ele>741.02</ele>
        <time>2025-02-10T18:33:19.372Z</time>
      </trkpt>
      <trkpt lat="41.73699617385864" lon="-4.6393632888793945">
        <ele>741.64</ele>
        <time>2025-02-10T18:33:25.721Z</time>
      </trkpt>
      <trkpt lat="41.736856531351805" lon="-4.639577949419618">
        <ele>741.92</ele>
        <time>2025-02-10T18:33:32.074Z</time>
      </trkpt>
      <trkpt lat="41.736717224121094" lon="-4.639792442321777">
        <ele>742.29</ele>
        <time>2025-02-10T18:33:38.432Z</time>
      </trkpt>
      <trkpt lat="41.736577581614256" lon="-4.6398621797561646">
        <ele>742.75</ele>
        <time>2025-02-10T18:33:44.793Z</time>
      </trkpt>
      <trkpt lat="41.736551681533456" lon="-4.63987517170608">
        <ele>742.99</ele>
        <time>2025-02-10T18:33:51.154Z</time>
      </trkpt>
      <trkpt lat="41.73654556274414" lon="-4.639878273010254">
        <ele>743.19</ele>
        <time>2025-02-10T18:33:57.515Z</time>
      </trkpt>
      <trkpt lat="41.736438274383545" lon="-4.640028476715088">
        <ele>743.44</ele>
        <time>2025-02-10T18:34:03.879Z</time>
      </trkpt>
      <trkpt lat="41.736438274383545" lon="-4.640200138092041">
        <ele>743.41</ele>
        <time>2025-02-10T18:34:10.246Z</time>
      </trkpt>
      <trkpt lat="41.736416816711426" lon="-4.640328884124756">
        <ele>743.42</ele>
        <time>2025-02-10T18:34:16.615Z</time>
      </trkpt>
      <trkpt lat="41.73628790304065" lon="-4.640532815828919">
        <ele>743.5</ele>
        <time>2025-02-10T18:34:22.988Z</time>
      </trkpt>
      <trkpt lat="41.736159324645996" lon="-4.6407365798950195">
        <ele>743.51</ele>
        <time>2025-02-10T18:34:29.365Z</time>
      </trkpt>
      <trkpt lat="41.73609495162964" lon="-4.6408867835998535">
        <ele>743.34</ele>
        <time>2025-02-10T18:34:35.744Z</time>
      </trkpt>
      <trkpt lat="41.73607349395752" lon="-4.641058444976807">
        <ele>743.01</ele>
        <time>2025-02-10T18:34:42.126Z</time>
      </trkpt>
      <trkpt lat="41.735944747924805" lon="-4.641315937042236">
        <ele>742.76</ele>
        <time>2025-02-10T18:34:48.513Z</time>
      </trkpt>
      <trkpt lat="41.73583745956421" lon="-4.641423225402832">
        <ele>742.49</ele>
        <time>2025-02-10T18:34:54.902Z</time>
      </trkpt>
      <trkpt lat="41.73557996749878" lon="-4.641551971435547">
        <ele>742.16</ele>
        <time>2025-02-10T18:35:01.297Z</time>
      </trkpt>
      <trkpt lat="41.73553705215454" lon="-4.641594886779785">
        <ele>741.65</ele>
        <time>2025-02-10T18:35:07.693Z</time>
      </trkpt>
      <trkpt lat="41.73557996749878" lon="-4.6417236328125">
        <ele>740.97</ele>
        <time>2025-02-10T18:35:14.091Z</time>
      </trkpt>
      <trkpt lat="41.73564434051514" lon="-4.641809463500977">
        <ele>740.31</ele>
        <time>2025-02-10T18:35:20.491Z</time>
      </trkpt>
      <trkpt lat="41.73562288284302" lon="-4.641873836517334">
        <ele>739.64</ele>
        <time>2025-02-10T18:35:26.892Z</time>
      </trkpt>
      <trkpt lat="41.735440492630005" lon="-4.642045414075255">
        <ele>738.8</ele>
        <time>2025-02-10T18:35:33.297Z</time>
      </trkpt>
      <trkpt lat="41.73525810241699" lon="-4.64221715927124">
        <ele>737.98</ele>
        <time>2025-02-10T18:35:39.707Z</time>
      </trkpt>
      <trkpt lat="41.73502206802368" lon="-4.642324447631836">
        <ele>737.31</ele>
        <time>2025-02-10T18:35:46.122Z</time>
      </trkpt>
      <trkpt lat="41.73487186431885" lon="-4.642463838681579">
        <ele>736.55</ele>
        <time>2025-02-10T18:35:52.540Z</time>
      </trkpt>
      <trkpt lat="41.734721660614014" lon="-4.642603397369385">
        <ele>735.72</ele>
        <time>2025-02-10T18:35:58.962Z</time>
      </trkpt>
      <trkpt lat="41.73463582992554" lon="-4.6427321434021">
        <ele>734.83</ele>
        <time>2025-02-10T18:36:05.387Z</time>
      </trkpt>
      <trkpt lat="41.73454999923706" lon="-4.642925262451172">
        <ele>733.91</ele>
        <time>2025-02-10T18:36:11.815Z</time>
      </trkpt>
      <trkpt lat="41.73439987935126" lon="-4.643032466992736">
        <ele>733.11</ele>
        <time>2025-02-10T18:36:18.246Z</time>
      </trkpt>
      <trkpt lat="41.73424959182739" lon="-4.643139839172363">
        <ele>732.3</ele>
        <time>2025-02-10T18:36:24.681Z</time>
      </trkpt>
      <trkpt lat="41.73412084579468" lon="-4.643290042877197">
        <ele>731.45</ele>
        <time>2025-02-10T18:36:31.119Z</time>
      </trkpt>
      <trkpt lat="41.733992183580995" lon="-4.643440246582031">
        <ele>730.58</ele>
        <time>2025-02-10T18:36:37.561Z</time>
      </trkpt>
      <trkpt lat="41.733927726745605" lon="-4.6434831619262695">
        <ele>729.74</ele>
        <time>2025-02-10T18:36:44.004Z</time>
      </trkpt>
      <trkpt lat="41.73388481140137" lon="-4.643440246582031">
        <ele>728.95</ele>
        <time>2025-02-10T18:36:50.448Z</time>
      </trkpt>
      <trkpt lat="41.733670234680176" lon="-4.643418788909912">
        <ele>728.12</ele>
        <time>2025-02-10T18:36:56.897Z</time>
      </trkpt>
      <trkpt lat="41.733412742614746" lon="-4.643568992614746">
        <ele>727.05</ele>
        <time>2025-02-10T18:37:03.351Z</time>
      </trkpt>
      <trkpt lat="41.73328399658203" lon="-4.643526077270508">
        <ele>726.19</ele>
        <time>2025-02-10T18:37:09.808Z</time>
      </trkpt>
      <trkpt lat="41.73310169018805" lon="-4.643386602401733">
        <ele>725.42</ele>
        <time>2025-02-10T18:37:16.269Z</time>
      </trkpt>
      <trkpt lat="41.732919216156006" lon="-4.643247127532959">
        <ele>724.54</ele>
        <time>2025-02-10T18:37:22.734Z</time>
      </trkpt>
      <trkpt lat="41.73279047012329" lon="-4.643204212188721">
        <ele>723.54</ele>
        <time>2025-02-10T18:37:29.202Z</time>
      </trkpt>
      <trkpt lat="41.73259735107422" lon="-4.6433329582214355">
        <ele>722.41</ele>
        <time>2025-02-10T18:37:35.674Z</time>
      </trkpt>
      <trkpt lat="41.73259735107422" lon="-4.643418788909912">
        <ele>721.46</ele>
        <time>2025-02-10T18:37:42.147Z</time>
      </trkpt>
      <trkpt lat="41.732661724090576" lon="-4.643504619598389">
        <ele>720.55</ele>
        <time>2025-02-10T18:37:48.622Z</time>
      </trkpt>
      <trkpt lat="41.73274755477905" lon="-4.643504619598389">
        <ele>719.67</ele>
        <time>2025-02-10T18:37:55.099Z</time>
      </trkpt>
      <trkpt lat="41.73283338546753" lon="-4.643590450286865">
        <ele>718.73</ele>
        <time>2025-02-10T18:38:01.578Z</time>
      </trkpt>
      <trkpt lat="41.73285484313965" lon="-4.643676280975342">
        <ele>717.76</ele>
        <time>2025-02-10T18:38:08.058Z</time>
      </trkpt>
      <trkpt lat="41.73283338546753" lon="-4.643805027008057">
        <ele>716.78</ele>
        <time>2025-02-10T18:38:14.540Z</time>
      </trkpt>
      <trkpt lat="41.73264026641846" lon="-4.64397668838501">
        <ele>715.82</ele>
        <time>2025-02-10T18:38:21.027Z</time>
      </trkpt>
      <trkpt lat="41.73266180790961" lon="-4.644105434417725">
        <ele>715.94</ele>
        <time>2025-02-10T18:38:27.516Z</time>
      </trkpt>
      <trkpt lat="41.732468605041504" lon="-4.644169807434082">
        <ele>715.73</ele>
        <time>2025-02-10T18:38:34.009Z</time>
      </trkpt>
      <trkpt lat="41.73238277435303" lon="-4.6440839767456055">
        <ele>713.84</ele>
        <time>2025-02-10T18:38:40.504Z</time>
      </trkpt>
      <trkpt lat="41.73231840133667" lon="-4.6440839767456055">
        <ele>713.32</ele>
        <time>2025-02-10T18:38:47.000Z</time>
      </trkpt>
      <trkpt lat="41.73230918124318" lon="-4.644091185182333">
        <ele>712.86</ele>
        <time>2025-02-10T18:38:53.497Z</time>
      </trkpt>
      <trkpt lat="41.73228554427624" lon="-4.644110044464469">
        <ele>712.45</ele>
        <time>2025-02-10T18:38:59.994Z</time>
      </trkpt>
      <trkpt lat="41.73228453844786" lon="-4.644110882654786">
        <ele>712.12</ele>
        <time>2025-02-10T18:39:06.491Z</time>
      </trkpt>
      <trkpt lat="41.73228210769594" lon="-4.644112894311547">
        <ele>711.86</ele>
        <time>2025-02-10T18:39:12.988Z</time>
      </trkpt>
      <trkpt lat="41.7322598118335" lon="-4.644130831584334">
        <ele>711.65</ele>
        <time>2025-02-10T18:39:19.486Z</time>
      </trkpt>
      <trkpt lat="41.732211112976074" lon="-4.644169807434082">
        <ele>711.5</ele>
        <time>2025-02-10T18:39:25.985Z</time>
      </trkpt>
      <trkpt lat="41.7321252822876" lon="-4.644019603729248">
        <ele>711.52</ele>
        <time>2025-02-10T18:39:32.487Z</time>
      </trkpt>
      <trkpt lat="41.732113379985094" lon="-4.643972245976329">
        <ele>711.58</ele>
        <time>2025-02-10T18:39:38.990Z</time>
      </trkpt>
      <trkpt lat="41.732104662805796" lon="-4.643937377259135">
        <ele>711.7</ele>
        <time>2025-02-10T18:39:45.493Z</time>
      </trkpt>
      <trkpt lat="41.73210432752967" lon="-4.643935868516564">
        <ele>711.87</ele>
        <time>2025-02-10T18:39:51.996Z</time>
      </trkpt>
      <trkpt lat="41.73210382461548" lon="-4.6439337730407715">
        <ele>712.11</ele>
        <time>2025-02-10T18:39:58.499Z</time>
      </trkpt>
      <trkpt lat="41.73210424371064" lon="-4.643932515755296">
        <ele>712.41</ele>
        <time>2025-02-10T18:40:05.002Z</time>
      </trkpt>
      <trkpt lat="41.73211698420346" lon="-4.643902173265815">
        <ele>712.79</ele>
        <time>2025-02-10T18:40:11.506Z</time>
      </trkpt>
      <trkpt lat="41.73221781849861" lon="-4.643660103902221">
        <ele>713.36</ele>
        <time>2025-02-10T18:40:18.014Z</time>
      </trkpt>
      <trkpt lat="41.73230532556772" lon="-4.64344996958971">
        <ele>713.75</ele>
        <time>2025-02-10T18:40:24.525Z</time>
      </trkpt>
      <trkpt lat="41.73231840133667" lon="-4.643418788909912">
        <ele>714.04</ele>
        <time>2025-02-10T18:40:31.037Z</time>
      </trkpt>
      <trkpt lat="41.73231840133667" lon="-4.643417950719595">
        <ele>714.33</ele>
        <time>2025-02-10T18:40:37.549Z</time>
      </trkpt>
      <trkpt lat="41.732318652793765" lon="-4.643416358157992">
        <ele>714.66</ele>
        <time>2025-02-10T18:40:44.061Z</time>
      </trkpt>
      <trkpt lat="41.732319155707955" lon="-4.643412586301565">
        <ele>715.01</ele>
        <time>2025-02-10T18:40:50.573Z</time>
      </trkpt>
      <trkpt lat="41.73232343047857" lon="-4.643378304317594">
        <ele>715.42</ele>
        <time>2025-02-10T18:40:57.086Z</time>
      </trkpt>
      <trkpt lat="41.73232343047857" lon="-4.643378388136625">
        <ele>715.84</ele>
        <time>2025-02-10T18:41:03.599Z</time>
      </trkpt>
      <trkpt lat="41.73233985900879" lon="-4.643247127532959">
        <ele>716.34</ele>
        <time>2025-02-10T18:41:10.114Z</time>
      </trkpt>
      <trkpt lat="41.73229694366455" lon="-4.643096923828125">
        <ele>716.82</ele>
        <time>2025-02-10T18:41:16.631Z</time>
      </trkpt>
      <trkpt lat="41.73219803720713" lon="-4.643012098968029">
        <ele>717.36</ele>
        <time>2025-02-10T18:41:23.150Z</time>
      </trkpt>
      <trkpt lat="41.73217465169728" lon="-4.642992066219449">
        <ele>717.95</ele>
        <time>2025-02-10T18:41:29.670Z</time>
      </trkpt>
      <trkpt lat="41.7321736458689" lon="-4.642991228029132">
        <ele>718.6</ele>
        <time>2025-02-10T18:41:36.190Z</time>
      </trkpt>
      <trkpt lat="41.73217129893601" lon="-4.642989216372371">
        <ele>719.33</ele>
        <time>2025-02-10T18:41:42.710Z</time>
      </trkpt>
      <trkpt lat="41.73214925453067" lon="-4.642970357090235">
        <ele>720.14</ele>
        <time>2025-02-10T18:41:49.231Z</time>
      </trkpt>
      <trkpt lat="41.73214673995972" lon="-4.64296817779541">
        <ele>721.05</ele>
        <time>2025-02-10T18:41:55.752Z</time>
      </trkpt>
      <trkpt lat="41.73203945159912" lon="-4.642817974090576">
        <ele>722.09</ele>
        <time>2025-02-10T18:42:02.276Z</time>
      </trkpt>
      <trkpt lat="41.731975078582764" lon="-4.642624855041504">
        <ele>723.29</ele>
        <time>2025-02-10T18:42:08.803Z</time>
      </trkpt>
      <trkpt lat="41.7319696303457" lon="-4.642555452883244">
        <ele>724.32</ele>
        <time>2025-02-10T18:42:15.331Z</time>
      </trkpt>
      <trkpt lat="41.731966780498624" lon="-4.642518740147352">
        <ele>725.36</ele>
        <time>2025-02-10T18:42:21.859Z</time>
      </trkpt>
      <trkpt lat="41.73196669667959" lon="-4.642517231404781">
        <ele>726.41</ele>
        <time>2025-02-10T18:42:28.387Z</time>
      </trkpt>
      <trkpt lat="41.7319664452225" lon="-4.642513375729322">
        <ele>727.53</ele>
        <time>2025-02-10T18:42:34.916Z</time>
      </trkpt>
      <trkpt lat="41.731963846832514" lon="-4.642478842288256">
        <ele>728.7</ele>
        <time>2025-02-10T18:42:41.445Z</time>
      </trkpt>
      <trkpt lat="41.731953620910645" lon="-4.642345905303955">
        <ele>729.91</ele>
        <time>2025-02-10T18:42:47.976Z</time>
      </trkpt>
      <trkpt lat="41.732017993927" lon="-4.642152786254883">
        <ele>731.0</ele>
        <time>2025-02-10T18:42:54.510Z</time>
      </trkpt>
      <trkpt lat="41.73205018043518" lon="-4.6420880779623985">
        <ele>731.77</ele>
        <time>2025-02-10T18:43:01.045Z</time>
      </trkpt>
    </trkseg>
  </trk>
</gpx>
